<?xml version="1.0" encoding="UTF-8" standalone="no" ?>
<gpx xmlns="http://www.topografix.com/GPX/1/1" xmlns:xsi="http://www.w3.org/2001/XMLSchema-instance" xsi:schemaLocation="http://www.topografix.com/GPX/1/1 http://www.topografix.com/GPX/1/1/gpx.xsd" version="1.1" creator="VisuGPX - https://www.visugpx.com">
  <metadata>
    <name>Chateau Larcher (86)</name>
    <desc><![CDATA[Boucle de 11,5 km au départ de Château Larcher (86)]]></desc>
  </metadata>
  <trk>
    <name><![CDATA[Chateau Larcher (86)_1]]></name>
    <extensions>
      <line xmlns="http://www.topografix.com/GPX/gpx_style/0/2">
        <color>0000FF</color>
        <width>4</width>
      </line>
    </extensions>
    <trkseg>
      <trkpt lat="46.4163" lon="0.31167">
        <ele>98.970237277819</ele>
        <time>2021-05-02T06:45:00Z</time>
      </trkpt>
      <trkpt lat="46.41628" lon="0.31166">
        <ele>98.853316548461</ele>
        <time>2021-05-02T06:45:01Z</time>
      </trkpt>
      <trkpt lat="46.41627" lon="0.31167">
        <ele>98.85277849561</ele>
        <time>2021-05-02T06:45:02Z</time>
      </trkpt>
      <trkpt lat="46.41627" lon="0.31166">
        <ele>98.927233785338</ele>
        <time>2021-05-02T06:45:04Z</time>
      </trkpt>
      <trkpt lat="46.41628" lon="0.31169">
        <ele>99.054706503064</ele>
        <time>2021-05-02T06:45:08Z</time>
      </trkpt>
      <trkpt lat="46.4163" lon="0.31169">
        <ele>99.102510905825</ele>
        <time>2021-05-02T06:45:41Z</time>
      </trkpt>
      <trkpt lat="46.41628" lon="0.31171">
        <ele>99.136770430952</ele>
        <time>2021-05-02T06:46:07Z</time>
      </trkpt>
      <trkpt lat="46.41626" lon="0.31169">
        <ele>99.12613424845</ele>
        <time>2021-05-02T06:46:36Z</time>
      </trkpt>
      <trkpt lat="46.41623" lon="0.31171">
        <ele>99.259940158576</ele>
        <time>2021-05-02T06:47:07Z</time>
      </trkpt>
      <trkpt lat="46.41623" lon="0.31174">
        <ele>99.379180250689</ele>
        <time>2021-05-02T06:47:17Z</time>
      </trkpt>
      <trkpt lat="46.41621" lon="0.31175">
        <ele>99.700106074102</ele>
        <time>2021-05-02T06:47:45Z</time>
      </trkpt>
      <trkpt lat="46.41623" lon="0.31173">
        <ele>99.885844312608</ele>
        <time>2021-05-02T06:48:06Z</time>
      </trkpt>
      <trkpt lat="46.41622" lon="0.31175">
        <ele>99.724834832363</ele>
        <time>2021-05-02T06:48:29Z</time>
      </trkpt>
      <trkpt lat="46.41624" lon="0.31174">
        <ele>99.464226741344</ele>
        <time>2021-05-02T06:48:42Z</time>
      </trkpt>
      <trkpt lat="46.41625" lon="0.31172">
        <ele>99.200392996892</ele>
        <time>2021-05-02T06:49:03Z</time>
      </trkpt>
      <trkpt lat="46.41623" lon="0.31174">
        <ele>99.39466869738</ele>
        <time>2021-05-02T06:49:13Z</time>
      </trkpt>
      <trkpt lat="46.41625" lon="0.31173">
        <ele>99.522808549926</ele>
        <time>2021-05-02T06:49:34Z</time>
      </trkpt>
      <trkpt lat="46.41625" lon="0.31176">
        <ele>99.637734045275</ele>
        <time>2021-05-02T06:50:33Z</time>
      </trkpt>
      <trkpt lat="46.41628" lon="0.31174">
        <ele>99.678345079534</ele>
        <time>2021-05-02T06:51:29Z</time>
      </trkpt>
      <trkpt lat="46.41629" lon="0.31173">
        <ele>99.436933801509</ele>
        <time>2021-05-02T06:52:31Z</time>
      </trkpt>
      <trkpt lat="46.41631" lon="0.31175">
        <ele>98.990846986882</ele>
        <time>2021-05-02T06:52:34Z</time>
      </trkpt>
      <trkpt lat="46.41633" lon="0.31176">
        <ele>98.868714625947</ele>
        <time>2021-05-02T06:52:38Z</time>
      </trkpt>
      <trkpt lat="46.41635" lon="0.31174">
        <ele>98.903310977854</ele>
        <time>2021-05-02T06:53:02Z</time>
      </trkpt>
      <trkpt lat="46.41633" lon="0.31176">
        <ele>99.395952757448</ele>
        <time>2021-05-02T06:53:20Z</time>
      </trkpt>
      <trkpt lat="46.41633" lon="0.31178">
        <ele>99.48811022751</ele>
        <time>2021-05-02T06:53:29Z</time>
      </trkpt>
      <trkpt lat="46.41632" lon="0.31176">
        <ele>99.25822854694</ele>
        <time>2021-05-02T06:54:02Z</time>
      </trkpt>
      <trkpt lat="46.41634" lon="0.31178">
        <ele>99.214036469348</ele>
        <time>2021-05-02T06:54:53Z</time>
      </trkpt>
      <trkpt lat="46.41632" lon="0.3118">
        <ele>99.256843404844</ele>
        <time>2021-05-02T06:55:37Z</time>
      </trkpt>
      <trkpt lat="46.41634" lon="0.31179">
        <ele>99.226791774854</ele>
        <time>2021-05-02T06:56:12Z</time>
      </trkpt>
      <trkpt lat="46.41636" lon="0.31177">
        <ele>99.214880422689</ele>
        <time>2021-05-02T06:56:40Z</time>
      </trkpt>
      <trkpt lat="46.41634" lon="0.31177">
        <ele>98.974290071987</ele>
        <time>2021-05-02T06:56:58Z</time>
      </trkpt>
      <trkpt lat="46.41632" lon="0.31178">
        <ele>99.458127915859</ele>
        <time>2021-05-02T06:57:25Z</time>
      </trkpt>
      <trkpt lat="46.41632" lon="0.31181">
        <ele>99.65500594303</ele>
        <time>2021-05-02T06:57:55Z</time>
      </trkpt>
      <trkpt lat="46.41634" lon="0.31183">
        <ele>99.594491814263</ele>
        <time>2021-05-02T06:58:06Z</time>
      </trkpt>
      <trkpt lat="46.41635" lon="0.31185">
        <ele>99.817424398847</ele>
        <time>2021-05-02T06:58:10Z</time>
      </trkpt>
      <trkpt lat="46.41637" lon="0.31187">
        <ele>99.772475250065</ele>
        <time>2021-05-02T06:58:13Z</time>
      </trkpt>
      <trkpt lat="46.41637" lon="0.3119">
        <ele>99.828478148207</ele>
        <time>2021-05-02T06:58:15Z</time>
      </trkpt>
      <trkpt lat="46.41637" lon="0.31193">
        <ele>99.993353764527</ele>
        <time>2021-05-02T06:58:18Z</time>
      </trkpt>
      <trkpt lat="46.41636" lon="0.31196">
        <ele>100.53915894777</ele>
        <time>2021-05-02T06:58:21Z</time>
      </trkpt>
      <trkpt lat="46.41635" lon="0.31199">
        <ele>100.94415054563</ele>
        <time>2021-05-02T06:58:26Z</time>
      </trkpt>
      <trkpt lat="46.41633" lon="0.312">
        <ele>100.90884458367</ele>
        <time>2021-05-02T06:58:30Z</time>
      </trkpt>
      <trkpt lat="46.4163" lon="0.312">
        <ele>100.82847658079</ele>
        <time>2021-05-02T06:58:32Z</time>
      </trkpt>
      <trkpt lat="46.41628" lon="0.312">
        <ele>100.87302347552</ele>
        <time>2021-05-02T06:58:34Z</time>
      </trkpt>
      <trkpt lat="46.41626" lon="0.31201">
        <ele>101.00802680943</ele>
        <time>2021-05-02T06:58:37Z</time>
      </trkpt>
      <trkpt lat="46.41624" lon="0.31201">
        <ele>100.98618922662</ele>
        <time>2021-05-02T06:58:39Z</time>
      </trkpt>
      <trkpt lat="46.41622" lon="0.31201">
        <ele>100.89461995382</ele>
        <time>2021-05-02T06:58:41Z</time>
      </trkpt>
      <trkpt lat="46.41619" lon="0.31201">
        <ele>100.94756699912</ele>
        <time>2021-05-02T06:58:43Z</time>
      </trkpt>
      <trkpt lat="46.41617" lon="0.31201">
        <ele>101.35170523077</ele>
        <time>2021-05-02T06:58:45Z</time>
      </trkpt>
      <trkpt lat="46.41615" lon="0.31201">
        <ele>101.24830949679</ele>
        <time>2021-05-02T06:58:49Z</time>
      </trkpt>
      <trkpt lat="46.41614" lon="0.31203">
        <ele>101.29178412538</ele>
        <time>2021-05-02T06:58:56Z</time>
      </trkpt>
      <trkpt lat="46.41614" lon="0.31206">
        <ele>101.20641344972</ele>
        <time>2021-05-02T06:59:00Z</time>
      </trkpt>
      <trkpt lat="46.41611" lon="0.31208">
        <ele>101.32546806335</ele>
        <time>2021-05-02T06:59:03Z</time>
      </trkpt>
      <trkpt lat="46.4161" lon="0.3121">
        <ele>101.5068517942</ele>
        <time>2021-05-02T06:59:05Z</time>
      </trkpt>
      <trkpt lat="46.41611" lon="0.31212">
        <ele>101.64632775262</ele>
        <time>2021-05-02T06:59:08Z</time>
      </trkpt>
      <trkpt lat="46.41613" lon="0.31211">
        <ele>101.63020957913</ele>
        <time>2021-05-02T06:59:11Z</time>
      </trkpt>
      <trkpt lat="46.41614" lon="0.31209">
        <ele>101.35032757372</ele>
        <time>2021-05-02T06:59:14Z</time>
      </trkpt>
      <trkpt lat="46.41611" lon="0.31213">
        <ele>101.46870822925</ele>
        <time>2021-05-02T06:59:23Z</time>
      </trkpt>
      <trkpt lat="46.41614" lon="0.31214">
        <ele>101.77733525168</ele>
        <time>2021-05-02T06:59:25Z</time>
      </trkpt>
      <trkpt lat="46.41616" lon="0.31214">
        <ele>101.44641311467</ele>
        <time>2021-05-02T06:59:27Z</time>
      </trkpt>
      <trkpt lat="46.41618" lon="0.31212">
        <ele>101.71911036782</ele>
        <time>2021-05-02T06:59:32Z</time>
      </trkpt>
      <trkpt lat="46.41615" lon="0.31212">
        <ele>101.81337918621</ele>
        <time>2021-05-02T06:59:39Z</time>
      </trkpt>
      <trkpt lat="46.41614" lon="0.31209">
        <ele>101.82844490558</ele>
        <time>2021-05-02T06:59:44Z</time>
      </trkpt>
      <trkpt lat="46.41612" lon="0.31207">
        <ele>101.6662823623</ele>
        <time>2021-05-02T06:59:46Z</time>
      </trkpt>
      <trkpt lat="46.4161" lon="0.31205">
        <ele>101.70539476722</ele>
        <time>2021-05-02T06:59:49Z</time>
      </trkpt>
      <trkpt lat="46.41607" lon="0.31205">
        <ele>101.75190089084</ele>
        <time>2021-05-02T06:59:52Z</time>
      </trkpt>
      <trkpt lat="46.41605" lon="0.31206">
        <ele>101.89448186476</ele>
        <time>2021-05-02T06:59:54Z</time>
      </trkpt>
      <trkpt lat="46.41603" lon="0.31206">
        <ele>101.96862004325</ele>
        <time>2021-05-02T06:59:57Z</time>
      </trkpt>
      <trkpt lat="46.41601" lon="0.31206">
        <ele>101.94531724788</ele>
        <time>2021-05-02T06:59:58Z</time>
      </trkpt>
      <trkpt lat="46.41598" lon="0.31206">
        <ele>102.19043277949</ele>
        <time>2021-05-02T07:00:00Z</time>
      </trkpt>
      <trkpt lat="46.41596" lon="0.31207">
        <ele>102.23670710064</ele>
        <time>2021-05-02T07:00:02Z</time>
      </trkpt>
      <trkpt lat="46.41594" lon="0.31208">
        <ele>101.6932924483</ele>
        <time>2021-05-02T07:00:04Z</time>
      </trkpt>
      <trkpt lat="46.41592" lon="0.31208">
        <ele>102.23270069528</ele>
        <time>2021-05-02T07:00:06Z</time>
      </trkpt>
      <trkpt lat="46.41589" lon="0.31209">
        <ele>102.67260871083</ele>
        <time>2021-05-02T07:00:09Z</time>
      </trkpt>
      <trkpt lat="46.41587" lon="0.31209">
        <ele>102.08067097049</ele>
        <time>2021-05-02T07:00:11Z</time>
      </trkpt>
      <trkpt lat="46.41585" lon="0.3121">
        <ele>102.34058831446</ele>
        <time>2021-05-02T07:00:13Z</time>
      </trkpt>
      <trkpt lat="46.41583" lon="0.31211">
        <ele>102.11821969319</ele>
        <time>2021-05-02T07:00:15Z</time>
      </trkpt>
      <trkpt lat="46.4158" lon="0.31211">
        <ele>102.41033449117</ele>
        <time>2021-05-02T07:00:17Z</time>
      </trkpt>
      <trkpt lat="46.41578" lon="0.3121">
        <ele>102.25711554196</ele>
        <time>2021-05-02T07:00:20Z</time>
      </trkpt>
      <trkpt lat="46.41576" lon="0.3121">
        <ele>102.02706613112</ele>
        <time>2021-05-02T07:00:23Z</time>
      </trkpt>
      <trkpt lat="46.41574" lon="0.3121">
        <ele>101.65190762375</ele>
        <time>2021-05-02T07:00:25Z</time>
      </trkpt>
      <trkpt lat="46.41572" lon="0.3121">
        <ele>101.99337017909</ele>
        <time>2021-05-02T07:00:26Z</time>
      </trkpt>
      <trkpt lat="46.41569" lon="0.31209">
        <ele>101.53541941941</ele>
        <time>2021-05-02T07:00:28Z</time>
      </trkpt>
      <trkpt lat="46.41568" lon="0.31207">
        <ele>101.66453282163</ele>
        <time>2021-05-02T07:00:29Z</time>
      </trkpt>
      <trkpt lat="46.41566" lon="0.31206">
        <ele>101.46619523503</ele>
        <time>2021-05-02T07:00:31Z</time>
      </trkpt>
      <trkpt lat="46.41563" lon="0.31205">
        <ele>101.54995870125</ele>
        <time>2021-05-02T07:00:33Z</time>
      </trkpt>
      <trkpt lat="46.41561" lon="0.31204">
        <ele>101.39603143092</ele>
        <time>2021-05-02T07:00:35Z</time>
      </trkpt>
      <trkpt lat="46.41559" lon="0.31204">
        <ele>101.03525472246</ele>
        <time>2021-05-02T07:00:37Z</time>
      </trkpt>
      <trkpt lat="46.41557" lon="0.31203">
        <ele>100.83040662948</ele>
        <time>2021-05-02T07:00:39Z</time>
      </trkpt>
      <trkpt lat="46.41555" lon="0.31203">
        <ele>100.74904518761</ele>
        <time>2021-05-02T07:00:41Z</time>
      </trkpt>
      <trkpt lat="46.41552" lon="0.31201">
        <ele>100.5695719244</ele>
        <time>2021-05-02T07:00:44Z</time>
      </trkpt>
      <trkpt lat="46.4155" lon="0.31199">
        <ele>100.6417273134</ele>
        <time>2021-05-02T07:00:46Z</time>
      </trkpt>
      <trkpt lat="46.41547" lon="0.31197">
        <ele>100.62181596085</ele>
        <time>2021-05-02T07:00:48Z</time>
      </trkpt>
      <trkpt lat="46.41544" lon="0.31196">
        <ele>100.34024372604</ele>
        <time>2021-05-02T07:00:50Z</time>
      </trkpt>
      <trkpt lat="46.41543" lon="0.31193">
        <ele>99.968705820851</ele>
        <time>2021-05-02T07:00:52Z</time>
      </trkpt>
      <trkpt lat="46.41541" lon="0.3119">
        <ele>99.94198891148</ele>
        <time>2021-05-02T07:00:54Z</time>
      </trkpt>
      <trkpt lat="46.41539" lon="0.31189">
        <ele>99.347146141343</ele>
        <time>2021-05-02T07:00:56Z</time>
      </trkpt>
      <trkpt lat="46.41536" lon="0.31188">
        <ele>99.95058226306</ele>
        <time>2021-05-02T07:00:58Z</time>
      </trkpt>
      <trkpt lat="46.41534" lon="0.31185">
        <ele>99.883285462856</ele>
        <time>2021-05-02T07:01:00Z</time>
      </trkpt>
      <trkpt lat="46.41533" lon="0.31184">
        <ele>99.909439479001</ele>
        <time>2021-05-02T07:01:01Z</time>
      </trkpt>
      <trkpt lat="46.4153" lon="0.31183">
        <ele>99.361553726718</ele>
        <time>2021-05-02T07:01:03Z</time>
      </trkpt>
      <trkpt lat="46.41527" lon="0.31182">
        <ele>99.64556261152</ele>
        <time>2021-05-02T07:01:06Z</time>
      </trkpt>
      <trkpt lat="46.41524" lon="0.31181">
        <ele>99.299137366004</ele>
        <time>2021-05-02T07:01:08Z</time>
      </trkpt>
      <trkpt lat="46.41522" lon="0.31179">
        <ele>98.957309010439</ele>
        <time>2021-05-02T07:01:10Z</time>
      </trkpt>
      <trkpt lat="46.4152" lon="0.31178">
        <ele>99.152823185548</ele>
        <time>2021-05-02T07:01:12Z</time>
      </trkpt>
      <trkpt lat="46.41517" lon="0.31178">
        <ele>98.544759220444</ele>
        <time>2021-05-02T07:01:14Z</time>
      </trkpt>
      <trkpt lat="46.41515" lon="0.31177">
        <ele>98.234465587884</ele>
        <time>2021-05-02T07:01:16Z</time>
      </trkpt>
      <trkpt lat="46.41512" lon="0.31176">
        <ele>98.76594784297</ele>
        <time>2021-05-02T07:01:18Z</time>
      </trkpt>
      <trkpt lat="46.41511" lon="0.31176">
        <ele>98.627769925632</ele>
        <time>2021-05-02T07:01:20Z</time>
      </trkpt>
      <trkpt lat="46.41508" lon="0.31175">
        <ele>97.948676741682</ele>
        <time>2021-05-02T07:01:22Z</time>
      </trkpt>
      <trkpt lat="46.41505" lon="0.31174">
        <ele>97.900694575161</ele>
        <time>2021-05-02T07:01:24Z</time>
      </trkpt>
      <trkpt lat="46.41503" lon="0.31173">
        <ele>97.785149352625</ele>
        <time>2021-05-02T07:01:26Z</time>
      </trkpt>
      <trkpt lat="46.41501" lon="0.31173">
        <ele>97.392336810939</ele>
        <time>2021-05-02T07:01:28Z</time>
      </trkpt>
      <trkpt lat="46.41498" lon="0.31173">
        <ele>97.50512896385</ele>
        <time>2021-05-02T07:01:30Z</time>
      </trkpt>
      <trkpt lat="46.41496" lon="0.31173">
        <ele>97.479060526006</ele>
        <time>2021-05-02T07:01:31Z</time>
      </trkpt>
      <trkpt lat="46.41494" lon="0.31172">
        <ele>97.36579357367</ele>
        <time>2021-05-02T07:01:33Z</time>
      </trkpt>
      <trkpt lat="46.4149" lon="0.31172">
        <ele>97.74262470752</ele>
        <time>2021-05-02T07:01:35Z</time>
      </trkpt>
      <trkpt lat="46.41488" lon="0.31172">
        <ele>97.470688125119</ele>
        <time>2021-05-02T07:01:37Z</time>
      </trkpt>
      <trkpt lat="46.41485" lon="0.31171">
        <ele>97.091780963354</ele>
        <time>2021-05-02T07:01:39Z</time>
      </trkpt>
      <trkpt lat="46.41482" lon="0.31171">
        <ele>97.311916094273</ele>
        <time>2021-05-02T07:01:41Z</time>
      </trkpt>
      <trkpt lat="46.41479" lon="0.31169">
        <ele>96.548561145552</ele>
        <time>2021-05-02T07:01:43Z</time>
      </trkpt>
      <trkpt lat="46.41477" lon="0.31169">
        <ele>96.622789375484</ele>
        <time>2021-05-02T07:01:45Z</time>
      </trkpt>
      <trkpt lat="46.41475" lon="0.31171">
        <ele>96.624537102878</ele>
        <time>2021-05-02T07:01:47Z</time>
      </trkpt>
      <trkpt lat="46.41472" lon="0.31173">
        <ele>96.663503053598</ele>
        <time>2021-05-02T07:01:49Z</time>
      </trkpt>
      <trkpt lat="46.41469" lon="0.31174">
        <ele>96.177219297737</ele>
        <time>2021-05-02T07:01:51Z</time>
      </trkpt>
      <trkpt lat="46.41467" lon="0.31176">
        <ele>96.19017089624</ele>
        <time>2021-05-02T07:01:53Z</time>
      </trkpt>
      <trkpt lat="46.41464" lon="0.31178">
        <ele>95.901152198203</ele>
        <time>2021-05-02T07:01:55Z</time>
      </trkpt>
      <trkpt lat="46.41461" lon="0.31179">
        <ele>96.401550550945</ele>
        <time>2021-05-02T07:01:57Z</time>
      </trkpt>
      <trkpt lat="46.41459" lon="0.3118">
        <ele>96.169971206225</ele>
        <time>2021-05-02T07:01:59Z</time>
      </trkpt>
      <trkpt lat="46.41456" lon="0.31181">
        <ele>96.361641622148</ele>
        <time>2021-05-02T07:02:01Z</time>
      </trkpt>
      <trkpt lat="46.41454" lon="0.31183">
        <ele>96.215576088056</ele>
        <time>2021-05-02T07:02:03Z</time>
      </trkpt>
      <trkpt lat="46.41452" lon="0.31185">
        <ele>96.109052641317</ele>
        <time>2021-05-02T07:02:05Z</time>
      </trkpt>
      <trkpt lat="46.41449" lon="0.31187">
        <ele>96.128824822605</ele>
        <time>2021-05-02T07:02:07Z</time>
      </trkpt>
      <trkpt lat="46.41447" lon="0.31188">
        <ele>96.298650260083</ele>
        <time>2021-05-02T07:02:09Z</time>
      </trkpt>
      <trkpt lat="46.41445" lon="0.3119">
        <ele>96.124554571696</ele>
        <time>2021-05-02T07:02:11Z</time>
      </trkpt>
      <trkpt lat="46.41443" lon="0.31192">
        <ele>95.888728994876</ele>
        <time>2021-05-02T07:02:13Z</time>
      </trkpt>
      <trkpt lat="46.4144" lon="0.31194">
        <ele>96.057168795727</ele>
        <time>2021-05-02T07:02:15Z</time>
      </trkpt>
      <trkpt lat="46.41437" lon="0.31195">
        <ele>96.025082897395</ele>
        <time>2021-05-02T07:02:17Z</time>
      </trkpt>
      <trkpt lat="46.41435" lon="0.31196">
        <ele>96.115825534798</ele>
        <time>2021-05-02T07:02:19Z</time>
      </trkpt>
      <trkpt lat="46.41432" lon="0.31197">
        <ele>95.45718314033</ele>
        <time>2021-05-02T07:02:21Z</time>
      </trkpt>
      <trkpt lat="46.4143" lon="0.31198">
        <ele>95.411685653031</ele>
        <time>2021-05-02T07:02:23Z</time>
      </trkpt>
      <trkpt lat="46.41428" lon="0.312">
        <ele>95.514649431221</ele>
        <time>2021-05-02T07:02:25Z</time>
      </trkpt>
      <trkpt lat="46.41426" lon="0.31201">
        <ele>95.325157255866</ele>
        <time>2021-05-02T07:02:26Z</time>
      </trkpt>
      <trkpt lat="46.41424" lon="0.31202">
        <ele>95.596759968437</ele>
        <time>2021-05-02T07:02:27Z</time>
      </trkpt>
      <trkpt lat="46.41421" lon="0.31204">
        <ele>94.966669106856</ele>
        <time>2021-05-02T07:02:29Z</time>
      </trkpt>
      <trkpt lat="46.41419" lon="0.31205">
        <ele>95.246668892913</ele>
        <time>2021-05-02T07:02:31Z</time>
      </trkpt>
      <trkpt lat="46.41418" lon="0.31207">
        <ele>95.073454405181</ele>
        <time>2021-05-02T07:02:32Z</time>
      </trkpt>
      <trkpt lat="46.41416" lon="0.31208">
        <ele>95.072943393141</ele>
        <time>2021-05-02T07:02:33Z</time>
      </trkpt>
      <trkpt lat="46.41414" lon="0.3121">
        <ele>94.780153639615</ele>
        <time>2021-05-02T07:02:35Z</time>
      </trkpt>
      <trkpt lat="46.41412" lon="0.31212">
        <ele>94.936129251495</ele>
        <time>2021-05-02T07:02:37Z</time>
      </trkpt>
      <trkpt lat="46.4141" lon="0.31214">
        <ele>94.80785822589</ele>
        <time>2021-05-02T07:02:39Z</time>
      </trkpt>
      <trkpt lat="46.41408" lon="0.31215">
        <ele>94.546502283774</ele>
        <time>2021-05-02T07:02:41Z</time>
      </trkpt>
      <trkpt lat="46.41405" lon="0.31217">
        <ele>94.629596771672</ele>
        <time>2021-05-02T07:02:43Z</time>
      </trkpt>
      <trkpt lat="46.41403" lon="0.31219">
        <ele>94.793923641555</ele>
        <time>2021-05-02T07:02:45Z</time>
      </trkpt>
      <trkpt lat="46.414" lon="0.3122">
        <ele>94.489892280661</ele>
        <time>2021-05-02T07:02:47Z</time>
      </trkpt>
      <trkpt lat="46.41398" lon="0.31222">
        <ele>94.616154851392</ele>
        <time>2021-05-02T07:02:49Z</time>
      </trkpt>
      <trkpt lat="46.41395" lon="0.31223">
        <ele>94.808817660436</ele>
        <time>2021-05-02T07:02:51Z</time>
      </trkpt>
      <trkpt lat="46.41393" lon="0.31225">
        <ele>94.885298888199</ele>
        <time>2021-05-02T07:02:53Z</time>
      </trkpt>
      <trkpt lat="46.41389" lon="0.31226">
        <ele>95.147868603468</ele>
        <time>2021-05-02T07:02:55Z</time>
      </trkpt>
      <trkpt lat="46.41388" lon="0.31228">
        <ele>95.081472171471</ele>
        <time>2021-05-02T07:02:57Z</time>
      </trkpt>
      <trkpt lat="46.41385" lon="0.31229">
        <ele>95.043387176469</ele>
        <time>2021-05-02T07:02:59Z</time>
      </trkpt>
      <trkpt lat="46.41383" lon="0.3123">
        <ele>95.168348147534</ele>
        <time>2021-05-02T07:03:00Z</time>
      </trkpt>
      <trkpt lat="46.4138" lon="0.31232">
        <ele>94.724246078171</ele>
        <time>2021-05-02T07:03:02Z</time>
      </trkpt>
      <trkpt lat="46.41379" lon="0.31234">
        <ele>95.186205503531</ele>
        <time>2021-05-02T07:03:04Z</time>
      </trkpt>
      <trkpt lat="46.41376" lon="0.31236">
        <ele>95.148202671669</ele>
        <time>2021-05-02T07:03:06Z</time>
      </trkpt>
      <trkpt lat="46.41374" lon="0.31238">
        <ele>95.044427335262</ele>
        <time>2021-05-02T07:03:08Z</time>
      </trkpt>
      <trkpt lat="46.41372" lon="0.3124">
        <ele>94.960369881243</ele>
        <time>2021-05-02T07:03:09Z</time>
      </trkpt>
      <trkpt lat="46.41369" lon="0.31241">
        <ele>94.976129999384</ele>
        <time>2021-05-02T07:03:11Z</time>
      </trkpt>
      <trkpt lat="46.41368" lon="0.31243">
        <ele>94.692468553782</ele>
        <time>2021-05-02T07:03:13Z</time>
      </trkpt>
      <trkpt lat="46.41365" lon="0.31245">
        <ele>94.812120821327</ele>
        <time>2021-05-02T07:03:15Z</time>
      </trkpt>
      <trkpt lat="46.41363" lon="0.31246">
        <ele>94.954537422396</ele>
        <time>2021-05-02T07:03:17Z</time>
      </trkpt>
      <trkpt lat="46.41361" lon="0.31248">
        <ele>95.036277559586</ele>
        <time>2021-05-02T07:03:19Z</time>
      </trkpt>
      <trkpt lat="46.41359" lon="0.31249">
        <ele>95.15654845722</ele>
        <time>2021-05-02T07:03:21Z</time>
      </trkpt>
      <trkpt lat="46.41357" lon="0.31251">
        <ele>95.035038542002</ele>
        <time>2021-05-02T07:03:23Z</time>
      </trkpt>
      <trkpt lat="46.41355" lon="0.31253">
        <ele>95.173641745932</ele>
        <time>2021-05-02T07:03:25Z</time>
      </trkpt>
      <trkpt lat="46.41353" lon="0.31254">
        <ele>95.030257984996</ele>
        <time>2021-05-02T07:03:27Z</time>
      </trkpt>
      <trkpt lat="46.41351" lon="0.31256">
        <ele>95.333234036341</ele>
        <time>2021-05-02T07:03:29Z</time>
      </trkpt>
      <trkpt lat="46.41349" lon="0.31258">
        <ele>95.263157042675</ele>
        <time>2021-05-02T07:03:31Z</time>
      </trkpt>
      <trkpt lat="46.41346" lon="0.3126">
        <ele>94.540600582957</ele>
        <time>2021-05-02T07:03:33Z</time>
      </trkpt>
      <trkpt lat="46.41344" lon="0.31261">
        <ele>94.9386996869</ele>
        <time>2021-05-02T07:03:34Z</time>
      </trkpt>
      <trkpt lat="46.41342" lon="0.31263">
        <ele>95.052789578214</ele>
        <time>2021-05-02T07:03:35Z</time>
      </trkpt>
      <trkpt lat="46.4134" lon="0.31265">
        <ele>95.096885746345</ele>
        <time>2021-05-02T07:03:37Z</time>
      </trkpt>
      <trkpt lat="46.41338" lon="0.31267">
        <ele>95.283674381673</ele>
        <time>2021-05-02T07:03:38Z</time>
      </trkpt>
      <trkpt lat="46.41335" lon="0.31269">
        <ele>95.427520673722</ele>
        <time>2021-05-02T07:03:40Z</time>
      </trkpt>
      <trkpt lat="46.41333" lon="0.31271">
        <ele>95.135860956274</ele>
        <time>2021-05-02T07:03:42Z</time>
      </trkpt>
      <trkpt lat="46.41331" lon="0.31273">
        <ele>95.188746551983</ele>
        <time>2021-05-02T07:03:44Z</time>
      </trkpt>
      <trkpt lat="46.41329" lon="0.31275">
        <ele>95.248921161518</ele>
        <time>2021-05-02T07:03:46Z</time>
      </trkpt>
      <trkpt lat="46.41326" lon="0.31277">
        <ele>95.172106184065</ele>
        <time>2021-05-02T07:03:48Z</time>
      </trkpt>
      <trkpt lat="46.41323" lon="0.3128">
        <ele>94.879382980987</ele>
        <time>2021-05-02T07:03:50Z</time>
      </trkpt>
      <trkpt lat="46.41321" lon="0.31282">
        <ele>94.724801259115</ele>
        <time>2021-05-02T07:03:52Z</time>
      </trkpt>
      <trkpt lat="46.41318" lon="0.31284">
        <ele>94.683855755255</ele>
        <time>2021-05-02T07:03:54Z</time>
      </trkpt>
      <trkpt lat="46.41316" lon="0.31285">
        <ele>94.935734471306</ele>
        <time>2021-05-02T07:03:56Z</time>
      </trkpt>
      <trkpt lat="46.41313" lon="0.31288">
        <ele>94.81270576641</ele>
        <time>2021-05-02T07:03:58Z</time>
      </trkpt>
      <trkpt lat="46.4131" lon="0.31289">
        <ele>94.955145715736</ele>
        <time>2021-05-02T07:04:00Z</time>
      </trkpt>
      <trkpt lat="46.41308" lon="0.3129">
        <ele>94.559990508482</ele>
        <time>2021-05-02T07:04:02Z</time>
      </trkpt>
      <trkpt lat="46.41306" lon="0.31293">
        <ele>94.885617788881</ele>
        <time>2021-05-02T07:04:04Z</time>
      </trkpt>
      <trkpt lat="46.41305" lon="0.31295">
        <ele>94.623537844047</ele>
        <time>2021-05-02T07:04:05Z</time>
      </trkpt>
      <trkpt lat="46.41302" lon="0.31297">
        <ele>94.980618986301</ele>
        <time>2021-05-02T07:04:07Z</time>
      </trkpt>
      <trkpt lat="46.41299" lon="0.31299">
        <ele>95.281192434952</ele>
        <time>2021-05-02T07:04:09Z</time>
      </trkpt>
      <trkpt lat="46.41297" lon="0.313">
        <ele>95.250088006258</ele>
        <time>2021-05-02T07:04:11Z</time>
      </trkpt>
      <trkpt lat="46.41295" lon="0.31302">
        <ele>95.251352934167</ele>
        <time>2021-05-02T07:04:13Z</time>
      </trkpt>
      <trkpt lat="46.41292" lon="0.31304">
        <ele>95.529286935925</ele>
        <time>2021-05-02T07:04:15Z</time>
      </trkpt>
      <trkpt lat="46.4129" lon="0.31305">
        <ele>95.383142061532</ele>
        <time>2021-05-02T07:04:17Z</time>
      </trkpt>
      <trkpt lat="46.41288" lon="0.31307">
        <ele>95.493760238402</ele>
        <time>2021-05-02T07:04:19Z</time>
      </trkpt>
      <trkpt lat="46.41285" lon="0.31308">
        <ele>95.92362626642</ele>
        <time>2021-05-02T07:04:21Z</time>
      </trkpt>
      <trkpt lat="46.41282" lon="0.31309">
        <ele>95.915328645147</ele>
        <time>2021-05-02T07:04:23Z</time>
      </trkpt>
      <trkpt lat="46.4128" lon="0.3131">
        <ele>95.534644733183</ele>
        <time>2021-05-02T07:04:25Z</time>
      </trkpt>
      <trkpt lat="46.41278" lon="0.31312">
        <ele>96.132433018647</ele>
        <time>2021-05-02T07:04:27Z</time>
      </trkpt>
      <trkpt lat="46.41276" lon="0.31314">
        <ele>95.956505268812</ele>
        <time>2021-05-02T07:04:29Z</time>
      </trkpt>
      <trkpt lat="46.41273" lon="0.31316">
        <ele>96.27656992618</ele>
        <time>2021-05-02T07:04:31Z</time>
      </trkpt>
      <trkpt lat="46.41271" lon="0.31318">
        <ele>95.865768165328</ele>
        <time>2021-05-02T07:04:33Z</time>
      </trkpt>
      <trkpt lat="46.41269" lon="0.31319">
        <ele>96.149035664275</ele>
        <time>2021-05-02T07:04:35Z</time>
      </trkpt>
      <trkpt lat="46.41266" lon="0.31321">
        <ele>96.055168860592</ele>
        <time>2021-05-02T07:04:37Z</time>
      </trkpt>
      <trkpt lat="46.41263" lon="0.31324">
        <ele>96.359554929659</ele>
        <time>2021-05-02T07:04:40Z</time>
      </trkpt>
      <trkpt lat="46.41261" lon="0.31325">
        <ele>95.973298798315</ele>
        <time>2021-05-02T07:04:42Z</time>
      </trkpt>
      <trkpt lat="46.41259" lon="0.31326">
        <ele>96.209173629992</ele>
        <time>2021-05-02T07:04:44Z</time>
      </trkpt>
      <trkpt lat="46.41257" lon="0.31327">
        <ele>95.921397193335</ele>
        <time>2021-05-02T07:04:46Z</time>
      </trkpt>
      <trkpt lat="46.41255" lon="0.31328">
        <ele>95.994375301525</ele>
        <time>2021-05-02T07:04:47Z</time>
      </trkpt>
      <trkpt lat="46.41252" lon="0.31328">
        <ele>96.119227983057</ele>
        <time>2021-05-02T07:04:49Z</time>
      </trkpt>
      <trkpt lat="46.41248" lon="0.31329">
        <ele>96.054436204955</ele>
        <time>2021-05-02T07:04:51Z</time>
      </trkpt>
      <trkpt lat="46.41245" lon="0.3133">
        <ele>96.227603453211</ele>
        <time>2021-05-02T07:04:53Z</time>
      </trkpt>
      <trkpt lat="46.41243" lon="0.31331">
        <ele>96.196371925995</ele>
        <time>2021-05-02T07:04:55Z</time>
      </trkpt>
      <trkpt lat="46.4124" lon="0.31332">
        <ele>96.29277829919</ele>
        <time>2021-05-02T07:04:57Z</time>
      </trkpt>
      <trkpt lat="46.41237" lon="0.31332">
        <ele>96.340562378988</ele>
        <time>2021-05-02T07:04:59Z</time>
      </trkpt>
      <trkpt lat="46.41235" lon="0.31333">
        <ele>96.261839391664</ele>
        <time>2021-05-02T07:05:01Z</time>
      </trkpt>
      <trkpt lat="46.41232" lon="0.31333">
        <ele>96.520971242338</ele>
        <time>2021-05-02T07:05:03Z</time>
      </trkpt>
      <trkpt lat="46.4123" lon="0.31334">
        <ele>96.666051688604</ele>
        <time>2021-05-02T07:05:05Z</time>
      </trkpt>
      <trkpt lat="46.41227" lon="0.31334">
        <ele>96.800485505722</ele>
        <time>2021-05-02T07:05:07Z</time>
      </trkpt>
      <trkpt lat="46.41225" lon="0.31334">
        <ele>96.745201928541</ele>
        <time>2021-05-02T07:05:09Z</time>
      </trkpt>
      <trkpt lat="46.41222" lon="0.31333">
        <ele>96.874143487774</ele>
        <time>2021-05-02T07:05:11Z</time>
      </trkpt>
      <trkpt lat="46.4122" lon="0.31331">
        <ele>96.92453731969</ele>
        <time>2021-05-02T07:05:13Z</time>
      </trkpt>
      <trkpt lat="46.41217" lon="0.3133">
        <ele>96.725335219875</ele>
        <time>2021-05-02T07:05:15Z</time>
      </trkpt>
      <trkpt lat="46.41215" lon="0.31327">
        <ele>97.210473402403</ele>
        <time>2021-05-02T07:05:17Z</time>
      </trkpt>
      <trkpt lat="46.41213" lon="0.31325">
        <ele>96.810196451843</ele>
        <time>2021-05-02T07:05:19Z</time>
      </trkpt>
      <trkpt lat="46.41211" lon="0.31323">
        <ele>96.753448696807</ele>
        <time>2021-05-02T07:05:21Z</time>
      </trkpt>
      <trkpt lat="46.4121" lon="0.31321">
        <ele>96.712128653191</ele>
        <time>2021-05-02T07:05:23Z</time>
      </trkpt>
      <trkpt lat="46.41208" lon="0.31319">
        <ele>97.025077017955</ele>
        <time>2021-05-02T07:05:25Z</time>
      </trkpt>
      <trkpt lat="46.41207" lon="0.31316">
        <ele>97.074123241939</ele>
        <time>2021-05-02T07:05:26Z</time>
      </trkpt>
      <trkpt lat="46.41206" lon="0.31313">
        <ele>96.981931152754</ele>
        <time>2021-05-02T07:05:28Z</time>
      </trkpt>
      <trkpt lat="46.41204" lon="0.31311">
        <ele>97.023620778695</ele>
        <time>2021-05-02T07:05:30Z</time>
      </trkpt>
      <trkpt lat="46.41202" lon="0.31309">
        <ele>97.01776657626</ele>
        <time>2021-05-02T07:05:32Z</time>
      </trkpt>
      <trkpt lat="46.41201" lon="0.31306">
        <ele>96.92933489196</ele>
        <time>2021-05-02T07:05:34Z</time>
      </trkpt>
      <trkpt lat="46.41199" lon="0.31303">
        <ele>96.625640081242</ele>
        <time>2021-05-02T07:05:36Z</time>
      </trkpt>
      <trkpt lat="46.41198" lon="0.31301">
        <ele>96.791130853817</ele>
        <time>2021-05-02T07:05:38Z</time>
      </trkpt>
      <trkpt lat="46.41196" lon="0.31298">
        <ele>96.857759295031</ele>
        <time>2021-05-02T07:05:40Z</time>
      </trkpt>
      <trkpt lat="46.41195" lon="0.31294">
        <ele>96.557626966387</ele>
        <time>2021-05-02T07:05:42Z</time>
      </trkpt>
      <trkpt lat="46.41193" lon="0.31291">
        <ele>96.458147359081</ele>
        <time>2021-05-02T07:05:44Z</time>
      </trkpt>
      <trkpt lat="46.41191" lon="0.31288">
        <ele>96.410563438199</ele>
        <time>2021-05-02T07:05:46Z</time>
      </trkpt>
      <trkpt lat="46.41189" lon="0.31284">
        <ele>96.419604605064</ele>
        <time>2021-05-02T07:05:48Z</time>
      </trkpt>
      <trkpt lat="46.41188" lon="0.31281">
        <ele>96.763302898034</ele>
        <time>2021-05-02T07:05:50Z</time>
      </trkpt>
      <trkpt lat="46.41187" lon="0.31278">
        <ele>96.467055488378</ele>
        <time>2021-05-02T07:05:52Z</time>
      </trkpt>
      <trkpt lat="46.41186" lon="0.31275">
        <ele>96.680559773929</ele>
        <time>2021-05-02T07:05:54Z</time>
      </trkpt>
      <trkpt lat="46.41184" lon="0.31271">
        <ele>96.371386373416</ele>
        <time>2021-05-02T07:05:56Z</time>
      </trkpt>
      <trkpt lat="46.41183" lon="0.31267">
        <ele>96.515268885531</ele>
        <time>2021-05-02T07:05:58Z</time>
      </trkpt>
      <trkpt lat="46.41182" lon="0.31264">
        <ele>96.114859179594</ele>
        <time>2021-05-02T07:06:00Z</time>
      </trkpt>
      <trkpt lat="46.41181" lon="0.3126">
        <ele>96.223368582316</ele>
        <time>2021-05-02T07:06:02Z</time>
      </trkpt>
      <trkpt lat="46.41179" lon="0.31256">
        <ele>95.98782060761</ele>
        <time>2021-05-02T07:06:04Z</time>
      </trkpt>
      <trkpt lat="46.41177" lon="0.31254">
        <ele>95.719281879254</ele>
        <time>2021-05-02T07:06:06Z</time>
      </trkpt>
      <trkpt lat="46.41176" lon="0.31249">
        <ele>95.900171151385</ele>
        <time>2021-05-02T07:06:08Z</time>
      </trkpt>
      <trkpt lat="46.41175" lon="0.31246">
        <ele>96.019279866479</ele>
        <time>2021-05-02T07:06:10Z</time>
      </trkpt>
      <trkpt lat="46.41174" lon="0.31243">
        <ele>96.105579598807</ele>
        <time>2021-05-02T07:06:12Z</time>
      </trkpt>
      <trkpt lat="46.41173" lon="0.3124">
        <ele>95.893335291184</ele>
        <time>2021-05-02T07:06:14Z</time>
      </trkpt>
      <trkpt lat="46.41173" lon="0.31236">
        <ele>95.808966144919</ele>
        <time>2021-05-02T07:06:16Z</time>
      </trkpt>
      <trkpt lat="46.41171" lon="0.31232">
        <ele>95.932436879724</ele>
        <time>2021-05-02T07:06:18Z</time>
      </trkpt>
      <trkpt lat="46.4117" lon="0.31228">
        <ele>95.695316571742</ele>
        <time>2021-05-02T07:06:20Z</time>
      </trkpt>
      <trkpt lat="46.41169" lon="0.31224">
        <ele>95.999611441977</ele>
        <time>2021-05-02T07:06:22Z</time>
      </trkpt>
      <trkpt lat="46.41168" lon="0.3122">
        <ele>95.840719223954</ele>
        <time>2021-05-02T07:06:24Z</time>
      </trkpt>
      <trkpt lat="46.41167" lon="0.31216">
        <ele>95.58596546296</ele>
        <time>2021-05-02T07:06:26Z</time>
      </trkpt>
      <trkpt lat="46.41166" lon="0.31213">
        <ele>95.874166292138</ele>
        <time>2021-05-02T07:06:28Z</time>
      </trkpt>
      <trkpt lat="46.41165" lon="0.31209">
        <ele>95.964702313766</ele>
        <time>2021-05-02T07:06:30Z</time>
      </trkpt>
      <trkpt lat="46.41164" lon="0.31206">
        <ele>95.800545301288</ele>
        <time>2021-05-02T07:06:32Z</time>
      </trkpt>
      <trkpt lat="46.41164" lon="0.31203">
        <ele>95.940467137843</ele>
        <time>2021-05-02T07:06:34Z</time>
      </trkpt>
      <trkpt lat="46.41162" lon="0.31199">
        <ele>95.681705970317</ele>
        <time>2021-05-02T07:06:36Z</time>
      </trkpt>
      <trkpt lat="46.41162" lon="0.31194">
        <ele>96.160909637809</ele>
        <time>2021-05-02T07:06:38Z</time>
      </trkpt>
      <trkpt lat="46.4116" lon="0.31191">
        <ele>96.159083331004</ele>
        <time>2021-05-02T07:06:40Z</time>
      </trkpt>
      <trkpt lat="46.41159" lon="0.31187">
        <ele>96.233483831398</ele>
        <time>2021-05-02T07:06:42Z</time>
      </trkpt>
      <trkpt lat="46.41158" lon="0.31184">
        <ele>96.298442336731</ele>
        <time>2021-05-02T07:06:44Z</time>
      </trkpt>
      <trkpt lat="46.41156" lon="0.3118">
        <ele>96.403992070816</ele>
        <time>2021-05-02T07:06:46Z</time>
      </trkpt>
      <trkpt lat="46.41155" lon="0.31178">
        <ele>96.499840482138</ele>
        <time>2021-05-02T07:06:48Z</time>
      </trkpt>
      <trkpt lat="46.41154" lon="0.31174">
        <ele>96.222607536241</ele>
        <time>2021-05-02T07:06:50Z</time>
      </trkpt>
      <trkpt lat="46.41153" lon="0.31171">
        <ele>96.445759975351</ele>
        <time>2021-05-02T07:06:52Z</time>
      </trkpt>
      <trkpt lat="46.41151" lon="0.31168">
        <ele>96.508470636792</ele>
        <time>2021-05-02T07:06:54Z</time>
      </trkpt>
      <trkpt lat="46.41149" lon="0.31165">
        <ele>96.520139701664</ele>
        <time>2021-05-02T07:06:56Z</time>
      </trkpt>
      <trkpt lat="46.41148" lon="0.31161">
        <ele>96.358182280324</ele>
        <time>2021-05-02T07:06:58Z</time>
      </trkpt>
      <trkpt lat="46.41147" lon="0.31157">
        <ele>96.41866530478</ele>
        <time>2021-05-02T07:07:00Z</time>
      </trkpt>
      <trkpt lat="46.41145" lon="0.31154">
        <ele>96.550471990369</ele>
        <time>2021-05-02T07:07:02Z</time>
      </trkpt>
      <trkpt lat="46.41145" lon="0.3115">
        <ele>96.529844388366</ele>
        <time>2021-05-02T07:07:04Z</time>
      </trkpt>
      <trkpt lat="46.41146" lon="0.31147">
        <ele>96.464302145876</ele>
        <time>2021-05-02T07:07:06Z</time>
      </trkpt>
      <trkpt lat="46.41145" lon="0.31143">
        <ele>96.273285335861</ele>
        <time>2021-05-02T07:07:08Z</time>
      </trkpt>
      <trkpt lat="46.41145" lon="0.31139">
        <ele>96.154989107512</ele>
        <time>2021-05-02T07:07:10Z</time>
      </trkpt>
      <trkpt lat="46.41145" lon="0.31135">
        <ele>96.035047970712</ele>
        <time>2021-05-02T07:07:12Z</time>
      </trkpt>
      <trkpt lat="46.41146" lon="0.31131">
        <ele>95.935541146435</ele>
        <time>2021-05-02T07:07:14Z</time>
      </trkpt>
      <trkpt lat="46.41147" lon="0.31127">
        <ele>95.624960654415</ele>
        <time>2021-05-02T07:07:16Z</time>
      </trkpt>
      <trkpt lat="46.41148" lon="0.31123">
        <ele>95.588645989075</ele>
        <time>2021-05-02T07:07:18Z</time>
      </trkpt>
      <trkpt lat="46.41148" lon="0.3112">
        <ele>95.836474154145</ele>
        <time>2021-05-02T07:07:20Z</time>
      </trkpt>
      <trkpt lat="46.41149" lon="0.31116">
        <ele>95.908986810595</ele>
        <time>2021-05-02T07:07:22Z</time>
      </trkpt>
      <trkpt lat="46.4115" lon="0.31112">
        <ele>95.592646485195</ele>
        <time>2021-05-02T07:07:24Z</time>
      </trkpt>
      <trkpt lat="46.41151" lon="0.31108">
        <ele>95.964347035624</ele>
        <time>2021-05-02T07:07:26Z</time>
      </trkpt>
      <trkpt lat="46.41152" lon="0.31103">
        <ele>95.990199912339</ele>
        <time>2021-05-02T07:07:28Z</time>
      </trkpt>
      <trkpt lat="46.41153" lon="0.311">
        <ele>96.013441866264</ele>
        <time>2021-05-02T07:07:30Z</time>
      </trkpt>
      <trkpt lat="46.41154" lon="0.31096">
        <ele>95.83168588765</ele>
        <time>2021-05-02T07:07:32Z</time>
      </trkpt>
      <trkpt lat="46.41155" lon="0.31092">
        <ele>96.144702501595</ele>
        <time>2021-05-02T07:07:34Z</time>
      </trkpt>
      <trkpt lat="46.41156" lon="0.31088">
        <ele>96.114707133733</ele>
        <time>2021-05-02T07:07:36Z</time>
      </trkpt>
      <trkpt lat="46.41157" lon="0.31083">
        <ele>96.117544285953</ele>
        <time>2021-05-02T07:07:38Z</time>
      </trkpt>
      <trkpt lat="46.41157" lon="0.31078">
        <ele>96.341418581083</ele>
        <time>2021-05-02T07:07:40Z</time>
      </trkpt>
      <trkpt lat="46.41158" lon="0.31075">
        <ele>96.233523472212</ele>
        <time>2021-05-02T07:07:42Z</time>
      </trkpt>
      <trkpt lat="46.41158" lon="0.31071">
        <ele>95.78835196048</ele>
        <time>2021-05-02T07:07:44Z</time>
      </trkpt>
      <trkpt lat="46.4116" lon="0.31067">
        <ele>95.807530366816</ele>
        <time>2021-05-02T07:07:46Z</time>
      </trkpt>
      <trkpt lat="46.4116" lon="0.31063">
        <ele>96.139724920504</ele>
        <time>2021-05-02T07:07:48Z</time>
      </trkpt>
      <trkpt lat="46.41161" lon="0.3106">
        <ele>96.09446341265</ele>
        <time>2021-05-02T07:07:50Z</time>
      </trkpt>
      <trkpt lat="46.41162" lon="0.31057">
        <ele>95.585125709884</ele>
        <time>2021-05-02T07:07:52Z</time>
      </trkpt>
      <trkpt lat="46.41162" lon="0.31052">
        <ele>95.855319419876</ele>
        <time>2021-05-02T07:07:54Z</time>
      </trkpt>
      <trkpt lat="46.41164" lon="0.31049">
        <ele>95.927190127783</ele>
        <time>2021-05-02T07:07:56Z</time>
      </trkpt>
      <trkpt lat="46.41165" lon="0.31045">
        <ele>95.932810001075</ele>
        <time>2021-05-02T07:07:58Z</time>
      </trkpt>
      <trkpt lat="46.41165" lon="0.31042">
        <ele>95.997486595064</ele>
        <time>2021-05-02T07:08:00Z</time>
      </trkpt>
      <trkpt lat="46.41166" lon="0.31038">
        <ele>95.65581104625</ele>
        <time>2021-05-02T07:08:02Z</time>
      </trkpt>
      <trkpt lat="46.41166" lon="0.31034">
        <ele>95.771252855659</ele>
        <time>2021-05-02T07:08:04Z</time>
      </trkpt>
      <trkpt lat="46.41168" lon="0.31031">
        <ele>95.871638988145</ele>
        <time>2021-05-02T07:08:06Z</time>
      </trkpt>
      <trkpt lat="46.41169" lon="0.31027">
        <ele>96.191722652875</ele>
        <time>2021-05-02T07:08:08Z</time>
      </trkpt>
      <trkpt lat="46.41169" lon="0.31023">
        <ele>95.818565446883</ele>
        <time>2021-05-02T07:08:10Z</time>
      </trkpt>
      <trkpt lat="46.41171" lon="0.31019">
        <ele>95.949613681063</ele>
        <time>2021-05-02T07:08:12Z</time>
      </trkpt>
      <trkpt lat="46.41172" lon="0.31016">
        <ele>95.75384903606</ele>
        <time>2021-05-02T07:08:14Z</time>
      </trkpt>
      <trkpt lat="46.41173" lon="0.31013">
        <ele>95.965419346467</ele>
        <time>2021-05-02T07:08:16Z</time>
      </trkpt>
      <trkpt lat="46.41174" lon="0.31009">
        <ele>95.824829592369</ele>
        <time>2021-05-02T07:08:18Z</time>
      </trkpt>
      <trkpt lat="46.41175" lon="0.31006">
        <ele>95.968492988497</ele>
        <time>2021-05-02T07:08:20Z</time>
      </trkpt>
      <trkpt lat="46.41175" lon="0.31002">
        <ele>95.90693091508</ele>
        <time>2021-05-02T07:08:22Z</time>
      </trkpt>
      <trkpt lat="46.41177" lon="0.30998">
        <ele>95.764520945027</ele>
        <time>2021-05-02T07:08:24Z</time>
      </trkpt>
      <trkpt lat="46.41177" lon="0.30995">
        <ele>95.892193485051</ele>
        <time>2021-05-02T07:08:26Z</time>
      </trkpt>
      <trkpt lat="46.41177" lon="0.30991">
        <ele>95.391247903928</ele>
        <time>2021-05-02T07:08:28Z</time>
      </trkpt>
      <trkpt lat="46.41179" lon="0.30988">
        <ele>95.514040029608</ele>
        <time>2021-05-02T07:08:30Z</time>
      </trkpt>
      <trkpt lat="46.4118" lon="0.30986">
        <ele>95.444734863006</ele>
        <time>2021-05-02T07:08:31Z</time>
      </trkpt>
      <trkpt lat="46.41181" lon="0.30982">
        <ele>95.506203457713</ele>
        <time>2021-05-02T07:08:33Z</time>
      </trkpt>
      <trkpt lat="46.41181" lon="0.30978">
        <ele>95.240854764357</ele>
        <time>2021-05-02T07:08:35Z</time>
      </trkpt>
      <trkpt lat="46.41182" lon="0.30975">
        <ele>95.230782772414</ele>
        <time>2021-05-02T07:08:37Z</time>
      </trkpt>
      <trkpt lat="46.41182" lon="0.30971">
        <ele>95.381914035417</ele>
        <time>2021-05-02T07:08:39Z</time>
      </trkpt>
      <trkpt lat="46.41182" lon="0.30966">
        <ele>95.073480471969</ele>
        <time>2021-05-02T07:08:41Z</time>
      </trkpt>
      <trkpt lat="46.41182" lon="0.30963">
        <ele>95.230885211378</ele>
        <time>2021-05-02T07:08:42Z</time>
      </trkpt>
      <trkpt lat="46.41182" lon="0.3096">
        <ele>95.361058659852</ele>
        <time>2021-05-02T07:08:44Z</time>
      </trkpt>
      <trkpt lat="46.41183" lon="0.30956">
        <ele>95.124637884088</ele>
        <time>2021-05-02T07:08:46Z</time>
      </trkpt>
      <trkpt lat="46.41183" lon="0.30953">
        <ele>95.328831287101</ele>
        <time>2021-05-02T07:08:48Z</time>
      </trkpt>
      <trkpt lat="46.41183" lon="0.30949">
        <ele>95.481851628982</ele>
        <time>2021-05-02T07:08:50Z</time>
      </trkpt>
      <trkpt lat="46.41183" lon="0.30945">
        <ele>95.40080025699</ele>
        <time>2021-05-02T07:08:52Z</time>
      </trkpt>
      <trkpt lat="46.41183" lon="0.30942">
        <ele>95.613710835576</ele>
        <time>2021-05-02T07:08:54Z</time>
      </trkpt>
      <trkpt lat="46.41183" lon="0.30938">
        <ele>95.522935561836</ele>
        <time>2021-05-02T07:08:56Z</time>
      </trkpt>
      <trkpt lat="46.41182" lon="0.30934">
        <ele>95.345687532797</ele>
        <time>2021-05-02T07:08:58Z</time>
      </trkpt>
      <trkpt lat="46.41182" lon="0.30931">
        <ele>95.387125801295</ele>
        <time>2021-05-02T07:09:00Z</time>
      </trkpt>
      <trkpt lat="46.41181" lon="0.30928">
        <ele>95.671642732807</ele>
        <time>2021-05-02T07:09:02Z</time>
      </trkpt>
      <trkpt lat="46.41181" lon="0.30924">
        <ele>95.44403120596</ele>
        <time>2021-05-02T07:09:04Z</time>
      </trkpt>
      <trkpt lat="46.41181" lon="0.3092">
        <ele>95.749418225139</ele>
        <time>2021-05-02T07:09:06Z</time>
      </trkpt>
      <trkpt lat="46.41181" lon="0.30915">
        <ele>96.168771949597</ele>
        <time>2021-05-02T07:09:08Z</time>
      </trkpt>
      <trkpt lat="46.41181" lon="0.30912">
        <ele>95.800337926485</ele>
        <time>2021-05-02T07:09:10Z</time>
      </trkpt>
      <trkpt lat="46.4118" lon="0.30908">
        <ele>95.66118080169</ele>
        <time>2021-05-02T07:09:12Z</time>
      </trkpt>
      <trkpt lat="46.4118" lon="0.30904">
        <ele>95.469842070714</ele>
        <time>2021-05-02T07:09:14Z</time>
      </trkpt>
      <trkpt lat="46.4118" lon="0.30899">
        <ele>95.449446144514</ele>
        <time>2021-05-02T07:09:16Z</time>
      </trkpt>
      <trkpt lat="46.41179" lon="0.30895">
        <ele>95.777848788537</ele>
        <time>2021-05-02T07:09:18Z</time>
      </trkpt>
      <trkpt lat="46.41179" lon="0.30892">
        <ele>95.810121514834</ele>
        <time>2021-05-02T07:09:20Z</time>
      </trkpt>
      <trkpt lat="46.41179" lon="0.30888">
        <ele>95.785435213707</ele>
        <time>2021-05-02T07:09:22Z</time>
      </trkpt>
      <trkpt lat="46.41179" lon="0.30884">
        <ele>95.770130245946</ele>
        <time>2021-05-02T07:09:24Z</time>
      </trkpt>
      <trkpt lat="46.41179" lon="0.3088">
        <ele>95.603775354102</ele>
        <time>2021-05-02T07:09:26Z</time>
      </trkpt>
      <trkpt lat="46.41179" lon="0.30876">
        <ele>95.601792620495</ele>
        <time>2021-05-02T07:09:28Z</time>
      </trkpt>
      <trkpt lat="46.41178" lon="0.30872">
        <ele>95.77396568004</ele>
        <time>2021-05-02T07:09:30Z</time>
      </trkpt>
      <trkpt lat="46.41179" lon="0.3087">
        <ele>95.747389799915</ele>
        <time>2021-05-02T07:09:32Z</time>
      </trkpt>
      <trkpt lat="46.4118" lon="0.30866">
        <ele>95.593466740102</ele>
        <time>2021-05-02T07:09:34Z</time>
      </trkpt>
      <trkpt lat="46.4118" lon="0.30862">
        <ele>95.70696392376</ele>
        <time>2021-05-02T07:09:36Z</time>
      </trkpt>
      <trkpt lat="46.41181" lon="0.30858">
        <ele>95.780279046856</ele>
        <time>2021-05-02T07:09:38Z</time>
      </trkpt>
      <trkpt lat="46.41181" lon="0.30854">
        <ele>95.691018909216</ele>
        <time>2021-05-02T07:09:41Z</time>
      </trkpt>
      <trkpt lat="46.41181" lon="0.3085">
        <ele>95.72140646074</ele>
        <time>2021-05-02T07:09:43Z</time>
      </trkpt>
      <trkpt lat="46.41181" lon="0.30846">
        <ele>95.665457976982</ele>
        <time>2021-05-02T07:09:45Z</time>
      </trkpt>
      <trkpt lat="46.41183" lon="0.30842">
        <ele>95.692338312045</ele>
        <time>2021-05-02T07:09:47Z</time>
      </trkpt>
      <trkpt lat="46.41184" lon="0.30838">
        <ele>95.902582447045</ele>
        <time>2021-05-02T07:09:49Z</time>
      </trkpt>
      <trkpt lat="46.41184" lon="0.30833">
        <ele>96.08477348648</ele>
        <time>2021-05-02T07:09:51Z</time>
      </trkpt>
      <trkpt lat="46.41184" lon="0.3083">
        <ele>96.008680615574</ele>
        <time>2021-05-02T07:09:52Z</time>
      </trkpt>
      <trkpt lat="46.41185" lon="0.30826">
        <ele>95.634692238644</ele>
        <time>2021-05-02T07:09:54Z</time>
      </trkpt>
      <trkpt lat="46.41185" lon="0.30823">
        <ele>95.689753700979</ele>
        <time>2021-05-02T07:09:57Z</time>
      </trkpt>
      <trkpt lat="46.41186" lon="0.30819">
        <ele>95.654838467948</ele>
        <time>2021-05-02T07:09:59Z</time>
      </trkpt>
      <trkpt lat="46.41188" lon="0.30816">
        <ele>95.921640147455</ele>
        <time>2021-05-02T07:10:01Z</time>
      </trkpt>
      <trkpt lat="46.41188" lon="0.30813">
        <ele>96.067814517766</ele>
        <time>2021-05-02T07:10:03Z</time>
      </trkpt>
      <trkpt lat="46.4119" lon="0.30811">
        <ele>95.816457311623</ele>
        <time>2021-05-02T07:10:05Z</time>
      </trkpt>
      <trkpt lat="46.41191" lon="0.30806">
        <ele>95.905082522891</ele>
        <time>2021-05-02T07:10:07Z</time>
      </trkpt>
      <trkpt lat="46.41191" lon="0.30803">
        <ele>95.558855436742</ele>
        <time>2021-05-02T07:10:08Z</time>
      </trkpt>
      <trkpt lat="46.41191" lon="0.30798">
        <ele>95.543525852263</ele>
        <time>2021-05-02T07:10:10Z</time>
      </trkpt>
      <trkpt lat="46.41193" lon="0.30795">
        <ele>95.612956526689</ele>
        <time>2021-05-02T07:10:12Z</time>
      </trkpt>
      <trkpt lat="46.41193" lon="0.30792">
        <ele>95.552990210243</ele>
        <time>2021-05-02T07:10:14Z</time>
      </trkpt>
      <trkpt lat="46.41194" lon="0.30788">
        <ele>95.88412743248</ele>
        <time>2021-05-02T07:10:16Z</time>
      </trkpt>
      <trkpt lat="46.41196" lon="0.30785">
        <ele>95.735246631317</ele>
        <time>2021-05-02T07:10:18Z</time>
      </trkpt>
      <trkpt lat="46.41197" lon="0.30781">
        <ele>95.81890987698</ele>
        <time>2021-05-02T07:10:20Z</time>
      </trkpt>
      <trkpt lat="46.41198" lon="0.30776">
        <ele>95.762611352839</ele>
        <time>2021-05-02T07:10:22Z</time>
      </trkpt>
      <trkpt lat="46.41199" lon="0.30773">
        <ele>95.974434119649</ele>
        <time>2021-05-02T07:10:24Z</time>
      </trkpt>
      <trkpt lat="46.412" lon="0.30769">
        <ele>96.046808511019</ele>
        <time>2021-05-02T07:10:26Z</time>
      </trkpt>
      <trkpt lat="46.41201" lon="0.30766">
        <ele>95.99702928029</ele>
        <time>2021-05-02T07:10:28Z</time>
      </trkpt>
      <trkpt lat="46.41201" lon="0.30762">
        <ele>96.111731639132</ele>
        <time>2021-05-02T07:10:31Z</time>
      </trkpt>
      <trkpt lat="46.41203" lon="0.30758">
        <ele>95.75563907437</ele>
        <time>2021-05-02T07:10:33Z</time>
      </trkpt>
      <trkpt lat="46.41204" lon="0.30755">
        <ele>95.93448636122</ele>
        <time>2021-05-02T07:10:35Z</time>
      </trkpt>
      <trkpt lat="46.41205" lon="0.3075">
        <ele>95.986531023867</ele>
        <time>2021-05-02T07:10:37Z</time>
      </trkpt>
      <trkpt lat="46.41205" lon="0.30747">
        <ele>96.743903852999</ele>
        <time>2021-05-02T07:10:39Z</time>
      </trkpt>
      <trkpt lat="46.41206" lon="0.30743">
        <ele>96.650226688944</ele>
        <time>2021-05-02T07:10:41Z</time>
      </trkpt>
      <trkpt lat="46.41207" lon="0.30739">
        <ele>96.457799625583</ele>
        <time>2021-05-02T07:10:43Z</time>
      </trkpt>
      <trkpt lat="46.41208" lon="0.30735">
        <ele>96.690488850698</ele>
        <time>2021-05-02T07:10:45Z</time>
      </trkpt>
      <trkpt lat="46.41209" lon="0.30731">
        <ele>97.037803006358</ele>
        <time>2021-05-02T07:10:47Z</time>
      </trkpt>
      <trkpt lat="46.41209" lon="0.30727">
        <ele>96.976892619394</ele>
        <time>2021-05-02T07:10:49Z</time>
      </trkpt>
      <trkpt lat="46.4121" lon="0.30723">
        <ele>96.87743547</ele>
        <time>2021-05-02T07:10:51Z</time>
      </trkpt>
      <trkpt lat="46.41211" lon="0.30719">
        <ele>97.428419116884</ele>
        <time>2021-05-02T07:10:53Z</time>
      </trkpt>
      <trkpt lat="46.41212" lon="0.30717">
        <ele>97.392467552796</ele>
        <time>2021-05-02T07:10:54Z</time>
      </trkpt>
      <trkpt lat="46.41213" lon="0.30715">
        <ele>97.402301501483</ele>
        <time>2021-05-02T07:10:55Z</time>
      </trkpt>
      <trkpt lat="46.41213" lon="0.30712">
        <ele>97.350618718192</ele>
        <time>2021-05-02T07:10:57Z</time>
      </trkpt>
      <trkpt lat="46.41214" lon="0.30708">
        <ele>97.543774604797</ele>
        <time>2021-05-02T07:10:59Z</time>
      </trkpt>
      <trkpt lat="46.41215" lon="0.30704">
        <ele>97.620540524833</ele>
        <time>2021-05-02T07:11:01Z</time>
      </trkpt>
      <trkpt lat="46.41215" lon="0.30701">
        <ele>97.864331016317</ele>
        <time>2021-05-02T07:11:03Z</time>
      </trkpt>
      <trkpt lat="46.41216" lon="0.30698">
        <ele>97.655770356767</ele>
        <time>2021-05-02T07:11:05Z</time>
      </trkpt>
      <trkpt lat="46.41217" lon="0.30694">
        <ele>97.765200069174</ele>
        <time>2021-05-02T07:11:07Z</time>
      </trkpt>
      <trkpt lat="46.41218" lon="0.30692">
        <ele>97.974770832807</ele>
        <time>2021-05-02T07:11:09Z</time>
      </trkpt>
      <trkpt lat="46.41219" lon="0.30688">
        <ele>97.815224739723</ele>
        <time>2021-05-02T07:11:11Z</time>
      </trkpt>
      <trkpt lat="46.41221" lon="0.30685">
        <ele>97.764012058266</ele>
        <time>2021-05-02T07:11:13Z</time>
      </trkpt>
      <trkpt lat="46.41223" lon="0.30682">
        <ele>97.810452289879</ele>
        <time>2021-05-02T07:11:15Z</time>
      </trkpt>
      <trkpt lat="46.41226" lon="0.30678">
        <ele>98.071733496152</ele>
        <time>2021-05-02T07:11:17Z</time>
      </trkpt>
      <trkpt lat="46.41227" lon="0.30674">
        <ele>98.135423117317</ele>
        <time>2021-05-02T07:11:20Z</time>
      </trkpt>
      <trkpt lat="46.41228" lon="0.30672">
        <ele>98.01469008252</ele>
        <time>2021-05-02T07:11:22Z</time>
      </trkpt>
      <trkpt lat="46.4123" lon="0.30669">
        <ele>97.776655681431</ele>
        <time>2021-05-02T07:11:24Z</time>
      </trkpt>
      <trkpt lat="46.41231" lon="0.30667">
        <ele>97.845520461909</ele>
        <time>2021-05-02T07:11:25Z</time>
      </trkpt>
      <trkpt lat="46.41233" lon="0.30663">
        <ele>97.808248210698</ele>
        <time>2021-05-02T07:11:27Z</time>
      </trkpt>
      <trkpt lat="46.41235" lon="0.3066">
        <ele>98.193760600872</ele>
        <time>2021-05-02T07:11:29Z</time>
      </trkpt>
      <trkpt lat="46.41237" lon="0.30656">
        <ele>97.822238618508</ele>
        <time>2021-05-02T07:11:31Z</time>
      </trkpt>
      <trkpt lat="46.41238" lon="0.30653">
        <ele>97.91127713304</ele>
        <time>2021-05-02T07:11:33Z</time>
      </trkpt>
      <trkpt lat="46.41239" lon="0.3065">
        <ele>98.040619391948</ele>
        <time>2021-05-02T07:11:35Z</time>
      </trkpt>
      <trkpt lat="46.41241" lon="0.30646">
        <ele>97.992174280807</ele>
        <time>2021-05-02T07:11:37Z</time>
      </trkpt>
      <trkpt lat="46.41241" lon="0.30643">
        <ele>98.012339153327</ele>
        <time>2021-05-02T07:11:38Z</time>
      </trkpt>
      <trkpt lat="46.41242" lon="0.3064">
        <ele>97.975386906415</ele>
        <time>2021-05-02T07:11:40Z</time>
      </trkpt>
      <trkpt lat="46.41243" lon="0.30636">
        <ele>97.663386132568</ele>
        <time>2021-05-02T07:11:42Z</time>
      </trkpt>
      <trkpt lat="46.41244" lon="0.30632">
        <ele>97.906745051034</ele>
        <time>2021-05-02T07:11:44Z</time>
      </trkpt>
      <trkpt lat="46.41244" lon="0.30629">
        <ele>97.912863147445</ele>
        <time>2021-05-02T07:11:46Z</time>
      </trkpt>
      <trkpt lat="46.41243" lon="0.30625">
        <ele>97.940878193825</ele>
        <time>2021-05-02T07:11:48Z</time>
      </trkpt>
      <trkpt lat="46.41243" lon="0.30622">
        <ele>97.929048242047</ele>
        <time>2021-05-02T07:11:50Z</time>
      </trkpt>
      <trkpt lat="46.41243" lon="0.30618">
        <ele>98.244124039076</ele>
        <time>2021-05-02T07:11:52Z</time>
      </trkpt>
      <trkpt lat="46.41243" lon="0.30614">
        <ele>98.257170838304</ele>
        <time>2021-05-02T07:11:54Z</time>
      </trkpt>
      <trkpt lat="46.41242" lon="0.30611">
        <ele>98.088141644374</ele>
        <time>2021-05-02T07:11:56Z</time>
      </trkpt>
      <trkpt lat="46.41243" lon="0.30606">
        <ele>98.297030759044</ele>
        <time>2021-05-02T07:11:58Z</time>
      </trkpt>
      <trkpt lat="46.41242" lon="0.30603">
        <ele>98.250991811976</ele>
        <time>2021-05-02T07:12:00Z</time>
      </trkpt>
      <trkpt lat="46.41241" lon="0.30599">
        <ele>98.43343207892</ele>
        <time>2021-05-02T07:12:02Z</time>
      </trkpt>
      <trkpt lat="46.4124" lon="0.30595">
        <ele>98.409347855486</ele>
        <time>2021-05-02T07:12:04Z</time>
      </trkpt>
      <trkpt lat="46.41239" lon="0.30591">
        <ele>98.752419321798</ele>
        <time>2021-05-02T07:12:06Z</time>
      </trkpt>
      <trkpt lat="46.41238" lon="0.30587">
        <ele>98.779823835939</ele>
        <time>2021-05-02T07:12:08Z</time>
      </trkpt>
      <trkpt lat="46.41238" lon="0.30584">
        <ele>98.859063556418</ele>
        <time>2021-05-02T07:12:10Z</time>
      </trkpt>
      <trkpt lat="46.41238" lon="0.30578">
        <ele>99.138115776703</ele>
        <time>2021-05-02T07:12:12Z</time>
      </trkpt>
      <trkpt lat="46.41237" lon="0.30575">
        <ele>99.324007330462</ele>
        <time>2021-05-02T07:12:14Z</time>
      </trkpt>
      <trkpt lat="46.41237" lon="0.30572">
        <ele>99.397980548441</ele>
        <time>2021-05-02T07:12:15Z</time>
      </trkpt>
      <trkpt lat="46.41237" lon="0.30568">
        <ele>99.075434746221</ele>
        <time>2021-05-02T07:12:18Z</time>
      </trkpt>
      <trkpt lat="46.41237" lon="0.30565">
        <ele>99.760589820333</ele>
        <time>2021-05-02T07:12:20Z</time>
      </trkpt>
      <trkpt lat="46.41237" lon="0.30561">
        <ele>99.926045496948</ele>
        <time>2021-05-02T07:12:22Z</time>
      </trkpt>
      <trkpt lat="46.41237" lon="0.30558">
        <ele>99.55998066999</ele>
        <time>2021-05-02T07:12:24Z</time>
      </trkpt>
      <trkpt lat="46.41237" lon="0.30555">
        <ele>99.922272215597</ele>
        <time>2021-05-02T07:12:26Z</time>
      </trkpt>
      <trkpt lat="46.41236" lon="0.30551">
        <ele>100.28340461105</ele>
        <time>2021-05-02T07:12:28Z</time>
      </trkpt>
      <trkpt lat="46.41235" lon="0.30548">
        <ele>100.47326948587</ele>
        <time>2021-05-02T07:12:30Z</time>
      </trkpt>
      <trkpt lat="46.41233" lon="0.30546">
        <ele>100.81225911528</ele>
        <time>2021-05-02T07:12:32Z</time>
      </trkpt>
      <trkpt lat="46.41231" lon="0.30542">
        <ele>100.80360341258</ele>
        <time>2021-05-02T07:12:34Z</time>
      </trkpt>
      <trkpt lat="46.41229" lon="0.3054">
        <ele>101.08517177496</ele>
        <time>2021-05-02T07:12:36Z</time>
      </trkpt>
      <trkpt lat="46.41228" lon="0.30537">
        <ele>101.14266541507</ele>
        <time>2021-05-02T07:12:38Z</time>
      </trkpt>
      <trkpt lat="46.41226" lon="0.30535">
        <ele>101.29402148072</ele>
        <time>2021-05-02T07:12:40Z</time>
      </trkpt>
      <trkpt lat="46.41224" lon="0.30532">
        <ele>101.09535786416</ele>
        <time>2021-05-02T07:12:42Z</time>
      </trkpt>
      <trkpt lat="46.41223" lon="0.3053">
        <ele>101.52202770673</ele>
        <time>2021-05-02T07:12:44Z</time>
      </trkpt>
      <trkpt lat="46.41221" lon="0.30527">
        <ele>101.63805729803</ele>
        <time>2021-05-02T07:12:46Z</time>
      </trkpt>
      <trkpt lat="46.41219" lon="0.30525">
        <ele>101.67189844791</ele>
        <time>2021-05-02T07:12:48Z</time>
      </trkpt>
      <trkpt lat="46.41216" lon="0.30524">
        <ele>101.42045560852</ele>
        <time>2021-05-02T07:12:50Z</time>
      </trkpt>
      <trkpt lat="46.41213" lon="0.30521">
        <ele>101.94139088877</ele>
        <time>2021-05-02T07:12:53Z</time>
      </trkpt>
      <trkpt lat="46.41211" lon="0.3052">
        <ele>102.18520672806</ele>
        <time>2021-05-02T07:12:55Z</time>
      </trkpt>
      <trkpt lat="46.41209" lon="0.30518">
        <ele>102.33319163695</ele>
        <time>2021-05-02T07:12:57Z</time>
      </trkpt>
      <trkpt lat="46.41206" lon="0.30518">
        <ele>102.15767302737</ele>
        <time>2021-05-02T07:12:59Z</time>
      </trkpt>
      <trkpt lat="46.41204" lon="0.30519">
        <ele>102.05226477608</ele>
        <time>2021-05-02T07:13:00Z</time>
      </trkpt>
      <trkpt lat="46.41202" lon="0.3052">
        <ele>102.47165211197</ele>
        <time>2021-05-02T07:13:02Z</time>
      </trkpt>
      <trkpt lat="46.41201" lon="0.30522">
        <ele>102.19275751431</ele>
        <time>2021-05-02T07:13:04Z</time>
      </trkpt>
      <trkpt lat="46.412" lon="0.30525">
        <ele>102.02414504066</ele>
        <time>2021-05-02T07:13:07Z</time>
      </trkpt>
      <trkpt lat="46.41199" lon="0.30527">
        <ele>102.51885924581</ele>
        <time>2021-05-02T07:13:09Z</time>
      </trkpt>
      <trkpt lat="46.41198" lon="0.3053">
        <ele>102.53912055213</ele>
        <time>2021-05-02T07:13:12Z</time>
      </trkpt>
      <trkpt lat="46.41199" lon="0.30533">
        <ele>102.60831694305</ele>
        <time>2021-05-02T07:13:14Z</time>
      </trkpt>
      <trkpt lat="46.41199" lon="0.30537">
        <ele>102.76916300319</ele>
        <time>2021-05-02T07:13:16Z</time>
      </trkpt>
      <trkpt lat="46.41199" lon="0.30541">
        <ele>102.79606699571</ele>
        <time>2021-05-02T07:13:18Z</time>
      </trkpt>
      <trkpt lat="46.41199" lon="0.30544">
        <ele>102.78122002259</ele>
        <time>2021-05-02T07:13:21Z</time>
      </trkpt>
      <trkpt lat="46.41199" lon="0.30547">
        <ele>103.14730326645</ele>
        <time>2021-05-02T07:13:23Z</time>
      </trkpt>
      <trkpt lat="46.412" lon="0.3055">
        <ele>103.37341236603</ele>
        <time>2021-05-02T07:13:25Z</time>
      </trkpt>
      <trkpt lat="46.41201" lon="0.30553">
        <ele>103.50105762947</ele>
        <time>2021-05-02T07:13:27Z</time>
      </trkpt>
      <trkpt lat="46.41201" lon="0.30557">
        <ele>103.6102890661</ele>
        <time>2021-05-02T07:13:30Z</time>
      </trkpt>
      <trkpt lat="46.41202" lon="0.3056">
        <ele>103.23331724759</ele>
        <time>2021-05-02T07:13:32Z</time>
      </trkpt>
      <trkpt lat="46.41203" lon="0.30563">
        <ele>103.19125899673</ele>
        <time>2021-05-02T07:13:34Z</time>
      </trkpt>
      <trkpt lat="46.41204" lon="0.30566">
        <ele>103.45748789888</ele>
        <time>2021-05-02T07:13:36Z</time>
      </trkpt>
      <trkpt lat="46.41204" lon="0.30569">
        <ele>103.61737651471</ele>
        <time>2021-05-02T07:13:38Z</time>
      </trkpt>
      <trkpt lat="46.41205" lon="0.30572">
        <ele>103.59885829408</ele>
        <time>2021-05-02T07:13:40Z</time>
      </trkpt>
      <trkpt lat="46.41206" lon="0.30574">
        <ele>103.5087944828</ele>
        <time>2021-05-02T07:13:42Z</time>
      </trkpt>
      <trkpt lat="46.41207" lon="0.30577">
        <ele>104.02556267101</ele>
        <time>2021-05-02T07:13:44Z</time>
      </trkpt>
      <trkpt lat="46.41207" lon="0.3058">
        <ele>103.52980608214</ele>
        <time>2021-05-02T07:13:46Z</time>
      </trkpt>
      <trkpt lat="46.41208" lon="0.30583">
        <ele>103.0958921453</ele>
        <time>2021-05-02T07:13:48Z</time>
      </trkpt>
      <trkpt lat="46.4121" lon="0.30587">
        <ele>103.40753480513</ele>
        <time>2021-05-02T07:13:51Z</time>
      </trkpt>
      <trkpt lat="46.4121" lon="0.30589">
        <ele>103.42249248829</ele>
        <time>2021-05-02T07:13:53Z</time>
      </trkpt>
      <trkpt lat="46.41211" lon="0.30592">
        <ele>103.59050012659</ele>
        <time>2021-05-02T07:13:55Z</time>
      </trkpt>
      <trkpt lat="46.4121" lon="0.30596">
        <ele>103.56400864013</ele>
        <time>2021-05-02T07:13:57Z</time>
      </trkpt>
      <trkpt lat="46.4121" lon="0.30599">
        <ele>103.5689874636</ele>
        <time>2021-05-02T07:13:59Z</time>
      </trkpt>
      <trkpt lat="46.4121" lon="0.30602">
        <ele>103.72633771785</ele>
        <time>2021-05-02T07:14:01Z</time>
      </trkpt>
      <trkpt lat="46.41208" lon="0.30605">
        <ele>103.73571087606</ele>
        <time>2021-05-02T07:14:03Z</time>
      </trkpt>
      <trkpt lat="46.41207" lon="0.30609">
        <ele>103.73454695288</ele>
        <time>2021-05-02T07:14:05Z</time>
      </trkpt>
      <trkpt lat="46.41207" lon="0.30613">
        <ele>104.04468393512</ele>
        <time>2021-05-02T07:14:08Z</time>
      </trkpt>
      <trkpt lat="46.41206" lon="0.30617">
        <ele>104.47614553571</ele>
        <time>2021-05-02T07:14:10Z</time>
      </trkpt>
      <trkpt lat="46.41205" lon="0.30618">
        <ele>104.34302001633</ele>
        <time>2021-05-02T07:14:12Z</time>
      </trkpt>
      <trkpt lat="46.41203" lon="0.30621">
        <ele>104.52206103317</ele>
        <time>2021-05-02T07:14:14Z</time>
      </trkpt>
      <trkpt lat="46.41202" lon="0.30624">
        <ele>104.65058981255</ele>
        <time>2021-05-02T07:14:15Z</time>
      </trkpt>
      <trkpt lat="46.41201" lon="0.30627">
        <ele>105.04234175291</ele>
        <time>2021-05-02T07:14:18Z</time>
      </trkpt>
      <trkpt lat="46.41201" lon="0.30631">
        <ele>105.11642108485</ele>
        <time>2021-05-02T07:14:21Z</time>
      </trkpt>
      <trkpt lat="46.41199" lon="0.30634">
        <ele>105.50052019954</ele>
        <time>2021-05-02T07:14:24Z</time>
      </trkpt>
      <trkpt lat="46.41197" lon="0.30638">
        <ele>105.90811660793</ele>
        <time>2021-05-02T07:14:27Z</time>
      </trkpt>
      <trkpt lat="46.41195" lon="0.30639">
        <ele>105.9441139847</ele>
        <time>2021-05-02T07:14:29Z</time>
      </trkpt>
      <trkpt lat="46.41194" lon="0.30642">
        <ele>106.02282109763</ele>
        <time>2021-05-02T07:14:31Z</time>
      </trkpt>
      <trkpt lat="46.41192" lon="0.30644">
        <ele>106.47476254962</ele>
        <time>2021-05-02T07:14:33Z</time>
      </trkpt>
      <trkpt lat="46.41189" lon="0.30646">
        <ele>106.48821887467</ele>
        <time>2021-05-02T07:14:35Z</time>
      </trkpt>
      <trkpt lat="46.41188" lon="0.30647">
        <ele>106.44744005147</ele>
        <time>2021-05-02T07:14:37Z</time>
      </trkpt>
      <trkpt lat="46.41186" lon="0.30649">
        <ele>106.96622232255</ele>
        <time>2021-05-02T07:14:39Z</time>
      </trkpt>
      <trkpt lat="46.41184" lon="0.30651">
        <ele>106.64691305999</ele>
        <time>2021-05-02T07:14:41Z</time>
      </trkpt>
      <trkpt lat="46.41183" lon="0.30653">
        <ele>106.67417517677</ele>
        <time>2021-05-02T07:14:43Z</time>
      </trkpt>
      <trkpt lat="46.41181" lon="0.30657">
        <ele>107.34909407794</ele>
        <time>2021-05-02T07:14:45Z</time>
      </trkpt>
      <trkpt lat="46.41179" lon="0.30659">
        <ele>106.74427605607</ele>
        <time>2021-05-02T07:14:47Z</time>
      </trkpt>
      <trkpt lat="46.41178" lon="0.30661">
        <ele>107.18464810494</ele>
        <time>2021-05-02T07:14:48Z</time>
      </trkpt>
      <trkpt lat="46.41176" lon="0.30663">
        <ele>107.33904184308</ele>
        <time>2021-05-02T07:14:50Z</time>
      </trkpt>
      <trkpt lat="46.41174" lon="0.30666">
        <ele>107.42030839808</ele>
        <time>2021-05-02T07:14:53Z</time>
      </trkpt>
      <trkpt lat="46.41172" lon="0.30668">
        <ele>107.91786612943</ele>
        <time>2021-05-02T07:14:55Z</time>
      </trkpt>
      <trkpt lat="46.4117" lon="0.3067">
        <ele>107.75073570386</ele>
        <time>2021-05-02T07:14:57Z</time>
      </trkpt>
      <trkpt lat="46.41169" lon="0.30673">
        <ele>108.64324512705</ele>
        <time>2021-05-02T07:14:59Z</time>
      </trkpt>
      <trkpt lat="46.41167" lon="0.30676">
        <ele>108.49493475445</ele>
        <time>2021-05-02T07:15:01Z</time>
      </trkpt>
      <trkpt lat="46.41165" lon="0.30678">
        <ele>108.54812731128</ele>
        <time>2021-05-02T07:15:03Z</time>
      </trkpt>
      <trkpt lat="46.41163" lon="0.30681">
        <ele>108.41629379801</ele>
        <time>2021-05-02T07:15:06Z</time>
      </trkpt>
      <trkpt lat="46.41161" lon="0.30683">
        <ele>108.75622790121</ele>
        <time>2021-05-02T07:15:08Z</time>
      </trkpt>
      <trkpt lat="46.41158" lon="0.30685">
        <ele>109.01870561764</ele>
        <time>2021-05-02T07:15:11Z</time>
      </trkpt>
      <trkpt lat="46.41156" lon="0.30685">
        <ele>109.30904277787</ele>
        <time>2021-05-02T07:15:13Z</time>
      </trkpt>
      <trkpt lat="46.41154" lon="0.30685">
        <ele>109.51082446706</ele>
        <time>2021-05-02T07:15:15Z</time>
      </trkpt>
      <trkpt lat="46.41152" lon="0.30685">
        <ele>109.60289712716</ele>
        <time>2021-05-02T07:15:17Z</time>
      </trkpt>
      <trkpt lat="46.41149" lon="0.30685">
        <ele>110.25459271576</ele>
        <time>2021-05-02T07:15:19Z</time>
      </trkpt>
      <trkpt lat="46.41147" lon="0.30685">
        <ele>110.35824105609</ele>
        <time>2021-05-02T07:15:21Z</time>
      </trkpt>
      <trkpt lat="46.41144" lon="0.30685">
        <ele>110.87426489312</ele>
        <time>2021-05-02T07:15:23Z</time>
      </trkpt>
      <trkpt lat="46.41142" lon="0.30685">
        <ele>110.90341182798</ele>
        <time>2021-05-02T07:15:25Z</time>
      </trkpt>
      <trkpt lat="46.4114" lon="0.30684">
        <ele>111.133959339</ele>
        <time>2021-05-02T07:15:27Z</time>
      </trkpt>
      <trkpt lat="46.41138" lon="0.30684">
        <ele>111.52765651792</ele>
        <time>2021-05-02T07:15:28Z</time>
      </trkpt>
      <trkpt lat="46.41137" lon="0.30683">
        <ele>111.55551251862</ele>
        <time>2021-05-02T07:15:30Z</time>
      </trkpt>
      <trkpt lat="46.41134" lon="0.30681">
        <ele>112.12565376144</ele>
        <time>2021-05-02T07:15:32Z</time>
      </trkpt>
      <trkpt lat="46.41132" lon="0.3068">
        <ele>112.35659329128</ele>
        <time>2021-05-02T07:15:34Z</time>
      </trkpt>
      <trkpt lat="46.41129" lon="0.30679">
        <ele>112.2840890903</ele>
        <time>2021-05-02T07:15:36Z</time>
      </trkpt>
      <trkpt lat="46.41127" lon="0.3068">
        <ele>113.17729763687</ele>
        <time>2021-05-02T07:15:38Z</time>
      </trkpt>
      <trkpt lat="46.41124" lon="0.3068">
        <ele>113.24011399504</ele>
        <time>2021-05-02T07:15:41Z</time>
      </trkpt>
      <trkpt lat="46.41122" lon="0.30679">
        <ele>113.2969584167</ele>
        <time>2021-05-02T07:15:43Z</time>
      </trkpt>
      <trkpt lat="46.4112" lon="0.30678">
        <ele>114.07384168915</ele>
        <time>2021-05-02T07:15:45Z</time>
      </trkpt>
      <trkpt lat="46.41117" lon="0.30678">
        <ele>114.40475478023</ele>
        <time>2021-05-02T07:15:47Z</time>
      </trkpt>
      <trkpt lat="46.41114" lon="0.30678">
        <ele>114.25053685345</ele>
        <time>2021-05-02T07:15:49Z</time>
      </trkpt>
      <trkpt lat="46.41112" lon="0.30677">
        <ele>114.09735346865</ele>
        <time>2021-05-02T07:15:51Z</time>
      </trkpt>
      <trkpt lat="46.4111" lon="0.30676">
        <ele>114.47161682509</ele>
        <time>2021-05-02T07:15:52Z</time>
      </trkpt>
      <trkpt lat="46.41107" lon="0.30677">
        <ele>114.64526051283</ele>
        <time>2021-05-02T07:15:54Z</time>
      </trkpt>
      <trkpt lat="46.41105" lon="0.30676">
        <ele>114.557175369</ele>
        <time>2021-05-02T07:15:56Z</time>
      </trkpt>
      <trkpt lat="46.41103" lon="0.30676">
        <ele>115.04358334653</ele>
        <time>2021-05-02T07:15:58Z</time>
      </trkpt>
      <trkpt lat="46.41101" lon="0.30676">
        <ele>115.2136225272</ele>
        <time>2021-05-02T07:16:01Z</time>
      </trkpt>
      <trkpt lat="46.41098" lon="0.30676">
        <ele>115.03514337167</ele>
        <time>2021-05-02T07:16:03Z</time>
      </trkpt>
      <trkpt lat="46.41096" lon="0.30676">
        <ele>115.36464929394</ele>
        <time>2021-05-02T07:16:08Z</time>
      </trkpt>
      <trkpt lat="46.41094" lon="0.30677">
        <ele>115.50523969159</ele>
        <time>2021-05-02T07:16:10Z</time>
      </trkpt>
      <trkpt lat="46.41092" lon="0.30676">
        <ele>115.58577244356</ele>
        <time>2021-05-02T07:16:23Z</time>
      </trkpt>
      <trkpt lat="46.4109" lon="0.30677">
        <ele>115.63419139292</ele>
        <time>2021-05-02T07:16:39Z</time>
      </trkpt>
      <trkpt lat="46.41089" lon="0.30678">
        <ele>115.8912633881</ele>
        <time>2021-05-02T07:16:45Z</time>
      </trkpt>
      <trkpt lat="46.41086" lon="0.30677">
        <ele>116.13311015908</ele>
        <time>2021-05-02T07:17:02Z</time>
      </trkpt>
      <trkpt lat="46.41087" lon="0.3068">
        <ele>115.9656857485</ele>
        <time>2021-05-02T07:17:22Z</time>
      </trkpt>
      <trkpt lat="46.41086" lon="0.30682">
        <ele>115.9443661673</ele>
        <time>2021-05-02T07:18:10Z</time>
      </trkpt>
      <trkpt lat="46.41084" lon="0.30685">
        <ele>116.05214085244</ele>
        <time>2021-05-02T07:18:14Z</time>
      </trkpt>
      <trkpt lat="46.41083" lon="0.30687">
        <ele>116.1567424098</ele>
        <time>2021-05-02T07:18:16Z</time>
      </trkpt>
      <trkpt lat="46.41082" lon="0.3069">
        <ele>116.11142918468</ele>
        <time>2021-05-02T07:18:19Z</time>
      </trkpt>
      <trkpt lat="46.4108" lon="0.30692">
        <ele>116.11928615719</ele>
        <time>2021-05-02T07:18:21Z</time>
      </trkpt>
      <trkpt lat="46.41078" lon="0.30694">
        <ele>116.39792817086</ele>
        <time>2021-05-02T07:18:23Z</time>
      </trkpt>
      <trkpt lat="46.41076" lon="0.30697">
        <ele>116.50846222416</ele>
        <time>2021-05-02T07:18:26Z</time>
      </trkpt>
      <trkpt lat="46.41074" lon="0.30699">
        <ele>116.73909133114</ele>
        <time>2021-05-02T07:18:28Z</time>
      </trkpt>
      <trkpt lat="46.41072" lon="0.30701">
        <ele>116.83718876168</ele>
        <time>2021-05-02T07:18:30Z</time>
      </trkpt>
      <trkpt lat="46.4107" lon="0.30703">
        <ele>117.04111864697</ele>
        <time>2021-05-02T07:18:32Z</time>
      </trkpt>
      <trkpt lat="46.41068" lon="0.30705">
        <ele>117.2562273154</ele>
        <time>2021-05-02T07:18:34Z</time>
      </trkpt>
      <trkpt lat="46.41067" lon="0.30707">
        <ele>117.40329540428</ele>
        <time>2021-05-02T07:18:36Z</time>
      </trkpt>
      <trkpt lat="46.41065" lon="0.30709">
        <ele>117.47823256534</ele>
        <time>2021-05-02T07:18:38Z</time>
      </trkpt>
      <trkpt lat="46.41063" lon="0.3071">
        <ele>117.48674497195</ele>
        <time>2021-05-02T07:18:40Z</time>
      </trkpt>
      <trkpt lat="46.41061" lon="0.30713">
        <ele>117.71479806025</ele>
        <time>2021-05-02T07:18:41Z</time>
      </trkpt>
      <trkpt lat="46.4106" lon="0.30715">
        <ele>117.7289963467</ele>
        <time>2021-05-02T07:18:43Z</time>
      </trkpt>
      <trkpt lat="46.41057" lon="0.30718">
        <ele>117.76080731675</ele>
        <time>2021-05-02T07:18:45Z</time>
      </trkpt>
      <trkpt lat="46.41056" lon="0.3072">
        <ele>118.01050387137</ele>
        <time>2021-05-02T07:18:48Z</time>
      </trkpt>
      <trkpt lat="46.41054" lon="0.30723">
        <ele>118.13361235149</ele>
        <time>2021-05-02T07:18:50Z</time>
      </trkpt>
      <trkpt lat="46.41052" lon="0.30726">
        <ele>118.1605941439</ele>
        <time>2021-05-02T07:18:52Z</time>
      </trkpt>
      <trkpt lat="46.4105" lon="0.30728">
        <ele>117.73855611309</ele>
        <time>2021-05-02T07:18:54Z</time>
      </trkpt>
      <trkpt lat="46.41049" lon="0.3073">
        <ele>118.41989316512</ele>
        <time>2021-05-02T07:18:56Z</time>
      </trkpt>
      <trkpt lat="46.41047" lon="0.30733">
        <ele>117.74015773274</ele>
        <time>2021-05-02T07:18:58Z</time>
      </trkpt>
      <trkpt lat="46.41047" lon="0.30736">
        <ele>118.12828480545</ele>
        <time>2021-05-02T07:19:02Z</time>
      </trkpt>
      <trkpt lat="46.41044" lon="0.30739">
        <ele>118.71258809231</ele>
        <time>2021-05-02T07:19:04Z</time>
      </trkpt>
      <trkpt lat="46.41042" lon="0.30741">
        <ele>118.25456581078</ele>
        <time>2021-05-02T07:19:06Z</time>
      </trkpt>
      <trkpt lat="46.4104" lon="0.30743">
        <ele>118.45554612763</ele>
        <time>2021-05-02T07:19:07Z</time>
      </trkpt>
      <trkpt lat="46.41038" lon="0.30746">
        <ele>118.6517015826</ele>
        <time>2021-05-02T07:19:09Z</time>
      </trkpt>
      <trkpt lat="46.41036" lon="0.30747">
        <ele>118.96575105563</ele>
        <time>2021-05-02T07:19:11Z</time>
      </trkpt>
      <trkpt lat="46.41035" lon="0.30749">
        <ele>118.61671923008</ele>
        <time>2021-05-02T07:19:13Z</time>
      </trkpt>
      <trkpt lat="46.41033" lon="0.30751">
        <ele>119.24340726063</ele>
        <time>2021-05-02T07:19:15Z</time>
      </trkpt>
      <trkpt lat="46.41031" lon="0.30752">
        <ele>119.21412188187</ele>
        <time>2021-05-02T07:19:17Z</time>
      </trkpt>
      <trkpt lat="46.41029" lon="0.30755">
        <ele>119.21579802409</ele>
        <time>2021-05-02T07:19:19Z</time>
      </trkpt>
      <trkpt lat="46.41027" lon="0.30756">
        <ele>119.04311843403</ele>
        <time>2021-05-02T07:19:21Z</time>
      </trkpt>
      <trkpt lat="46.41024" lon="0.30757">
        <ele>119.14355645701</ele>
        <time>2021-05-02T07:19:23Z</time>
      </trkpt>
      <trkpt lat="46.41021" lon="0.3076">
        <ele>119.40306869708</ele>
        <time>2021-05-02T07:19:25Z</time>
      </trkpt>
      <trkpt lat="46.41018" lon="0.30762">
        <ele>119.24196415767</ele>
        <time>2021-05-02T07:19:27Z</time>
      </trkpt>
      <trkpt lat="46.41017" lon="0.30763">
        <ele>119.45570574701</ele>
        <time>2021-05-02T07:19:29Z</time>
      </trkpt>
      <trkpt lat="46.41015" lon="0.30765">
        <ele>119.57220238354</ele>
        <time>2021-05-02T07:19:31Z</time>
      </trkpt>
      <trkpt lat="46.41013" lon="0.30766">
        <ele>119.59281888139</ele>
        <time>2021-05-02T07:19:33Z</time>
      </trkpt>
      <trkpt lat="46.4101" lon="0.30766">
        <ele>119.99161932059</ele>
        <time>2021-05-02T07:19:35Z</time>
      </trkpt>
      <trkpt lat="46.41008" lon="0.30768">
        <ele>119.18591575418</ele>
        <time>2021-05-02T07:19:37Z</time>
      </trkpt>
      <trkpt lat="46.41006" lon="0.3077">
        <ele>120.11048629787</ele>
        <time>2021-05-02T07:19:39Z</time>
      </trkpt>
      <trkpt lat="46.41004" lon="0.30772">
        <ele>120.08176252153</ele>
        <time>2021-05-02T07:19:41Z</time>
      </trkpt>
      <trkpt lat="46.41002" lon="0.30773">
        <ele>119.80119604245</ele>
        <time>2021-05-02T07:19:43Z</time>
      </trkpt>
      <trkpt lat="46.40999" lon="0.30775">
        <ele>120.09148104582</ele>
        <time>2021-05-02T07:19:45Z</time>
      </trkpt>
      <trkpt lat="46.40996" lon="0.30777">
        <ele>120.06354981661</ele>
        <time>2021-05-02T07:19:47Z</time>
      </trkpt>
      <trkpt lat="46.40993" lon="0.30777">
        <ele>120.18358700629</ele>
        <time>2021-05-02T07:19:50Z</time>
      </trkpt>
      <trkpt lat="46.40991" lon="0.30779">
        <ele>120.32256612275</ele>
        <time>2021-05-02T07:19:52Z</time>
      </trkpt>
      <trkpt lat="46.40988" lon="0.3078">
        <ele>120.09194526356</ele>
        <time>2021-05-02T07:19:54Z</time>
      </trkpt>
      <trkpt lat="46.40986" lon="0.30781">
        <ele>120.13629987463</ele>
        <time>2021-05-02T07:19:56Z</time>
      </trkpt>
      <trkpt lat="46.40983" lon="0.30782">
        <ele>120.55500231497</ele>
        <time>2021-05-02T07:19:58Z</time>
      </trkpt>
      <trkpt lat="46.40981" lon="0.30783">
        <ele>120.29441463389</ele>
        <time>2021-05-02T07:20:00Z</time>
      </trkpt>
      <trkpt lat="46.40979" lon="0.30784">
        <ele>120.96802950371</ele>
        <time>2021-05-02T07:20:03Z</time>
      </trkpt>
      <trkpt lat="46.40976" lon="0.30785">
        <ele>120.19665810373</ele>
        <time>2021-05-02T07:20:05Z</time>
      </trkpt>
      <trkpt lat="46.40974" lon="0.30787">
        <ele>121.31454199087</ele>
        <time>2021-05-02T07:20:07Z</time>
      </trkpt>
      <trkpt lat="46.40971" lon="0.30788">
        <ele>121.34223904461</ele>
        <time>2021-05-02T07:20:08Z</time>
      </trkpt>
      <trkpt lat="46.40969" lon="0.30789">
        <ele>121.42468440719</ele>
        <time>2021-05-02T07:20:10Z</time>
      </trkpt>
      <trkpt lat="46.40966" lon="0.30789">
        <ele>121.76937319431</ele>
        <time>2021-05-02T07:20:12Z</time>
      </trkpt>
      <trkpt lat="46.40964" lon="0.30791">
        <ele>121.53294990677</ele>
        <time>2021-05-02T07:20:14Z</time>
      </trkpt>
      <trkpt lat="46.40962" lon="0.30792">
        <ele>121.68691248167</ele>
        <time>2021-05-02T07:20:16Z</time>
      </trkpt>
      <trkpt lat="46.40959" lon="0.30792">
        <ele>121.58958348259</ele>
        <time>2021-05-02T07:20:18Z</time>
      </trkpt>
      <trkpt lat="46.40956" lon="0.30792">
        <ele>121.77829694375</ele>
        <time>2021-05-02T07:20:20Z</time>
      </trkpt>
      <trkpt lat="46.40954" lon="0.30793">
        <ele>121.84419415984</ele>
        <time>2021-05-02T07:20:22Z</time>
      </trkpt>
      <trkpt lat="46.40952" lon="0.30793">
        <ele>121.86493460927</ele>
        <time>2021-05-02T07:20:24Z</time>
      </trkpt>
      <trkpt lat="46.40949" lon="0.30794">
        <ele>121.99315833766</ele>
        <time>2021-05-02T07:20:26Z</time>
      </trkpt>
      <trkpt lat="46.40946" lon="0.30795">
        <ele>121.95964559261</ele>
        <time>2021-05-02T07:20:28Z</time>
      </trkpt>
      <trkpt lat="46.40944" lon="0.30795">
        <ele>121.92565601878</ele>
        <time>2021-05-02T07:20:30Z</time>
      </trkpt>
      <trkpt lat="46.40941" lon="0.30795">
        <ele>121.94659877475</ele>
        <time>2021-05-02T07:20:32Z</time>
      </trkpt>
      <trkpt lat="46.40939" lon="0.30796">
        <ele>122.20224724151</ele>
        <time>2021-05-02T07:20:34Z</time>
      </trkpt>
      <trkpt lat="46.40937" lon="0.30797">
        <ele>122.47395575512</ele>
        <time>2021-05-02T07:20:36Z</time>
      </trkpt>
      <trkpt lat="46.40934" lon="0.30797">
        <ele>122.45227109548</ele>
        <time>2021-05-02T07:20:38Z</time>
      </trkpt>
      <trkpt lat="46.40931" lon="0.30798">
        <ele>122.33998677693</ele>
        <time>2021-05-02T07:20:40Z</time>
      </trkpt>
      <trkpt lat="46.40928" lon="0.30798">
        <ele>122.75364495255</ele>
        <time>2021-05-02T07:20:43Z</time>
      </trkpt>
      <trkpt lat="46.40926" lon="0.30798">
        <ele>122.91584433056</ele>
        <time>2021-05-02T07:20:45Z</time>
      </trkpt>
      <trkpt lat="46.40923" lon="0.30799">
        <ele>123.02393731754</ele>
        <time>2021-05-02T07:20:47Z</time>
      </trkpt>
      <trkpt lat="46.40921" lon="0.30799">
        <ele>122.98228075821</ele>
        <time>2021-05-02T07:20:49Z</time>
      </trkpt>
      <trkpt lat="46.40919" lon="0.308">
        <ele>122.92395903543</ele>
        <time>2021-05-02T07:20:51Z</time>
      </trkpt>
      <trkpt lat="46.40916" lon="0.30802">
        <ele>122.92294766102</ele>
        <time>2021-05-02T07:20:53Z</time>
      </trkpt>
      <trkpt lat="46.40914" lon="0.30803">
        <ele>123.19866678119</ele>
        <time>2021-05-02T07:20:55Z</time>
      </trkpt>
      <trkpt lat="46.40911" lon="0.30804">
        <ele>123.92656523641</ele>
        <time>2021-05-02T07:20:57Z</time>
      </trkpt>
      <trkpt lat="46.40909" lon="0.30805">
        <ele>123.70294730831</ele>
        <time>2021-05-02T07:20:58Z</time>
      </trkpt>
      <trkpt lat="46.40907" lon="0.30808">
        <ele>122.93658278696</ele>
        <time>2021-05-02T07:21:00Z</time>
      </trkpt>
      <trkpt lat="46.40905" lon="0.3081">
        <ele>123.60747667309</ele>
        <time>2021-05-02T07:21:03Z</time>
      </trkpt>
      <trkpt lat="46.40903" lon="0.30811">
        <ele>123.31842253078</ele>
        <time>2021-05-02T07:21:04Z</time>
      </trkpt>
      <trkpt lat="46.409" lon="0.30812">
        <ele>123.63583641872</ele>
        <time>2021-05-02T07:21:06Z</time>
      </trkpt>
      <trkpt lat="46.40899" lon="0.30815">
        <ele>123.01766636595</ele>
        <time>2021-05-02T07:21:08Z</time>
      </trkpt>
      <trkpt lat="46.40896" lon="0.30817">
        <ele>123.78825812973</ele>
        <time>2021-05-02T07:21:11Z</time>
      </trkpt>
      <trkpt lat="46.40894" lon="0.30818">
        <ele>123.86809641495</ele>
        <time>2021-05-02T07:21:13Z</time>
      </trkpt>
      <trkpt lat="46.40891" lon="0.30819">
        <ele>124.29953809269</ele>
        <time>2021-05-02T07:21:15Z</time>
      </trkpt>
      <trkpt lat="46.40889" lon="0.30821">
        <ele>123.964319597</ele>
        <time>2021-05-02T07:21:17Z</time>
      </trkpt>
      <trkpt lat="46.40887" lon="0.30821">
        <ele>124.0793709252</ele>
        <time>2021-05-02T07:21:19Z</time>
      </trkpt>
      <trkpt lat="46.40884" lon="0.30823">
        <ele>124.20738423429</ele>
        <time>2021-05-02T07:21:21Z</time>
      </trkpt>
      <trkpt lat="46.40881" lon="0.30824">
        <ele>124.41515073832</ele>
        <time>2021-05-02T07:21:23Z</time>
      </trkpt>
      <trkpt lat="46.40879" lon="0.30825">
        <ele>124.17762038391</ele>
        <time>2021-05-02T07:21:25Z</time>
      </trkpt>
      <trkpt lat="46.40877" lon="0.30826">
        <ele>124.6196033163</ele>
        <time>2021-05-02T07:21:27Z</time>
      </trkpt>
      <trkpt lat="46.40875" lon="0.30827">
        <ele>124.03689007461</ele>
        <time>2021-05-02T07:21:29Z</time>
      </trkpt>
      <trkpt lat="46.40873" lon="0.30828">
        <ele>124.30983059667</ele>
        <time>2021-05-02T07:21:31Z</time>
      </trkpt>
      <trkpt lat="46.4087" lon="0.30829">
        <ele>124.39302970562</ele>
        <time>2021-05-02T07:21:33Z</time>
      </trkpt>
      <trkpt lat="46.40868" lon="0.3083">
        <ele>124.55224814732</ele>
        <time>2021-05-02T07:21:35Z</time>
      </trkpt>
      <trkpt lat="46.40866" lon="0.30831">
        <ele>124.49371651281</ele>
        <time>2021-05-02T07:21:37Z</time>
      </trkpt>
      <trkpt lat="46.40864" lon="0.30832">
        <ele>124.5925081335</ele>
        <time>2021-05-02T07:21:39Z</time>
      </trkpt>
      <trkpt lat="46.40862" lon="0.30833">
        <ele>124.46511821821</ele>
        <time>2021-05-02T07:21:41Z</time>
      </trkpt>
      <trkpt lat="46.40859" lon="0.30834">
        <ele>124.66317648813</ele>
        <time>2021-05-02T07:21:43Z</time>
      </trkpt>
      <trkpt lat="46.40856" lon="0.30835">
        <ele>124.99475631677</ele>
        <time>2021-05-02T07:21:45Z</time>
      </trkpt>
      <trkpt lat="46.40853" lon="0.30836">
        <ele>125.06715924479</ele>
        <time>2021-05-02T07:21:47Z</time>
      </trkpt>
      <trkpt lat="46.40851" lon="0.30838">
        <ele>125.19706710987</ele>
        <time>2021-05-02T07:21:49Z</time>
      </trkpt>
      <trkpt lat="46.40848" lon="0.30839">
        <ele>125.04503395688</ele>
        <time>2021-05-02T07:21:51Z</time>
      </trkpt>
      <trkpt lat="46.40846" lon="0.3084">
        <ele>124.76545408648</ele>
        <time>2021-05-02T07:21:53Z</time>
      </trkpt>
      <trkpt lat="46.40843" lon="0.3084">
        <ele>124.65420511086</ele>
        <time>2021-05-02T07:21:55Z</time>
      </trkpt>
      <trkpt lat="46.40841" lon="0.30841">
        <ele>124.74000076018</ele>
        <time>2021-05-02T07:21:57Z</time>
      </trkpt>
      <trkpt lat="46.40838" lon="0.30842">
        <ele>125.02137587965</ele>
        <time>2021-05-02T07:21:59Z</time>
      </trkpt>
      <trkpt lat="46.40835" lon="0.30843">
        <ele>124.51722808182</ele>
        <time>2021-05-02T07:22:02Z</time>
      </trkpt>
      <trkpt lat="46.40832" lon="0.30842">
        <ele>125.17853961978</ele>
        <time>2021-05-02T07:22:05Z</time>
      </trkpt>
      <trkpt lat="46.40829" lon="0.30843">
        <ele>124.9627203038</ele>
        <time>2021-05-02T07:22:07Z</time>
      </trkpt>
      <trkpt lat="46.40827" lon="0.30843">
        <ele>125.14068691153</ele>
        <time>2021-05-02T07:22:09Z</time>
      </trkpt>
      <trkpt lat="46.40825" lon="0.30843">
        <ele>124.8233208498</ele>
        <time>2021-05-02T07:22:11Z</time>
      </trkpt>
      <trkpt lat="46.40822" lon="0.30844">
        <ele>124.89472647663</ele>
        <time>2021-05-02T07:22:13Z</time>
      </trkpt>
      <trkpt lat="46.40819" lon="0.30845">
        <ele>125.13136696164</ele>
        <time>2021-05-02T07:22:15Z</time>
      </trkpt>
      <trkpt lat="46.40817" lon="0.30845">
        <ele>125.59441291355</ele>
        <time>2021-05-02T07:22:17Z</time>
      </trkpt>
      <trkpt lat="46.40814" lon="0.30845">
        <ele>125.84937758185</ele>
        <time>2021-05-02T07:22:19Z</time>
      </trkpt>
      <trkpt lat="46.40812" lon="0.30846">
        <ele>125.5501095131</ele>
        <time>2021-05-02T07:22:21Z</time>
      </trkpt>
      <trkpt lat="46.40809" lon="0.30846">
        <ele>125.69480024185</ele>
        <time>2021-05-02T07:22:23Z</time>
      </trkpt>
      <trkpt lat="46.40807" lon="0.30846">
        <ele>125.48464228399</ele>
        <time>2021-05-02T07:22:25Z</time>
      </trkpt>
      <trkpt lat="46.40804" lon="0.30848">
        <ele>125.70365984645</ele>
        <time>2021-05-02T07:22:26Z</time>
      </trkpt>
      <trkpt lat="46.40802" lon="0.30848">
        <ele>125.82150192652</ele>
        <time>2021-05-02T07:22:28Z</time>
      </trkpt>
      <trkpt lat="46.40799" lon="0.30848">
        <ele>126.35044510104</ele>
        <time>2021-05-02T07:22:30Z</time>
      </trkpt>
      <trkpt lat="46.40797" lon="0.30849">
        <ele>125.96420988813</ele>
        <time>2021-05-02T07:22:32Z</time>
      </trkpt>
      <trkpt lat="46.40794" lon="0.3085">
        <ele>126.08135650959</ele>
        <time>2021-05-02T07:22:34Z</time>
      </trkpt>
      <trkpt lat="46.40791" lon="0.30851">
        <ele>126.22183638345</ele>
        <time>2021-05-02T07:22:36Z</time>
      </trkpt>
      <trkpt lat="46.40788" lon="0.30851">
        <ele>125.36608452629</ele>
        <time>2021-05-02T07:22:38Z</time>
      </trkpt>
      <trkpt lat="46.40785" lon="0.3085">
        <ele>126.40758756641</ele>
        <time>2021-05-02T07:22:40Z</time>
      </trkpt>
      <trkpt lat="46.40782" lon="0.3085">
        <ele>126.02541174926</ele>
        <time>2021-05-02T07:22:42Z</time>
      </trkpt>
      <trkpt lat="46.40779" lon="0.3085">
        <ele>126.02984549291</ele>
        <time>2021-05-02T07:22:44Z</time>
      </trkpt>
      <trkpt lat="46.40776" lon="0.30851">
        <ele>125.96003974136</ele>
        <time>2021-05-02T07:22:46Z</time>
      </trkpt>
      <trkpt lat="46.40774" lon="0.30852">
        <ele>126.06460658088</ele>
        <time>2021-05-02T07:22:48Z</time>
      </trkpt>
      <trkpt lat="46.40772" lon="0.30852">
        <ele>126.34001533128</ele>
        <time>2021-05-02T07:22:50Z</time>
      </trkpt>
      <trkpt lat="46.40769" lon="0.30852">
        <ele>126.54689600877</ele>
        <time>2021-05-02T07:22:52Z</time>
      </trkpt>
      <trkpt lat="46.40767" lon="0.30855">
        <ele>126.82922550943</ele>
        <time>2021-05-02T07:22:54Z</time>
      </trkpt>
      <trkpt lat="46.40765" lon="0.30856">
        <ele>126.22045129538</ele>
        <time>2021-05-02T07:22:56Z</time>
      </trkpt>
      <trkpt lat="46.40763" lon="0.30858">
        <ele>126.38710053265</ele>
        <time>2021-05-02T07:22:58Z</time>
      </trkpt>
      <trkpt lat="46.4076" lon="0.30859">
        <ele>126.53911809251</ele>
        <time>2021-05-02T07:23:00Z</time>
      </trkpt>
      <trkpt lat="46.40757" lon="0.3086">
        <ele>126.36248940974</ele>
        <time>2021-05-02T07:23:02Z</time>
      </trkpt>
      <trkpt lat="46.40754" lon="0.3086">
        <ele>127.15241042338</ele>
        <time>2021-05-02T07:23:04Z</time>
      </trkpt>
      <trkpt lat="46.40751" lon="0.30861">
        <ele>126.64181857929</ele>
        <time>2021-05-02T07:23:06Z</time>
      </trkpt>
      <trkpt lat="46.40749" lon="0.30862">
        <ele>126.84992086049</ele>
        <time>2021-05-02T07:23:08Z</time>
      </trkpt>
      <trkpt lat="46.40747" lon="0.30863">
        <ele>126.8061876921</ele>
        <time>2021-05-02T07:23:10Z</time>
      </trkpt>
      <trkpt lat="46.40745" lon="0.30864">
        <ele>127.20701174438</ele>
        <time>2021-05-02T07:23:12Z</time>
      </trkpt>
      <trkpt lat="46.40742" lon="0.30864">
        <ele>127.28064790089</ele>
        <time>2021-05-02T07:23:14Z</time>
      </trkpt>
      <trkpt lat="46.40739" lon="0.30865">
        <ele>127.03730975185</ele>
        <time>2021-05-02T07:23:16Z</time>
      </trkpt>
      <trkpt lat="46.40737" lon="0.30865">
        <ele>126.31358720455</ele>
        <time>2021-05-02T07:23:18Z</time>
      </trkpt>
      <trkpt lat="46.40735" lon="0.30864">
        <ele>127.2056989437</ele>
        <time>2021-05-02T07:23:20Z</time>
      </trkpt>
      <trkpt lat="46.40733" lon="0.30862">
        <ele>126.67924601305</ele>
        <time>2021-05-02T07:23:22Z</time>
      </trkpt>
      <trkpt lat="46.4073" lon="0.3086">
        <ele>127.40857750084</ele>
        <time>2021-05-02T07:23:24Z</time>
      </trkpt>
      <trkpt lat="46.40727" lon="0.30858">
        <ele>127.31025315635</ele>
        <time>2021-05-02T07:23:26Z</time>
      </trkpt>
      <trkpt lat="46.40725" lon="0.30855">
        <ele>127.10109166801</ele>
        <time>2021-05-02T07:23:28Z</time>
      </trkpt>
      <trkpt lat="46.40722" lon="0.30854">
        <ele>126.57647450082</ele>
        <time>2021-05-02T07:23:30Z</time>
      </trkpt>
      <trkpt lat="46.40721" lon="0.30852">
        <ele>126.71734204609</ele>
        <time>2021-05-02T07:23:32Z</time>
      </trkpt>
      <trkpt lat="46.40719" lon="0.30849">
        <ele>126.6390442159</ele>
        <time>2021-05-02T07:23:34Z</time>
      </trkpt>
      <trkpt lat="46.40717" lon="0.30847">
        <ele>126.72152351588</ele>
        <time>2021-05-02T07:23:36Z</time>
      </trkpt>
      <trkpt lat="46.40715" lon="0.30845">
        <ele>127.24630220328</ele>
        <time>2021-05-02T07:23:38Z</time>
      </trkpt>
      <trkpt lat="46.40714" lon="0.30843">
        <ele>126.84400841687</ele>
        <time>2021-05-02T07:23:40Z</time>
      </trkpt>
      <trkpt lat="46.40712" lon="0.3084">
        <ele>126.97766232863</ele>
        <time>2021-05-02T07:23:42Z</time>
      </trkpt>
      <trkpt lat="46.4071" lon="0.30838">
        <ele>126.74781263713</ele>
        <time>2021-05-02T07:23:44Z</time>
      </trkpt>
      <trkpt lat="46.40709" lon="0.30835">
        <ele>126.75820559915</ele>
        <time>2021-05-02T07:23:46Z</time>
      </trkpt>
      <trkpt lat="46.40707" lon="0.30833">
        <ele>127.49626690149</ele>
        <time>2021-05-02T07:23:48Z</time>
      </trkpt>
      <trkpt lat="46.40705" lon="0.3083">
        <ele>127.08238304406</ele>
        <time>2021-05-02T07:23:50Z</time>
      </trkpt>
      <trkpt lat="46.40703" lon="0.30828">
        <ele>126.80310640577</ele>
        <time>2021-05-02T07:23:52Z</time>
      </trkpt>
      <trkpt lat="46.40701" lon="0.30826">
        <ele>126.76821503881</ele>
        <time>2021-05-02T07:23:54Z</time>
      </trkpt>
      <trkpt lat="46.40699" lon="0.30823">
        <ele>127.09318166878</ele>
        <time>2021-05-02T07:23:56Z</time>
      </trkpt>
      <trkpt lat="46.40697" lon="0.3082">
        <ele>127.6386021534</ele>
        <time>2021-05-02T07:23:58Z</time>
      </trkpt>
      <trkpt lat="46.40695" lon="0.30818">
        <ele>126.84576203395</ele>
        <time>2021-05-02T07:24:00Z</time>
      </trkpt>
      <trkpt lat="46.40693" lon="0.30816">
        <ele>127.2754267808</ele>
        <time>2021-05-02T07:24:02Z</time>
      </trkpt>
      <trkpt lat="46.40691" lon="0.30813">
        <ele>127.05131592788</ele>
        <time>2021-05-02T07:24:04Z</time>
      </trkpt>
      <trkpt lat="46.40688" lon="0.30811">
        <ele>127.01591079589</ele>
        <time>2021-05-02T07:24:06Z</time>
      </trkpt>
      <trkpt lat="46.40687" lon="0.30808">
        <ele>127.29042724986</ele>
        <time>2021-05-02T07:24:08Z</time>
      </trkpt>
      <trkpt lat="46.40685" lon="0.30806">
        <ele>127.04721314833</ele>
        <time>2021-05-02T07:24:10Z</time>
      </trkpt>
      <trkpt lat="46.40683" lon="0.30804">
        <ele>126.62259514164</ele>
        <time>2021-05-02T07:24:12Z</time>
      </trkpt>
      <trkpt lat="46.40681" lon="0.30801">
        <ele>126.47056527063</ele>
        <time>2021-05-02T07:24:14Z</time>
      </trkpt>
      <trkpt lat="46.40679" lon="0.30799">
        <ele>126.86258999817</ele>
        <time>2021-05-02T07:24:16Z</time>
      </trkpt>
      <trkpt lat="46.40677" lon="0.30796">
        <ele>126.90262734797</ele>
        <time>2021-05-02T07:24:18Z</time>
      </trkpt>
      <trkpt lat="46.40676" lon="0.30794">
        <ele>126.52169932704</ele>
        <time>2021-05-02T07:24:20Z</time>
      </trkpt>
      <trkpt lat="46.40674" lon="0.30792">
        <ele>127.19970916212</ele>
        <time>2021-05-02T07:24:22Z</time>
      </trkpt>
      <trkpt lat="46.40672" lon="0.30789">
        <ele>126.12888063677</ele>
        <time>2021-05-02T07:24:24Z</time>
      </trkpt>
      <trkpt lat="46.40671" lon="0.30788">
        <ele>126.1196733322</ele>
        <time>2021-05-02T07:24:27Z</time>
      </trkpt>
      <trkpt lat="46.40668" lon="0.30786">
        <ele>126.40060118679</ele>
        <time>2021-05-02T07:24:29Z</time>
      </trkpt>
      <trkpt lat="46.40667" lon="0.30784">
        <ele>126.63729157113</ele>
        <time>2021-05-02T07:24:31Z</time>
      </trkpt>
      <trkpt lat="46.40665" lon="0.30782">
        <ele>126.76592763886</ele>
        <time>2021-05-02T07:24:33Z</time>
      </trkpt>
      <trkpt lat="46.40663" lon="0.30779">
        <ele>126.96506178193</ele>
        <time>2021-05-02T07:24:35Z</time>
      </trkpt>
      <trkpt lat="46.40662" lon="0.30777">
        <ele>127.07033926714</ele>
        <time>2021-05-02T07:24:36Z</time>
      </trkpt>
      <trkpt lat="46.4066" lon="0.30774">
        <ele>126.48451338056</ele>
        <time>2021-05-02T07:24:38Z</time>
      </trkpt>
      <trkpt lat="46.40658" lon="0.30772">
        <ele>126.18732816074</ele>
        <time>2021-05-02T07:24:40Z</time>
      </trkpt>
      <trkpt lat="46.40657" lon="0.30771">
        <ele>126.28891932592</ele>
        <time>2021-05-02T07:24:41Z</time>
      </trkpt>
      <trkpt lat="46.40655" lon="0.30769">
        <ele>126.38499119971</ele>
        <time>2021-05-02T07:24:42Z</time>
      </trkpt>
      <trkpt lat="46.40653" lon="0.30767">
        <ele>126.43325322028</ele>
        <time>2021-05-02T07:24:44Z</time>
      </trkpt>
      <trkpt lat="46.40651" lon="0.30765">
        <ele>126.3421232095</ele>
        <time>2021-05-02T07:24:46Z</time>
      </trkpt>
      <trkpt lat="46.40648" lon="0.30763">
        <ele>126.42278632708</ele>
        <time>2021-05-02T07:24:49Z</time>
      </trkpt>
      <trkpt lat="46.40646" lon="0.30763">
        <ele>126.73626027815</ele>
        <time>2021-05-02T07:24:51Z</time>
      </trkpt>
      <trkpt lat="46.40644" lon="0.30761">
        <ele>126.45057869423</ele>
        <time>2021-05-02T07:24:53Z</time>
      </trkpt>
      <trkpt lat="46.40642" lon="0.30761">
        <ele>125.89543263335</ele>
        <time>2021-05-02T07:24:55Z</time>
      </trkpt>
      <trkpt lat="46.4064" lon="0.30762">
        <ele>125.92583982181</ele>
        <time>2021-05-02T07:24:57Z</time>
      </trkpt>
      <trkpt lat="46.40637" lon="0.30761">
        <ele>125.41975706629</ele>
        <time>2021-05-02T07:24:59Z</time>
      </trkpt>
      <trkpt lat="46.40634" lon="0.30762">
        <ele>125.82651452348</ele>
        <time>2021-05-02T07:25:01Z</time>
      </trkpt>
      <trkpt lat="46.40632" lon="0.30762">
        <ele>125.58153863251</ele>
        <time>2021-05-02T07:25:03Z</time>
      </trkpt>
      <trkpt lat="46.40631" lon="0.30764">
        <ele>125.82996234391</ele>
        <time>2021-05-02T07:25:05Z</time>
      </trkpt>
      <trkpt lat="46.40628" lon="0.30765">
        <ele>125.64446587488</ele>
        <time>2021-05-02T07:25:07Z</time>
      </trkpt>
      <trkpt lat="46.40625" lon="0.30766">
        <ele>125.61678627878</ele>
        <time>2021-05-02T07:25:09Z</time>
      </trkpt>
      <trkpt lat="46.40623" lon="0.30767">
        <ele>125.19364929944</ele>
        <time>2021-05-02T07:25:11Z</time>
      </trkpt>
      <trkpt lat="46.40621" lon="0.30768">
        <ele>126.38786168396</ele>
        <time>2021-05-02T07:25:13Z</time>
      </trkpt>
      <trkpt lat="46.40619" lon="0.3077">
        <ele>125.20664978214</ele>
        <time>2021-05-02T07:25:15Z</time>
      </trkpt>
      <trkpt lat="46.40617" lon="0.30772">
        <ele>125.48568520788</ele>
        <time>2021-05-02T07:25:17Z</time>
      </trkpt>
      <trkpt lat="46.40615" lon="0.30774">
        <ele>125.65898629185</ele>
        <time>2021-05-02T07:25:19Z</time>
      </trkpt>
      <trkpt lat="46.40613" lon="0.30775">
        <ele>125.8305644989</ele>
        <time>2021-05-02T07:25:21Z</time>
      </trkpt>
      <trkpt lat="46.40611" lon="0.30777">
        <ele>126.22404996119</ele>
        <time>2021-05-02T07:25:23Z</time>
      </trkpt>
      <trkpt lat="46.40609" lon="0.30779">
        <ele>125.21924447827</ele>
        <time>2021-05-02T07:25:25Z</time>
      </trkpt>
      <trkpt lat="46.40606" lon="0.30781">
        <ele>125.73577392008</ele>
        <time>2021-05-02T07:25:27Z</time>
      </trkpt>
      <trkpt lat="46.40603" lon="0.30784">
        <ele>125.72584557254</ele>
        <time>2021-05-02T07:25:29Z</time>
      </trkpt>
      <trkpt lat="46.40602" lon="0.30785">
        <ele>126.30269640684</ele>
        <time>2021-05-02T07:25:31Z</time>
      </trkpt>
      <trkpt lat="46.40599" lon="0.30787">
        <ele>125.8926370237</ele>
        <time>2021-05-02T07:25:33Z</time>
      </trkpt>
      <trkpt lat="46.40597" lon="0.30788">
        <ele>126.02217305731</ele>
        <time>2021-05-02T07:25:35Z</time>
      </trkpt>
      <trkpt lat="46.40594" lon="0.3079">
        <ele>125.83382797055</ele>
        <time>2021-05-02T07:25:36Z</time>
      </trkpt>
      <trkpt lat="46.40591" lon="0.30791">
        <ele>126.23285168782</ele>
        <time>2021-05-02T07:25:39Z</time>
      </trkpt>
      <trkpt lat="46.4059" lon="0.30794">
        <ele>126.31316568516</ele>
        <time>2021-05-02T07:25:41Z</time>
      </trkpt>
      <trkpt lat="46.40587" lon="0.30796">
        <ele>126.91644463968</ele>
        <time>2021-05-02T07:25:43Z</time>
      </trkpt>
      <trkpt lat="46.40584" lon="0.30797">
        <ele>126.09630409442</ele>
        <time>2021-05-02T07:25:46Z</time>
      </trkpt>
      <trkpt lat="46.40582" lon="0.30798">
        <ele>126.49730957299</ele>
        <time>2021-05-02T07:25:48Z</time>
      </trkpt>
      <trkpt lat="46.40579" lon="0.308">
        <ele>126.583407267</ele>
        <time>2021-05-02T07:25:50Z</time>
      </trkpt>
      <trkpt lat="46.40576" lon="0.308">
        <ele>126.52577036619</ele>
        <time>2021-05-02T07:25:52Z</time>
      </trkpt>
      <trkpt lat="46.40573" lon="0.30801">
        <ele>127.05571242422</ele>
        <time>2021-05-02T07:25:54Z</time>
      </trkpt>
      <trkpt lat="46.40571" lon="0.30802">
        <ele>127.13472268637</ele>
        <time>2021-05-02T07:25:56Z</time>
      </trkpt>
      <trkpt lat="46.40569" lon="0.30803">
        <ele>126.71650334168</ele>
        <time>2021-05-02T07:25:58Z</time>
      </trkpt>
      <trkpt lat="46.40567" lon="0.30803">
        <ele>126.50819367077</ele>
        <time>2021-05-02T07:26:00Z</time>
      </trkpt>
      <trkpt lat="46.40564" lon="0.30803">
        <ele>126.45062641613</ele>
        <time>2021-05-02T07:26:02Z</time>
      </trkpt>
      <trkpt lat="46.40561" lon="0.30804">
        <ele>126.97993671801</ele>
        <time>2021-05-02T07:26:04Z</time>
      </trkpt>
      <trkpt lat="46.40559" lon="0.30804">
        <ele>126.4967098562</ele>
        <time>2021-05-02T07:26:06Z</time>
      </trkpt>
      <trkpt lat="46.40556" lon="0.30804">
        <ele>126.89987894148</ele>
        <time>2021-05-02T07:26:08Z</time>
      </trkpt>
      <trkpt lat="46.40553" lon="0.30804">
        <ele>127.36093978677</ele>
        <time>2021-05-02T07:26:10Z</time>
      </trkpt>
      <trkpt lat="46.4055" lon="0.30804">
        <ele>126.75208828319</ele>
        <time>2021-05-02T07:26:12Z</time>
      </trkpt>
      <trkpt lat="46.40548" lon="0.30804">
        <ele>126.78680076171</ele>
        <time>2021-05-02T07:26:14Z</time>
      </trkpt>
      <trkpt lat="46.40545" lon="0.30804">
        <ele>126.89510437939</ele>
        <time>2021-05-02T07:26:16Z</time>
      </trkpt>
      <trkpt lat="46.40542" lon="0.30804">
        <ele>126.73364607338</ele>
        <time>2021-05-02T07:26:18Z</time>
      </trkpt>
      <trkpt lat="46.4054" lon="0.30803">
        <ele>126.88068130333</ele>
        <time>2021-05-02T07:26:20Z</time>
      </trkpt>
      <trkpt lat="46.40537" lon="0.30803">
        <ele>127.02170838229</ele>
        <time>2021-05-02T07:26:22Z</time>
      </trkpt>
      <trkpt lat="46.40534" lon="0.30802">
        <ele>126.9317243984</ele>
        <time>2021-05-02T07:26:24Z</time>
      </trkpt>
      <trkpt lat="46.40531" lon="0.30802">
        <ele>127.65683014691</ele>
        <time>2021-05-02T07:26:26Z</time>
      </trkpt>
      <trkpt lat="46.40529" lon="0.30802">
        <ele>127.1838704804</ele>
        <time>2021-05-02T07:26:28Z</time>
      </trkpt>
      <trkpt lat="46.40527" lon="0.30802">
        <ele>126.01674357336</ele>
        <time>2021-05-02T07:26:30Z</time>
      </trkpt>
      <trkpt lat="46.40524" lon="0.30801">
        <ele>126.13843368366</ele>
        <time>2021-05-02T07:26:32Z</time>
      </trkpt>
      <trkpt lat="46.40521" lon="0.308">
        <ele>126.94395327847</ele>
        <time>2021-05-02T07:26:34Z</time>
      </trkpt>
      <trkpt lat="46.40519" lon="0.30799">
        <ele>127.01086714305</ele>
        <time>2021-05-02T07:26:36Z</time>
      </trkpt>
      <trkpt lat="46.40517" lon="0.30799">
        <ele>126.80632642284</ele>
        <time>2021-05-02T07:26:38Z</time>
      </trkpt>
      <trkpt lat="46.40514" lon="0.30798">
        <ele>126.90348576102</ele>
        <time>2021-05-02T07:26:40Z</time>
      </trkpt>
      <trkpt lat="46.40512" lon="0.30797">
        <ele>126.50139618013</ele>
        <time>2021-05-02T07:26:42Z</time>
      </trkpt>
      <trkpt lat="46.40509" lon="0.30796">
        <ele>126.73761280533</ele>
        <time>2021-05-02T07:26:44Z</time>
      </trkpt>
      <trkpt lat="46.40506" lon="0.30795">
        <ele>126.84585926309</ele>
        <time>2021-05-02T07:26:46Z</time>
      </trkpt>
      <trkpt lat="46.40503" lon="0.30794">
        <ele>126.71788906399</ele>
        <time>2021-05-02T07:26:48Z</time>
      </trkpt>
      <trkpt lat="46.40501" lon="0.30792">
        <ele>126.16212366614</ele>
        <time>2021-05-02T07:26:50Z</time>
      </trkpt>
      <trkpt lat="46.40497" lon="0.30791">
        <ele>126.18945286609</ele>
        <time>2021-05-02T07:26:52Z</time>
      </trkpt>
      <trkpt lat="46.40495" lon="0.3079">
        <ele>126.20511744358</ele>
        <time>2021-05-02T07:26:54Z</time>
      </trkpt>
      <trkpt lat="46.40493" lon="0.3079">
        <ele>126.41996165738</ele>
        <time>2021-05-02T07:26:56Z</time>
      </trkpt>
      <trkpt lat="46.4049" lon="0.30788">
        <ele>126.25084638409</ele>
        <time>2021-05-02T07:26:58Z</time>
      </trkpt>
      <trkpt lat="46.40488" lon="0.30786">
        <ele>126.06427611317</ele>
        <time>2021-05-02T07:27:00Z</time>
      </trkpt>
      <trkpt lat="46.40485" lon="0.30785">
        <ele>126.08547341079</ele>
        <time>2021-05-02T07:27:02Z</time>
      </trkpt>
      <trkpt lat="46.40483" lon="0.30785">
        <ele>125.97277915291</ele>
        <time>2021-05-02T07:27:04Z</time>
      </trkpt>
      <trkpt lat="46.4048" lon="0.30783">
        <ele>126.13904581871</ele>
        <time>2021-05-02T07:27:06Z</time>
      </trkpt>
      <trkpt lat="46.40477" lon="0.30782">
        <ele>126.09603153449</ele>
        <time>2021-05-02T07:27:08Z</time>
      </trkpt>
      <trkpt lat="46.40475" lon="0.30782">
        <ele>126.23352163099</ele>
        <time>2021-05-02T07:27:10Z</time>
      </trkpt>
      <trkpt lat="46.40473" lon="0.30781">
        <ele>125.91137727909</ele>
        <time>2021-05-02T07:27:12Z</time>
      </trkpt>
      <trkpt lat="46.40471" lon="0.3078">
        <ele>126.08941630553</ele>
        <time>2021-05-02T07:27:14Z</time>
      </trkpt>
      <trkpt lat="46.40468" lon="0.30779">
        <ele>125.58028342668</ele>
        <time>2021-05-02T07:27:16Z</time>
      </trkpt>
      <trkpt lat="46.40466" lon="0.30778">
        <ele>125.69312504865</ele>
        <time>2021-05-02T07:27:18Z</time>
      </trkpt>
      <trkpt lat="46.40464" lon="0.30777">
        <ele>126.0855320422</ele>
        <time>2021-05-02T07:27:20Z</time>
      </trkpt>
      <trkpt lat="46.40462" lon="0.30775">
        <ele>126.17388791125</ele>
        <time>2021-05-02T07:27:22Z</time>
      </trkpt>
      <trkpt lat="46.4046" lon="0.30775">
        <ele>126.30365942232</ele>
        <time>2021-05-02T07:27:23Z</time>
      </trkpt>
      <trkpt lat="46.40457" lon="0.30774">
        <ele>126.04226794187</ele>
        <time>2021-05-02T07:27:25Z</time>
      </trkpt>
      <trkpt lat="46.40455" lon="0.30772">
        <ele>125.96380687878</ele>
        <time>2021-05-02T07:27:27Z</time>
      </trkpt>
      <trkpt lat="46.40453" lon="0.30772">
        <ele>126.0164806908</ele>
        <time>2021-05-02T07:27:29Z</time>
      </trkpt>
      <trkpt lat="46.40451" lon="0.30771">
        <ele>126.21398263983</ele>
        <time>2021-05-02T07:27:30Z</time>
      </trkpt>
      <trkpt lat="46.40449" lon="0.3077">
        <ele>126.5099189328</ele>
        <time>2021-05-02T07:27:32Z</time>
      </trkpt>
      <trkpt lat="46.40447" lon="0.3077">
        <ele>126.42459102813</ele>
        <time>2021-05-02T07:27:34Z</time>
      </trkpt>
      <trkpt lat="46.40445" lon="0.30769">
        <ele>126.10480287299</ele>
        <time>2021-05-02T07:27:36Z</time>
      </trkpt>
      <trkpt lat="46.40443" lon="0.30767">
        <ele>126.42639737669</ele>
        <time>2021-05-02T07:27:38Z</time>
      </trkpt>
      <trkpt lat="46.4044" lon="0.30765">
        <ele>126.36887373123</ele>
        <time>2021-05-02T07:27:40Z</time>
      </trkpt>
      <trkpt lat="46.40437" lon="0.30764">
        <ele>126.29584150203</ele>
        <time>2021-05-02T07:27:42Z</time>
      </trkpt>
      <trkpt lat="46.40434" lon="0.30762">
        <ele>126.29256609641</ele>
        <time>2021-05-02T07:27:44Z</time>
      </trkpt>
      <trkpt lat="46.40432" lon="0.30762">
        <ele>126.24830216356</ele>
        <time>2021-05-02T07:27:46Z</time>
      </trkpt>
      <trkpt lat="46.40429" lon="0.30761">
        <ele>126.56189886015</ele>
        <time>2021-05-02T07:27:48Z</time>
      </trkpt>
      <trkpt lat="46.40427" lon="0.3076">
        <ele>126.50205336791</ele>
        <time>2021-05-02T07:27:50Z</time>
      </trkpt>
      <trkpt lat="46.40424" lon="0.30759">
        <ele>125.80840629898</ele>
        <time>2021-05-02T07:27:52Z</time>
      </trkpt>
      <trkpt lat="46.40421" lon="0.30758">
        <ele>126.29919487424</ele>
        <time>2021-05-02T07:27:53Z</time>
      </trkpt>
      <trkpt lat="46.40419" lon="0.30757">
        <ele>126.48150136322</ele>
        <time>2021-05-02T07:27:56Z</time>
      </trkpt>
      <trkpt lat="46.40418" lon="0.30756">
        <ele>125.79419194348</ele>
        <time>2021-05-02T07:27:58Z</time>
      </trkpt>
      <trkpt lat="46.40415" lon="0.30755">
        <ele>126.17312414385</ele>
        <time>2021-05-02T07:28:00Z</time>
      </trkpt>
      <trkpt lat="46.40413" lon="0.30754">
        <ele>126.50574968942</ele>
        <time>2021-05-02T07:28:02Z</time>
      </trkpt>
      <trkpt lat="46.40409" lon="0.30752">
        <ele>126.35128260776</ele>
        <time>2021-05-02T07:28:04Z</time>
      </trkpt>
      <trkpt lat="46.40407" lon="0.30751">
        <ele>126.04202165827</ele>
        <time>2021-05-02T07:28:06Z</time>
      </trkpt>
      <trkpt lat="46.40403" lon="0.30751">
        <ele>126.33348702174</ele>
        <time>2021-05-02T07:28:08Z</time>
      </trkpt>
      <trkpt lat="46.40401" lon="0.30749">
        <ele>125.9578092685</ele>
        <time>2021-05-02T07:28:10Z</time>
      </trkpt>
      <trkpt lat="46.40399" lon="0.30748">
        <ele>126.44928142615</ele>
        <time>2021-05-02T07:28:12Z</time>
      </trkpt>
      <trkpt lat="46.40396" lon="0.30746">
        <ele>126.05971392058</ele>
        <time>2021-05-02T07:28:14Z</time>
      </trkpt>
      <trkpt lat="46.40394" lon="0.30744">
        <ele>126.10202833451</ele>
        <time>2021-05-02T07:28:16Z</time>
      </trkpt>
      <trkpt lat="46.40394" lon="0.30741">
        <ele>125.97715292592</ele>
        <time>2021-05-02T07:28:18Z</time>
      </trkpt>
      <trkpt lat="46.40396" lon="0.30738">
        <ele>125.89021111093</ele>
        <time>2021-05-02T07:28:21Z</time>
      </trkpt>
      <trkpt lat="46.40397" lon="0.30735">
        <ele>126.09247994702</ele>
        <time>2021-05-02T07:28:23Z</time>
      </trkpt>
      <trkpt lat="46.40399" lon="0.30733">
        <ele>126.01095135044</ele>
        <time>2021-05-02T07:28:25Z</time>
      </trkpt>
      <trkpt lat="46.40401" lon="0.3073">
        <ele>125.94420185592</ele>
        <time>2021-05-02T07:28:27Z</time>
      </trkpt>
      <trkpt lat="46.40403" lon="0.30727">
        <ele>126.07024343312</ele>
        <time>2021-05-02T07:28:29Z</time>
      </trkpt>
      <trkpt lat="46.40406" lon="0.30725">
        <ele>125.29748325236</ele>
        <time>2021-05-02T07:28:31Z</time>
      </trkpt>
      <trkpt lat="46.40407" lon="0.30722">
        <ele>125.66715106089</ele>
        <time>2021-05-02T07:28:33Z</time>
      </trkpt>
      <trkpt lat="46.4041" lon="0.30719">
        <ele>125.46553099155</ele>
        <time>2021-05-02T07:28:35Z</time>
      </trkpt>
      <trkpt lat="46.40411" lon="0.30716">
        <ele>125.45109502412</ele>
        <time>2021-05-02T07:28:37Z</time>
      </trkpt>
      <trkpt lat="46.40414" lon="0.30714">
        <ele>125.64940428827</ele>
        <time>2021-05-02T07:28:39Z</time>
      </trkpt>
      <trkpt lat="46.40415" lon="0.30711">
        <ele>125.74051531125</ele>
        <time>2021-05-02T07:28:41Z</time>
      </trkpt>
      <trkpt lat="46.40417" lon="0.30708">
        <ele>125.35595893022</ele>
        <time>2021-05-02T07:28:43Z</time>
      </trkpt>
      <trkpt lat="46.40419" lon="0.30705">
        <ele>125.21799555887</ele>
        <time>2021-05-02T07:28:45Z</time>
      </trkpt>
      <trkpt lat="46.40421" lon="0.30702">
        <ele>125.31763992459</ele>
        <time>2021-05-02T07:28:47Z</time>
      </trkpt>
      <trkpt lat="46.40422" lon="0.30699">
        <ele>124.93861696124</ele>
        <time>2021-05-02T07:28:49Z</time>
      </trkpt>
      <trkpt lat="46.40424" lon="0.30696">
        <ele>125.34753572568</ele>
        <time>2021-05-02T07:28:51Z</time>
      </trkpt>
      <trkpt lat="46.40426" lon="0.30693">
        <ele>124.64452661108</ele>
        <time>2021-05-02T07:28:53Z</time>
      </trkpt>
      <trkpt lat="46.40427" lon="0.3069">
        <ele>124.72395121865</ele>
        <time>2021-05-02T07:28:55Z</time>
      </trkpt>
      <trkpt lat="46.40428" lon="0.30686">
        <ele>124.79213100206</ele>
        <time>2021-05-02T07:28:57Z</time>
      </trkpt>
      <trkpt lat="46.4043" lon="0.30685">
        <ele>124.69222014304</ele>
        <time>2021-05-02T07:28:58Z</time>
      </trkpt>
      <trkpt lat="46.40431" lon="0.30682">
        <ele>124.82589145377</ele>
        <time>2021-05-02T07:29:00Z</time>
      </trkpt>
      <trkpt lat="46.40433" lon="0.30678">
        <ele>124.73065665085</ele>
        <time>2021-05-02T07:29:02Z</time>
      </trkpt>
      <trkpt lat="46.40435" lon="0.30676">
        <ele>124.66332469974</ele>
        <time>2021-05-02T07:29:04Z</time>
      </trkpt>
      <trkpt lat="46.40436" lon="0.30674">
        <ele>124.26563889254</ele>
        <time>2021-05-02T07:29:06Z</time>
      </trkpt>
      <trkpt lat="46.40439" lon="0.3067">
        <ele>124.83638285846</ele>
        <time>2021-05-02T07:29:08Z</time>
      </trkpt>
      <trkpt lat="46.4044" lon="0.30667">
        <ele>124.51631715987</ele>
        <time>2021-05-02T07:29:10Z</time>
      </trkpt>
      <trkpt lat="46.40442" lon="0.30664">
        <ele>124.42469261773</ele>
        <time>2021-05-02T07:29:12Z</time>
      </trkpt>
      <trkpt lat="46.40443" lon="0.30662">
        <ele>124.07158341911</ele>
        <time>2021-05-02T07:29:14Z</time>
      </trkpt>
      <trkpt lat="46.40445" lon="0.30659">
        <ele>123.99372392148</ele>
        <time>2021-05-02T07:29:16Z</time>
      </trkpt>
      <trkpt lat="46.40447" lon="0.30655">
        <ele>123.83507674094</ele>
        <time>2021-05-02T07:29:18Z</time>
      </trkpt>
      <trkpt lat="46.40448" lon="0.30653">
        <ele>123.60562120564</ele>
        <time>2021-05-02T07:29:20Z</time>
      </trkpt>
      <trkpt lat="46.40449" lon="0.30651">
        <ele>123.54809898604</ele>
        <time>2021-05-02T07:29:21Z</time>
      </trkpt>
      <trkpt lat="46.40451" lon="0.30649">
        <ele>124.08102342393</ele>
        <time>2021-05-02T07:29:23Z</time>
      </trkpt>
      <trkpt lat="46.40452" lon="0.30647">
        <ele>124.01406293642</ele>
        <time>2021-05-02T07:29:24Z</time>
      </trkpt>
      <trkpt lat="46.40454" lon="0.30644">
        <ele>123.81505730562</ele>
        <time>2021-05-02T07:29:26Z</time>
      </trkpt>
      <trkpt lat="46.40456" lon="0.3064">
        <ele>123.45265710261</ele>
        <time>2021-05-02T07:29:28Z</time>
      </trkpt>
      <trkpt lat="46.40457" lon="0.30638">
        <ele>123.41698570084</ele>
        <time>2021-05-02T07:29:30Z</time>
      </trkpt>
      <trkpt lat="46.40459" lon="0.30635">
        <ele>122.97715809662</ele>
        <time>2021-05-02T07:29:32Z</time>
      </trkpt>
      <trkpt lat="46.40462" lon="0.30631">
        <ele>122.56877612043</ele>
        <time>2021-05-02T07:29:34Z</time>
      </trkpt>
      <trkpt lat="46.40464" lon="0.30627">
        <ele>122.60507167131</ele>
        <time>2021-05-02T07:29:37Z</time>
      </trkpt>
      <trkpt lat="46.40465" lon="0.30625">
        <ele>122.67324024998</ele>
        <time>2021-05-02T07:29:39Z</time>
      </trkpt>
      <trkpt lat="46.40467" lon="0.30622">
        <ele>122.30696127657</ele>
        <time>2021-05-02T07:29:40Z</time>
      </trkpt>
      <trkpt lat="46.40469" lon="0.3062">
        <ele>122.32700997684</ele>
        <time>2021-05-02T07:29:42Z</time>
      </trkpt>
      <trkpt lat="46.40471" lon="0.30617">
        <ele>122.34440725949</ele>
        <time>2021-05-02T07:29:44Z</time>
      </trkpt>
      <trkpt lat="46.40472" lon="0.30615">
        <ele>122.10230581835</ele>
        <time>2021-05-02T07:29:45Z</time>
      </trkpt>
      <trkpt lat="46.40474" lon="0.30613">
        <ele>121.99055929855</ele>
        <time>2021-05-02T07:29:47Z</time>
      </trkpt>
      <trkpt lat="46.40475" lon="0.30611">
        <ele>122.14402223658</ele>
        <time>2021-05-02T07:29:48Z</time>
      </trkpt>
      <trkpt lat="46.40476" lon="0.30608">
        <ele>121.89529129677</ele>
        <time>2021-05-02T07:29:50Z</time>
      </trkpt>
      <trkpt lat="46.40478" lon="0.30604">
        <ele>121.82917595003</ele>
        <time>2021-05-02T07:29:52Z</time>
      </trkpt>
      <trkpt lat="46.4048" lon="0.30602">
        <ele>122.21147041861</ele>
        <time>2021-05-02T07:29:54Z</time>
      </trkpt>
      <trkpt lat="46.40481" lon="0.30598">
        <ele>121.74661448877</ele>
        <time>2021-05-02T07:29:56Z</time>
      </trkpt>
      <trkpt lat="46.40483" lon="0.30595">
        <ele>121.6878730543</ele>
        <time>2021-05-02T07:29:58Z</time>
      </trkpt>
      <trkpt lat="46.40484" lon="0.30592">
        <ele>122.04500405584</ele>
        <time>2021-05-02T07:30:00Z</time>
      </trkpt>
      <trkpt lat="46.40486" lon="0.30589">
        <ele>122.27887450904</ele>
        <time>2021-05-02T07:30:02Z</time>
      </trkpt>
      <trkpt lat="46.40488" lon="0.30585">
        <ele>122.10974515136</ele>
        <time>2021-05-02T07:30:04Z</time>
      </trkpt>
      <trkpt lat="46.4049" lon="0.30582">
        <ele>122.01542518381</ele>
        <time>2021-05-02T07:30:06Z</time>
      </trkpt>
      <trkpt lat="46.40491" lon="0.30578">
        <ele>121.8755404437</ele>
        <time>2021-05-02T07:30:08Z</time>
      </trkpt>
      <trkpt lat="46.40493" lon="0.30575">
        <ele>121.63452792354</ele>
        <time>2021-05-02T07:30:10Z</time>
      </trkpt>
      <trkpt lat="46.40494" lon="0.30573">
        <ele>121.56906131934</ele>
        <time>2021-05-02T07:30:12Z</time>
      </trkpt>
      <trkpt lat="46.40496" lon="0.3057">
        <ele>121.46879944671</ele>
        <time>2021-05-02T07:30:14Z</time>
      </trkpt>
      <trkpt lat="46.40497" lon="0.30566">
        <ele>121.53933221661</ele>
        <time>2021-05-02T07:30:16Z</time>
      </trkpt>
      <trkpt lat="46.40498" lon="0.30563">
        <ele>121.50013525318</ele>
        <time>2021-05-02T07:30:18Z</time>
      </trkpt>
      <trkpt lat="46.405" lon="0.3056">
        <ele>121.17456648778</ele>
        <time>2021-05-02T07:30:20Z</time>
      </trkpt>
      <trkpt lat="46.40502" lon="0.30557">
        <ele>121.3407584317</ele>
        <time>2021-05-02T07:30:22Z</time>
      </trkpt>
      <trkpt lat="46.40503" lon="0.30555">
        <ele>121.31955742836</ele>
        <time>2021-05-02T07:30:24Z</time>
      </trkpt>
      <trkpt lat="46.40504" lon="0.30551">
        <ele>121.26743206754</ele>
        <time>2021-05-02T07:30:26Z</time>
      </trkpt>
      <trkpt lat="46.40506" lon="0.30547">
        <ele>121.04619570076</ele>
        <time>2021-05-02T07:30:28Z</time>
      </trkpt>
      <trkpt lat="46.40507" lon="0.30544">
        <ele>121.02606095932</ele>
        <time>2021-05-02T07:30:30Z</time>
      </trkpt>
      <trkpt lat="46.40509" lon="0.30541">
        <ele>120.68930428103</ele>
        <time>2021-05-02T07:30:32Z</time>
      </trkpt>
      <trkpt lat="46.4051" lon="0.30537">
        <ele>121.00725397933</ele>
        <time>2021-05-02T07:30:34Z</time>
      </trkpt>
      <trkpt lat="46.40512" lon="0.30534">
        <ele>120.78117000218</ele>
        <time>2021-05-02T07:30:36Z</time>
      </trkpt>
      <trkpt lat="46.40513" lon="0.3053">
        <ele>120.98996430542</ele>
        <time>2021-05-02T07:30:38Z</time>
      </trkpt>
      <trkpt lat="46.40515" lon="0.30527">
        <ele>120.85831075627</ele>
        <time>2021-05-02T07:30:40Z</time>
      </trkpt>
      <trkpt lat="46.40516" lon="0.30523">
        <ele>120.67526310775</ele>
        <time>2021-05-02T07:30:42Z</time>
      </trkpt>
      <trkpt lat="46.40518" lon="0.3052">
        <ele>120.94557382818</ele>
        <time>2021-05-02T07:30:44Z</time>
      </trkpt>
      <trkpt lat="46.40519" lon="0.30517">
        <ele>120.99224514049</ele>
        <time>2021-05-02T07:30:46Z</time>
      </trkpt>
      <trkpt lat="46.4052" lon="0.30514">
        <ele>121.29324079119</ele>
        <time>2021-05-02T07:30:48Z</time>
      </trkpt>
      <trkpt lat="46.40522" lon="0.30511">
        <ele>120.72201819066</ele>
        <time>2021-05-02T07:30:50Z</time>
      </trkpt>
      <trkpt lat="46.40523" lon="0.30507">
        <ele>120.43104860745</ele>
        <time>2021-05-02T07:30:52Z</time>
      </trkpt>
      <trkpt lat="46.40525" lon="0.30504">
        <ele>120.7848860966</ele>
        <time>2021-05-02T07:30:54Z</time>
      </trkpt>
      <trkpt lat="46.40526" lon="0.305">
        <ele>120.74513127469</ele>
        <time>2021-05-02T07:30:56Z</time>
      </trkpt>
      <trkpt lat="46.40527" lon="0.30497">
        <ele>120.9468836803</ele>
        <time>2021-05-02T07:30:58Z</time>
      </trkpt>
      <trkpt lat="46.40529" lon="0.30494">
        <ele>120.79465441685</ele>
        <time>2021-05-02T07:30:59Z</time>
      </trkpt>
      <trkpt lat="46.4053" lon="0.30491">
        <ele>120.99030228052</ele>
        <time>2021-05-02T07:31:02Z</time>
      </trkpt>
      <trkpt lat="46.40532" lon="0.30486">
        <ele>120.91019182932</ele>
        <time>2021-05-02T07:31:04Z</time>
      </trkpt>
      <trkpt lat="46.40532" lon="0.30484">
        <ele>120.9118191693</ele>
        <time>2021-05-02T07:31:06Z</time>
      </trkpt>
      <trkpt lat="46.40534" lon="0.3048">
        <ele>120.98176559247</ele>
        <time>2021-05-02T07:31:08Z</time>
      </trkpt>
      <trkpt lat="46.40535" lon="0.30477">
        <ele>121.09896709025</ele>
        <time>2021-05-02T07:31:10Z</time>
      </trkpt>
      <trkpt lat="46.40537" lon="0.30472">
        <ele>121.21895018034</ele>
        <time>2021-05-02T07:31:12Z</time>
      </trkpt>
      <trkpt lat="46.40538" lon="0.30469">
        <ele>120.6504193563</ele>
        <time>2021-05-02T07:31:15Z</time>
      </trkpt>
      <trkpt lat="46.40539" lon="0.30466">
        <ele>120.99593012687</ele>
        <time>2021-05-02T07:31:17Z</time>
      </trkpt>
      <trkpt lat="46.40541" lon="0.30462">
        <ele>120.64673303068</ele>
        <time>2021-05-02T07:31:19Z</time>
      </trkpt>
      <trkpt lat="46.40543" lon="0.30459">
        <ele>121.17828726117</ele>
        <time>2021-05-02T07:31:21Z</time>
      </trkpt>
      <trkpt lat="46.40544" lon="0.30456">
        <ele>120.9909952702</ele>
        <time>2021-05-02T07:31:23Z</time>
      </trkpt>
      <trkpt lat="46.40545" lon="0.30452">
        <ele>120.85524151288</ele>
        <time>2021-05-02T07:31:25Z</time>
      </trkpt>
      <trkpt lat="46.40546" lon="0.30449">
        <ele>120.87803588063</ele>
        <time>2021-05-02T07:31:27Z</time>
      </trkpt>
      <trkpt lat="46.40547" lon="0.30445">
        <ele>121.11586865224</ele>
        <time>2021-05-02T07:31:29Z</time>
      </trkpt>
      <trkpt lat="46.40549" lon="0.30442">
        <ele>121.63397314306</ele>
        <time>2021-05-02T07:31:31Z</time>
      </trkpt>
      <trkpt lat="46.4055" lon="0.30438">
        <ele>121.46259509027</ele>
        <time>2021-05-02T07:31:33Z</time>
      </trkpt>
      <trkpt lat="46.40551" lon="0.30435">
        <ele>121.7234688364</ele>
        <time>2021-05-02T07:31:35Z</time>
      </trkpt>
      <trkpt lat="46.40552" lon="0.30431">
        <ele>121.29787551332</ele>
        <time>2021-05-02T07:31:37Z</time>
      </trkpt>
      <trkpt lat="46.40554" lon="0.30428">
        <ele>121.47481508926</ele>
        <time>2021-05-02T07:31:39Z</time>
      </trkpt>
      <trkpt lat="46.40556" lon="0.30424">
        <ele>121.54532156419</ele>
        <time>2021-05-02T07:31:41Z</time>
      </trkpt>
      <trkpt lat="46.40556" lon="0.30421">
        <ele>121.9476836957</ele>
        <time>2021-05-02T07:31:43Z</time>
      </trkpt>
      <trkpt lat="46.40558" lon="0.30418">
        <ele>122.01191501226</ele>
        <time>2021-05-02T07:31:45Z</time>
      </trkpt>
      <trkpt lat="46.4056" lon="0.30415">
        <ele>122.44310204685</ele>
        <time>2021-05-02T07:31:47Z</time>
      </trkpt>
      <trkpt lat="46.40561" lon="0.30411">
        <ele>122.59339071438</ele>
        <time>2021-05-02T07:31:49Z</time>
      </trkpt>
      <trkpt lat="46.40562" lon="0.30407">
        <ele>122.7627306506</ele>
        <time>2021-05-02T07:31:51Z</time>
      </trkpt>
      <trkpt lat="46.40563" lon="0.30404">
        <ele>122.43360166997</ele>
        <time>2021-05-02T07:31:53Z</time>
      </trkpt>
      <trkpt lat="46.40564" lon="0.304">
        <ele>122.20853909198</ele>
        <time>2021-05-02T07:31:55Z</time>
      </trkpt>
      <trkpt lat="46.40566" lon="0.30397">
        <ele>122.31892650109</ele>
        <time>2021-05-02T07:31:57Z</time>
      </trkpt>
      <trkpt lat="46.40567" lon="0.30394">
        <ele>122.86530844122</ele>
        <time>2021-05-02T07:31:59Z</time>
      </trkpt>
      <trkpt lat="46.40569" lon="0.3039">
        <ele>122.53585532866</ele>
        <time>2021-05-02T07:32:01Z</time>
      </trkpt>
      <trkpt lat="46.40571" lon="0.30387">
        <ele>122.42409874685</ele>
        <time>2021-05-02T07:32:03Z</time>
      </trkpt>
      <trkpt lat="46.40572" lon="0.30384">
        <ele>122.38209871389</ele>
        <time>2021-05-02T07:32:05Z</time>
      </trkpt>
      <trkpt lat="46.40573" lon="0.30381">
        <ele>122.47397960816</ele>
        <time>2021-05-02T07:32:07Z</time>
      </trkpt>
      <trkpt lat="46.40575" lon="0.30378">
        <ele>122.57820995711</ele>
        <time>2021-05-02T07:32:09Z</time>
      </trkpt>
      <trkpt lat="46.40576" lon="0.30375">
        <ele>122.59928330593</ele>
        <time>2021-05-02T07:32:11Z</time>
      </trkpt>
      <trkpt lat="46.40578" lon="0.30371">
        <ele>122.72342402861</ele>
        <time>2021-05-02T07:32:13Z</time>
      </trkpt>
      <trkpt lat="46.40579" lon="0.30369">
        <ele>123.05172598362</ele>
        <time>2021-05-02T07:32:15Z</time>
      </trkpt>
      <trkpt lat="46.40582" lon="0.30366">
        <ele>122.76185170747</ele>
        <time>2021-05-02T07:32:17Z</time>
      </trkpt>
      <trkpt lat="46.40584" lon="0.30363">
        <ele>122.66922752187</ele>
        <time>2021-05-02T07:32:19Z</time>
      </trkpt>
      <trkpt lat="46.40585" lon="0.30361">
        <ele>122.84047071543</ele>
        <time>2021-05-02T07:32:21Z</time>
      </trkpt>
      <trkpt lat="46.40588" lon="0.30359">
        <ele>122.91758021526</ele>
        <time>2021-05-02T07:32:23Z</time>
      </trkpt>
      <trkpt lat="46.4059" lon="0.30356">
        <ele>123.01343166642</ele>
        <time>2021-05-02T07:32:25Z</time>
      </trkpt>
      <trkpt lat="46.40592" lon="0.30354">
        <ele>123.3263227446</ele>
        <time>2021-05-02T07:32:27Z</time>
      </trkpt>
      <trkpt lat="46.40594" lon="0.30351">
        <ele>122.65157906245</ele>
        <time>2021-05-02T07:32:29Z</time>
      </trkpt>
      <trkpt lat="46.40595" lon="0.30349">
        <ele>122.45333144348</ele>
        <time>2021-05-02T07:32:31Z</time>
      </trkpt>
      <trkpt lat="46.40597" lon="0.30347">
        <ele>122.76073114481</ele>
        <time>2021-05-02T07:32:33Z</time>
      </trkpt>
      <trkpt lat="46.40599" lon="0.30345">
        <ele>123.00932026841</ele>
        <time>2021-05-02T07:32:35Z</time>
      </trkpt>
      <trkpt lat="46.406" lon="0.30343">
        <ele>122.51597018726</ele>
        <time>2021-05-02T07:32:36Z</time>
      </trkpt>
      <trkpt lat="46.40603" lon="0.30341">
        <ele>122.35929736029</ele>
        <time>2021-05-02T07:32:38Z</time>
      </trkpt>
      <trkpt lat="46.40604" lon="0.30339">
        <ele>122.67619344778</ele>
        <time>2021-05-02T07:32:40Z</time>
      </trkpt>
      <trkpt lat="46.40606" lon="0.30337">
        <ele>122.46290676761</ele>
        <time>2021-05-02T07:32:42Z</time>
      </trkpt>
      <trkpt lat="46.40608" lon="0.30334">
        <ele>122.57395344693</ele>
        <time>2021-05-02T07:32:44Z</time>
      </trkpt>
      <trkpt lat="46.40609" lon="0.30332">
        <ele>121.9548081113</ele>
        <time>2021-05-02T07:32:46Z</time>
      </trkpt>
      <trkpt lat="46.40611" lon="0.30329">
        <ele>121.72370125912</ele>
        <time>2021-05-02T07:32:48Z</time>
      </trkpt>
      <trkpt lat="46.40613" lon="0.30326">
        <ele>121.81340922415</ele>
        <time>2021-05-02T07:32:50Z</time>
      </trkpt>
      <trkpt lat="46.40615" lon="0.30323">
        <ele>121.57588225789</ele>
        <time>2021-05-02T07:32:52Z</time>
      </trkpt>
      <trkpt lat="46.40616" lon="0.3032">
        <ele>121.74429910351</ele>
        <time>2021-05-02T07:32:54Z</time>
      </trkpt>
      <trkpt lat="46.40618" lon="0.30316">
        <ele>121.43756496068</ele>
        <time>2021-05-02T07:32:56Z</time>
      </trkpt>
      <trkpt lat="46.40621" lon="0.30313">
        <ele>121.55291228741</ele>
        <time>2021-05-02T07:32:58Z</time>
      </trkpt>
      <trkpt lat="46.40622" lon="0.3031">
        <ele>121.29368924629</ele>
        <time>2021-05-02T07:33:00Z</time>
      </trkpt>
      <trkpt lat="46.40624" lon="0.30306">
        <ele>121.39206251875</ele>
        <time>2021-05-02T07:33:02Z</time>
      </trkpt>
      <trkpt lat="46.40625" lon="0.30303">
        <ele>121.3413536204</ele>
        <time>2021-05-02T07:33:04Z</time>
      </trkpt>
      <trkpt lat="46.40627" lon="0.303">
        <ele>121.40553286485</ele>
        <time>2021-05-02T07:33:06Z</time>
      </trkpt>
      <trkpt lat="46.40628" lon="0.30296">
        <ele>121.27642838284</ele>
        <time>2021-05-02T07:33:08Z</time>
      </trkpt>
      <trkpt lat="46.40629" lon="0.30292">
        <ele>121.30829142686</ele>
        <time>2021-05-02T07:33:10Z</time>
      </trkpt>
      <trkpt lat="46.4063" lon="0.30289">
        <ele>121.07674864028</ele>
        <time>2021-05-02T07:33:12Z</time>
      </trkpt>
      <trkpt lat="46.40632" lon="0.30285">
        <ele>120.8935879292</ele>
        <time>2021-05-02T07:33:14Z</time>
      </trkpt>
      <trkpt lat="46.40632" lon="0.30282">
        <ele>120.74933046382</ele>
        <time>2021-05-02T07:33:16Z</time>
      </trkpt>
      <trkpt lat="46.40633" lon="0.30278">
        <ele>120.78021036647</ele>
        <time>2021-05-02T07:33:18Z</time>
      </trkpt>
      <trkpt lat="46.40633" lon="0.30274">
        <ele>120.79388725292</ele>
        <time>2021-05-02T07:33:20Z</time>
      </trkpt>
      <trkpt lat="46.40634" lon="0.30269">
        <ele>121.32383494079</ele>
        <time>2021-05-02T07:33:22Z</time>
      </trkpt>
      <trkpt lat="46.40632" lon="0.30267">
        <ele>121.02338927332</ele>
        <time>2021-05-02T07:33:24Z</time>
      </trkpt>
      <trkpt lat="46.40631" lon="0.30263">
        <ele>120.83952709287</ele>
        <time>2021-05-02T07:33:26Z</time>
      </trkpt>
      <trkpt lat="46.40629" lon="0.3026">
        <ele>120.97968665976</ele>
        <time>2021-05-02T07:33:28Z</time>
      </trkpt>
      <trkpt lat="46.40627" lon="0.30257">
        <ele>121.34885073267</ele>
        <time>2021-05-02T07:33:30Z</time>
      </trkpt>
      <trkpt lat="46.40625" lon="0.30256">
        <ele>121.56127489544</ele>
        <time>2021-05-02T07:33:32Z</time>
      </trkpt>
      <trkpt lat="46.40622" lon="0.30254">
        <ele>121.57706341427</ele>
        <time>2021-05-02T07:33:34Z</time>
      </trkpt>
      <trkpt lat="46.4062" lon="0.30251">
        <ele>121.57149174809</ele>
        <time>2021-05-02T07:33:36Z</time>
      </trkpt>
      <trkpt lat="46.40618" lon="0.3025">
        <ele>122.05232322402</ele>
        <time>2021-05-02T07:33:38Z</time>
      </trkpt>
      <trkpt lat="46.40615" lon="0.30248">
        <ele>122.04129669536</ele>
        <time>2021-05-02T07:33:40Z</time>
      </trkpt>
      <trkpt lat="46.40613" lon="0.30247">
        <ele>121.63109350111</ele>
        <time>2021-05-02T07:33:42Z</time>
      </trkpt>
      <trkpt lat="46.40611" lon="0.30247">
        <ele>121.75043549482</ele>
        <time>2021-05-02T07:33:44Z</time>
      </trkpt>
      <trkpt lat="46.40609" lon="0.30246">
        <ele>121.45092436671</ele>
        <time>2021-05-02T07:33:46Z</time>
      </trkpt>
      <trkpt lat="46.40606" lon="0.30245">
        <ele>121.90359430574</ele>
        <time>2021-05-02T07:33:48Z</time>
      </trkpt>
      <trkpt lat="46.40603" lon="0.30243">
        <ele>121.78472621739</ele>
        <time>2021-05-02T07:33:51Z</time>
      </trkpt>
      <trkpt lat="46.406" lon="0.30243">
        <ele>122.56772170309</ele>
        <time>2021-05-02T07:33:54Z</time>
      </trkpt>
      <trkpt lat="46.40598" lon="0.30242">
        <ele>122.19052307308</ele>
        <time>2021-05-02T07:33:56Z</time>
      </trkpt>
      <trkpt lat="46.40595" lon="0.30241">
        <ele>122.5811166456</ele>
        <time>2021-05-02T07:33:58Z</time>
      </trkpt>
      <trkpt lat="46.40593" lon="0.3024">
        <ele>122.65397298895</ele>
        <time>2021-05-02T07:34:00Z</time>
      </trkpt>
      <trkpt lat="46.40591" lon="0.3024">
        <ele>122.92847624887</ele>
        <time>2021-05-02T07:34:02Z</time>
      </trkpt>
      <trkpt lat="46.40588" lon="0.30238">
        <ele>122.91630735807</ele>
        <time>2021-05-02T07:34:04Z</time>
      </trkpt>
      <trkpt lat="46.40586" lon="0.30237">
        <ele>122.99868720118</ele>
        <time>2021-05-02T07:34:06Z</time>
      </trkpt>
      <trkpt lat="46.40583" lon="0.30236">
        <ele>122.70440252405</ele>
        <time>2021-05-02T07:34:08Z</time>
      </trkpt>
      <trkpt lat="46.40581" lon="0.30234">
        <ele>122.90513102897</ele>
        <time>2021-05-02T07:34:10Z</time>
      </trkpt>
      <trkpt lat="46.40579" lon="0.30233">
        <ele>123.16204671934</ele>
        <time>2021-05-02T07:34:12Z</time>
      </trkpt>
      <trkpt lat="46.40576" lon="0.30232">
        <ele>123.15947276819</ele>
        <time>2021-05-02T07:34:14Z</time>
      </trkpt>
      <trkpt lat="46.40574" lon="0.30231">
        <ele>123.12987072859</ele>
        <time>2021-05-02T07:34:16Z</time>
      </trkpt>
      <trkpt lat="46.40571" lon="0.30231">
        <ele>123.15669438988</ele>
        <time>2021-05-02T07:34:18Z</time>
      </trkpt>
      <trkpt lat="46.40569" lon="0.3023">
        <ele>122.91811442934</ele>
        <time>2021-05-02T07:34:19Z</time>
      </trkpt>
      <trkpt lat="46.40567" lon="0.3023">
        <ele>123.10121502262</ele>
        <time>2021-05-02T07:34:21Z</time>
      </trkpt>
      <trkpt lat="46.40564" lon="0.30229">
        <ele>123.39194447827</ele>
        <time>2021-05-02T07:34:23Z</time>
      </trkpt>
      <trkpt lat="46.40562" lon="0.30228">
        <ele>123.42353312764</ele>
        <time>2021-05-02T07:34:25Z</time>
      </trkpt>
      <trkpt lat="46.40559" lon="0.30227">
        <ele>123.48097762931</ele>
        <time>2021-05-02T07:34:27Z</time>
      </trkpt>
      <trkpt lat="46.40557" lon="0.30226">
        <ele>123.41520160995</ele>
        <time>2021-05-02T07:34:29Z</time>
      </trkpt>
      <trkpt lat="46.40554" lon="0.30225">
        <ele>123.73898350447</ele>
        <time>2021-05-02T07:34:31Z</time>
      </trkpt>
      <trkpt lat="46.40551" lon="0.30224">
        <ele>123.76826414932</ele>
        <time>2021-05-02T07:34:33Z</time>
      </trkpt>
      <trkpt lat="46.40547" lon="0.30223">
        <ele>123.9869169509</ele>
        <time>2021-05-02T07:34:35Z</time>
      </trkpt>
      <trkpt lat="46.40544" lon="0.30223">
        <ele>123.93150191754</ele>
        <time>2021-05-02T07:34:37Z</time>
      </trkpt>
      <trkpt lat="46.40542" lon="0.30222">
        <ele>124.20832546894</ele>
        <time>2021-05-02T07:34:39Z</time>
      </trkpt>
      <trkpt lat="46.4054" lon="0.30222">
        <ele>123.82476942055</ele>
        <time>2021-05-02T07:34:41Z</time>
      </trkpt>
      <trkpt lat="46.40537" lon="0.30222">
        <ele>124.48307176493</ele>
        <time>2021-05-02T07:34:43Z</time>
      </trkpt>
      <trkpt lat="46.40534" lon="0.30222">
        <ele>124.22040164378</ele>
        <time>2021-05-02T07:34:45Z</time>
      </trkpt>
      <trkpt lat="46.40532" lon="0.30221">
        <ele>124.34266314935</ele>
        <time>2021-05-02T07:34:47Z</time>
      </trkpt>
      <trkpt lat="46.4053" lon="0.30221">
        <ele>124.91255225427</ele>
        <time>2021-05-02T07:34:49Z</time>
      </trkpt>
      <trkpt lat="46.40528" lon="0.30221">
        <ele>125.10142707918</ele>
        <time>2021-05-02T07:34:50Z</time>
      </trkpt>
      <trkpt lat="46.40525" lon="0.30221">
        <ele>124.97853697557</ele>
        <time>2021-05-02T07:34:52Z</time>
      </trkpt>
      <trkpt lat="46.40523" lon="0.30221">
        <ele>124.66912944801</ele>
        <time>2021-05-02T07:34:54Z</time>
      </trkpt>
      <trkpt lat="46.4052" lon="0.3022">
        <ele>124.58926183078</ele>
        <time>2021-05-02T07:34:57Z</time>
      </trkpt>
      <trkpt lat="46.40517" lon="0.30219">
        <ele>124.71364584472</ele>
        <time>2021-05-02T07:34:59Z</time>
      </trkpt>
      <trkpt lat="46.40514" lon="0.30219">
        <ele>124.64591063559</ele>
        <time>2021-05-02T07:35:01Z</time>
      </trkpt>
      <trkpt lat="46.40511" lon="0.30219">
        <ele>125.03283524048</ele>
        <time>2021-05-02T07:35:03Z</time>
      </trkpt>
      <trkpt lat="46.40509" lon="0.30219">
        <ele>125.22893973812</ele>
        <time>2021-05-02T07:35:05Z</time>
      </trkpt>
      <trkpt lat="46.40507" lon="0.30218">
        <ele>124.98802995589</ele>
        <time>2021-05-02T07:35:06Z</time>
      </trkpt>
      <trkpt lat="46.40505" lon="0.30217">
        <ele>124.89670258109</ele>
        <time>2021-05-02T07:35:08Z</time>
      </trkpt>
      <trkpt lat="46.40502" lon="0.30216">
        <ele>124.87928910833</ele>
        <time>2021-05-02T07:35:10Z</time>
      </trkpt>
      <trkpt lat="46.405" lon="0.30216">
        <ele>124.97247324791</ele>
        <time>2021-05-02T07:35:12Z</time>
      </trkpt>
      <trkpt lat="46.40497" lon="0.30215">
        <ele>125.33374724071</ele>
        <time>2021-05-02T07:35:14Z</time>
      </trkpt>
      <trkpt lat="46.40493" lon="0.30215">
        <ele>125.63861772697</ele>
        <time>2021-05-02T07:35:16Z</time>
      </trkpt>
      <trkpt lat="46.4049" lon="0.30214">
        <ele>125.47102570627</ele>
        <time>2021-05-02T07:35:18Z</time>
      </trkpt>
      <trkpt lat="46.40488" lon="0.30213">
        <ele>125.31188616809</ele>
        <time>2021-05-02T07:35:20Z</time>
      </trkpt>
      <trkpt lat="46.40486" lon="0.30213">
        <ele>125.38533033617</ele>
        <time>2021-05-02T07:35:22Z</time>
      </trkpt>
      <trkpt lat="46.40483" lon="0.30212">
        <ele>125.31341366656</ele>
        <time>2021-05-02T07:35:24Z</time>
      </trkpt>
      <trkpt lat="46.4048" lon="0.30211">
        <ele>125.20315782912</ele>
        <time>2021-05-02T07:35:26Z</time>
      </trkpt>
      <trkpt lat="46.40477" lon="0.3021">
        <ele>125.02596968412</ele>
        <time>2021-05-02T07:35:28Z</time>
      </trkpt>
      <trkpt lat="46.40476" lon="0.3021">
        <ele>125.22720678337</ele>
        <time>2021-05-02T07:35:29Z</time>
      </trkpt>
      <trkpt lat="46.40473" lon="0.30208">
        <ele>125.33450512867</ele>
        <time>2021-05-02T07:35:31Z</time>
      </trkpt>
      <trkpt lat="46.40471" lon="0.30207">
        <ele>125.40014700405</ele>
        <time>2021-05-02T07:35:33Z</time>
      </trkpt>
      <trkpt lat="46.40468" lon="0.30207">
        <ele>125.20357796457</ele>
        <time>2021-05-02T07:35:35Z</time>
      </trkpt>
      <trkpt lat="46.40465" lon="0.30206">
        <ele>125.67158643901</ele>
        <time>2021-05-02T07:35:37Z</time>
      </trkpt>
      <trkpt lat="46.40462" lon="0.30205">
        <ele>125.74711169582</ele>
        <time>2021-05-02T07:35:39Z</time>
      </trkpt>
      <trkpt lat="46.40459" lon="0.30205">
        <ele>125.61877094023</ele>
        <time>2021-05-02T07:35:41Z</time>
      </trkpt>
      <trkpt lat="46.40457" lon="0.30205">
        <ele>125.91800802667</ele>
        <time>2021-05-02T07:35:43Z</time>
      </trkpt>
      <trkpt lat="46.40454" lon="0.30203">
        <ele>125.62564231735</ele>
        <time>2021-05-02T07:35:45Z</time>
      </trkpt>
      <trkpt lat="46.40451" lon="0.30203">
        <ele>125.51242801268</ele>
        <time>2021-05-02T07:35:47Z</time>
      </trkpt>
      <trkpt lat="46.40448" lon="0.30202">
        <ele>125.96806822065</ele>
        <time>2021-05-02T07:35:49Z</time>
      </trkpt>
      <trkpt lat="46.40446" lon="0.30202">
        <ele>126.07190947048</ele>
        <time>2021-05-02T07:35:51Z</time>
      </trkpt>
      <trkpt lat="46.40443" lon="0.30201">
        <ele>126.01526980195</ele>
        <time>2021-05-02T07:35:53Z</time>
      </trkpt>
      <trkpt lat="46.40441" lon="0.302">
        <ele>126.0261837123</ele>
        <time>2021-05-02T07:35:55Z</time>
      </trkpt>
      <trkpt lat="46.40439" lon="0.30199">
        <ele>126.43057336099</ele>
        <time>2021-05-02T07:35:57Z</time>
      </trkpt>
      <trkpt lat="46.40436" lon="0.30197">
        <ele>126.00043773465</ele>
        <time>2021-05-02T07:35:59Z</time>
      </trkpt>
      <trkpt lat="46.40433" lon="0.30196">
        <ele>126.49030930828</ele>
        <time>2021-05-02T07:36:01Z</time>
      </trkpt>
      <trkpt lat="46.4043" lon="0.30196">
        <ele>127.24214178417</ele>
        <time>2021-05-02T07:36:03Z</time>
      </trkpt>
      <trkpt lat="46.40428" lon="0.30196">
        <ele>126.61560930219</ele>
        <time>2021-05-02T07:36:05Z</time>
      </trkpt>
      <trkpt lat="46.40425" lon="0.30195">
        <ele>126.53034368344</ele>
        <time>2021-05-02T07:36:07Z</time>
      </trkpt>
      <trkpt lat="46.40422" lon="0.30194">
        <ele>126.54616973456</ele>
        <time>2021-05-02T07:36:09Z</time>
      </trkpt>
      <trkpt lat="46.4042" lon="0.30193">
        <ele>126.25994188059</ele>
        <time>2021-05-02T07:36:11Z</time>
      </trkpt>
      <trkpt lat="46.40417" lon="0.30192">
        <ele>126.48698040843</ele>
        <time>2021-05-02T07:36:13Z</time>
      </trkpt>
      <trkpt lat="46.40415" lon="0.30192">
        <ele>126.65207415354</ele>
        <time>2021-05-02T07:36:15Z</time>
      </trkpt>
      <trkpt lat="46.40412" lon="0.30191">
        <ele>127.29335922003</ele>
        <time>2021-05-02T07:36:17Z</time>
      </trkpt>
      <trkpt lat="46.40409" lon="0.3019">
        <ele>127.07274355367</ele>
        <time>2021-05-02T07:36:19Z</time>
      </trkpt>
      <trkpt lat="46.40405" lon="0.3019">
        <ele>127.31138904672</ele>
        <time>2021-05-02T07:36:22Z</time>
      </trkpt>
      <trkpt lat="46.40403" lon="0.30189">
        <ele>127.21173718758</ele>
        <time>2021-05-02T07:36:24Z</time>
      </trkpt>
      <trkpt lat="46.404" lon="0.30189">
        <ele>127.07773408759</ele>
        <time>2021-05-02T07:36:26Z</time>
      </trkpt>
      <trkpt lat="46.40396" lon="0.30188">
        <ele>127.43078002334</ele>
        <time>2021-05-02T07:36:28Z</time>
      </trkpt>
      <trkpt lat="46.40394" lon="0.30188">
        <ele>127.92120938189</ele>
        <time>2021-05-02T07:36:30Z</time>
      </trkpt>
      <trkpt lat="46.40391" lon="0.30188">
        <ele>127.93641186226</ele>
        <time>2021-05-02T07:36:32Z</time>
      </trkpt>
      <trkpt lat="46.40388" lon="0.30188">
        <ele>127.5861000875</ele>
        <time>2021-05-02T07:36:34Z</time>
      </trkpt>
      <trkpt lat="46.40385" lon="0.30187">
        <ele>127.59170125425</ele>
        <time>2021-05-02T07:36:36Z</time>
      </trkpt>
      <trkpt lat="46.40383" lon="0.30186">
        <ele>127.93065967597</ele>
        <time>2021-05-02T07:36:38Z</time>
      </trkpt>
      <trkpt lat="46.40379" lon="0.30186">
        <ele>128.18780329544</ele>
        <time>2021-05-02T07:36:40Z</time>
      </trkpt>
      <trkpt lat="46.40376" lon="0.30186">
        <ele>128.26110643987</ele>
        <time>2021-05-02T07:36:42Z</time>
      </trkpt>
      <trkpt lat="46.40374" lon="0.30185">
        <ele>127.75038908049</ele>
        <time>2021-05-02T07:36:44Z</time>
      </trkpt>
      <trkpt lat="46.40371" lon="0.30184">
        <ele>128.14481728151</ele>
        <time>2021-05-02T07:36:46Z</time>
      </trkpt>
      <trkpt lat="46.40368" lon="0.30184">
        <ele>128.56251252629</ele>
        <time>2021-05-02T07:36:48Z</time>
      </trkpt>
      <trkpt lat="46.40366" lon="0.30183">
        <ele>127.99491477292</ele>
        <time>2021-05-02T07:36:50Z</time>
      </trkpt>
      <trkpt lat="46.40363" lon="0.30182">
        <ele>127.98169365898</ele>
        <time>2021-05-02T07:36:52Z</time>
      </trkpt>
      <trkpt lat="46.4036" lon="0.30182">
        <ele>127.85272574797</ele>
        <time>2021-05-02T07:36:54Z</time>
      </trkpt>
      <trkpt lat="46.40357" lon="0.30182">
        <ele>128.06601803377</ele>
        <time>2021-05-02T07:36:56Z</time>
      </trkpt>
      <trkpt lat="46.40354" lon="0.3018">
        <ele>128.15609888732</ele>
        <time>2021-05-02T07:36:58Z</time>
      </trkpt>
      <trkpt lat="46.40352" lon="0.3018">
        <ele>128.53336039558</ele>
        <time>2021-05-02T07:37:00Z</time>
      </trkpt>
      <trkpt lat="46.4035" lon="0.30179">
        <ele>128.24854794983</ele>
        <time>2021-05-02T07:37:02Z</time>
      </trkpt>
      <trkpt lat="46.40347" lon="0.30179">
        <ele>128.4215056235</ele>
        <time>2021-05-02T07:37:04Z</time>
      </trkpt>
      <trkpt lat="46.40344" lon="0.30178">
        <ele>128.51141178329</ele>
        <time>2021-05-02T07:37:06Z</time>
      </trkpt>
      <trkpt lat="46.40341" lon="0.30177">
        <ele>128.64604387619</ele>
        <time>2021-05-02T07:37:08Z</time>
      </trkpt>
      <trkpt lat="46.40339" lon="0.30176">
        <ele>128.80925585795</ele>
        <time>2021-05-02T07:37:10Z</time>
      </trkpt>
      <trkpt lat="46.40336" lon="0.30175">
        <ele>128.76325478032</ele>
        <time>2021-05-02T07:37:12Z</time>
      </trkpt>
      <trkpt lat="46.40334" lon="0.30174">
        <ele>128.66833311506</ele>
        <time>2021-05-02T07:37:14Z</time>
      </trkpt>
      <trkpt lat="46.40331" lon="0.30174">
        <ele>128.73889900465</ele>
        <time>2021-05-02T07:37:16Z</time>
      </trkpt>
      <trkpt lat="46.40328" lon="0.30173">
        <ele>128.89589354396</ele>
        <time>2021-05-02T07:37:18Z</time>
      </trkpt>
      <trkpt lat="46.40326" lon="0.30172">
        <ele>129.49579535332</ele>
        <time>2021-05-02T07:37:20Z</time>
      </trkpt>
      <trkpt lat="46.40324" lon="0.30172">
        <ele>128.89423804637</ele>
        <time>2021-05-02T07:37:22Z</time>
      </trkpt>
      <trkpt lat="46.40322" lon="0.3017">
        <ele>128.69102070574</ele>
        <time>2021-05-02T07:37:24Z</time>
      </trkpt>
      <trkpt lat="46.40319" lon="0.30169">
        <ele>129.05070622265</ele>
        <time>2021-05-02T07:37:26Z</time>
      </trkpt>
      <trkpt lat="46.40316" lon="0.30168">
        <ele>129.43793809228</ele>
        <time>2021-05-02T07:37:28Z</time>
      </trkpt>
      <trkpt lat="46.40314" lon="0.30167">
        <ele>129.54559286963</ele>
        <time>2021-05-02T07:37:30Z</time>
      </trkpt>
      <trkpt lat="46.40311" lon="0.30166">
        <ele>129.6168395998</ele>
        <time>2021-05-02T07:37:32Z</time>
      </trkpt>
      <trkpt lat="46.40309" lon="0.30165">
        <ele>130.06654766388</ele>
        <time>2021-05-02T07:37:34Z</time>
      </trkpt>
      <trkpt lat="46.40306" lon="0.30163">
        <ele>130.05352286715</ele>
        <time>2021-05-02T07:37:36Z</time>
      </trkpt>
      <trkpt lat="46.40303" lon="0.30162">
        <ele>129.91573528666</ele>
        <time>2021-05-02T07:37:38Z</time>
      </trkpt>
      <trkpt lat="46.40301" lon="0.30161">
        <ele>129.56785905175</ele>
        <time>2021-05-02T07:37:40Z</time>
      </trkpt>
      <trkpt lat="46.40299" lon="0.3016">
        <ele>129.74305905309</ele>
        <time>2021-05-02T07:37:42Z</time>
      </trkpt>
      <trkpt lat="46.40296" lon="0.30159">
        <ele>129.85215527751</ele>
        <time>2021-05-02T07:37:44Z</time>
      </trkpt>
      <trkpt lat="46.40294" lon="0.30157">
        <ele>129.99431907944</ele>
        <time>2021-05-02T07:37:46Z</time>
      </trkpt>
      <trkpt lat="46.40291" lon="0.30156">
        <ele>129.61097097863</ele>
        <time>2021-05-02T07:37:48Z</time>
      </trkpt>
      <trkpt lat="46.40288" lon="0.30155">
        <ele>129.96210309863</ele>
        <time>2021-05-02T07:37:50Z</time>
      </trkpt>
      <trkpt lat="46.40286" lon="0.30155">
        <ele>130.02245775517</ele>
        <time>2021-05-02T07:37:52Z</time>
      </trkpt>
      <trkpt lat="46.40284" lon="0.30152">
        <ele>129.74086560588</ele>
        <time>2021-05-02T07:37:54Z</time>
      </trkpt>
      <trkpt lat="46.40281" lon="0.30154">
        <ele>130.07346507814</ele>
        <time>2021-05-02T07:37:57Z</time>
      </trkpt>
      <trkpt lat="46.40279" lon="0.30152">
        <ele>129.60090737417</ele>
        <time>2021-05-02T07:38:00Z</time>
      </trkpt>
      <trkpt lat="46.40277" lon="0.30151">
        <ele>130.37439765595</ele>
        <time>2021-05-02T07:38:02Z</time>
      </trkpt>
      <trkpt lat="46.40274" lon="0.3015">
        <ele>129.7608327074</ele>
        <time>2021-05-02T07:38:04Z</time>
      </trkpt>
      <trkpt lat="46.40272" lon="0.30148">
        <ele>129.87602634076</ele>
        <time>2021-05-02T07:38:07Z</time>
      </trkpt>
      <trkpt lat="46.40269" lon="0.30147">
        <ele>130.50918143429</ele>
        <time>2021-05-02T07:38:09Z</time>
      </trkpt>
      <trkpt lat="46.40266" lon="0.30146">
        <ele>130.40343315341</ele>
        <time>2021-05-02T07:38:11Z</time>
      </trkpt>
      <trkpt lat="46.40263" lon="0.30144">
        <ele>130.81105481554</ele>
        <time>2021-05-02T07:38:13Z</time>
      </trkpt>
      <trkpt lat="46.40261" lon="0.30143">
        <ele>130.66696943901</ele>
        <time>2021-05-02T07:38:15Z</time>
      </trkpt>
      <trkpt lat="46.40259" lon="0.30142">
        <ele>129.83325537667</ele>
        <time>2021-05-02T07:38:17Z</time>
      </trkpt>
      <trkpt lat="46.40256" lon="0.30141">
        <ele>130.08019379713</ele>
        <time>2021-05-02T07:38:19Z</time>
      </trkpt>
      <trkpt lat="46.40254" lon="0.3014">
        <ele>130.85264487937</ele>
        <time>2021-05-02T07:38:21Z</time>
      </trkpt>
      <trkpt lat="46.40252" lon="0.30139">
        <ele>130.48153242096</ele>
        <time>2021-05-02T07:38:23Z</time>
      </trkpt>
      <trkpt lat="46.4025" lon="0.30139">
        <ele>130.82197789103</ele>
        <time>2021-05-02T07:38:24Z</time>
      </trkpt>
      <trkpt lat="46.40248" lon="0.30138">
        <ele>131.4016776951</ele>
        <time>2021-05-02T07:38:26Z</time>
      </trkpt>
      <trkpt lat="46.40245" lon="0.30137">
        <ele>130.47283727303</ele>
        <time>2021-05-02T07:38:28Z</time>
      </trkpt>
      <trkpt lat="46.40243" lon="0.30136">
        <ele>130.4332076665</ele>
        <time>2021-05-02T07:38:30Z</time>
      </trkpt>
      <trkpt lat="46.40241" lon="0.30135">
        <ele>130.6891766265</ele>
        <time>2021-05-02T07:38:32Z</time>
      </trkpt>
      <trkpt lat="46.40238" lon="0.30134">
        <ele>131.08767524827</ele>
        <time>2021-05-02T07:38:34Z</time>
      </trkpt>
      <trkpt lat="46.40236" lon="0.30132">
        <ele>130.90257541649</ele>
        <time>2021-05-02T07:38:36Z</time>
      </trkpt>
      <trkpt lat="46.40234" lon="0.30131">
        <ele>130.96701697912</ele>
        <time>2021-05-02T07:38:38Z</time>
      </trkpt>
      <trkpt lat="46.40231" lon="0.3013">
        <ele>130.51726406161</ele>
        <time>2021-05-02T07:38:40Z</time>
      </trkpt>
      <trkpt lat="46.4023" lon="0.30129">
        <ele>130.82181260642</ele>
        <time>2021-05-02T07:38:41Z</time>
      </trkpt>
      <trkpt lat="46.40227" lon="0.30126">
        <ele>130.95621916745</ele>
        <time>2021-05-02T07:38:43Z</time>
      </trkpt>
      <trkpt lat="46.40225" lon="0.30126">
        <ele>130.56281713396</ele>
        <time>2021-05-02T07:38:45Z</time>
      </trkpt>
      <trkpt lat="46.40222" lon="0.30125">
        <ele>131.02727049589</ele>
        <time>2021-05-02T07:38:47Z</time>
      </trkpt>
      <trkpt lat="46.4022" lon="0.30124">
        <ele>131.16905715782</ele>
        <time>2021-05-02T07:38:49Z</time>
      </trkpt>
      <trkpt lat="46.40218" lon="0.30123">
        <ele>130.62921847682</ele>
        <time>2021-05-02T07:38:51Z</time>
      </trkpt>
      <trkpt lat="46.40216" lon="0.30121">
        <ele>130.91716299951</ele>
        <time>2021-05-02T07:38:53Z</time>
      </trkpt>
      <trkpt lat="46.40212" lon="0.3012">
        <ele>131.29810833465</ele>
        <time>2021-05-02T07:38:56Z</time>
      </trkpt>
      <trkpt lat="46.40209" lon="0.30118">
        <ele>131.18815868534</ele>
        <time>2021-05-02T07:38:58Z</time>
      </trkpt>
      <trkpt lat="46.40207" lon="0.30117">
        <ele>131.53110610321</ele>
        <time>2021-05-02T07:39:00Z</time>
      </trkpt>
      <trkpt lat="46.40204" lon="0.30116">
        <ele>130.95524999406</ele>
        <time>2021-05-02T07:39:02Z</time>
      </trkpt>
      <trkpt lat="46.40202" lon="0.30114">
        <ele>130.83039565291</ele>
        <time>2021-05-02T07:39:04Z</time>
      </trkpt>
      <trkpt lat="46.40199" lon="0.30112">
        <ele>131.02259657253</ele>
        <time>2021-05-02T07:39:06Z</time>
      </trkpt>
      <trkpt lat="46.40196" lon="0.30111">
        <ele>131.26872466598</ele>
        <time>2021-05-02T07:39:08Z</time>
      </trkpt>
      <trkpt lat="46.40194" lon="0.3011">
        <ele>131.12546678353</ele>
        <time>2021-05-02T07:39:10Z</time>
      </trkpt>
      <trkpt lat="46.40191" lon="0.30109">
        <ele>131.01918587089</ele>
        <time>2021-05-02T07:39:12Z</time>
      </trkpt>
      <trkpt lat="46.40188" lon="0.30108">
        <ele>131.09555202443</ele>
        <time>2021-05-02T07:39:14Z</time>
      </trkpt>
      <trkpt lat="46.40186" lon="0.30107">
        <ele>131.11394054908</ele>
        <time>2021-05-02T07:39:16Z</time>
      </trkpt>
      <trkpt lat="46.40184" lon="0.30106">
        <ele>131.12823968008</ele>
        <time>2021-05-02T07:39:18Z</time>
      </trkpt>
      <trkpt lat="46.40181" lon="0.30104">
        <ele>131.51725594513</ele>
        <time>2021-05-02T07:39:20Z</time>
      </trkpt>
      <trkpt lat="46.40179" lon="0.30103">
        <ele>131.64412083849</ele>
        <time>2021-05-02T07:39:22Z</time>
      </trkpt>
      <trkpt lat="46.40177" lon="0.30102">
        <ele>131.59747068305</ele>
        <time>2021-05-02T07:39:24Z</time>
      </trkpt>
      <trkpt lat="46.40175" lon="0.30101">
        <ele>131.11484503374</ele>
        <time>2021-05-02T07:39:25Z</time>
      </trkpt>
      <trkpt lat="46.40173" lon="0.301">
        <ele>131.24053263385</ele>
        <time>2021-05-02T07:39:27Z</time>
      </trkpt>
      <trkpt lat="46.4017" lon="0.30098">
        <ele>131.50566613954</ele>
        <time>2021-05-02T07:39:29Z</time>
      </trkpt>
      <trkpt lat="46.40167" lon="0.30097">
        <ele>131.16629766207</ele>
        <time>2021-05-02T07:39:31Z</time>
      </trkpt>
      <trkpt lat="46.40165" lon="0.30096">
        <ele>131.31169990078</ele>
        <time>2021-05-02T07:39:33Z</time>
      </trkpt>
      <trkpt lat="46.40162" lon="0.30093">
        <ele>131.84532127436</ele>
        <time>2021-05-02T07:39:35Z</time>
      </trkpt>
      <trkpt lat="46.4016" lon="0.30092">
        <ele>131.63417891972</ele>
        <time>2021-05-02T07:39:37Z</time>
      </trkpt>
      <trkpt lat="46.40158" lon="0.30091">
        <ele>131.89731009491</ele>
        <time>2021-05-02T07:39:38Z</time>
      </trkpt>
      <trkpt lat="46.40155" lon="0.3009">
        <ele>131.52760286536</ele>
        <time>2021-05-02T07:39:40Z</time>
      </trkpt>
      <trkpt lat="46.40153" lon="0.30089">
        <ele>131.69518260658</ele>
        <time>2021-05-02T07:39:42Z</time>
      </trkpt>
      <trkpt lat="46.4015" lon="0.30087">
        <ele>131.4606785709</ele>
        <time>2021-05-02T07:39:44Z</time>
      </trkpt>
      <trkpt lat="46.40147" lon="0.30087">
        <ele>131.96724448167</ele>
        <time>2021-05-02T07:39:46Z</time>
      </trkpt>
      <trkpt lat="46.40144" lon="0.30085">
        <ele>131.9260143619</ele>
        <time>2021-05-02T07:39:48Z</time>
      </trkpt>
      <trkpt lat="46.40142" lon="0.30084">
        <ele>131.42438303214</ele>
        <time>2021-05-02T07:39:50Z</time>
      </trkpt>
      <trkpt lat="46.4014" lon="0.30083">
        <ele>132.38769335579</ele>
        <time>2021-05-02T07:39:52Z</time>
      </trkpt>
      <trkpt lat="46.40137" lon="0.30082">
        <ele>132.03330656514</ele>
        <time>2021-05-02T07:39:54Z</time>
      </trkpt>
      <trkpt lat="46.40135" lon="0.30081">
        <ele>131.62121869717</ele>
        <time>2021-05-02T07:39:56Z</time>
      </trkpt>
      <trkpt lat="46.40134" lon="0.30079">
        <ele>131.90304306522</ele>
        <time>2021-05-02T07:39:57Z</time>
      </trkpt>
      <trkpt lat="46.40131" lon="0.30078">
        <ele>132.07176732831</ele>
        <time>2021-05-02T07:39:59Z</time>
      </trkpt>
      <trkpt lat="46.40128" lon="0.30077">
        <ele>132.18801528309</ele>
        <time>2021-05-02T07:40:01Z</time>
      </trkpt>
      <trkpt lat="46.40126" lon="0.30075">
        <ele>131.90350635257</ele>
        <time>2021-05-02T07:40:03Z</time>
      </trkpt>
      <trkpt lat="46.40124" lon="0.30075">
        <ele>131.61837653816</ele>
        <time>2021-05-02T07:40:05Z</time>
      </trkpt>
      <trkpt lat="46.40121" lon="0.30073">
        <ele>131.31169447768</ele>
        <time>2021-05-02T07:40:07Z</time>
      </trkpt>
      <trkpt lat="46.40118" lon="0.30072">
        <ele>131.41612401232</ele>
        <time>2021-05-02T07:40:09Z</time>
      </trkpt>
      <trkpt lat="46.40116" lon="0.3007">
        <ele>131.39705101214</ele>
        <time>2021-05-02T07:40:11Z</time>
      </trkpt>
      <trkpt lat="46.40113" lon="0.30069">
        <ele>131.47065929417</ele>
        <time>2021-05-02T07:40:13Z</time>
      </trkpt>
      <trkpt lat="46.40111" lon="0.30068">
        <ele>131.68048282806</ele>
        <time>2021-05-02T07:40:15Z</time>
      </trkpt>
      <trkpt lat="46.40109" lon="0.30067">
        <ele>132.07300138194</ele>
        <time>2021-05-02T07:40:17Z</time>
      </trkpt>
      <trkpt lat="46.40107" lon="0.30066">
        <ele>131.23207662161</ele>
        <time>2021-05-02T07:40:19Z</time>
      </trkpt>
      <trkpt lat="46.40104" lon="0.30064">
        <ele>131.2667415021</ele>
        <time>2021-05-02T07:40:21Z</time>
      </trkpt>
      <trkpt lat="46.40102" lon="0.30062">
        <ele>131.46704866271</ele>
        <time>2021-05-02T07:40:23Z</time>
      </trkpt>
      <trkpt lat="46.401" lon="0.30061">
        <ele>131.80290109385</ele>
        <time>2021-05-02T07:40:25Z</time>
      </trkpt>
      <trkpt lat="46.40098" lon="0.3006">
        <ele>131.14143597055</ele>
        <time>2021-05-02T07:40:27Z</time>
      </trkpt>
      <trkpt lat="46.40096" lon="0.30059">
        <ele>130.92955274135</ele>
        <time>2021-05-02T07:40:29Z</time>
      </trkpt>
      <trkpt lat="46.40093" lon="0.30057">
        <ele>131.19237968605</ele>
        <time>2021-05-02T07:40:31Z</time>
      </trkpt>
      <trkpt lat="46.40091" lon="0.30056">
        <ele>131.18900507316</ele>
        <time>2021-05-02T07:40:33Z</time>
      </trkpt>
      <trkpt lat="46.40088" lon="0.30054">
        <ele>131.85266240872</ele>
        <time>2021-05-02T07:40:35Z</time>
      </trkpt>
      <trkpt lat="46.40086" lon="0.30054">
        <ele>130.77150591742</ele>
        <time>2021-05-02T07:40:37Z</time>
      </trkpt>
      <trkpt lat="46.40084" lon="0.30052">
        <ele>130.97242552321</ele>
        <time>2021-05-02T07:40:39Z</time>
      </trkpt>
      <trkpt lat="46.40081" lon="0.30051">
        <ele>130.77124245558</ele>
        <time>2021-05-02T07:40:41Z</time>
      </trkpt>
      <trkpt lat="46.40079" lon="0.3005">
        <ele>131.17669983022</ele>
        <time>2021-05-02T07:40:43Z</time>
      </trkpt>
      <trkpt lat="46.40076" lon="0.30048">
        <ele>131.12968208641</ele>
        <time>2021-05-02T07:40:45Z</time>
      </trkpt>
      <trkpt lat="46.40074" lon="0.30047">
        <ele>131.50238561258</ele>
        <time>2021-05-02T07:40:47Z</time>
      </trkpt>
      <trkpt lat="46.40072" lon="0.30046">
        <ele>130.63988578692</ele>
        <time>2021-05-02T07:40:49Z</time>
      </trkpt>
      <trkpt lat="46.40069" lon="0.30045">
        <ele>130.74743312411</ele>
        <time>2021-05-02T07:40:51Z</time>
      </trkpt>
      <trkpt lat="46.40067" lon="0.30043">
        <ele>131.29123620875</ele>
        <time>2021-05-02T07:40:53Z</time>
      </trkpt>
      <trkpt lat="46.40064" lon="0.30042">
        <ele>130.83548147324</ele>
        <time>2021-05-02T07:40:55Z</time>
      </trkpt>
      <trkpt lat="46.40061" lon="0.30041">
        <ele>131.56771751679</ele>
        <time>2021-05-02T07:40:57Z</time>
      </trkpt>
      <trkpt lat="46.40059" lon="0.3004">
        <ele>130.86824062187</ele>
        <time>2021-05-02T07:40:59Z</time>
      </trkpt>
      <trkpt lat="46.40057" lon="0.3004">
        <ele>130.57612803765</ele>
        <time>2021-05-02T07:41:01Z</time>
      </trkpt>
      <trkpt lat="46.40054" lon="0.30039">
        <ele>130.63397981413</ele>
        <time>2021-05-02T07:41:03Z</time>
      </trkpt>
      <trkpt lat="46.40051" lon="0.30038">
        <ele>130.65146030951</ele>
        <time>2021-05-02T07:41:05Z</time>
      </trkpt>
      <trkpt lat="46.40049" lon="0.30038">
        <ele>130.85637869686</ele>
        <time>2021-05-02T07:41:07Z</time>
      </trkpt>
      <trkpt lat="46.40046" lon="0.30036">
        <ele>130.98446901236</ele>
        <time>2021-05-02T07:41:09Z</time>
      </trkpt>
      <trkpt lat="46.40043" lon="0.30036">
        <ele>131.33731289022</ele>
        <time>2021-05-02T07:41:12Z</time>
      </trkpt>
      <trkpt lat="46.4004" lon="0.30035">
        <ele>130.84563989379</ele>
        <time>2021-05-02T07:41:14Z</time>
      </trkpt>
      <trkpt lat="46.40038" lon="0.30035">
        <ele>131.1751277307</ele>
        <time>2021-05-02T07:41:16Z</time>
      </trkpt>
      <trkpt lat="46.40035" lon="0.30035">
        <ele>131.31049417984</ele>
        <time>2021-05-02T07:41:18Z</time>
      </trkpt>
      <trkpt lat="46.40032" lon="0.30034">
        <ele>131.41637340654</ele>
        <time>2021-05-02T07:41:20Z</time>
      </trkpt>
      <trkpt lat="46.40029" lon="0.30033">
        <ele>131.80141076818</ele>
        <time>2021-05-02T07:41:22Z</time>
      </trkpt>
      <trkpt lat="46.40027" lon="0.30033">
        <ele>131.37549696583</ele>
        <time>2021-05-02T07:41:24Z</time>
      </trkpt>
      <trkpt lat="46.40024" lon="0.30032">
        <ele>131.01181378029</ele>
        <time>2021-05-02T07:41:26Z</time>
      </trkpt>
      <trkpt lat="46.40022" lon="0.30032">
        <ele>131.02067490481</ele>
        <time>2021-05-02T07:41:28Z</time>
      </trkpt>
      <trkpt lat="46.40019" lon="0.30031">
        <ele>130.61452032905</ele>
        <time>2021-05-02T07:41:30Z</time>
      </trkpt>
      <trkpt lat="46.40017" lon="0.30031">
        <ele>131.13165138662</ele>
        <time>2021-05-02T07:41:32Z</time>
      </trkpt>
      <trkpt lat="46.40014" lon="0.3003">
        <ele>131.06046869047</ele>
        <time>2021-05-02T07:41:34Z</time>
      </trkpt>
      <trkpt lat="46.40011" lon="0.3003">
        <ele>131.3952389909</ele>
        <time>2021-05-02T07:41:36Z</time>
      </trkpt>
      <trkpt lat="46.40008" lon="0.30029">
        <ele>131.34672051575</ele>
        <time>2021-05-02T07:41:38Z</time>
      </trkpt>
      <trkpt lat="46.40006" lon="0.30028">
        <ele>131.27476664726</ele>
        <time>2021-05-02T07:41:40Z</time>
      </trkpt>
      <trkpt lat="46.40003" lon="0.30028">
        <ele>131.1029012464</ele>
        <time>2021-05-02T07:41:42Z</time>
      </trkpt>
      <trkpt lat="46.40001" lon="0.30028">
        <ele>131.29118239693</ele>
        <time>2021-05-02T07:41:44Z</time>
      </trkpt>
      <trkpt lat="46.39998" lon="0.30028">
        <ele>131.47905379254</ele>
        <time>2021-05-02T07:41:46Z</time>
      </trkpt>
      <trkpt lat="46.39995" lon="0.30027">
        <ele>131.14561638329</ele>
        <time>2021-05-02T07:41:48Z</time>
      </trkpt>
      <trkpt lat="46.39992" lon="0.30026">
        <ele>130.99332729448</ele>
        <time>2021-05-02T07:41:50Z</time>
      </trkpt>
      <trkpt lat="46.39989" lon="0.30025">
        <ele>131.19317573123</ele>
        <time>2021-05-02T07:41:52Z</time>
      </trkpt>
      <trkpt lat="46.39987" lon="0.30025">
        <ele>130.94804261439</ele>
        <time>2021-05-02T07:41:53Z</time>
      </trkpt>
      <trkpt lat="46.39985" lon="0.30024">
        <ele>130.49222376943</ele>
        <time>2021-05-02T07:41:55Z</time>
      </trkpt>
      <trkpt lat="46.39983" lon="0.30024">
        <ele>131.0880718464</ele>
        <time>2021-05-02T07:41:57Z</time>
      </trkpt>
      <trkpt lat="46.39979" lon="0.30024">
        <ele>130.65830215067</ele>
        <time>2021-05-02T07:41:59Z</time>
      </trkpt>
      <trkpt lat="46.39977" lon="0.30023">
        <ele>130.84544440731</ele>
        <time>2021-05-02T07:42:01Z</time>
      </trkpt>
      <trkpt lat="46.39974" lon="0.30022">
        <ele>131.21351730637</ele>
        <time>2021-05-02T07:42:03Z</time>
      </trkpt>
      <trkpt lat="46.39971" lon="0.30022">
        <ele>130.8789377464</ele>
        <time>2021-05-02T07:42:05Z</time>
      </trkpt>
      <trkpt lat="46.39969" lon="0.30022">
        <ele>131.05322122201</ele>
        <time>2021-05-02T07:42:07Z</time>
      </trkpt>
      <trkpt lat="46.39966" lon="0.30021">
        <ele>130.84384748153</ele>
        <time>2021-05-02T07:42:09Z</time>
      </trkpt>
      <trkpt lat="46.39964" lon="0.3002">
        <ele>130.70458740368</ele>
        <time>2021-05-02T07:42:11Z</time>
      </trkpt>
      <trkpt lat="46.39962" lon="0.3002">
        <ele>130.82114501856</ele>
        <time>2021-05-02T07:42:12Z</time>
      </trkpt>
      <trkpt lat="46.39958" lon="0.30019">
        <ele>131.13096725941</ele>
        <time>2021-05-02T07:42:15Z</time>
      </trkpt>
      <trkpt lat="46.39956" lon="0.30019">
        <ele>130.71735683456</ele>
        <time>2021-05-02T07:42:17Z</time>
      </trkpt>
      <trkpt lat="46.39953" lon="0.30018">
        <ele>131.53743187804</ele>
        <time>2021-05-02T07:42:19Z</time>
      </trkpt>
      <trkpt lat="46.39951" lon="0.30018">
        <ele>131.24383049551</ele>
        <time>2021-05-02T07:42:21Z</time>
      </trkpt>
      <trkpt lat="46.39948" lon="0.30018">
        <ele>131.13013595808</ele>
        <time>2021-05-02T07:42:23Z</time>
      </trkpt>
      <trkpt lat="46.39946" lon="0.30018">
        <ele>130.93022690807</ele>
        <time>2021-05-02T07:42:25Z</time>
      </trkpt>
      <trkpt lat="46.39943" lon="0.30018">
        <ele>130.93420311343</ele>
        <time>2021-05-02T07:42:27Z</time>
      </trkpt>
      <trkpt lat="46.3994" lon="0.30017">
        <ele>131.05026510172</ele>
        <time>2021-05-02T07:42:29Z</time>
      </trkpt>
      <trkpt lat="46.39937" lon="0.30016">
        <ele>130.74581149872</ele>
        <time>2021-05-02T07:42:31Z</time>
      </trkpt>
      <trkpt lat="46.39934" lon="0.30015">
        <ele>130.70935574919</ele>
        <time>2021-05-02T07:42:33Z</time>
      </trkpt>
      <trkpt lat="46.39931" lon="0.30015">
        <ele>131.45157151856</ele>
        <time>2021-05-02T07:42:35Z</time>
      </trkpt>
      <trkpt lat="46.39928" lon="0.30014">
        <ele>131.11317656375</ele>
        <time>2021-05-02T07:42:37Z</time>
      </trkpt>
      <trkpt lat="46.39926" lon="0.30014">
        <ele>131.07584311999</ele>
        <time>2021-05-02T07:42:39Z</time>
      </trkpt>
      <trkpt lat="46.39922" lon="0.30013">
        <ele>130.96455713734</ele>
        <time>2021-05-02T07:42:41Z</time>
      </trkpt>
      <trkpt lat="46.3992" lon="0.30014">
        <ele>131.00257607829</ele>
        <time>2021-05-02T07:42:43Z</time>
      </trkpt>
      <trkpt lat="46.39918" lon="0.30013">
        <ele>130.86683444865</ele>
        <time>2021-05-02T07:42:45Z</time>
      </trkpt>
      <trkpt lat="46.39914" lon="0.30012">
        <ele>131.08512226492</ele>
        <time>2021-05-02T07:42:47Z</time>
      </trkpt>
      <trkpt lat="46.39912" lon="0.30012">
        <ele>130.9528777888</ele>
        <time>2021-05-02T07:42:49Z</time>
      </trkpt>
      <trkpt lat="46.39909" lon="0.30011">
        <ele>130.81771664321</ele>
        <time>2021-05-02T07:42:51Z</time>
      </trkpt>
      <trkpt lat="46.39906" lon="0.30011">
        <ele>130.59524026141</ele>
        <time>2021-05-02T07:42:53Z</time>
      </trkpt>
      <trkpt lat="46.39903" lon="0.3001">
        <ele>130.54418887012</ele>
        <time>2021-05-02T07:42:55Z</time>
      </trkpt>
      <trkpt lat="46.39902" lon="0.30009">
        <ele>130.65330349933</ele>
        <time>2021-05-02T07:42:56Z</time>
      </trkpt>
      <trkpt lat="46.399" lon="0.30009">
        <ele>130.20748286881</ele>
        <time>2021-05-02T07:42:58Z</time>
      </trkpt>
      <trkpt lat="46.39897" lon="0.30009">
        <ele>130.32719347067</ele>
        <time>2021-05-02T07:43:00Z</time>
      </trkpt>
      <trkpt lat="46.39894" lon="0.30009">
        <ele>130.40379288886</ele>
        <time>2021-05-02T07:43:02Z</time>
      </trkpt>
      <trkpt lat="46.39892" lon="0.30008">
        <ele>130.32957722247</ele>
        <time>2021-05-02T07:43:04Z</time>
      </trkpt>
      <trkpt lat="46.39889" lon="0.30008">
        <ele>130.23239227105</ele>
        <time>2021-05-02T07:43:06Z</time>
      </trkpt>
      <trkpt lat="46.39886" lon="0.30007">
        <ele>130.23592401855</ele>
        <time>2021-05-02T07:43:08Z</time>
      </trkpt>
      <trkpt lat="46.39884" lon="0.30006">
        <ele>130.19351592474</ele>
        <time>2021-05-02T07:43:09Z</time>
      </trkpt>
      <trkpt lat="46.39882" lon="0.30005">
        <ele>130.13687073998</ele>
        <time>2021-05-02T07:43:11Z</time>
      </trkpt>
      <trkpt lat="46.3988" lon="0.30005">
        <ele>130.12959887926</ele>
        <time>2021-05-02T07:43:12Z</time>
      </trkpt>
      <trkpt lat="46.39878" lon="0.30004">
        <ele>130.37472760025</ele>
        <time>2021-05-02T07:43:14Z</time>
      </trkpt>
      <trkpt lat="46.39875" lon="0.30003">
        <ele>130.46504097618</ele>
        <time>2021-05-02T07:43:16Z</time>
      </trkpt>
      <trkpt lat="46.39873" lon="0.30003">
        <ele>130.4728151178</ele>
        <time>2021-05-02T07:43:17Z</time>
      </trkpt>
      <trkpt lat="46.39871" lon="0.30002">
        <ele>130.10872431658</ele>
        <time>2021-05-02T07:43:19Z</time>
      </trkpt>
      <trkpt lat="46.39868" lon="0.30001">
        <ele>130.51811527088</ele>
        <time>2021-05-02T07:43:21Z</time>
      </trkpt>
      <trkpt lat="46.39865" lon="0.3">
        <ele>130.75714039523</ele>
        <time>2021-05-02T07:43:23Z</time>
      </trkpt>
      <trkpt lat="46.39863" lon="0.3">
        <ele>130.59864761401</ele>
        <time>2021-05-02T07:43:25Z</time>
      </trkpt>
      <trkpt lat="46.39861" lon="0.29999">
        <ele>130.63409297168</ele>
        <time>2021-05-02T07:43:27Z</time>
      </trkpt>
      <trkpt lat="46.39857" lon="0.29998">
        <ele>130.68224557023</ele>
        <time>2021-05-02T07:43:29Z</time>
      </trkpt>
      <trkpt lat="46.39855" lon="0.29997">
        <ele>131.03492530528</ele>
        <time>2021-05-02T07:43:31Z</time>
      </trkpt>
      <trkpt lat="46.39852" lon="0.29995">
        <ele>130.72390980087</ele>
        <time>2021-05-02T07:43:33Z</time>
      </trkpt>
      <trkpt lat="46.39849" lon="0.29995">
        <ele>131.01985559985</ele>
        <time>2021-05-02T07:43:35Z</time>
      </trkpt>
      <trkpt lat="46.39846" lon="0.29993">
        <ele>130.56037295423</ele>
        <time>2021-05-02T07:43:37Z</time>
      </trkpt>
      <trkpt lat="46.39843" lon="0.29993">
        <ele>130.79603613634</ele>
        <time>2021-05-02T07:43:39Z</time>
      </trkpt>
      <trkpt lat="46.39841" lon="0.29992">
        <ele>130.93406313285</ele>
        <time>2021-05-02T07:43:41Z</time>
      </trkpt>
      <trkpt lat="46.39838" lon="0.29991">
        <ele>130.61452801153</ele>
        <time>2021-05-02T07:43:43Z</time>
      </trkpt>
      <trkpt lat="46.39837" lon="0.29989">
        <ele>130.91672843043</ele>
        <time>2021-05-02T07:43:44Z</time>
      </trkpt>
      <trkpt lat="46.39833" lon="0.29989">
        <ele>130.57138780877</ele>
        <time>2021-05-02T07:43:47Z</time>
      </trkpt>
      <trkpt lat="46.39831" lon="0.29988">
        <ele>130.64697693288</ele>
        <time>2021-05-02T07:43:49Z</time>
      </trkpt>
      <trkpt lat="46.39828" lon="0.29987">
        <ele>130.60226599965</ele>
        <time>2021-05-02T07:43:51Z</time>
      </trkpt>
      <trkpt lat="46.39825" lon="0.29986">
        <ele>130.50722613744</ele>
        <time>2021-05-02T07:43:53Z</time>
      </trkpt>
      <trkpt lat="46.39823" lon="0.29986">
        <ele>130.61457288545</ele>
        <time>2021-05-02T07:43:55Z</time>
      </trkpt>
      <trkpt lat="46.3982" lon="0.29984">
        <ele>130.99906546343</ele>
        <time>2021-05-02T07:43:57Z</time>
      </trkpt>
      <trkpt lat="46.39818" lon="0.29984">
        <ele>130.99647524394</ele>
        <time>2021-05-02T07:43:59Z</time>
      </trkpt>
      <trkpt lat="46.39815" lon="0.29983">
        <ele>130.80360889062</ele>
        <time>2021-05-02T07:44:01Z</time>
      </trkpt>
      <trkpt lat="46.39813" lon="0.29982">
        <ele>130.3481110502</ele>
        <time>2021-05-02T07:44:03Z</time>
      </trkpt>
      <trkpt lat="46.3981" lon="0.29981">
        <ele>130.01637052558</ele>
        <time>2021-05-02T07:44:05Z</time>
      </trkpt>
      <trkpt lat="46.39807" lon="0.2998">
        <ele>130.39037068561</ele>
        <time>2021-05-02T07:44:07Z</time>
      </trkpt>
      <trkpt lat="46.39805" lon="0.29979">
        <ele>130.42378622293</ele>
        <time>2021-05-02T07:44:09Z</time>
      </trkpt>
      <trkpt lat="46.39802" lon="0.29978">
        <ele>130.25030494481</ele>
        <time>2021-05-02T07:44:11Z</time>
      </trkpt>
      <trkpt lat="46.39801" lon="0.29978">
        <ele>130.38930293359</ele>
        <time>2021-05-02T07:44:12Z</time>
      </trkpt>
      <trkpt lat="46.39798" lon="0.29978">
        <ele>130.40841766726</ele>
        <time>2021-05-02T07:44:14Z</time>
      </trkpt>
      <trkpt lat="46.39797" lon="0.29977">
        <ele>130.68021261133</ele>
        <time>2021-05-02T07:44:15Z</time>
      </trkpt>
      <trkpt lat="46.39793" lon="0.29976">
        <ele>130.54283023719</ele>
        <time>2021-05-02T07:44:17Z</time>
      </trkpt>
      <trkpt lat="46.39792" lon="0.29976">
        <ele>130.29297487345</ele>
        <time>2021-05-02T07:44:19Z</time>
      </trkpt>
      <trkpt lat="46.39789" lon="0.29974">
        <ele>130.93474944308</ele>
        <time>2021-05-02T07:44:21Z</time>
      </trkpt>
      <trkpt lat="46.39786" lon="0.29974">
        <ele>130.4475245662</ele>
        <time>2021-05-02T07:44:23Z</time>
      </trkpt>
      <trkpt lat="46.39783" lon="0.29973">
        <ele>130.64578245487</ele>
        <time>2021-05-02T07:44:25Z</time>
      </trkpt>
      <trkpt lat="46.3978" lon="0.29972">
        <ele>130.98004115745</ele>
        <time>2021-05-02T07:44:27Z</time>
      </trkpt>
      <trkpt lat="46.39778" lon="0.29971">
        <ele>131.28688018396</ele>
        <time>2021-05-02T07:44:28Z</time>
      </trkpt>
      <trkpt lat="46.39776" lon="0.2997">
        <ele>131.48264348228</ele>
        <time>2021-05-02T07:44:30Z</time>
      </trkpt>
      <trkpt lat="46.39773" lon="0.29969">
        <ele>131.15334241092</ele>
        <time>2021-05-02T07:44:32Z</time>
      </trkpt>
      <trkpt lat="46.39771" lon="0.29967">
        <ele>131.37106358539</ele>
        <time>2021-05-02T07:44:34Z</time>
      </trkpt>
      <trkpt lat="46.39769" lon="0.29967">
        <ele>130.97797501832</ele>
        <time>2021-05-02T07:44:35Z</time>
      </trkpt>
      <trkpt lat="46.39767" lon="0.29966">
        <ele>130.88194800168</ele>
        <time>2021-05-02T07:44:37Z</time>
      </trkpt>
      <trkpt lat="46.39764" lon="0.29965">
        <ele>130.87724051252</ele>
        <time>2021-05-02T07:44:39Z</time>
      </trkpt>
      <trkpt lat="46.39761" lon="0.29964">
        <ele>130.82563291676</ele>
        <time>2021-05-02T07:44:41Z</time>
      </trkpt>
      <trkpt lat="46.39758" lon="0.29964">
        <ele>131.25599689223</ele>
        <time>2021-05-02T07:44:43Z</time>
      </trkpt>
      <trkpt lat="46.39755" lon="0.29963">
        <ele>131.07366722822</ele>
        <time>2021-05-02T07:44:45Z</time>
      </trkpt>
      <trkpt lat="46.39753" lon="0.29962">
        <ele>130.67279790994</ele>
        <time>2021-05-02T07:44:47Z</time>
      </trkpt>
      <trkpt lat="46.3975" lon="0.29962">
        <ele>130.76683944091</ele>
        <time>2021-05-02T07:44:49Z</time>
      </trkpt>
      <trkpt lat="46.39747" lon="0.29961">
        <ele>130.97089999542</ele>
        <time>2021-05-02T07:44:51Z</time>
      </trkpt>
      <trkpt lat="46.39744" lon="0.2996">
        <ele>131.20542684477</ele>
        <time>2021-05-02T07:44:53Z</time>
      </trkpt>
      <trkpt lat="46.39742" lon="0.2996">
        <ele>131.27825216111</ele>
        <time>2021-05-02T07:44:55Z</time>
      </trkpt>
      <trkpt lat="46.39739" lon="0.29959">
        <ele>131.13661388215</ele>
        <time>2021-05-02T07:44:57Z</time>
      </trkpt>
      <trkpt lat="46.39736" lon="0.29959">
        <ele>130.91567233019</ele>
        <time>2021-05-02T07:44:59Z</time>
      </trkpt>
      <trkpt lat="46.39733" lon="0.29959">
        <ele>130.48477447871</ele>
        <time>2021-05-02T07:45:02Z</time>
      </trkpt>
      <trkpt lat="46.39731" lon="0.29958">
        <ele>130.47805480566</ele>
        <time>2021-05-02T07:45:03Z</time>
      </trkpt>
      <trkpt lat="46.39727" lon="0.29958">
        <ele>130.6145948628</ele>
        <time>2021-05-02T07:45:06Z</time>
      </trkpt>
      <trkpt lat="46.39725" lon="0.29959">
        <ele>130.37860563677</ele>
        <time>2021-05-02T07:45:08Z</time>
      </trkpt>
      <trkpt lat="46.39722" lon="0.29958">
        <ele>130.57259027474</ele>
        <time>2021-05-02T07:45:10Z</time>
      </trkpt>
      <trkpt lat="46.39719" lon="0.29958">
        <ele>130.63373197522</ele>
        <time>2021-05-02T07:45:12Z</time>
      </trkpt>
      <trkpt lat="46.39716" lon="0.29958">
        <ele>130.43866515439</ele>
        <time>2021-05-02T07:45:14Z</time>
      </trkpt>
      <trkpt lat="46.39714" lon="0.29957">
        <ele>130.43554282561</ele>
        <time>2021-05-02T07:45:16Z</time>
      </trkpt>
      <trkpt lat="46.39711" lon="0.29956">
        <ele>131.01299228333</ele>
        <time>2021-05-02T07:45:18Z</time>
      </trkpt>
      <trkpt lat="46.39708" lon="0.29956">
        <ele>130.34586093482</ele>
        <time>2021-05-02T07:45:20Z</time>
      </trkpt>
      <trkpt lat="46.39706" lon="0.29955">
        <ele>130.30312037561</ele>
        <time>2021-05-02T07:45:22Z</time>
      </trkpt>
      <trkpt lat="46.39703" lon="0.29955">
        <ele>130.16352237388</ele>
        <time>2021-05-02T07:45:24Z</time>
      </trkpt>
      <trkpt lat="46.39701" lon="0.29955">
        <ele>130.51327325869</ele>
        <time>2021-05-02T07:45:25Z</time>
      </trkpt>
      <trkpt lat="46.39698" lon="0.29955">
        <ele>130.4601125624</ele>
        <time>2021-05-02T07:45:27Z</time>
      </trkpt>
      <trkpt lat="46.39695" lon="0.29955">
        <ele>130.37482544035</ele>
        <time>2021-05-02T07:45:29Z</time>
      </trkpt>
      <trkpt lat="46.39692" lon="0.29954">
        <ele>130.84197054151</ele>
        <time>2021-05-02T07:45:31Z</time>
      </trkpt>
      <trkpt lat="46.3969" lon="0.29954">
        <ele>130.5837720735</ele>
        <time>2021-05-02T07:45:33Z</time>
      </trkpt>
      <trkpt lat="46.39687" lon="0.29954">
        <ele>130.48632596899</ele>
        <time>2021-05-02T07:45:35Z</time>
      </trkpt>
      <trkpt lat="46.39684" lon="0.29953">
        <ele>130.08486560732</ele>
        <time>2021-05-02T07:45:37Z</time>
      </trkpt>
      <trkpt lat="46.39681" lon="0.29953">
        <ele>130.41233400535</ele>
        <time>2021-05-02T07:45:39Z</time>
      </trkpt>
      <trkpt lat="46.39678" lon="0.29953">
        <ele>130.28335126769</ele>
        <time>2021-05-02T07:45:41Z</time>
      </trkpt>
      <trkpt lat="46.39675" lon="0.29953">
        <ele>130.35824147984</ele>
        <time>2021-05-02T07:45:43Z</time>
      </trkpt>
      <trkpt lat="46.39673" lon="0.29953">
        <ele>130.10312325787</ele>
        <time>2021-05-02T07:45:45Z</time>
      </trkpt>
      <trkpt lat="46.39671" lon="0.29953">
        <ele>130.21098697465</ele>
        <time>2021-05-02T07:45:46Z</time>
      </trkpt>
      <trkpt lat="46.39669" lon="0.29952">
        <ele>130.35647809226</ele>
        <time>2021-05-02T07:45:48Z</time>
      </trkpt>
      <trkpt lat="46.39666" lon="0.29952">
        <ele>130.26659588981</ele>
        <time>2021-05-02T07:45:50Z</time>
      </trkpt>
      <trkpt lat="46.39663" lon="0.29951">
        <ele>130.21294748597</ele>
        <time>2021-05-02T07:45:52Z</time>
      </trkpt>
      <trkpt lat="46.3966" lon="0.29951">
        <ele>130.23848324083</ele>
        <time>2021-05-02T07:45:54Z</time>
      </trkpt>
      <trkpt lat="46.39658" lon="0.29951">
        <ele>130.11553689186</ele>
        <time>2021-05-02T07:45:56Z</time>
      </trkpt>
      <trkpt lat="46.39655" lon="0.29951">
        <ele>130.01055944432</ele>
        <time>2021-05-02T07:45:58Z</time>
      </trkpt>
      <trkpt lat="46.39653" lon="0.29951">
        <ele>130.18059044704</ele>
        <time>2021-05-02T07:46:00Z</time>
      </trkpt>
      <trkpt lat="46.3965" lon="0.2995">
        <ele>130.00143084116</ele>
        <time>2021-05-02T07:46:02Z</time>
      </trkpt>
      <trkpt lat="46.39647" lon="0.2995">
        <ele>130.11519742571</ele>
        <time>2021-05-02T07:46:04Z</time>
      </trkpt>
      <trkpt lat="46.39644" lon="0.29949">
        <ele>129.72363313753</ele>
        <time>2021-05-02T07:46:06Z</time>
      </trkpt>
      <trkpt lat="46.39642" lon="0.29948">
        <ele>129.37371092569</ele>
        <time>2021-05-02T07:46:08Z</time>
      </trkpt>
      <trkpt lat="46.39639" lon="0.29948">
        <ele>129.57024935819</ele>
        <time>2021-05-02T07:46:10Z</time>
      </trkpt>
      <trkpt lat="46.39636" lon="0.29947">
        <ele>129.24312269781</ele>
        <time>2021-05-02T07:46:12Z</time>
      </trkpt>
      <trkpt lat="46.39634" lon="0.29947">
        <ele>129.21342531592</ele>
        <time>2021-05-02T07:46:14Z</time>
      </trkpt>
      <trkpt lat="46.39631" lon="0.29946">
        <ele>129.19581384119</ele>
        <time>2021-05-02T07:46:16Z</time>
      </trkpt>
      <trkpt lat="46.39629" lon="0.29946">
        <ele>129.38049010374</ele>
        <time>2021-05-02T07:46:18Z</time>
      </trkpt>
      <trkpt lat="46.39626" lon="0.29945">
        <ele>129.4705558531</ele>
        <time>2021-05-02T07:46:20Z</time>
      </trkpt>
      <trkpt lat="46.39623" lon="0.29944">
        <ele>129.37941252254</ele>
        <time>2021-05-02T07:46:22Z</time>
      </trkpt>
      <trkpt lat="46.3962" lon="0.29944">
        <ele>129.61380711198</ele>
        <time>2021-05-02T07:46:24Z</time>
      </trkpt>
      <trkpt lat="46.39617" lon="0.29943">
        <ele>129.2669287147</ele>
        <time>2021-05-02T07:46:26Z</time>
      </trkpt>
      <trkpt lat="46.39615" lon="0.29942">
        <ele>129.26074511092</ele>
        <time>2021-05-02T07:46:28Z</time>
      </trkpt>
      <trkpt lat="46.39613" lon="0.29941">
        <ele>129.08050928172</ele>
        <time>2021-05-02T07:46:29Z</time>
      </trkpt>
      <trkpt lat="46.3961" lon="0.2994">
        <ele>128.91414688621</ele>
        <time>2021-05-02T07:46:31Z</time>
      </trkpt>
      <trkpt lat="46.39607" lon="0.29939">
        <ele>128.89033238031</ele>
        <time>2021-05-02T07:46:33Z</time>
      </trkpt>
      <trkpt lat="46.39604" lon="0.29938">
        <ele>128.97788398061</ele>
        <time>2021-05-02T07:46:35Z</time>
      </trkpt>
      <trkpt lat="46.39602" lon="0.29938">
        <ele>128.90596325416</ele>
        <time>2021-05-02T07:46:36Z</time>
      </trkpt>
      <trkpt lat="46.396" lon="0.29938">
        <ele>128.85189475771</ele>
        <time>2021-05-02T07:46:38Z</time>
      </trkpt>
      <trkpt lat="46.39598" lon="0.29937">
        <ele>128.91721105017</ele>
        <time>2021-05-02T07:46:40Z</time>
      </trkpt>
      <trkpt lat="46.39595" lon="0.29936">
        <ele>128.78921671491</ele>
        <time>2021-05-02T07:46:42Z</time>
      </trkpt>
      <trkpt lat="46.39592" lon="0.29935">
        <ele>128.89145965967</ele>
        <time>2021-05-02T07:46:44Z</time>
      </trkpt>
      <trkpt lat="46.3959" lon="0.29934">
        <ele>128.53943784349</ele>
        <time>2021-05-02T07:46:46Z</time>
      </trkpt>
      <trkpt lat="46.39587" lon="0.29933">
        <ele>128.60433855746</ele>
        <time>2021-05-02T07:46:48Z</time>
      </trkpt>
      <trkpt lat="46.39584" lon="0.29932">
        <ele>128.32851551473</ele>
        <time>2021-05-02T07:46:50Z</time>
      </trkpt>
      <trkpt lat="46.39581" lon="0.29931">
        <ele>128.19082446396</ele>
        <time>2021-05-02T07:46:52Z</time>
      </trkpt>
      <trkpt lat="46.39579" lon="0.29931">
        <ele>128.53622221202</ele>
        <time>2021-05-02T07:46:53Z</time>
      </trkpt>
      <trkpt lat="46.39577" lon="0.29931">
        <ele>128.73591858801</ele>
        <time>2021-05-02T07:46:55Z</time>
      </trkpt>
      <trkpt lat="46.39575" lon="0.29931">
        <ele>128.32230161689</ele>
        <time>2021-05-02T07:46:57Z</time>
      </trkpt>
      <trkpt lat="46.39573" lon="0.2993">
        <ele>128.54323378578</ele>
        <time>2021-05-02T07:46:58Z</time>
      </trkpt>
      <trkpt lat="46.3957" lon="0.2993">
        <ele>128.32591006998</ele>
        <time>2021-05-02T07:47:00Z</time>
      </trkpt>
      <trkpt lat="46.39567" lon="0.29929">
        <ele>128.59974423517</ele>
        <time>2021-05-02T07:47:02Z</time>
      </trkpt>
      <trkpt lat="46.39565" lon="0.29929">
        <ele>128.42896576226</ele>
        <time>2021-05-02T07:47:04Z</time>
      </trkpt>
      <trkpt lat="46.39563" lon="0.29929">
        <ele>128.59702544194</ele>
        <time>2021-05-02T07:47:05Z</time>
      </trkpt>
      <trkpt lat="46.39561" lon="0.29929">
        <ele>128.29836084321</ele>
        <time>2021-05-02T07:47:07Z</time>
      </trkpt>
      <trkpt lat="46.39558" lon="0.29929">
        <ele>128.14434795175</ele>
        <time>2021-05-02T07:47:09Z</time>
      </trkpt>
      <trkpt lat="46.39555" lon="0.29929">
        <ele>128.50089159608</ele>
        <time>2021-05-02T07:47:11Z</time>
      </trkpt>
      <trkpt lat="46.39552" lon="0.29928">
        <ele>128.13321698178</ele>
        <time>2021-05-02T07:47:13Z</time>
      </trkpt>
      <trkpt lat="46.3955" lon="0.29928">
        <ele>128.22341034655</ele>
        <time>2021-05-02T07:47:15Z</time>
      </trkpt>
      <trkpt lat="46.39548" lon="0.29929">
        <ele>128.0989620937</ele>
        <time>2021-05-02T07:47:16Z</time>
      </trkpt>
      <trkpt lat="46.39545" lon="0.29929">
        <ele>128.29723594431</ele>
        <time>2021-05-02T07:47:18Z</time>
      </trkpt>
      <trkpt lat="46.39542" lon="0.29929">
        <ele>127.64583850466</ele>
        <time>2021-05-02T07:47:20Z</time>
      </trkpt>
      <trkpt lat="46.39539" lon="0.29929">
        <ele>127.58486924414</ele>
        <time>2021-05-02T07:47:22Z</time>
      </trkpt>
      <trkpt lat="46.39536" lon="0.29929">
        <ele>128.17826333735</ele>
        <time>2021-05-02T07:47:24Z</time>
      </trkpt>
      <trkpt lat="46.39533" lon="0.29929">
        <ele>127.83524925914</ele>
        <time>2021-05-02T07:47:26Z</time>
      </trkpt>
      <trkpt lat="46.39531" lon="0.29929">
        <ele>127.93695348501</ele>
        <time>2021-05-02T07:47:28Z</time>
      </trkpt>
      <trkpt lat="46.39528" lon="0.29929">
        <ele>128.00778421573</ele>
        <time>2021-05-02T07:47:30Z</time>
      </trkpt>
      <trkpt lat="46.39525" lon="0.2993">
        <ele>127.98262049817</ele>
        <time>2021-05-02T07:47:32Z</time>
      </trkpt>
      <trkpt lat="46.39522" lon="0.2993">
        <ele>128.12863491569</ele>
        <time>2021-05-02T07:47:34Z</time>
      </trkpt>
      <trkpt lat="46.39518" lon="0.2993">
        <ele>127.94974155817</ele>
        <time>2021-05-02T07:47:37Z</time>
      </trkpt>
      <trkpt lat="46.39515" lon="0.29931">
        <ele>127.90586957242</ele>
        <time>2021-05-02T07:47:39Z</time>
      </trkpt>
      <trkpt lat="46.39513" lon="0.29931">
        <ele>127.82090334967</ele>
        <time>2021-05-02T07:47:41Z</time>
      </trkpt>
      <trkpt lat="46.3951" lon="0.29931">
        <ele>127.63308340497</ele>
        <time>2021-05-02T07:47:43Z</time>
      </trkpt>
      <trkpt lat="46.39508" lon="0.29931">
        <ele>127.39555383381</ele>
        <time>2021-05-02T07:47:45Z</time>
      </trkpt>
      <trkpt lat="46.39505" lon="0.29931">
        <ele>127.34345732629</ele>
        <time>2021-05-02T07:47:47Z</time>
      </trkpt>
      <trkpt lat="46.39502" lon="0.29932">
        <ele>127.35762760509</ele>
        <time>2021-05-02T07:47:49Z</time>
      </trkpt>
      <trkpt lat="46.39499" lon="0.29931">
        <ele>127.22502938099</ele>
        <time>2021-05-02T07:47:51Z</time>
      </trkpt>
      <trkpt lat="46.39496" lon="0.29931">
        <ele>126.75647337455</ele>
        <time>2021-05-02T07:47:53Z</time>
      </trkpt>
      <trkpt lat="46.39494" lon="0.29931">
        <ele>127.3419492133</ele>
        <time>2021-05-02T07:47:55Z</time>
      </trkpt>
      <trkpt lat="46.39491" lon="0.29932">
        <ele>126.98104248196</ele>
        <time>2021-05-02T07:47:57Z</time>
      </trkpt>
      <trkpt lat="46.39487" lon="0.29932">
        <ele>127.57686685026</ele>
        <time>2021-05-02T07:47:59Z</time>
      </trkpt>
      <trkpt lat="46.39486" lon="0.29931">
        <ele>126.98811420053</ele>
        <time>2021-05-02T07:48:01Z</time>
      </trkpt>
      <trkpt lat="46.39483" lon="0.29932">
        <ele>127.66133853141</ele>
        <time>2021-05-02T07:48:03Z</time>
      </trkpt>
      <trkpt lat="46.39481" lon="0.29932">
        <ele>126.61930146255</ele>
        <time>2021-05-02T07:48:05Z</time>
      </trkpt>
      <trkpt lat="46.39479" lon="0.29933">
        <ele>126.47396936547</ele>
        <time>2021-05-02T07:48:07Z</time>
      </trkpt>
      <trkpt lat="46.39476" lon="0.29933">
        <ele>126.73140029516</ele>
        <time>2021-05-02T07:48:09Z</time>
      </trkpt>
      <trkpt lat="46.39473" lon="0.29933">
        <ele>126.48699164204</ele>
        <time>2021-05-02T07:48:11Z</time>
      </trkpt>
      <trkpt lat="46.39471" lon="0.29933">
        <ele>126.61539540533</ele>
        <time>2021-05-02T07:48:13Z</time>
      </trkpt>
      <trkpt lat="46.39469" lon="0.29934">
        <ele>126.8328158604</ele>
        <time>2021-05-02T07:48:15Z</time>
      </trkpt>
      <trkpt lat="46.39467" lon="0.29934">
        <ele>126.38793807197</ele>
        <time>2021-05-02T07:48:17Z</time>
      </trkpt>
      <trkpt lat="46.39465" lon="0.29933">
        <ele>126.21700136457</ele>
        <time>2021-05-02T07:48:20Z</time>
      </trkpt>
      <trkpt lat="46.39462" lon="0.29933">
        <ele>126.6044337675</ele>
        <time>2021-05-02T07:48:23Z</time>
      </trkpt>
      <trkpt lat="46.39461" lon="0.29933">
        <ele>126.55555857625</ele>
        <time>2021-05-02T07:48:26Z</time>
      </trkpt>
      <trkpt lat="46.39458" lon="0.29932">
        <ele>126.02151510026</ele>
        <time>2021-05-02T07:48:37Z</time>
      </trkpt>
      <trkpt lat="46.39456" lon="0.2993">
        <ele>125.76974416245</ele>
        <time>2021-05-02T07:48:42Z</time>
      </trkpt>
      <trkpt lat="46.39455" lon="0.29928">
        <ele>125.85383944586</ele>
        <time>2021-05-02T07:48:45Z</time>
      </trkpt>
      <trkpt lat="46.39454" lon="0.29923">
        <ele>125.6883166926</ele>
        <time>2021-05-02T07:48:48Z</time>
      </trkpt>
      <trkpt lat="46.39454" lon="0.2992">
        <ele>126.57514005154</ele>
        <time>2021-05-02T07:48:50Z</time>
      </trkpt>
      <trkpt lat="46.39454" lon="0.29916">
        <ele>125.69097786117</ele>
        <time>2021-05-02T07:48:52Z</time>
      </trkpt>
      <trkpt lat="46.39454" lon="0.29914">
        <ele>125.74527738988</ele>
        <time>2021-05-02T07:48:54Z</time>
      </trkpt>
      <trkpt lat="46.39454" lon="0.29911">
        <ele>126.70628464408</ele>
        <time>2021-05-02T07:48:56Z</time>
      </trkpt>
      <trkpt lat="46.39455" lon="0.29908">
        <ele>125.5535028968</ele>
        <time>2021-05-02T07:48:58Z</time>
      </trkpt>
      <trkpt lat="46.39455" lon="0.29905">
        <ele>125.95576943643</ele>
        <time>2021-05-02T07:49:00Z</time>
      </trkpt>
      <trkpt lat="46.39455" lon="0.29902">
        <ele>125.67991286423</ele>
        <time>2021-05-02T07:49:02Z</time>
      </trkpt>
      <trkpt lat="46.39455" lon="0.29899">
        <ele>125.70941273775</ele>
        <time>2021-05-02T07:49:04Z</time>
      </trkpt>
      <trkpt lat="46.39455" lon="0.29896">
        <ele>125.67424023896</ele>
        <time>2021-05-02T07:49:06Z</time>
      </trkpt>
      <trkpt lat="46.39455" lon="0.29892">
        <ele>125.58247962501</ele>
        <time>2021-05-02T07:49:08Z</time>
      </trkpt>
      <trkpt lat="46.39456" lon="0.29889">
        <ele>126.10944087151</ele>
        <time>2021-05-02T07:49:10Z</time>
      </trkpt>
      <trkpt lat="46.39456" lon="0.29885">
        <ele>125.5183065692</ele>
        <time>2021-05-02T07:49:12Z</time>
      </trkpt>
      <trkpt lat="46.39457" lon="0.29882">
        <ele>125.66054427903</ele>
        <time>2021-05-02T07:49:14Z</time>
      </trkpt>
      <trkpt lat="46.39457" lon="0.29878">
        <ele>126.1174457157</ele>
        <time>2021-05-02T07:49:16Z</time>
      </trkpt>
      <trkpt lat="46.39457" lon="0.29874">
        <ele>125.99136265926</ele>
        <time>2021-05-02T07:49:18Z</time>
      </trkpt>
      <trkpt lat="46.39458" lon="0.29871">
        <ele>126.31066045724</ele>
        <time>2021-05-02T07:49:20Z</time>
      </trkpt>
      <trkpt lat="46.39458" lon="0.29867">
        <ele>126.25689909235</ele>
        <time>2021-05-02T07:49:21Z</time>
      </trkpt>
      <trkpt lat="46.39458" lon="0.29864">
        <ele>125.75345592108</ele>
        <time>2021-05-02T07:49:23Z</time>
      </trkpt>
      <trkpt lat="46.39459" lon="0.2986">
        <ele>125.75497279223</ele>
        <time>2021-05-02T07:49:25Z</time>
      </trkpt>
      <trkpt lat="46.39459" lon="0.29856">
        <ele>125.85692659765</ele>
        <time>2021-05-02T07:49:27Z</time>
      </trkpt>
      <trkpt lat="46.39459" lon="0.29852">
        <ele>125.78433459904</ele>
        <time>2021-05-02T07:49:29Z</time>
      </trkpt>
      <trkpt lat="46.39458" lon="0.29849">
        <ele>125.91186463367</ele>
        <time>2021-05-02T07:49:31Z</time>
      </trkpt>
      <trkpt lat="46.39459" lon="0.29846">
        <ele>125.50827555079</ele>
        <time>2021-05-02T07:49:33Z</time>
      </trkpt>
      <trkpt lat="46.39459" lon="0.29841">
        <ele>125.62060776725</ele>
        <time>2021-05-02T07:49:35Z</time>
      </trkpt>
      <trkpt lat="46.39459" lon="0.29837">
        <ele>125.80361728836</ele>
        <time>2021-05-02T07:49:37Z</time>
      </trkpt>
      <trkpt lat="46.39459" lon="0.29833">
        <ele>126.03852160648</ele>
        <time>2021-05-02T07:49:39Z</time>
      </trkpt>
      <trkpt lat="46.39458" lon="0.29829">
        <ele>125.80120795034</ele>
        <time>2021-05-02T07:49:41Z</time>
      </trkpt>
      <trkpt lat="46.39458" lon="0.29825">
        <ele>125.81933461688</ele>
        <time>2021-05-02T07:49:43Z</time>
      </trkpt>
      <trkpt lat="46.39455" lon="0.29823">
        <ele>125.51885779575</ele>
        <time>2021-05-02T07:49:45Z</time>
      </trkpt>
      <trkpt lat="46.39452" lon="0.29822">
        <ele>125.36153422762</ele>
        <time>2021-05-02T07:49:48Z</time>
      </trkpt>
      <trkpt lat="46.39449" lon="0.29819">
        <ele>125.63608432561</ele>
        <time>2021-05-02T07:49:51Z</time>
      </trkpt>
      <trkpt lat="46.39447" lon="0.29819">
        <ele>125.45256787073</ele>
        <time>2021-05-02T07:49:53Z</time>
      </trkpt>
      <trkpt lat="46.39444" lon="0.29817">
        <ele>125.09955414198</ele>
        <time>2021-05-02T07:49:55Z</time>
      </trkpt>
      <trkpt lat="46.39443" lon="0.29816">
        <ele>125.11438826192</ele>
        <time>2021-05-02T07:49:57Z</time>
      </trkpt>
      <trkpt lat="46.3944" lon="0.29815">
        <ele>125.34334438574</ele>
        <time>2021-05-02T07:49:59Z</time>
      </trkpt>
      <trkpt lat="46.39438" lon="0.29813">
        <ele>125.47630864009</ele>
        <time>2021-05-02T07:50:01Z</time>
      </trkpt>
      <trkpt lat="46.39436" lon="0.29812">
        <ele>125.81568810344</ele>
        <time>2021-05-02T07:50:02Z</time>
      </trkpt>
      <trkpt lat="46.39433" lon="0.29812">
        <ele>125.37036260311</ele>
        <time>2021-05-02T07:50:04Z</time>
      </trkpt>
      <trkpt lat="46.39431" lon="0.29811">
        <ele>125.53072199319</ele>
        <time>2021-05-02T07:50:06Z</time>
      </trkpt>
      <trkpt lat="46.39428" lon="0.29808">
        <ele>125.57264401484</ele>
        <time>2021-05-02T07:50:08Z</time>
      </trkpt>
      <trkpt lat="46.39426" lon="0.29807">
        <ele>125.38328066748</ele>
        <time>2021-05-02T07:50:10Z</time>
      </trkpt>
      <trkpt lat="46.39424" lon="0.29805">
        <ele>125.17071282677</ele>
        <time>2021-05-02T07:50:11Z</time>
      </trkpt>
      <trkpt lat="46.39422" lon="0.29804">
        <ele>125.18084161729</ele>
        <time>2021-05-02T07:50:13Z</time>
      </trkpt>
      <trkpt lat="46.39419" lon="0.29802">
        <ele>125.43649668433</ele>
        <time>2021-05-02T07:50:15Z</time>
      </trkpt>
      <trkpt lat="46.39417" lon="0.29801">
        <ele>125.19019283354</ele>
        <time>2021-05-02T07:50:17Z</time>
      </trkpt>
      <trkpt lat="46.39415" lon="0.298">
        <ele>125.16546848509</ele>
        <time>2021-05-02T07:50:19Z</time>
      </trkpt>
      <trkpt lat="46.39413" lon="0.29799">
        <ele>125.45029269718</ele>
        <time>2021-05-02T07:50:22Z</time>
      </trkpt>
      <trkpt lat="46.39411" lon="0.29797">
        <ele>125.2485039793</ele>
        <time>2021-05-02T07:50:24Z</time>
      </trkpt>
      <trkpt lat="46.3941" lon="0.29795">
        <ele>125.13386803865</ele>
        <time>2021-05-02T07:50:25Z</time>
      </trkpt>
      <trkpt lat="46.3941" lon="0.29791">
        <ele>125.50360351987</ele>
        <time>2021-05-02T07:50:27Z</time>
      </trkpt>
      <trkpt lat="46.3941" lon="0.29788">
        <ele>124.9590171054</ele>
        <time>2021-05-02T07:50:29Z</time>
      </trkpt>
      <trkpt lat="46.39411" lon="0.29785">
        <ele>125.19257593807</ele>
        <time>2021-05-02T07:50:31Z</time>
      </trkpt>
      <trkpt lat="46.39413" lon="0.29781">
        <ele>125.35106637143</ele>
        <time>2021-05-02T07:50:33Z</time>
      </trkpt>
      <trkpt lat="46.39415" lon="0.29778">
        <ele>125.06274893135</ele>
        <time>2021-05-02T07:50:35Z</time>
      </trkpt>
      <trkpt lat="46.39417" lon="0.29775">
        <ele>124.90298912767</ele>
        <time>2021-05-02T07:50:37Z</time>
      </trkpt>
      <trkpt lat="46.39418" lon="0.29774">
        <ele>125.24391242675</ele>
        <time>2021-05-02T07:50:39Z</time>
      </trkpt>
      <trkpt lat="46.3942" lon="0.29771">
        <ele>125.61724827904</ele>
        <time>2021-05-02T07:50:41Z</time>
      </trkpt>
      <trkpt lat="46.39422" lon="0.29769">
        <ele>125.08873578254</ele>
        <time>2021-05-02T07:50:43Z</time>
      </trkpt>
      <trkpt lat="46.39424" lon="0.29766">
        <ele>125.36105899233</ele>
        <time>2021-05-02T07:50:45Z</time>
      </trkpt>
      <trkpt lat="46.39426" lon="0.29763">
        <ele>125.155808134</ele>
        <time>2021-05-02T07:50:47Z</time>
      </trkpt>
      <trkpt lat="46.39428" lon="0.2976">
        <ele>125.45020060241</ele>
        <time>2021-05-02T07:50:49Z</time>
      </trkpt>
      <trkpt lat="46.39429" lon="0.29757">
        <ele>125.81936634891</ele>
        <time>2021-05-02T07:50:51Z</time>
      </trkpt>
      <trkpt lat="46.39431" lon="0.29754">
        <ele>125.85348142311</ele>
        <time>2021-05-02T07:50:53Z</time>
      </trkpt>
      <trkpt lat="46.39432" lon="0.29751">
        <ele>125.15065626707</ele>
        <time>2021-05-02T07:50:55Z</time>
      </trkpt>
      <trkpt lat="46.39434" lon="0.29748">
        <ele>125.2325353343</ele>
        <time>2021-05-02T07:50:57Z</time>
      </trkpt>
      <trkpt lat="46.39435" lon="0.29745">
        <ele>125.47101564147</ele>
        <time>2021-05-02T07:50:59Z</time>
      </trkpt>
      <trkpt lat="46.39437" lon="0.29742">
        <ele>125.63009234425</ele>
        <time>2021-05-02T07:51:01Z</time>
      </trkpt>
      <trkpt lat="46.39439" lon="0.29739">
        <ele>125.94175467454</ele>
        <time>2021-05-02T07:51:03Z</time>
      </trkpt>
      <trkpt lat="46.39441" lon="0.29736">
        <ele>125.71519097872</ele>
        <time>2021-05-02T07:51:05Z</time>
      </trkpt>
      <trkpt lat="46.39442" lon="0.29732">
        <ele>125.68268527929</ele>
        <time>2021-05-02T07:51:07Z</time>
      </trkpt>
      <trkpt lat="46.39443" lon="0.29728">
        <ele>126.05389790144</ele>
        <time>2021-05-02T07:51:09Z</time>
      </trkpt>
      <trkpt lat="46.39444" lon="0.29725">
        <ele>126.39901134744</ele>
        <time>2021-05-02T07:51:11Z</time>
      </trkpt>
      <trkpt lat="46.39446" lon="0.29722">
        <ele>126.49590061605</ele>
        <time>2021-05-02T07:51:13Z</time>
      </trkpt>
      <trkpt lat="46.39448" lon="0.29719">
        <ele>126.4075222332</ele>
        <time>2021-05-02T07:51:15Z</time>
      </trkpt>
      <trkpt lat="46.39449" lon="0.29716">
        <ele>125.94688492361</ele>
        <time>2021-05-02T07:51:17Z</time>
      </trkpt>
      <trkpt lat="46.3945" lon="0.29713">
        <ele>126.13143597357</ele>
        <time>2021-05-02T07:51:19Z</time>
      </trkpt>
      <trkpt lat="46.39452" lon="0.2971">
        <ele>126.03340339288</ele>
        <time>2021-05-02T07:51:21Z</time>
      </trkpt>
      <trkpt lat="46.39454" lon="0.29707">
        <ele>126.49526806176</ele>
        <time>2021-05-02T07:51:23Z</time>
      </trkpt>
      <trkpt lat="46.39455" lon="0.29703">
        <ele>126.53810157254</ele>
        <time>2021-05-02T07:51:25Z</time>
      </trkpt>
      <trkpt lat="46.39456" lon="0.297">
        <ele>126.60236263741</ele>
        <time>2021-05-02T07:51:27Z</time>
      </trkpt>
      <trkpt lat="46.39458" lon="0.29697">
        <ele>126.50680917595</ele>
        <time>2021-05-02T07:51:29Z</time>
      </trkpt>
      <trkpt lat="46.39459" lon="0.29694">
        <ele>127.57516847737</ele>
        <time>2021-05-02T07:51:31Z</time>
      </trkpt>
      <trkpt lat="46.3946" lon="0.29692">
        <ele>127.24944934342</ele>
        <time>2021-05-02T07:51:33Z</time>
      </trkpt>
      <trkpt lat="46.39462" lon="0.2969">
        <ele>126.95956815407</ele>
        <time>2021-05-02T07:51:35Z</time>
      </trkpt>
      <trkpt lat="46.39464" lon="0.29687">
        <ele>126.91942245327</ele>
        <time>2021-05-02T07:51:37Z</time>
      </trkpt>
      <trkpt lat="46.39464" lon="0.29683">
        <ele>126.79324208666</ele>
        <time>2021-05-02T07:51:40Z</time>
      </trkpt>
      <trkpt lat="46.39465" lon="0.29681">
        <ele>126.87215434108</ele>
        <time>2021-05-02T07:51:42Z</time>
      </trkpt>
      <trkpt lat="46.39467" lon="0.29677">
        <ele>126.85856530443</ele>
        <time>2021-05-02T07:51:44Z</time>
      </trkpt>
      <trkpt lat="46.39468" lon="0.29675">
        <ele>126.98347875755</ele>
        <time>2021-05-02T07:51:46Z</time>
      </trkpt>
      <trkpt lat="46.39469" lon="0.29672">
        <ele>126.82770892791</ele>
        <time>2021-05-02T07:51:48Z</time>
      </trkpt>
      <trkpt lat="46.3947" lon="0.29669">
        <ele>127.20293099433</ele>
        <time>2021-05-02T07:51:50Z</time>
      </trkpt>
      <trkpt lat="46.39472" lon="0.29664">
        <ele>127.72067939956</ele>
        <time>2021-05-02T07:51:52Z</time>
      </trkpt>
      <trkpt lat="46.39472" lon="0.29661">
        <ele>127.9236975871</ele>
        <time>2021-05-02T07:51:54Z</time>
      </trkpt>
      <trkpt lat="46.39473" lon="0.29656">
        <ele>127.88718160056</ele>
        <time>2021-05-02T07:51:56Z</time>
      </trkpt>
      <trkpt lat="46.39473" lon="0.29652">
        <ele>127.6439609332</ele>
        <time>2021-05-02T07:51:58Z</time>
      </trkpt>
      <trkpt lat="46.39474" lon="0.29647">
        <ele>127.66535572428</ele>
        <time>2021-05-02T07:52:00Z</time>
      </trkpt>
      <trkpt lat="46.39474" lon="0.29645">
        <ele>127.49721443746</ele>
        <time>2021-05-02T07:52:01Z</time>
      </trkpt>
      <trkpt lat="46.39474" lon="0.2964">
        <ele>127.46607539151</ele>
        <time>2021-05-02T07:52:03Z</time>
      </trkpt>
      <trkpt lat="46.39473" lon="0.29637">
        <ele>127.32662400045</ele>
        <time>2021-05-02T07:52:05Z</time>
      </trkpt>
      <trkpt lat="46.39473" lon="0.29633">
        <ele>126.94644195959</ele>
        <time>2021-05-02T07:52:07Z</time>
      </trkpt>
      <trkpt lat="46.39473" lon="0.2963">
        <ele>127.17180216219</ele>
        <time>2021-05-02T07:52:08Z</time>
      </trkpt>
      <trkpt lat="46.39472" lon="0.29626">
        <ele>127.36572372541</ele>
        <time>2021-05-02T07:52:10Z</time>
      </trkpt>
      <trkpt lat="46.3947" lon="0.29622">
        <ele>127.71644481085</ele>
        <time>2021-05-02T07:52:12Z</time>
      </trkpt>
      <trkpt lat="46.39469" lon="0.29619">
        <ele>127.21707070339</ele>
        <time>2021-05-02T07:52:14Z</time>
      </trkpt>
      <trkpt lat="46.39468" lon="0.29615">
        <ele>127.54200598039</ele>
        <time>2021-05-02T07:52:16Z</time>
      </trkpt>
      <trkpt lat="46.39467" lon="0.29612">
        <ele>127.47259669285</ele>
        <time>2021-05-02T07:52:17Z</time>
      </trkpt>
      <trkpt lat="46.39466" lon="0.2961">
        <ele>127.25981673412</ele>
        <time>2021-05-02T07:52:19Z</time>
      </trkpt>
      <trkpt lat="46.39464" lon="0.29606">
        <ele>127.08774087764</ele>
        <time>2021-05-02T07:52:21Z</time>
      </trkpt>
      <trkpt lat="46.39463" lon="0.29603">
        <ele>127.04887430463</ele>
        <time>2021-05-02T07:52:23Z</time>
      </trkpt>
      <trkpt lat="46.39461" lon="0.29601">
        <ele>127.11089669447</ele>
        <time>2021-05-02T07:52:24Z</time>
      </trkpt>
      <trkpt lat="46.3946" lon="0.29597">
        <ele>126.84712797776</ele>
        <time>2021-05-02T07:52:27Z</time>
      </trkpt>
      <trkpt lat="46.39458" lon="0.29594">
        <ele>126.93967784476</ele>
        <time>2021-05-02T07:52:29Z</time>
      </trkpt>
      <trkpt lat="46.39457" lon="0.29591">
        <ele>126.66818987019</ele>
        <time>2021-05-02T07:52:31Z</time>
      </trkpt>
      <trkpt lat="46.39455" lon="0.29588">
        <ele>126.68719268963</ele>
        <time>2021-05-02T07:52:33Z</time>
      </trkpt>
      <trkpt lat="46.39453" lon="0.29585">
        <ele>126.63080633897</ele>
        <time>2021-05-02T07:52:35Z</time>
      </trkpt>
      <trkpt lat="46.39451" lon="0.29581">
        <ele>126.70874577761</ele>
        <time>2021-05-02T07:52:37Z</time>
      </trkpt>
      <trkpt lat="46.3945" lon="0.29577">
        <ele>126.54553797096</ele>
        <time>2021-05-02T07:52:39Z</time>
      </trkpt>
      <trkpt lat="46.39448" lon="0.29575">
        <ele>126.51213895809</ele>
        <time>2021-05-02T07:52:41Z</time>
      </trkpt>
      <trkpt lat="46.39447" lon="0.29571">
        <ele>126.98381925747</ele>
        <time>2021-05-02T07:52:43Z</time>
      </trkpt>
      <trkpt lat="46.39445" lon="0.29569">
        <ele>126.6493480783</ele>
        <time>2021-05-02T07:52:45Z</time>
      </trkpt>
      <trkpt lat="46.39443" lon="0.29565">
        <ele>126.15244878922</ele>
        <time>2021-05-02T07:52:48Z</time>
      </trkpt>
      <trkpt lat="46.39441" lon="0.29562">
        <ele>125.90372418333</ele>
        <time>2021-05-02T07:52:50Z</time>
      </trkpt>
      <trkpt lat="46.39439" lon="0.29559">
        <ele>126.07309570815</ele>
        <time>2021-05-02T07:52:52Z</time>
      </trkpt>
      <trkpt lat="46.39438" lon="0.29555">
        <ele>125.93399547599</ele>
        <time>2021-05-02T07:52:54Z</time>
      </trkpt>
      <trkpt lat="46.39436" lon="0.29552">
        <ele>126.28523180261</ele>
        <time>2021-05-02T07:52:56Z</time>
      </trkpt>
      <trkpt lat="46.39434" lon="0.29549">
        <ele>126.04391539935</ele>
        <time>2021-05-02T07:52:58Z</time>
      </trkpt>
      <trkpt lat="46.39433" lon="0.29545">
        <ele>126.48893627152</ele>
        <time>2021-05-02T07:53:00Z</time>
      </trkpt>
      <trkpt lat="46.3943" lon="0.29542">
        <ele>126.3245713776</ele>
        <time>2021-05-02T07:53:02Z</time>
      </trkpt>
      <trkpt lat="46.39429" lon="0.29539">
        <ele>126.03393198829</ele>
        <time>2021-05-02T07:53:04Z</time>
      </trkpt>
      <trkpt lat="46.39427" lon="0.29535">
        <ele>125.89420475904</ele>
        <time>2021-05-02T07:53:06Z</time>
      </trkpt>
      <trkpt lat="46.39426" lon="0.29532">
        <ele>125.51353815198</ele>
        <time>2021-05-02T07:53:08Z</time>
      </trkpt>
      <trkpt lat="46.39425" lon="0.29529">
        <ele>125.62315312028</ele>
        <time>2021-05-02T07:53:10Z</time>
      </trkpt>
      <trkpt lat="46.39423" lon="0.29526">
        <ele>125.37039475888</ele>
        <time>2021-05-02T07:53:12Z</time>
      </trkpt>
      <trkpt lat="46.39421" lon="0.29523">
        <ele>125.58106369898</ele>
        <time>2021-05-02T07:53:14Z</time>
      </trkpt>
      <trkpt lat="46.3942" lon="0.2952">
        <ele>125.64389763307</ele>
        <time>2021-05-02T07:53:16Z</time>
      </trkpt>
      <trkpt lat="46.39419" lon="0.29516">
        <ele>125.55474633351</ele>
        <time>2021-05-02T07:53:18Z</time>
      </trkpt>
      <trkpt lat="46.39417" lon="0.29512">
        <ele>125.29448434617</ele>
        <time>2021-05-02T07:53:20Z</time>
      </trkpt>
      <trkpt lat="46.39416" lon="0.29509">
        <ele>125.74891596753</ele>
        <time>2021-05-02T07:53:22Z</time>
      </trkpt>
      <trkpt lat="46.39415" lon="0.29506">
        <ele>125.44551046472</ele>
        <time>2021-05-02T07:53:24Z</time>
      </trkpt>
      <trkpt lat="46.39413" lon="0.29501">
        <ele>126.00894368533</ele>
        <time>2021-05-02T07:53:26Z</time>
      </trkpt>
      <trkpt lat="46.39413" lon="0.29498">
        <ele>125.42183006089</ele>
        <time>2021-05-02T07:53:28Z</time>
      </trkpt>
      <trkpt lat="46.39412" lon="0.29495">
        <ele>124.7613170715</ele>
        <time>2021-05-02T07:53:30Z</time>
      </trkpt>
      <trkpt lat="46.39411" lon="0.29492">
        <ele>124.772171285</ele>
        <time>2021-05-02T07:53:32Z</time>
      </trkpt>
      <trkpt lat="46.3941" lon="0.29488">
        <ele>124.96913172491</ele>
        <time>2021-05-02T07:53:34Z</time>
      </trkpt>
      <trkpt lat="46.39408" lon="0.29484">
        <ele>124.82385837473</ele>
        <time>2021-05-02T07:53:36Z</time>
      </trkpt>
      <trkpt lat="46.39408" lon="0.2948">
        <ele>124.965077498</ele>
        <time>2021-05-02T07:53:38Z</time>
      </trkpt>
      <trkpt lat="46.39406" lon="0.29476">
        <ele>124.94254238158</ele>
        <time>2021-05-02T07:53:40Z</time>
      </trkpt>
      <trkpt lat="46.39405" lon="0.29473">
        <ele>125.03471646272</ele>
        <time>2021-05-02T07:53:42Z</time>
      </trkpt>
      <trkpt lat="46.39403" lon="0.29469">
        <ele>125.36032339372</ele>
        <time>2021-05-02T07:53:44Z</time>
      </trkpt>
      <trkpt lat="46.39402" lon="0.29465">
        <ele>125.17552987486</ele>
        <time>2021-05-02T07:53:46Z</time>
      </trkpt>
      <trkpt lat="46.39401" lon="0.29461">
        <ele>124.66261445358</ele>
        <time>2021-05-02T07:53:48Z</time>
      </trkpt>
      <trkpt lat="46.394" lon="0.29459">
        <ele>124.86800324451</ele>
        <time>2021-05-02T07:53:49Z</time>
      </trkpt>
      <trkpt lat="46.39399" lon="0.29455">
        <ele>124.84883497655</ele>
        <time>2021-05-02T07:53:51Z</time>
      </trkpt>
      <trkpt lat="46.39398" lon="0.29452">
        <ele>124.49113035761</ele>
        <time>2021-05-02T07:53:53Z</time>
      </trkpt>
      <trkpt lat="46.39397" lon="0.29449">
        <ele>124.34306028299</ele>
        <time>2021-05-02T07:53:55Z</time>
      </trkpt>
      <trkpt lat="46.39396" lon="0.29445">
        <ele>124.2255702531</ele>
        <time>2021-05-02T07:53:57Z</time>
      </trkpt>
      <trkpt lat="46.39395" lon="0.29442">
        <ele>124.08478953689</ele>
        <time>2021-05-02T07:53:59Z</time>
      </trkpt>
      <trkpt lat="46.39394" lon="0.29439">
        <ele>124.54987943731</ele>
        <time>2021-05-02T07:54:01Z</time>
      </trkpt>
      <trkpt lat="46.39392" lon="0.29436">
        <ele>124.31282751355</ele>
        <time>2021-05-02T07:54:03Z</time>
      </trkpt>
      <trkpt lat="46.39391" lon="0.29433">
        <ele>124.21129561402</ele>
        <time>2021-05-02T07:54:05Z</time>
      </trkpt>
      <trkpt lat="46.3939" lon="0.2943">
        <ele>124.26560554001</ele>
        <time>2021-05-02T07:54:07Z</time>
      </trkpt>
      <trkpt lat="46.39389" lon="0.29426">
        <ele>124.42271561082</ele>
        <time>2021-05-02T07:54:09Z</time>
      </trkpt>
      <trkpt lat="46.39388" lon="0.29422">
        <ele>124.35332840495</ele>
        <time>2021-05-02T07:54:11Z</time>
      </trkpt>
      <trkpt lat="46.39388" lon="0.29418">
        <ele>124.07150286809</ele>
        <time>2021-05-02T07:54:13Z</time>
      </trkpt>
      <trkpt lat="46.39387" lon="0.29415">
        <ele>124.57831800822</ele>
        <time>2021-05-02T07:54:15Z</time>
      </trkpt>
      <trkpt lat="46.39386" lon="0.2941">
        <ele>125.13501507882</ele>
        <time>2021-05-02T07:54:17Z</time>
      </trkpt>
      <trkpt lat="46.39386" lon="0.29407">
        <ele>124.29556981102</ele>
        <time>2021-05-02T07:54:19Z</time>
      </trkpt>
      <trkpt lat="46.39384" lon="0.29403">
        <ele>124.33096517064</ele>
        <time>2021-05-02T07:54:21Z</time>
      </trkpt>
      <trkpt lat="46.39381" lon="0.294">
        <ele>124.33719294146</ele>
        <time>2021-05-02T07:54:23Z</time>
      </trkpt>
      <trkpt lat="46.3938" lon="0.29397">
        <ele>124.33199354075</ele>
        <time>2021-05-02T07:54:25Z</time>
      </trkpt>
      <trkpt lat="46.39378" lon="0.29394">
        <ele>124.24614879675</ele>
        <time>2021-05-02T07:54:27Z</time>
      </trkpt>
      <trkpt lat="46.39376" lon="0.29391">
        <ele>124.24276486319</ele>
        <time>2021-05-02T07:54:29Z</time>
      </trkpt>
      <trkpt lat="46.39375" lon="0.29387">
        <ele>124.0093095284</ele>
        <time>2021-05-02T07:54:31Z</time>
      </trkpt>
      <trkpt lat="46.39373" lon="0.29384">
        <ele>124.2420874089</ele>
        <time>2021-05-02T07:54:33Z</time>
      </trkpt>
      <trkpt lat="46.39372" lon="0.2938">
        <ele>124.62780466676</ele>
        <time>2021-05-02T07:54:35Z</time>
      </trkpt>
      <trkpt lat="46.3937" lon="0.29377">
        <ele>124.2803845685</ele>
        <time>2021-05-02T07:54:37Z</time>
      </trkpt>
      <trkpt lat="46.39369" lon="0.29373">
        <ele>124.60122129694</ele>
        <time>2021-05-02T07:54:39Z</time>
      </trkpt>
      <trkpt lat="46.39368" lon="0.29369">
        <ele>124.49207503255</ele>
        <time>2021-05-02T07:54:41Z</time>
      </trkpt>
      <trkpt lat="46.39367" lon="0.29365">
        <ele>124.38218305632</ele>
        <time>2021-05-02T07:54:43Z</time>
      </trkpt>
      <trkpt lat="46.39366" lon="0.29361">
        <ele>124.66475564428</ele>
        <time>2021-05-02T07:54:45Z</time>
      </trkpt>
      <trkpt lat="46.39364" lon="0.29359">
        <ele>123.85882565193</ele>
        <time>2021-05-02T07:54:47Z</time>
      </trkpt>
      <trkpt lat="46.39363" lon="0.29355">
        <ele>124.34045896679</ele>
        <time>2021-05-02T07:54:49Z</time>
      </trkpt>
      <trkpt lat="46.39363" lon="0.29353">
        <ele>124.41218665149</ele>
        <time>2021-05-02T07:54:50Z</time>
      </trkpt>
      <trkpt lat="46.39361" lon="0.2935">
        <ele>124.6980598066</ele>
        <time>2021-05-02T07:54:52Z</time>
      </trkpt>
      <trkpt lat="46.3936" lon="0.29346">
        <ele>124.51480092853</ele>
        <time>2021-05-02T07:54:54Z</time>
      </trkpt>
      <trkpt lat="46.39359" lon="0.29343">
        <ele>124.53917255811</ele>
        <time>2021-05-02T07:54:56Z</time>
      </trkpt>
      <trkpt lat="46.39358" lon="0.2934">
        <ele>124.26669405494</ele>
        <time>2021-05-02T07:54:58Z</time>
      </trkpt>
      <trkpt lat="46.39357" lon="0.29338">
        <ele>124.52974501438</ele>
        <time>2021-05-02T07:54:59Z</time>
      </trkpt>
      <trkpt lat="46.39355" lon="0.29336">
        <ele>125.00168152433</ele>
        <time>2021-05-02T07:55:01Z</time>
      </trkpt>
      <trkpt lat="46.39355" lon="0.29333">
        <ele>124.969891808</ele>
        <time>2021-05-02T07:55:02Z</time>
      </trkpt>
      <trkpt lat="46.39354" lon="0.2933">
        <ele>124.6901465822</ele>
        <time>2021-05-02T07:55:04Z</time>
      </trkpt>
      <trkpt lat="46.39352" lon="0.29327">
        <ele>124.63235171698</ele>
        <time>2021-05-02T07:55:06Z</time>
      </trkpt>
      <trkpt lat="46.3935" lon="0.29324">
        <ele>125.08430555463</ele>
        <time>2021-05-02T07:55:08Z</time>
      </trkpt>
      <trkpt lat="46.39349" lon="0.29321">
        <ele>124.84208215959</ele>
        <time>2021-05-02T07:55:10Z</time>
      </trkpt>
      <trkpt lat="46.39348" lon="0.29319">
        <ele>124.53370076325</ele>
        <time>2021-05-02T07:55:11Z</time>
      </trkpt>
      <trkpt lat="46.39347" lon="0.29317">
        <ele>124.69225758221</ele>
        <time>2021-05-02T07:55:13Z</time>
      </trkpt>
      <trkpt lat="46.39345" lon="0.29314">
        <ele>124.03799039032</ele>
        <time>2021-05-02T07:55:15Z</time>
      </trkpt>
      <trkpt lat="46.39344" lon="0.2931">
        <ele>124.32484583929</ele>
        <time>2021-05-02T07:55:17Z</time>
      </trkpt>
      <trkpt lat="46.39342" lon="0.29306">
        <ele>124.75980688911</ele>
        <time>2021-05-02T07:55:19Z</time>
      </trkpt>
      <trkpt lat="46.39341" lon="0.29303">
        <ele>124.3987892326</ele>
        <time>2021-05-02T07:55:21Z</time>
      </trkpt>
      <trkpt lat="46.3934" lon="0.293">
        <ele>124.93361915182</ele>
        <time>2021-05-02T07:55:23Z</time>
      </trkpt>
      <trkpt lat="46.39338" lon="0.29295">
        <ele>124.78662983887</ele>
        <time>2021-05-02T07:55:25Z</time>
      </trkpt>
      <trkpt lat="46.39337" lon="0.29292">
        <ele>124.81859336141</ele>
        <time>2021-05-02T07:55:27Z</time>
      </trkpt>
      <trkpt lat="46.39337" lon="0.29287">
        <ele>125.16620474588</ele>
        <time>2021-05-02T07:55:29Z</time>
      </trkpt>
      <trkpt lat="46.39337" lon="0.29283">
        <ele>125.10188236274</ele>
        <time>2021-05-02T07:55:32Z</time>
      </trkpt>
      <trkpt lat="46.39336" lon="0.29281">
        <ele>125.50766938645</ele>
        <time>2021-05-02T07:55:33Z</time>
      </trkpt>
      <trkpt lat="46.39336" lon="0.29276">
        <ele>125.50521479174</ele>
        <time>2021-05-02T07:55:35Z</time>
      </trkpt>
      <trkpt lat="46.39337" lon="0.29273">
        <ele>125.40216353815</ele>
        <time>2021-05-02T07:55:37Z</time>
      </trkpt>
      <trkpt lat="46.39336" lon="0.29269">
        <ele>125.35318551492</ele>
        <time>2021-05-02T07:55:39Z</time>
      </trkpt>
      <trkpt lat="46.39337" lon="0.29266">
        <ele>124.98059010506</ele>
        <time>2021-05-02T07:55:41Z</time>
      </trkpt>
      <trkpt lat="46.39337" lon="0.29263">
        <ele>125.13810733519</ele>
        <time>2021-05-02T07:55:42Z</time>
      </trkpt>
      <trkpt lat="46.39337" lon="0.2926">
        <ele>125.22261097655</ele>
        <time>2021-05-02T07:55:44Z</time>
      </trkpt>
      <trkpt lat="46.39338" lon="0.29256">
        <ele>125.78351458441</ele>
        <time>2021-05-02T07:55:46Z</time>
      </trkpt>
      <trkpt lat="46.39339" lon="0.29253">
        <ele>125.35500913579</ele>
        <time>2021-05-02T07:55:48Z</time>
      </trkpt>
      <trkpt lat="46.39339" lon="0.29249">
        <ele>125.72730075754</ele>
        <time>2021-05-02T07:55:50Z</time>
      </trkpt>
      <trkpt lat="46.3934" lon="0.29247">
        <ele>125.79618393723</ele>
        <time>2021-05-02T07:55:51Z</time>
      </trkpt>
      <trkpt lat="46.39341" lon="0.29244">
        <ele>125.98857052159</ele>
        <time>2021-05-02T07:55:52Z</time>
      </trkpt>
      <trkpt lat="46.39342" lon="0.2924">
        <ele>126.39300090913</ele>
        <time>2021-05-02T07:55:55Z</time>
      </trkpt>
      <trkpt lat="46.39343" lon="0.29236">
        <ele>126.43216846976</ele>
        <time>2021-05-02T07:55:57Z</time>
      </trkpt>
      <trkpt lat="46.39343" lon="0.29233">
        <ele>126.30579368304</ele>
        <time>2021-05-02T07:55:59Z</time>
      </trkpt>
      <trkpt lat="46.39344" lon="0.29228">
        <ele>125.73864991125</ele>
        <time>2021-05-02T07:56:01Z</time>
      </trkpt>
      <trkpt lat="46.39345" lon="0.29225">
        <ele>125.81697394885</ele>
        <time>2021-05-02T07:56:03Z</time>
      </trkpt>
      <trkpt lat="46.39346" lon="0.29221">
        <ele>126.05674961954</ele>
        <time>2021-05-02T07:56:05Z</time>
      </trkpt>
      <trkpt lat="46.39347" lon="0.29218">
        <ele>125.81773054972</ele>
        <time>2021-05-02T07:56:07Z</time>
      </trkpt>
      <trkpt lat="46.39347" lon="0.29214">
        <ele>125.71722779516</ele>
        <time>2021-05-02T07:56:09Z</time>
      </trkpt>
      <trkpt lat="46.39348" lon="0.2921">
        <ele>126.46931357123</ele>
        <time>2021-05-02T07:56:11Z</time>
      </trkpt>
      <trkpt lat="46.39349" lon="0.29207">
        <ele>126.55636121985</ele>
        <time>2021-05-02T07:56:13Z</time>
      </trkpt>
      <trkpt lat="46.3935" lon="0.29203">
        <ele>126.85472291335</ele>
        <time>2021-05-02T07:56:15Z</time>
      </trkpt>
      <trkpt lat="46.39351" lon="0.292">
        <ele>126.73612943105</ele>
        <time>2021-05-02T07:56:17Z</time>
      </trkpt>
      <trkpt lat="46.39351" lon="0.29196">
        <ele>126.96904988587</ele>
        <time>2021-05-02T07:56:19Z</time>
      </trkpt>
      <trkpt lat="46.39351" lon="0.29193">
        <ele>126.86872697342</ele>
        <time>2021-05-02T07:56:21Z</time>
      </trkpt>
      <trkpt lat="46.39352" lon="0.29189">
        <ele>126.97338193189</ele>
        <time>2021-05-02T07:56:23Z</time>
      </trkpt>
      <trkpt lat="46.39353" lon="0.29185">
        <ele>127.3059633635</ele>
        <time>2021-05-02T07:56:25Z</time>
      </trkpt>
      <trkpt lat="46.39354" lon="0.29181">
        <ele>127.3823297536</ele>
        <time>2021-05-02T07:56:27Z</time>
      </trkpt>
      <trkpt lat="46.39354" lon="0.29178">
        <ele>127.73055164795</ele>
        <time>2021-05-02T07:56:29Z</time>
      </trkpt>
      <trkpt lat="46.39355" lon="0.29174">
        <ele>127.49588531349</ele>
        <time>2021-05-02T07:56:31Z</time>
      </trkpt>
      <trkpt lat="46.39356" lon="0.2917">
        <ele>127.59862980247</ele>
        <time>2021-05-02T07:56:33Z</time>
      </trkpt>
      <trkpt lat="46.39357" lon="0.29168">
        <ele>128.32867232151</ele>
        <time>2021-05-02T07:56:35Z</time>
      </trkpt>
      <trkpt lat="46.39359" lon="0.29163">
        <ele>127.38287376147</ele>
        <time>2021-05-02T07:56:37Z</time>
      </trkpt>
      <trkpt lat="46.39359" lon="0.2916">
        <ele>127.78898643516</ele>
        <time>2021-05-02T07:56:39Z</time>
      </trkpt>
      <trkpt lat="46.3936" lon="0.29156">
        <ele>127.34547441546</ele>
        <time>2021-05-02T07:56:41Z</time>
      </trkpt>
      <trkpt lat="46.39361" lon="0.29152">
        <ele>127.83607943263</ele>
        <time>2021-05-02T07:56:43Z</time>
      </trkpt>
      <trkpt lat="46.39361" lon="0.29149">
        <ele>127.8756962968</ele>
        <time>2021-05-02T07:56:45Z</time>
      </trkpt>
      <trkpt lat="46.39363" lon="0.29145">
        <ele>128.21857414581</ele>
        <time>2021-05-02T07:56:47Z</time>
      </trkpt>
      <trkpt lat="46.39364" lon="0.29142">
        <ele>128.34360399563</ele>
        <time>2021-05-02T07:56:49Z</time>
      </trkpt>
      <trkpt lat="46.39365" lon="0.29137">
        <ele>128.09772429243</ele>
        <time>2021-05-02T07:56:51Z</time>
      </trkpt>
      <trkpt lat="46.39366" lon="0.29134">
        <ele>128.73792353645</ele>
        <time>2021-05-02T07:56:53Z</time>
      </trkpt>
      <trkpt lat="46.39368" lon="0.2913">
        <ele>128.51339282095</ele>
        <time>2021-05-02T07:56:55Z</time>
      </trkpt>
      <trkpt lat="46.39369" lon="0.29127">
        <ele>128.73480033036</ele>
        <time>2021-05-02T07:56:57Z</time>
      </trkpt>
      <trkpt lat="46.3937" lon="0.29123">
        <ele>128.50331730861</ele>
        <time>2021-05-02T07:56:59Z</time>
      </trkpt>
      <trkpt lat="46.39371" lon="0.29119">
        <ele>128.77504975442</ele>
        <time>2021-05-02T07:57:01Z</time>
      </trkpt>
      <trkpt lat="46.39372" lon="0.29117">
        <ele>128.95599124767</ele>
        <time>2021-05-02T07:57:02Z</time>
      </trkpt>
      <trkpt lat="46.39373" lon="0.29113">
        <ele>128.79193477239</ele>
        <time>2021-05-02T07:57:05Z</time>
      </trkpt>
      <trkpt lat="46.39374" lon="0.29109">
        <ele>129.13379279058</ele>
        <time>2021-05-02T07:57:07Z</time>
      </trkpt>
      <trkpt lat="46.39376" lon="0.29106">
        <ele>129.40989978705</ele>
        <time>2021-05-02T07:57:09Z</time>
      </trkpt>
      <trkpt lat="46.39377" lon="0.29102">
        <ele>129.24301907606</ele>
        <time>2021-05-02T07:57:11Z</time>
      </trkpt>
      <trkpt lat="46.39378" lon="0.29099">
        <ele>129.55641305074</ele>
        <time>2021-05-02T07:57:13Z</time>
      </trkpt>
      <trkpt lat="46.3938" lon="0.29096">
        <ele>128.96041214652</ele>
        <time>2021-05-02T07:57:15Z</time>
      </trkpt>
      <trkpt lat="46.39382" lon="0.29092">
        <ele>129.00243067555</ele>
        <time>2021-05-02T07:57:17Z</time>
      </trkpt>
      <trkpt lat="46.39383" lon="0.2909">
        <ele>129.19631319214</ele>
        <time>2021-05-02T07:57:19Z</time>
      </trkpt>
      <trkpt lat="46.39384" lon="0.29087">
        <ele>129.58505280036</ele>
        <time>2021-05-02T07:57:21Z</time>
      </trkpt>
      <trkpt lat="46.39386" lon="0.29084">
        <ele>129.52225352637</ele>
        <time>2021-05-02T07:57:23Z</time>
      </trkpt>
      <trkpt lat="46.39387" lon="0.29082">
        <ele>129.50635068584</ele>
        <time>2021-05-02T07:57:24Z</time>
      </trkpt>
      <trkpt lat="46.39387" lon="0.29079">
        <ele>129.77015297115</ele>
        <time>2021-05-02T07:57:26Z</time>
      </trkpt>
      <trkpt lat="46.39389" lon="0.29076">
        <ele>129.69279626571</ele>
        <time>2021-05-02T07:57:28Z</time>
      </trkpt>
      <trkpt lat="46.39391" lon="0.29072">
        <ele>129.67667005956</ele>
        <time>2021-05-02T07:57:30Z</time>
      </trkpt>
      <trkpt lat="46.39392" lon="0.29069">
        <ele>129.55080926698</ele>
        <time>2021-05-02T07:57:32Z</time>
      </trkpt>
      <trkpt lat="46.39394" lon="0.29066">
        <ele>129.82353681698</ele>
        <time>2021-05-02T07:57:34Z</time>
      </trkpt>
      <trkpt lat="46.39395" lon="0.29063">
        <ele>129.4169027973</ele>
        <time>2021-05-02T07:57:36Z</time>
      </trkpt>
      <trkpt lat="46.39397" lon="0.29059">
        <ele>129.68563684914</ele>
        <time>2021-05-02T07:57:38Z</time>
      </trkpt>
      <trkpt lat="46.39398" lon="0.29057">
        <ele>129.78538792022</ele>
        <time>2021-05-02T07:57:40Z</time>
      </trkpt>
      <trkpt lat="46.39399" lon="0.29053">
        <ele>129.76146641653</ele>
        <time>2021-05-02T07:57:42Z</time>
      </trkpt>
      <trkpt lat="46.39401" lon="0.2905">
        <ele>130.32021822315</ele>
        <time>2021-05-02T07:57:44Z</time>
      </trkpt>
      <trkpt lat="46.39402" lon="0.29047">
        <ele>130.32017530035</ele>
        <time>2021-05-02T07:57:46Z</time>
      </trkpt>
      <trkpt lat="46.39404" lon="0.29044">
        <ele>130.3540795194</ele>
        <time>2021-05-02T07:57:48Z</time>
      </trkpt>
      <trkpt lat="46.39405" lon="0.2904">
        <ele>130.5230213888</ele>
        <time>2021-05-02T07:57:50Z</time>
      </trkpt>
      <trkpt lat="46.39407" lon="0.29037">
        <ele>130.23404093832</ele>
        <time>2021-05-02T07:57:52Z</time>
      </trkpt>
      <trkpt lat="46.39407" lon="0.29034">
        <ele>130.84622385819</ele>
        <time>2021-05-02T07:57:53Z</time>
      </trkpt>
      <trkpt lat="46.39409" lon="0.29031">
        <ele>130.8815637622</ele>
        <time>2021-05-02T07:57:56Z</time>
      </trkpt>
      <trkpt lat="46.39411" lon="0.29027">
        <ele>130.91057675239</ele>
        <time>2021-05-02T07:57:58Z</time>
      </trkpt>
      <trkpt lat="46.39412" lon="0.29024">
        <ele>131.1165237017</ele>
        <time>2021-05-02T07:58:01Z</time>
      </trkpt>
      <trkpt lat="46.39413" lon="0.29021">
        <ele>131.68232342973</ele>
        <time>2021-05-02T07:58:03Z</time>
      </trkpt>
      <trkpt lat="46.39414" lon="0.29017">
        <ele>131.0504032094</ele>
        <time>2021-05-02T07:58:05Z</time>
      </trkpt>
      <trkpt lat="46.39416" lon="0.29014">
        <ele>131.53028953541</ele>
        <time>2021-05-02T07:58:07Z</time>
      </trkpt>
      <trkpt lat="46.39417" lon="0.2901">
        <ele>131.67683866806</ele>
        <time>2021-05-02T07:58:09Z</time>
      </trkpt>
      <trkpt lat="46.39418" lon="0.29007">
        <ele>131.3989886865</ele>
        <time>2021-05-02T07:58:11Z</time>
      </trkpt>
      <trkpt lat="46.3942" lon="0.29004">
        <ele>132.32568455394</ele>
        <time>2021-05-02T07:58:13Z</time>
      </trkpt>
      <trkpt lat="46.39421" lon="0.29">
        <ele>131.45321238227</ele>
        <time>2021-05-02T07:58:15Z</time>
      </trkpt>
      <trkpt lat="46.39423" lon="0.28998">
        <ele>131.57448151987</ele>
        <time>2021-05-02T07:58:17Z</time>
      </trkpt>
      <trkpt lat="46.39424" lon="0.28995">
        <ele>131.72374035977</ele>
        <time>2021-05-02T07:58:19Z</time>
      </trkpt>
      <trkpt lat="46.39425" lon="0.28991">
        <ele>131.89543762803</ele>
        <time>2021-05-02T07:58:21Z</time>
      </trkpt>
      <trkpt lat="46.39426" lon="0.28988">
        <ele>131.9134329278</ele>
        <time>2021-05-02T07:58:23Z</time>
      </trkpt>
      <trkpt lat="46.39428" lon="0.28985">
        <ele>132.37365322281</ele>
        <time>2021-05-02T07:58:25Z</time>
      </trkpt>
      <trkpt lat="46.3943" lon="0.28982">
        <ele>132.35283654649</ele>
        <time>2021-05-02T07:58:27Z</time>
      </trkpt>
      <trkpt lat="46.3943" lon="0.28979">
        <ele>131.66094503552</ele>
        <time>2021-05-02T07:58:29Z</time>
      </trkpt>
      <trkpt lat="46.39432" lon="0.28976">
        <ele>132.38502325118</ele>
        <time>2021-05-02T07:58:31Z</time>
      </trkpt>
      <trkpt lat="46.39434" lon="0.28973">
        <ele>132.28915448673</ele>
        <time>2021-05-02T07:58:33Z</time>
      </trkpt>
      <trkpt lat="46.39435" lon="0.28969">
        <ele>132.23528120294</ele>
        <time>2021-05-02T07:58:35Z</time>
      </trkpt>
      <trkpt lat="46.39437" lon="0.28966">
        <ele>132.70333711524</ele>
        <time>2021-05-02T07:58:37Z</time>
      </trkpt>
      <trkpt lat="46.39438" lon="0.28963">
        <ele>133.08942678384</ele>
        <time>2021-05-02T07:58:39Z</time>
      </trkpt>
      <trkpt lat="46.39439" lon="0.2896">
        <ele>132.59296467993</ele>
        <time>2021-05-02T07:58:41Z</time>
      </trkpt>
      <trkpt lat="46.3944" lon="0.28958">
        <ele>132.21473137569</ele>
        <time>2021-05-02T07:58:43Z</time>
      </trkpt>
      <trkpt lat="46.39441" lon="0.28955">
        <ele>132.49385070615</ele>
        <time>2021-05-02T07:58:45Z</time>
      </trkpt>
      <trkpt lat="46.39443" lon="0.28952">
        <ele>133.01964107435</ele>
        <time>2021-05-02T07:58:47Z</time>
      </trkpt>
      <trkpt lat="46.39444" lon="0.28949">
        <ele>133.24015705194</ele>
        <time>2021-05-02T07:58:49Z</time>
      </trkpt>
      <trkpt lat="46.39446" lon="0.28946">
        <ele>133.33075367846</ele>
        <time>2021-05-02T07:58:51Z</time>
      </trkpt>
      <trkpt lat="46.39447" lon="0.28943">
        <ele>133.01753338706</ele>
        <time>2021-05-02T07:58:53Z</time>
      </trkpt>
      <trkpt lat="46.39448" lon="0.28941">
        <ele>132.65414676629</ele>
        <time>2021-05-02T07:58:55Z</time>
      </trkpt>
      <trkpt lat="46.39449" lon="0.28938">
        <ele>133.39271345921</ele>
        <time>2021-05-02T07:58:56Z</time>
      </trkpt>
      <trkpt lat="46.39451" lon="0.28936">
        <ele>133.26527495682</ele>
        <time>2021-05-02T07:58:58Z</time>
      </trkpt>
      <trkpt lat="46.39452" lon="0.28934">
        <ele>133.30856570322</ele>
        <time>2021-05-02T07:59:00Z</time>
      </trkpt>
      <trkpt lat="46.39453" lon="0.28932">
        <ele>133.35683681536</ele>
        <time>2021-05-02T07:59:01Z</time>
      </trkpt>
      <trkpt lat="46.39455" lon="0.28929">
        <ele>133.42704612575</ele>
        <time>2021-05-02T07:59:03Z</time>
      </trkpt>
      <trkpt lat="46.39456" lon="0.28926">
        <ele>133.53505181335</ele>
        <time>2021-05-02T07:59:05Z</time>
      </trkpt>
      <trkpt lat="46.39457" lon="0.28923">
        <ele>133.06129965093</ele>
        <time>2021-05-02T07:59:07Z</time>
      </trkpt>
      <trkpt lat="46.39459" lon="0.2892">
        <ele>133.09213800821</ele>
        <time>2021-05-02T07:59:09Z</time>
      </trkpt>
      <trkpt lat="46.39462" lon="0.28917">
        <ele>133.45762885548</ele>
        <time>2021-05-02T07:59:11Z</time>
      </trkpt>
      <trkpt lat="46.39463" lon="0.28915">
        <ele>133.20559462812</ele>
        <time>2021-05-02T07:59:13Z</time>
      </trkpt>
      <trkpt lat="46.39465" lon="0.28911">
        <ele>133.76568678394</ele>
        <time>2021-05-02T07:59:15Z</time>
      </trkpt>
      <trkpt lat="46.39466" lon="0.28908">
        <ele>133.31776494905</ele>
        <time>2021-05-02T07:59:17Z</time>
      </trkpt>
      <trkpt lat="46.39468" lon="0.28905">
        <ele>133.55250127986</ele>
        <time>2021-05-02T07:59:19Z</time>
      </trkpt>
      <trkpt lat="46.39471" lon="0.28902">
        <ele>134.08779182751</ele>
        <time>2021-05-02T07:59:21Z</time>
      </trkpt>
      <trkpt lat="46.39472" lon="0.289">
        <ele>133.5684774695</ele>
        <time>2021-05-02T07:59:23Z</time>
      </trkpt>
      <trkpt lat="46.39475" lon="0.28897">
        <ele>134.52064565383</ele>
        <time>2021-05-02T07:59:25Z</time>
      </trkpt>
      <trkpt lat="46.39476" lon="0.28895">
        <ele>133.85626395233</ele>
        <time>2021-05-02T07:59:27Z</time>
      </trkpt>
      <trkpt lat="46.39478" lon="0.28892">
        <ele>134.27921891306</ele>
        <time>2021-05-02T07:59:29Z</time>
      </trkpt>
      <trkpt lat="46.3948" lon="0.28888">
        <ele>134.66103355028</ele>
        <time>2021-05-02T07:59:31Z</time>
      </trkpt>
      <trkpt lat="46.39481" lon="0.28885">
        <ele>134.57470673416</ele>
        <time>2021-05-02T07:59:33Z</time>
      </trkpt>
      <trkpt lat="46.39483" lon="0.28882">
        <ele>134.65772697423</ele>
        <time>2021-05-02T07:59:35Z</time>
      </trkpt>
      <trkpt lat="46.39485" lon="0.28879">
        <ele>134.30493734311</ele>
        <time>2021-05-02T07:59:37Z</time>
      </trkpt>
      <trkpt lat="46.39486" lon="0.28876">
        <ele>134.32370887138</ele>
        <time>2021-05-02T07:59:39Z</time>
      </trkpt>
      <trkpt lat="46.39488" lon="0.28873">
        <ele>134.35274624079</ele>
        <time>2021-05-02T07:59:41Z</time>
      </trkpt>
      <trkpt lat="46.3949" lon="0.2887">
        <ele>134.4087296566</ele>
        <time>2021-05-02T07:59:43Z</time>
      </trkpt>
      <trkpt lat="46.39492" lon="0.28866">
        <ele>134.46993798483</ele>
        <time>2021-05-02T07:59:45Z</time>
      </trkpt>
      <trkpt lat="46.39493" lon="0.28863">
        <ele>134.17242430802</ele>
        <time>2021-05-02T07:59:48Z</time>
      </trkpt>
      <trkpt lat="46.39494" lon="0.28861">
        <ele>134.64978899527</ele>
        <time>2021-05-02T07:59:50Z</time>
      </trkpt>
      <trkpt lat="46.39495" lon="0.28858">
        <ele>134.64216573723</ele>
        <time>2021-05-02T07:59:52Z</time>
      </trkpt>
      <trkpt lat="46.39497" lon="0.28855">
        <ele>134.6601444399</ele>
        <time>2021-05-02T07:59:53Z</time>
      </trkpt>
      <trkpt lat="46.39498" lon="0.28851">
        <ele>134.12816778757</ele>
        <time>2021-05-02T07:59:56Z</time>
      </trkpt>
      <trkpt lat="46.395" lon="0.28847">
        <ele>134.83223770559</ele>
        <time>2021-05-02T07:59:58Z</time>
      </trkpt>
      <trkpt lat="46.39501" lon="0.28845">
        <ele>134.83614211716</ele>
        <time>2021-05-02T08:00:00Z</time>
      </trkpt>
      <trkpt lat="46.39503" lon="0.28842">
        <ele>135.04998113122</ele>
        <time>2021-05-02T08:00:02Z</time>
      </trkpt>
      <trkpt lat="46.39504" lon="0.28837">
        <ele>134.94277967606</ele>
        <time>2021-05-02T08:00:05Z</time>
      </trkpt>
      <trkpt lat="46.39506" lon="0.28834">
        <ele>134.83888702001</ele>
        <time>2021-05-02T08:00:07Z</time>
      </trkpt>
      <trkpt lat="46.39508" lon="0.28833">
        <ele>134.75955530908</ele>
        <time>2021-05-02T08:00:09Z</time>
      </trkpt>
      <trkpt lat="46.39508" lon="0.2883">
        <ele>134.83813941106</ele>
        <time>2021-05-02T08:00:10Z</time>
      </trkpt>
      <trkpt lat="46.3951" lon="0.28827">
        <ele>134.82259846106</ele>
        <time>2021-05-02T08:00:12Z</time>
      </trkpt>
      <trkpt lat="46.39512" lon="0.28825">
        <ele>135.0465510739</ele>
        <time>2021-05-02T08:00:14Z</time>
      </trkpt>
      <trkpt lat="46.39514" lon="0.28822">
        <ele>134.84345044754</ele>
        <time>2021-05-02T08:00:16Z</time>
      </trkpt>
      <trkpt lat="46.39515" lon="0.28819">
        <ele>134.90455825347</ele>
        <time>2021-05-02T08:00:18Z</time>
      </trkpt>
      <trkpt lat="46.39517" lon="0.28817">
        <ele>134.98624528851</ele>
        <time>2021-05-02T08:00:20Z</time>
      </trkpt>
      <trkpt lat="46.39519" lon="0.28815">
        <ele>134.99223724101</ele>
        <time>2021-05-02T08:00:21Z</time>
      </trkpt>
      <trkpt lat="46.39521" lon="0.28813">
        <ele>135.163332575</ele>
        <time>2021-05-02T08:00:23Z</time>
      </trkpt>
      <trkpt lat="46.39523" lon="0.2881">
        <ele>134.78211289831</ele>
        <time>2021-05-02T08:00:25Z</time>
      </trkpt>
      <trkpt lat="46.39526" lon="0.28807">
        <ele>135.01719656214</ele>
        <time>2021-05-02T08:00:27Z</time>
      </trkpt>
      <trkpt lat="46.39528" lon="0.28805">
        <ele>134.9832282858</ele>
        <time>2021-05-02T08:00:30Z</time>
      </trkpt>
      <trkpt lat="46.3953" lon="0.28802">
        <ele>135.13911148347</ele>
        <time>2021-05-02T08:00:32Z</time>
      </trkpt>
      <trkpt lat="46.39533" lon="0.28799">
        <ele>135.09200800769</ele>
        <time>2021-05-02T08:00:34Z</time>
      </trkpt>
      <trkpt lat="46.39535" lon="0.28796">
        <ele>135.39834139682</ele>
        <time>2021-05-02T08:00:36Z</time>
      </trkpt>
      <trkpt lat="46.39537" lon="0.28793">
        <ele>134.65489168838</ele>
        <time>2021-05-02T08:00:38Z</time>
      </trkpt>
      <trkpt lat="46.39539" lon="0.2879">
        <ele>134.40528079867</ele>
        <time>2021-05-02T08:00:40Z</time>
      </trkpt>
      <trkpt lat="46.3954" lon="0.28788">
        <ele>134.20574737061</ele>
        <time>2021-05-02T08:00:42Z</time>
      </trkpt>
      <trkpt lat="46.39543" lon="0.28785">
        <ele>134.52353860904</ele>
        <time>2021-05-02T08:00:44Z</time>
      </trkpt>
      <trkpt lat="46.39544" lon="0.28782">
        <ele>134.57461910509</ele>
        <time>2021-05-02T08:00:46Z</time>
      </trkpt>
      <trkpt lat="46.39546" lon="0.2878">
        <ele>134.23262794781</ele>
        <time>2021-05-02T08:00:48Z</time>
      </trkpt>
      <trkpt lat="46.39548" lon="0.28778">
        <ele>134.3630580781</ele>
        <time>2021-05-02T08:00:50Z</time>
      </trkpt>
      <trkpt lat="46.3955" lon="0.28776">
        <ele>134.44770201854</ele>
        <time>2021-05-02T08:00:52Z</time>
      </trkpt>
      <trkpt lat="46.39552" lon="0.28773">
        <ele>134.28819299676</ele>
        <time>2021-05-02T08:00:54Z</time>
      </trkpt>
      <trkpt lat="46.39554" lon="0.28771">
        <ele>134.29737875797</ele>
        <time>2021-05-02T08:00:56Z</time>
      </trkpt>
      <trkpt lat="46.39555" lon="0.28769">
        <ele>134.15741468593</ele>
        <time>2021-05-02T08:00:58Z</time>
      </trkpt>
      <trkpt lat="46.39557" lon="0.28767">
        <ele>134.31745436601</ele>
        <time>2021-05-02T08:00:59Z</time>
      </trkpt>
      <trkpt lat="46.39559" lon="0.28764">
        <ele>134.06012267619</ele>
        <time>2021-05-02T08:01:01Z</time>
      </trkpt>
      <trkpt lat="46.39562" lon="0.28763">
        <ele>134.38848285098</ele>
        <time>2021-05-02T08:01:03Z</time>
      </trkpt>
      <trkpt lat="46.39564" lon="0.28761">
        <ele>134.24321729876</ele>
        <time>2021-05-02T08:01:05Z</time>
      </trkpt>
      <trkpt lat="46.39566" lon="0.28759">
        <ele>134.91797995847</ele>
        <time>2021-05-02T08:01:07Z</time>
      </trkpt>
      <trkpt lat="46.39568" lon="0.28756">
        <ele>134.17615275364</ele>
        <time>2021-05-02T08:01:09Z</time>
      </trkpt>
      <trkpt lat="46.3957" lon="0.28753">
        <ele>134.0127128223</ele>
        <time>2021-05-02T08:01:12Z</time>
      </trkpt>
      <trkpt lat="46.39572" lon="0.28751">
        <ele>134.26641929615</ele>
        <time>2021-05-02T08:01:14Z</time>
      </trkpt>
      <trkpt lat="46.39573" lon="0.2875">
        <ele>134.03579955176</ele>
        <time>2021-05-02T08:01:16Z</time>
      </trkpt>
      <trkpt lat="46.39575" lon="0.28748">
        <ele>134.51647786424</ele>
        <time>2021-05-02T08:01:19Z</time>
      </trkpt>
      <trkpt lat="46.39576" lon="0.28745">
        <ele>134.40344080795</ele>
        <time>2021-05-02T08:01:23Z</time>
      </trkpt>
      <trkpt lat="46.39577" lon="0.28743">
        <ele>134.4767413931</ele>
        <time>2021-05-02T08:01:31Z</time>
      </trkpt>
      <trkpt lat="46.39578" lon="0.2874">
        <ele>134.41221182235</ele>
        <time>2021-05-02T08:01:37Z</time>
      </trkpt>
      <trkpt lat="46.39579" lon="0.28738">
        <ele>134.35028758273</ele>
        <time>2021-05-02T08:02:03Z</time>
      </trkpt>
      <trkpt lat="46.39577" lon="0.28737">
        <ele>134.60258824378</ele>
        <time>2021-05-02T08:02:05Z</time>
      </trkpt>
      <trkpt lat="46.39575" lon="0.28738">
        <ele>134.71423658542</ele>
        <time>2021-05-02T08:02:08Z</time>
      </trkpt>
      <trkpt lat="46.39575" lon="0.28741">
        <ele>134.55113884434</ele>
        <time>2021-05-02T08:02:12Z</time>
      </trkpt>
      <trkpt lat="46.39575" lon="0.28743">
        <ele>134.57680984121</ele>
        <time>2021-05-02T08:02:58Z</time>
      </trkpt>
      <trkpt lat="46.39573" lon="0.28745">
        <ele>134.61173162237</ele>
        <time>2021-05-02T08:03:08Z</time>
      </trkpt>
      <trkpt lat="46.39575" lon="0.28744">
        <ele>134.4392975755</ele>
        <time>2021-05-02T08:03:14Z</time>
      </trkpt>
      <trkpt lat="46.39575" lon="0.28741">
        <ele>134.57046672329</ele>
        <time>2021-05-02T08:03:34Z</time>
      </trkpt>
      <trkpt lat="46.39577" lon="0.28742">
        <ele>134.74559363071</ele>
        <time>2021-05-02T08:03:57Z</time>
      </trkpt>
      <trkpt lat="46.39576" lon="0.28739">
        <ele>134.91159942374</ele>
        <time>2021-05-02T08:04:12Z</time>
      </trkpt>
      <trkpt lat="46.39575" lon="0.28741">
        <ele>134.64791161474</ele>
        <time>2021-05-02T08:04:27Z</time>
      </trkpt>
      <trkpt lat="46.39573" lon="0.28742">
        <ele>134.75134128798</ele>
        <time>2021-05-02T08:04:45Z</time>
      </trkpt>
      <trkpt lat="46.39574" lon="0.28739">
        <ele>134.78845891636</ele>
        <time>2021-05-02T08:05:34Z</time>
      </trkpt>
      <trkpt lat="46.39574" lon="0.28742">
        <ele>134.22110212501</ele>
        <time>2021-05-02T08:06:02Z</time>
      </trkpt>
      <trkpt lat="46.39576" lon="0.28742">
        <ele>134.58448921517</ele>
        <time>2021-05-02T08:06:21Z</time>
      </trkpt>
      <trkpt lat="46.39575" lon="0.28739">
        <ele>134.46090844739</ele>
        <time>2021-05-02T08:07:26Z</time>
      </trkpt>
      <trkpt lat="46.39574" lon="0.28742">
        <ele>134.60820878763</ele>
        <time>2021-05-02T08:07:57Z</time>
      </trkpt>
      <trkpt lat="46.39574" lon="0.28745">
        <ele>134.61893682927</ele>
        <time>2021-05-02T08:08:06Z</time>
      </trkpt>
      <trkpt lat="46.39573" lon="0.28747">
        <ele>134.91689666547</ele>
        <time>2021-05-02T08:08:20Z</time>
      </trkpt>
      <trkpt lat="46.39573" lon="0.28749">
        <ele>134.70454931725</ele>
        <time>2021-05-02T08:08:35Z</time>
      </trkpt>
      <trkpt lat="46.39573" lon="0.28747">
        <ele>134.3297469141</ele>
        <time>2021-05-02T08:08:46Z</time>
      </trkpt>
      <trkpt lat="46.39575" lon="0.28745">
        <ele>133.89457800332</ele>
        <time>2021-05-02T08:08:59Z</time>
      </trkpt>
      <trkpt lat="46.39576" lon="0.28742">
        <ele>134.63633248396</ele>
        <time>2021-05-02T08:09:06Z</time>
      </trkpt>
      <trkpt lat="46.39578" lon="0.28742">
        <ele>135.12245264649</ele>
        <time>2021-05-02T08:09:19Z</time>
      </trkpt>
      <trkpt lat="46.39576" lon="0.28741">
        <ele>134.29960906133</ele>
        <time>2021-05-02T08:09:44Z</time>
      </trkpt>
      <trkpt lat="46.39575" lon="0.28744">
        <ele>134.41568867117</ele>
        <time>2021-05-02T08:09:59Z</time>
      </trkpt>
      <trkpt lat="46.39574" lon="0.28745">
        <ele>134.39717797562</ele>
        <time>2021-05-02T08:10:14Z</time>
      </trkpt>
      <trkpt lat="46.39575" lon="0.28743">
        <ele>133.93758272287</ele>
        <time>2021-05-02T08:11:23Z</time>
      </trkpt>
      <trkpt lat="46.39573" lon="0.28745">
        <ele>134.95833691768</ele>
        <time>2021-05-02T08:11:45Z</time>
      </trkpt>
      <trkpt lat="46.39575" lon="0.28746">
        <ele>134.64423504286</ele>
        <time>2021-05-02T08:12:02Z</time>
      </trkpt>
      <trkpt lat="46.39573" lon="0.28743">
        <ele>134.13435769081</ele>
        <time>2021-05-02T08:13:01Z</time>
      </trkpt>
      <trkpt lat="46.39575" lon="0.28744">
        <ele>134.46158601437</ele>
        <time>2021-05-02T08:13:11Z</time>
      </trkpt>
      <trkpt lat="46.39576" lon="0.28746">
        <ele>134.42421607021</ele>
        <time>2021-05-02T08:14:09Z</time>
      </trkpt>
      <trkpt lat="46.39575" lon="0.28748">
        <ele>135.01752742566</ele>
        <time>2021-05-02T08:15:21Z</time>
      </trkpt>
      <trkpt lat="46.39573" lon="0.28748">
        <ele>134.28166286461</ele>
        <time>2021-05-02T08:15:41Z</time>
      </trkpt>
      <trkpt lat="46.39575" lon="0.28748">
        <ele>134.19034576695</ele>
        <time>2021-05-02T08:15:54Z</time>
      </trkpt>
      <trkpt lat="46.39574" lon="0.2875">
        <ele>134.75385667477</ele>
        <time>2021-05-02T08:17:03Z</time>
      </trkpt>
      <trkpt lat="46.39573" lon="0.28748">
        <ele>134.88108735997</ele>
        <time>2021-05-02T08:17:20Z</time>
      </trkpt>
      <trkpt lat="46.39575" lon="0.28748">
        <ele>134.24898783118</ele>
        <time>2021-05-02T08:18:03Z</time>
      </trkpt>
      <trkpt lat="46.39577" lon="0.28749">
        <ele>134.4151706975</ele>
        <time>2021-05-02T08:18:36Z</time>
      </trkpt>
      <trkpt lat="46.39577" lon="0.28746">
        <ele>134.57186378539</ele>
        <time>2021-05-02T08:18:41Z</time>
      </trkpt>
      <trkpt lat="46.39577" lon="0.28744">
        <ele>134.40469508898</ele>
        <time>2021-05-02T08:18:57Z</time>
      </trkpt>
      <trkpt lat="46.39578" lon="0.28741">
        <ele>134.40436695889</ele>
        <time>2021-05-02T08:19:00Z</time>
      </trkpt>
      <trkpt lat="46.3958" lon="0.2874">
        <ele>134.18830821011</ele>
        <time>2021-05-02T08:19:03Z</time>
      </trkpt>
      <trkpt lat="46.39581" lon="0.28738">
        <ele>134.30374378338</ele>
        <time>2021-05-02T08:19:05Z</time>
      </trkpt>
      <trkpt lat="46.39584" lon="0.28737">
        <ele>134.3351477487</ele>
        <time>2021-05-02T08:19:09Z</time>
      </trkpt>
      <trkpt lat="46.39587" lon="0.28736">
        <ele>134.44074260257</ele>
        <time>2021-05-02T08:19:11Z</time>
      </trkpt>
      <trkpt lat="46.39588" lon="0.28734">
        <ele>134.18903484195</ele>
        <time>2021-05-02T08:19:14Z</time>
      </trkpt>
      <trkpt lat="46.3959" lon="0.28732">
        <ele>134.33611604013</ele>
        <time>2021-05-02T08:19:16Z</time>
      </trkpt>
      <trkpt lat="46.39592" lon="0.28731">
        <ele>134.45680175163</ele>
        <time>2021-05-02T08:19:20Z</time>
      </trkpt>
      <trkpt lat="46.39594" lon="0.2873">
        <ele>134.59221430495</ele>
        <time>2021-05-02T08:19:25Z</time>
      </trkpt>
      <trkpt lat="46.39595" lon="0.28727">
        <ele>134.33248811681</ele>
        <time>2021-05-02T08:19:28Z</time>
      </trkpt>
      <trkpt lat="46.39597" lon="0.28725">
        <ele>134.69037583191</ele>
        <time>2021-05-02T08:19:31Z</time>
      </trkpt>
      <trkpt lat="46.39599" lon="0.28723">
        <ele>134.57973049302</ele>
        <time>2021-05-02T08:19:34Z</time>
      </trkpt>
      <trkpt lat="46.39601" lon="0.2872">
        <ele>134.49371895008</ele>
        <time>2021-05-02T08:19:36Z</time>
      </trkpt>
      <trkpt lat="46.39603" lon="0.28718">
        <ele>134.26105938666</ele>
        <time>2021-05-02T08:19:38Z</time>
      </trkpt>
      <trkpt lat="46.39604" lon="0.28717">
        <ele>134.58043448254</ele>
        <time>2021-05-02T08:19:40Z</time>
      </trkpt>
      <trkpt lat="46.39606" lon="0.28715">
        <ele>134.24206458032</ele>
        <time>2021-05-02T08:19:42Z</time>
      </trkpt>
      <trkpt lat="46.39608" lon="0.28713">
        <ele>134.44744898099</ele>
        <time>2021-05-02T08:19:45Z</time>
      </trkpt>
      <trkpt lat="46.39609" lon="0.28712">
        <ele>134.32341067214</ele>
        <time>2021-05-02T08:19:47Z</time>
      </trkpt>
      <trkpt lat="46.39611" lon="0.28709">
        <ele>134.3576791361</ele>
        <time>2021-05-02T08:19:50Z</time>
      </trkpt>
      <trkpt lat="46.39612" lon="0.28708">
        <ele>134.11879834812</ele>
        <time>2021-05-02T08:19:52Z</time>
      </trkpt>
      <trkpt lat="46.39615" lon="0.28705">
        <ele>134.08578719664</ele>
        <time>2021-05-02T08:19:55Z</time>
      </trkpt>
      <trkpt lat="46.39617" lon="0.28703">
        <ele>134.13994989358</ele>
        <time>2021-05-02T08:19:57Z</time>
      </trkpt>
      <trkpt lat="46.3962" lon="0.28702">
        <ele>134.05843636114</ele>
        <time>2021-05-02T08:19:59Z</time>
      </trkpt>
      <trkpt lat="46.39622" lon="0.28701">
        <ele>133.6350980904</ele>
        <time>2021-05-02T08:20:01Z</time>
      </trkpt>
      <trkpt lat="46.39623" lon="0.28699">
        <ele>133.9793162467</ele>
        <time>2021-05-02T08:20:03Z</time>
      </trkpt>
      <trkpt lat="46.39625" lon="0.28697">
        <ele>132.90475678258</ele>
        <time>2021-05-02T08:20:05Z</time>
      </trkpt>
      <trkpt lat="46.39628" lon="0.28695">
        <ele>133.8131142566</ele>
        <time>2021-05-02T08:20:07Z</time>
      </trkpt>
      <trkpt lat="46.3963" lon="0.28691">
        <ele>132.98354931176</ele>
        <time>2021-05-02T08:20:09Z</time>
      </trkpt>
      <trkpt lat="46.39632" lon="0.28689">
        <ele>133.40948119573</ele>
        <time>2021-05-02T08:20:10Z</time>
      </trkpt>
      <trkpt lat="46.39634" lon="0.28686">
        <ele>133.20819618367</ele>
        <time>2021-05-02T08:20:12Z</time>
      </trkpt>
      <trkpt lat="46.39636" lon="0.28684">
        <ele>133.23378365021</ele>
        <time>2021-05-02T08:20:14Z</time>
      </trkpt>
      <trkpt lat="46.39638" lon="0.28682">
        <ele>133.58346269932</ele>
        <time>2021-05-02T08:20:16Z</time>
      </trkpt>
      <trkpt lat="46.39641" lon="0.28679">
        <ele>133.82374607306</ele>
        <time>2021-05-02T08:20:18Z</time>
      </trkpt>
      <trkpt lat="46.39643" lon="0.28677">
        <ele>134.11138274055</ele>
        <time>2021-05-02T08:20:20Z</time>
      </trkpt>
      <trkpt lat="46.39644" lon="0.28674">
        <ele>133.29609372839</ele>
        <time>2021-05-02T08:20:22Z</time>
      </trkpt>
      <trkpt lat="46.39645" lon="0.28671">
        <ele>133.39709848259</ele>
        <time>2021-05-02T08:20:24Z</time>
      </trkpt>
      <trkpt lat="46.39646" lon="0.28668">
        <ele>133.25540791824</ele>
        <time>2021-05-02T08:20:26Z</time>
      </trkpt>
      <trkpt lat="46.39648" lon="0.28666">
        <ele>133.44466823526</ele>
        <time>2021-05-02T08:20:28Z</time>
      </trkpt>
      <trkpt lat="46.39649" lon="0.28663">
        <ele>132.91457057279</ele>
        <time>2021-05-02T08:20:30Z</time>
      </trkpt>
      <trkpt lat="46.39651" lon="0.2866">
        <ele>132.84301032312</ele>
        <time>2021-05-02T08:20:32Z</time>
      </trkpt>
      <trkpt lat="46.39653" lon="0.28657">
        <ele>133.24489240069</ele>
        <time>2021-05-02T08:20:34Z</time>
      </trkpt>
      <trkpt lat="46.39654" lon="0.28654">
        <ele>133.26520436816</ele>
        <time>2021-05-02T08:20:36Z</time>
      </trkpt>
      <trkpt lat="46.39656" lon="0.28651">
        <ele>133.04899447225</ele>
        <time>2021-05-02T08:20:38Z</time>
      </trkpt>
      <trkpt lat="46.39657" lon="0.28648">
        <ele>132.73972949386</ele>
        <time>2021-05-02T08:20:40Z</time>
      </trkpt>
      <trkpt lat="46.39658" lon="0.28644">
        <ele>133.08118005376</ele>
        <time>2021-05-02T08:20:42Z</time>
      </trkpt>
      <trkpt lat="46.39659" lon="0.28641">
        <ele>132.58701697737</ele>
        <time>2021-05-02T08:20:44Z</time>
      </trkpt>
      <trkpt lat="46.39661" lon="0.28638">
        <ele>132.49963779654</ele>
        <time>2021-05-02T08:20:46Z</time>
      </trkpt>
      <trkpt lat="46.39662" lon="0.28635">
        <ele>132.9503586581</ele>
        <time>2021-05-02T08:20:48Z</time>
      </trkpt>
      <trkpt lat="46.39663" lon="0.28631">
        <ele>133.19037427288</ele>
        <time>2021-05-02T08:20:50Z</time>
      </trkpt>
      <trkpt lat="46.39665" lon="0.28627">
        <ele>133.03545479197</ele>
        <time>2021-05-02T08:20:52Z</time>
      </trkpt>
      <trkpt lat="46.39666" lon="0.28624">
        <ele>132.76950707659</ele>
        <time>2021-05-02T08:20:54Z</time>
      </trkpt>
      <trkpt lat="46.39667" lon="0.28621">
        <ele>132.72141659632</ele>
        <time>2021-05-02T08:20:56Z</time>
      </trkpt>
      <trkpt lat="46.39669" lon="0.28618">
        <ele>133.121930575</ele>
        <time>2021-05-02T08:20:58Z</time>
      </trkpt>
      <trkpt lat="46.3967" lon="0.28614">
        <ele>132.88398690801</ele>
        <time>2021-05-02T08:21:00Z</time>
      </trkpt>
      <trkpt lat="46.39671" lon="0.28611">
        <ele>132.68828496896</ele>
        <time>2021-05-02T08:21:02Z</time>
      </trkpt>
      <trkpt lat="46.39672" lon="0.28607">
        <ele>132.92435032595</ele>
        <time>2021-05-02T08:21:04Z</time>
      </trkpt>
      <trkpt lat="46.39674" lon="0.28604">
        <ele>133.52376786154</ele>
        <time>2021-05-02T08:21:06Z</time>
      </trkpt>
      <trkpt lat="46.39675" lon="0.286">
        <ele>133.13725317083</ele>
        <time>2021-05-02T08:21:08Z</time>
      </trkpt>
      <trkpt lat="46.39676" lon="0.28597">
        <ele>133.1301652519</ele>
        <time>2021-05-02T08:21:10Z</time>
      </trkpt>
      <trkpt lat="46.39677" lon="0.28593">
        <ele>133.15247881599</ele>
        <time>2021-05-02T08:21:12Z</time>
      </trkpt>
      <trkpt lat="46.39678" lon="0.2859">
        <ele>133.10521640442</ele>
        <time>2021-05-02T08:21:14Z</time>
      </trkpt>
      <trkpt lat="46.39679" lon="0.28587">
        <ele>133.20393057074</ele>
        <time>2021-05-02T08:21:16Z</time>
      </trkpt>
      <trkpt lat="46.3968" lon="0.28584">
        <ele>133.41937455349</ele>
        <time>2021-05-02T08:21:18Z</time>
      </trkpt>
      <trkpt lat="46.39682" lon="0.2858">
        <ele>133.19341587368</ele>
        <time>2021-05-02T08:21:20Z</time>
      </trkpt>
      <trkpt lat="46.39683" lon="0.28577">
        <ele>133.38221125305</ele>
        <time>2021-05-02T08:21:22Z</time>
      </trkpt>
      <trkpt lat="46.39684" lon="0.28573">
        <ele>132.98386982456</ele>
        <time>2021-05-02T08:21:24Z</time>
      </trkpt>
      <trkpt lat="46.39684" lon="0.28569">
        <ele>133.15759006795</ele>
        <time>2021-05-02T08:21:26Z</time>
      </trkpt>
      <trkpt lat="46.39685" lon="0.28566">
        <ele>133.37219491787</ele>
        <time>2021-05-02T08:21:28Z</time>
      </trkpt>
      <trkpt lat="46.39686" lon="0.28563">
        <ele>133.37990056816</ele>
        <time>2021-05-02T08:21:30Z</time>
      </trkpt>
      <trkpt lat="46.39687" lon="0.28559">
        <ele>133.30164312758</ele>
        <time>2021-05-02T08:21:32Z</time>
      </trkpt>
      <trkpt lat="46.39688" lon="0.28555">
        <ele>133.10405786056</ele>
        <time>2021-05-02T08:21:34Z</time>
      </trkpt>
      <trkpt lat="46.3969" lon="0.28552">
        <ele>133.70140495431</ele>
        <time>2021-05-02T08:21:36Z</time>
      </trkpt>
      <trkpt lat="46.3969" lon="0.28548">
        <ele>133.72026028391</ele>
        <time>2021-05-02T08:21:38Z</time>
      </trkpt>
      <trkpt lat="46.39691" lon="0.28544">
        <ele>133.65690572746</ele>
        <time>2021-05-02T08:21:40Z</time>
      </trkpt>
      <trkpt lat="46.39692" lon="0.28541">
        <ele>133.3375693243</ele>
        <time>2021-05-02T08:21:42Z</time>
      </trkpt>
      <trkpt lat="46.39693" lon="0.28538">
        <ele>133.64944286924</ele>
        <time>2021-05-02T08:21:44Z</time>
      </trkpt>
      <trkpt lat="46.39694" lon="0.28534">
        <ele>133.6912836181</ele>
        <time>2021-05-02T08:21:46Z</time>
      </trkpt>
      <trkpt lat="46.39695" lon="0.2853">
        <ele>133.65274859965</ele>
        <time>2021-05-02T08:21:48Z</time>
      </trkpt>
      <trkpt lat="46.39697" lon="0.28527">
        <ele>133.9000942288</ele>
        <time>2021-05-02T08:21:50Z</time>
      </trkpt>
      <trkpt lat="46.39697" lon="0.28524">
        <ele>133.57369177416</ele>
        <time>2021-05-02T08:21:52Z</time>
      </trkpt>
      <trkpt lat="46.39698" lon="0.2852">
        <ele>133.61548015941</ele>
        <time>2021-05-02T08:21:54Z</time>
      </trkpt>
      <trkpt lat="46.39699" lon="0.28517">
        <ele>133.70055124909</ele>
        <time>2021-05-02T08:21:56Z</time>
      </trkpt>
      <trkpt lat="46.39698" lon="0.28513">
        <ele>133.92927692272</ele>
        <time>2021-05-02T08:21:58Z</time>
      </trkpt>
      <trkpt lat="46.39699" lon="0.28509">
        <ele>133.90928396396</ele>
        <time>2021-05-02T08:22:00Z</time>
      </trkpt>
      <trkpt lat="46.397" lon="0.28506">
        <ele>133.73574779648</ele>
        <time>2021-05-02T08:22:02Z</time>
      </trkpt>
      <trkpt lat="46.39701" lon="0.28502">
        <ele>133.91162593942</ele>
        <time>2021-05-02T08:22:04Z</time>
      </trkpt>
      <trkpt lat="46.39701" lon="0.28499">
        <ele>134.58302852698</ele>
        <time>2021-05-02T08:22:06Z</time>
      </trkpt>
      <trkpt lat="46.39702" lon="0.28495">
        <ele>133.94145016093</ele>
        <time>2021-05-02T08:22:08Z</time>
      </trkpt>
      <trkpt lat="46.39702" lon="0.28491">
        <ele>134.34197194036</ele>
        <time>2021-05-02T08:22:10Z</time>
      </trkpt>
      <trkpt lat="46.39703" lon="0.28487">
        <ele>134.11647802312</ele>
        <time>2021-05-02T08:22:12Z</time>
      </trkpt>
      <trkpt lat="46.39704" lon="0.28483">
        <ele>134.51405047532</ele>
        <time>2021-05-02T08:22:14Z</time>
      </trkpt>
      <trkpt lat="46.39704" lon="0.2848">
        <ele>134.49422820471</ele>
        <time>2021-05-02T08:22:16Z</time>
      </trkpt>
      <trkpt lat="46.39705" lon="0.28476">
        <ele>134.32563899271</ele>
        <time>2021-05-02T08:22:18Z</time>
      </trkpt>
      <trkpt lat="46.39705" lon="0.28473">
        <ele>134.30652461108</ele>
        <time>2021-05-02T08:22:20Z</time>
      </trkpt>
      <trkpt lat="46.39705" lon="0.2847">
        <ele>134.54967405554</ele>
        <time>2021-05-02T08:22:21Z</time>
      </trkpt>
      <trkpt lat="46.39706" lon="0.28466">
        <ele>133.64720926993</ele>
        <time>2021-05-02T08:22:24Z</time>
      </trkpt>
      <trkpt lat="46.39706" lon="0.28461">
        <ele>134.14393970929</ele>
        <time>2021-05-02T08:22:26Z</time>
      </trkpt>
      <trkpt lat="46.39707" lon="0.28458">
        <ele>134.16480720509</ele>
        <time>2021-05-02T08:22:28Z</time>
      </trkpt>
      <trkpt lat="46.39707" lon="0.28453">
        <ele>134.24288935214</ele>
        <time>2021-05-02T08:22:30Z</time>
      </trkpt>
      <trkpt lat="46.39708" lon="0.28449">
        <ele>134.16633188445</ele>
        <time>2021-05-02T08:22:32Z</time>
      </trkpt>
      <trkpt lat="46.39708" lon="0.28446">
        <ele>133.99916329235</ele>
        <time>2021-05-02T08:22:34Z</time>
      </trkpt>
      <trkpt lat="46.39708" lon="0.28443">
        <ele>134.14746042248</ele>
        <time>2021-05-02T08:22:35Z</time>
      </trkpt>
      <trkpt lat="46.39709" lon="0.2844">
        <ele>134.41116521321</ele>
        <time>2021-05-02T08:22:37Z</time>
      </trkpt>
      <trkpt lat="46.39709" lon="0.28435">
        <ele>134.43303705472</ele>
        <time>2021-05-02T08:22:39Z</time>
      </trkpt>
      <trkpt lat="46.39709" lon="0.28433">
        <ele>134.11898750626</ele>
        <time>2021-05-02T08:22:41Z</time>
      </trkpt>
      <trkpt lat="46.3971" lon="0.28429">
        <ele>134.07281434722</ele>
        <time>2021-05-02T08:22:43Z</time>
      </trkpt>
      <trkpt lat="46.3971" lon="0.28426">
        <ele>134.18548829947</ele>
        <time>2021-05-02T08:22:44Z</time>
      </trkpt>
      <trkpt lat="46.39711" lon="0.28422">
        <ele>134.32115927991</ele>
        <time>2021-05-02T08:22:46Z</time>
      </trkpt>
      <trkpt lat="46.39711" lon="0.28418">
        <ele>134.62246489152</ele>
        <time>2021-05-02T08:22:48Z</time>
      </trkpt>
      <trkpt lat="46.39712" lon="0.28414">
        <ele>134.4267339576</ele>
        <time>2021-05-02T08:22:50Z</time>
      </trkpt>
      <trkpt lat="46.39712" lon="0.28411">
        <ele>134.66064730566</ele>
        <time>2021-05-02T08:22:52Z</time>
      </trkpt>
      <trkpt lat="46.39712" lon="0.28406">
        <ele>134.77775302436</ele>
        <time>2021-05-02T08:22:54Z</time>
      </trkpt>
      <trkpt lat="46.39713" lon="0.28402">
        <ele>134.49294873234</ele>
        <time>2021-05-02T08:22:56Z</time>
      </trkpt>
      <trkpt lat="46.39714" lon="0.28399">
        <ele>134.3596791923</ele>
        <time>2021-05-02T08:22:58Z</time>
      </trkpt>
      <trkpt lat="46.39715" lon="0.28394">
        <ele>134.45640491974</ele>
        <time>2021-05-02T08:23:00Z</time>
      </trkpt>
      <trkpt lat="46.39716" lon="0.2839">
        <ele>134.72777438816</ele>
        <time>2021-05-02T08:23:02Z</time>
      </trkpt>
      <trkpt lat="46.39716" lon="0.28386">
        <ele>134.76875212044</ele>
        <time>2021-05-02T08:23:04Z</time>
      </trkpt>
      <trkpt lat="46.39716" lon="0.28383">
        <ele>134.22628736496</ele>
        <time>2021-05-02T08:23:06Z</time>
      </trkpt>
      <trkpt lat="46.39717" lon="0.28379">
        <ele>133.65013077669</ele>
        <time>2021-05-02T08:23:08Z</time>
      </trkpt>
      <trkpt lat="46.39718" lon="0.28376">
        <ele>133.78384141717</ele>
        <time>2021-05-02T08:23:10Z</time>
      </trkpt>
      <trkpt lat="46.39718" lon="0.28372">
        <ele>133.58527581021</ele>
        <time>2021-05-02T08:23:12Z</time>
      </trkpt>
      <trkpt lat="46.39718" lon="0.28368">
        <ele>133.74569425918</ele>
        <time>2021-05-02T08:23:14Z</time>
      </trkpt>
      <trkpt lat="46.39718" lon="0.28364">
        <ele>133.81692383718</ele>
        <time>2021-05-02T08:23:16Z</time>
      </trkpt>
      <trkpt lat="46.39719" lon="0.2836">
        <ele>133.65489696432</ele>
        <time>2021-05-02T08:23:18Z</time>
      </trkpt>
      <trkpt lat="46.39719" lon="0.28356">
        <ele>133.80894919112</ele>
        <time>2021-05-02T08:23:20Z</time>
      </trkpt>
      <trkpt lat="46.3972" lon="0.28352">
        <ele>133.80458686594</ele>
        <time>2021-05-02T08:23:22Z</time>
      </trkpt>
      <trkpt lat="46.3972" lon="0.28348">
        <ele>133.53410650324</ele>
        <time>2021-05-02T08:23:24Z</time>
      </trkpt>
      <trkpt lat="46.39721" lon="0.28345">
        <ele>133.6009097416</ele>
        <time>2021-05-02T08:23:26Z</time>
      </trkpt>
      <trkpt lat="46.39722" lon="0.28341">
        <ele>133.65441173129</ele>
        <time>2021-05-02T08:23:28Z</time>
      </trkpt>
      <trkpt lat="46.39722" lon="0.28337">
        <ele>133.7603323115</ele>
        <time>2021-05-02T08:23:30Z</time>
      </trkpt>
      <trkpt lat="46.39723" lon="0.28334">
        <ele>133.21437027771</ele>
        <time>2021-05-02T08:23:32Z</time>
      </trkpt>
      <trkpt lat="46.39724" lon="0.2833">
        <ele>133.21252093278</ele>
        <time>2021-05-02T08:23:34Z</time>
      </trkpt>
      <trkpt lat="46.39725" lon="0.28326">
        <ele>133.5152563639</ele>
        <time>2021-05-02T08:23:36Z</time>
      </trkpt>
      <trkpt lat="46.39725" lon="0.28322">
        <ele>133.30265287962</ele>
        <time>2021-05-02T08:23:38Z</time>
      </trkpt>
      <trkpt lat="46.39726" lon="0.28319">
        <ele>132.75364604965</ele>
        <time>2021-05-02T08:23:40Z</time>
      </trkpt>
      <trkpt lat="46.39727" lon="0.28315">
        <ele>132.94696185831</ele>
        <time>2021-05-02T08:23:42Z</time>
      </trkpt>
      <trkpt lat="46.39728" lon="0.28311">
        <ele>132.35247978382</ele>
        <time>2021-05-02T08:23:44Z</time>
      </trkpt>
      <trkpt lat="46.39729" lon="0.28306">
        <ele>132.42467434146</ele>
        <time>2021-05-02T08:23:46Z</time>
      </trkpt>
      <trkpt lat="46.39729" lon="0.28303">
        <ele>132.17898946628</ele>
        <time>2021-05-02T08:23:49Z</time>
      </trkpt>
      <trkpt lat="46.3973" lon="0.28299">
        <ele>132.12606008351</ele>
        <time>2021-05-02T08:23:51Z</time>
      </trkpt>
      <trkpt lat="46.39731" lon="0.28296">
        <ele>132.00903262664</ele>
        <time>2021-05-02T08:23:53Z</time>
      </trkpt>
      <trkpt lat="46.39732" lon="0.28293">
        <ele>132.11982275918</ele>
        <time>2021-05-02T08:23:55Z</time>
      </trkpt>
      <trkpt lat="46.39733" lon="0.28289">
        <ele>132.39021850657</ele>
        <time>2021-05-02T08:23:57Z</time>
      </trkpt>
      <trkpt lat="46.39733" lon="0.28285">
        <ele>132.20792712364</ele>
        <time>2021-05-02T08:23:59Z</time>
      </trkpt>
      <trkpt lat="46.39734" lon="0.28283">
        <ele>132.86415757798</ele>
        <time>2021-05-02T08:24:01Z</time>
      </trkpt>
      <trkpt lat="46.39735" lon="0.28279">
        <ele>132.31529350858</ele>
        <time>2021-05-02T08:24:03Z</time>
      </trkpt>
      <trkpt lat="46.39736" lon="0.28275">
        <ele>132.25906632282</ele>
        <time>2021-05-02T08:24:05Z</time>
      </trkpt>
      <trkpt lat="46.39737" lon="0.28273">
        <ele>132.38756800536</ele>
        <time>2021-05-02T08:24:07Z</time>
      </trkpt>
      <trkpt lat="46.39738" lon="0.28269">
        <ele>132.2259663688</ele>
        <time>2021-05-02T08:24:09Z</time>
      </trkpt>
      <trkpt lat="46.39738" lon="0.28265">
        <ele>132.70262274519</ele>
        <time>2021-05-02T08:24:11Z</time>
      </trkpt>
      <trkpt lat="46.3974" lon="0.28262">
        <ele>132.05671474244</ele>
        <time>2021-05-02T08:24:13Z</time>
      </trkpt>
      <trkpt lat="46.3974" lon="0.28258">
        <ele>132.10851289518</ele>
        <time>2021-05-02T08:24:15Z</time>
      </trkpt>
      <trkpt lat="46.39741" lon="0.28254">
        <ele>132.06477050204</ele>
        <time>2021-05-02T08:24:17Z</time>
      </trkpt>
      <trkpt lat="46.39742" lon="0.2825">
        <ele>131.44563189894</ele>
        <time>2021-05-02T08:24:19Z</time>
      </trkpt>
      <trkpt lat="46.39743" lon="0.28246">
        <ele>131.12970578484</ele>
        <time>2021-05-02T08:24:21Z</time>
      </trkpt>
      <trkpt lat="46.39743" lon="0.28243">
        <ele>131.48175128363</ele>
        <time>2021-05-02T08:24:23Z</time>
      </trkpt>
      <trkpt lat="46.39744" lon="0.2824">
        <ele>131.56662710197</ele>
        <time>2021-05-02T08:24:25Z</time>
      </trkpt>
      <trkpt lat="46.39746" lon="0.28236">
        <ele>130.82642440684</ele>
        <time>2021-05-02T08:24:27Z</time>
      </trkpt>
      <trkpt lat="46.39746" lon="0.28232">
        <ele>130.91932852473</ele>
        <time>2021-05-02T08:24:29Z</time>
      </trkpt>
      <trkpt lat="46.39746" lon="0.28228">
        <ele>130.58515446447</ele>
        <time>2021-05-02T08:24:31Z</time>
      </trkpt>
      <trkpt lat="46.39747" lon="0.28225">
        <ele>131.21314625442</ele>
        <time>2021-05-02T08:24:33Z</time>
      </trkpt>
      <trkpt lat="46.39748" lon="0.28222">
        <ele>130.57897213846</ele>
        <time>2021-05-02T08:24:35Z</time>
      </trkpt>
      <trkpt lat="46.39748" lon="0.28218">
        <ele>130.484408007</ele>
        <time>2021-05-02T08:24:37Z</time>
      </trkpt>
      <trkpt lat="46.39749" lon="0.28215">
        <ele>130.33353334758</ele>
        <time>2021-05-02T08:24:39Z</time>
      </trkpt>
      <trkpt lat="46.3975" lon="0.28211">
        <ele>130.50823534746</ele>
        <time>2021-05-02T08:24:41Z</time>
      </trkpt>
      <trkpt lat="46.39751" lon="0.28207">
        <ele>130.5104329763</ele>
        <time>2021-05-02T08:24:43Z</time>
      </trkpt>
      <trkpt lat="46.39752" lon="0.28204">
        <ele>130.43170718942</ele>
        <time>2021-05-02T08:24:45Z</time>
      </trkpt>
      <trkpt lat="46.39753" lon="0.28199">
        <ele>130.45800112095</ele>
        <time>2021-05-02T08:24:47Z</time>
      </trkpt>
      <trkpt lat="46.39753" lon="0.28195">
        <ele>130.50338477362</ele>
        <time>2021-05-02T08:24:49Z</time>
      </trkpt>
      <trkpt lat="46.39754" lon="0.28192">
        <ele>130.41912953276</ele>
        <time>2021-05-02T08:24:51Z</time>
      </trkpt>
      <trkpt lat="46.39755" lon="0.28188">
        <ele>130.32438779902</ele>
        <time>2021-05-02T08:24:53Z</time>
      </trkpt>
      <trkpt lat="46.39755" lon="0.28184">
        <ele>130.16212996375</ele>
        <time>2021-05-02T08:24:55Z</time>
      </trkpt>
      <trkpt lat="46.39756" lon="0.28181">
        <ele>129.93603827432</ele>
        <time>2021-05-02T08:24:57Z</time>
      </trkpt>
      <trkpt lat="46.39757" lon="0.28177">
        <ele>129.71989170089</ele>
        <time>2021-05-02T08:24:59Z</time>
      </trkpt>
      <trkpt lat="46.39757" lon="0.28174">
        <ele>129.52111679781</ele>
        <time>2021-05-02T08:25:00Z</time>
      </trkpt>
      <trkpt lat="46.39758" lon="0.28171">
        <ele>129.4658400137</ele>
        <time>2021-05-02T08:25:02Z</time>
      </trkpt>
      <trkpt lat="46.39759" lon="0.28168">
        <ele>129.67154461052</ele>
        <time>2021-05-02T08:25:04Z</time>
      </trkpt>
      <trkpt lat="46.3976" lon="0.28166">
        <ele>129.21261507086</ele>
        <time>2021-05-02T08:25:05Z</time>
      </trkpt>
      <trkpt lat="46.3976" lon="0.28162">
        <ele>129.15004897583</ele>
        <time>2021-05-02T08:25:07Z</time>
      </trkpt>
      <trkpt lat="46.39761" lon="0.28158">
        <ele>128.77122198418</ele>
        <time>2021-05-02T08:25:09Z</time>
      </trkpt>
      <trkpt lat="46.39761" lon="0.28156">
        <ele>128.88407223579</ele>
        <time>2021-05-02T08:25:11Z</time>
      </trkpt>
      <trkpt lat="46.39762" lon="0.28151">
        <ele>128.91476644948</ele>
        <time>2021-05-02T08:25:13Z</time>
      </trkpt>
      <trkpt lat="46.39762" lon="0.28148">
        <ele>128.91044640541</ele>
        <time>2021-05-02T08:25:15Z</time>
      </trkpt>
      <trkpt lat="46.39763" lon="0.28144">
        <ele>128.46619555261</ele>
        <time>2021-05-02T08:25:17Z</time>
      </trkpt>
      <trkpt lat="46.39764" lon="0.28141">
        <ele>128.5815757513</ele>
        <time>2021-05-02T08:25:19Z</time>
      </trkpt>
      <trkpt lat="46.39765" lon="0.28137">
        <ele>128.43732573651</ele>
        <time>2021-05-02T08:25:21Z</time>
      </trkpt>
      <trkpt lat="46.39766" lon="0.28134">
        <ele>128.22350825183</ele>
        <time>2021-05-02T08:25:23Z</time>
      </trkpt>
      <trkpt lat="46.39766" lon="0.28132">
        <ele>128.37846844736</ele>
        <time>2021-05-02T08:25:25Z</time>
      </trkpt>
      <trkpt lat="46.39767" lon="0.28128">
        <ele>128.25836919248</ele>
        <time>2021-05-02T08:25:27Z</time>
      </trkpt>
      <trkpt lat="46.39767" lon="0.28124">
        <ele>128.08244383149</ele>
        <time>2021-05-02T08:25:30Z</time>
      </trkpt>
      <trkpt lat="46.39767" lon="0.28121">
        <ele>128.48220110778</ele>
        <time>2021-05-02T08:25:32Z</time>
      </trkpt>
      <trkpt lat="46.39768" lon="0.28116">
        <ele>128.62694978528</ele>
        <time>2021-05-02T08:25:34Z</time>
      </trkpt>
      <trkpt lat="46.39769" lon="0.28112">
        <ele>128.49677879736</ele>
        <time>2021-05-02T08:25:36Z</time>
      </trkpt>
      <trkpt lat="46.39769" lon="0.28108">
        <ele>128.41715838294</ele>
        <time>2021-05-02T08:25:38Z</time>
      </trkpt>
      <trkpt lat="46.3977" lon="0.28105">
        <ele>128.17172744405</ele>
        <time>2021-05-02T08:25:40Z</time>
      </trkpt>
      <trkpt lat="46.39771" lon="0.28101">
        <ele>128.33062903397</ele>
        <time>2021-05-02T08:25:42Z</time>
      </trkpt>
      <trkpt lat="46.39772" lon="0.28096">
        <ele>128.1542986948</ele>
        <time>2021-05-02T08:25:44Z</time>
      </trkpt>
      <trkpt lat="46.39772" lon="0.28092">
        <ele>127.45606084261</ele>
        <time>2021-05-02T08:25:46Z</time>
      </trkpt>
      <trkpt lat="46.39773" lon="0.28089">
        <ele>127.74822984263</ele>
        <time>2021-05-02T08:25:48Z</time>
      </trkpt>
      <trkpt lat="46.39774" lon="0.28086">
        <ele>127.59621388186</ele>
        <time>2021-05-02T08:25:50Z</time>
      </trkpt>
      <trkpt lat="46.39774" lon="0.28082">
        <ele>127.46434079204</ele>
        <time>2021-05-02T08:25:52Z</time>
      </trkpt>
      <trkpt lat="46.39775" lon="0.28078">
        <ele>127.50388471596</ele>
        <time>2021-05-02T08:25:54Z</time>
      </trkpt>
      <trkpt lat="46.39775" lon="0.28075">
        <ele>127.31123915594</ele>
        <time>2021-05-02T08:25:56Z</time>
      </trkpt>
      <trkpt lat="46.39776" lon="0.28071">
        <ele>127.102216742</ele>
        <time>2021-05-02T08:25:58Z</time>
      </trkpt>
      <trkpt lat="46.39777" lon="0.28067">
        <ele>127.63069767877</ele>
        <time>2021-05-02T08:26:00Z</time>
      </trkpt>
      <trkpt lat="46.39777" lon="0.28063">
        <ele>127.3871170925</ele>
        <time>2021-05-02T08:26:02Z</time>
      </trkpt>
      <trkpt lat="46.39778" lon="0.28059">
        <ele>127.49027912226</ele>
        <time>2021-05-02T08:26:04Z</time>
      </trkpt>
      <trkpt lat="46.39779" lon="0.28056">
        <ele>127.3253853824</ele>
        <time>2021-05-02T08:26:06Z</time>
      </trkpt>
      <trkpt lat="46.3978" lon="0.28053">
        <ele>127.22570648883</ele>
        <time>2021-05-02T08:26:07Z</time>
      </trkpt>
      <trkpt lat="46.39781" lon="0.2805">
        <ele>127.09844186436</ele>
        <time>2021-05-02T08:26:08Z</time>
      </trkpt>
      <trkpt lat="46.39781" lon="0.28047">
        <ele>127.36852753535</ele>
        <time>2021-05-02T08:26:10Z</time>
      </trkpt>
      <trkpt lat="46.39783" lon="0.28043">
        <ele>127.63195252046</ele>
        <time>2021-05-02T08:26:12Z</time>
      </trkpt>
      <trkpt lat="46.39783" lon="0.28041">
        <ele>127.50686059427</ele>
        <time>2021-05-02T08:26:13Z</time>
      </trkpt>
      <trkpt lat="46.39784" lon="0.28037">
        <ele>127.1684723692</ele>
        <time>2021-05-02T08:26:15Z</time>
      </trkpt>
      <trkpt lat="46.39784" lon="0.28033">
        <ele>127.18646886293</ele>
        <time>2021-05-02T08:26:17Z</time>
      </trkpt>
      <trkpt lat="46.39785" lon="0.28029">
        <ele>127.11069048475</ele>
        <time>2021-05-02T08:26:19Z</time>
      </trkpt>
      <trkpt lat="46.39786" lon="0.28026">
        <ele>127.3592334846</ele>
        <time>2021-05-02T08:26:21Z</time>
      </trkpt>
      <trkpt lat="46.39787" lon="0.28022">
        <ele>127.6158635607</ele>
        <time>2021-05-02T08:26:23Z</time>
      </trkpt>
      <trkpt lat="46.39787" lon="0.28019">
        <ele>127.89683003072</ele>
        <time>2021-05-02T08:26:25Z</time>
      </trkpt>
      <trkpt lat="46.39788" lon="0.28015">
        <ele>127.49557939172</ele>
        <time>2021-05-02T08:26:27Z</time>
      </trkpt>
      <trkpt lat="46.39788" lon="0.28011">
        <ele>127.33806740958</ele>
        <time>2021-05-02T08:26:29Z</time>
      </trkpt>
      <trkpt lat="46.39789" lon="0.28008">
        <ele>127.33622116968</ele>
        <time>2021-05-02T08:26:31Z</time>
      </trkpt>
      <trkpt lat="46.3979" lon="0.28003">
        <ele>127.82532418612</ele>
        <time>2021-05-02T08:26:33Z</time>
      </trkpt>
      <trkpt lat="46.39791" lon="0.27998">
        <ele>127.66865934059</ele>
        <time>2021-05-02T08:26:35Z</time>
      </trkpt>
      <trkpt lat="46.39792" lon="0.27994">
        <ele>126.99329520855</ele>
        <time>2021-05-02T08:26:38Z</time>
      </trkpt>
      <trkpt lat="46.39793" lon="0.2799">
        <ele>127.18726052903</ele>
        <time>2021-05-02T08:26:40Z</time>
      </trkpt>
      <trkpt lat="46.39794" lon="0.27987">
        <ele>127.23454029392</ele>
        <time>2021-05-02T08:26:42Z</time>
      </trkpt>
      <trkpt lat="46.39796" lon="0.27983">
        <ele>126.93538690452</ele>
        <time>2021-05-02T08:26:44Z</time>
      </trkpt>
      <trkpt lat="46.39796" lon="0.2798">
        <ele>126.99263464101</ele>
        <time>2021-05-02T08:26:46Z</time>
      </trkpt>
      <trkpt lat="46.39797" lon="0.27976">
        <ele>126.78944088984</ele>
        <time>2021-05-02T08:26:48Z</time>
      </trkpt>
      <trkpt lat="46.39798" lon="0.27973">
        <ele>126.71229830757</ele>
        <time>2021-05-02T08:26:50Z</time>
      </trkpt>
      <trkpt lat="46.39798" lon="0.27969">
        <ele>126.33289616182</ele>
        <time>2021-05-02T08:26:52Z</time>
      </trkpt>
      <trkpt lat="46.398" lon="0.27966">
        <ele>126.52092979103</ele>
        <time>2021-05-02T08:26:54Z</time>
      </trkpt>
      <trkpt lat="46.398" lon="0.27963">
        <ele>126.16965255793</ele>
        <time>2021-05-02T08:26:56Z</time>
      </trkpt>
      <trkpt lat="46.398" lon="0.27959">
        <ele>126.30331613962</ele>
        <time>2021-05-02T08:26:58Z</time>
      </trkpt>
      <trkpt lat="46.39801" lon="0.27956">
        <ele>126.48342429847</ele>
        <time>2021-05-02T08:26:59Z</time>
      </trkpt>
      <trkpt lat="46.39801" lon="0.27953">
        <ele>126.08361325786</ele>
        <time>2021-05-02T08:27:01Z</time>
      </trkpt>
      <trkpt lat="46.39802" lon="0.2795">
        <ele>126.3514409475</ele>
        <time>2021-05-02T08:27:02Z</time>
      </trkpt>
      <trkpt lat="46.39802" lon="0.27946">
        <ele>126.0058576772</ele>
        <time>2021-05-02T08:27:04Z</time>
      </trkpt>
      <trkpt lat="46.39802" lon="0.27943">
        <ele>125.89881865494</ele>
        <time>2021-05-02T08:27:06Z</time>
      </trkpt>
      <trkpt lat="46.39802" lon="0.27939">
        <ele>126.60890266579</ele>
        <time>2021-05-02T08:27:08Z</time>
      </trkpt>
      <trkpt lat="46.39803" lon="0.27935">
        <ele>126.81272405479</ele>
        <time>2021-05-02T08:27:10Z</time>
      </trkpt>
      <trkpt lat="46.39804" lon="0.27932">
        <ele>126.81820039451</ele>
        <time>2021-05-02T08:27:12Z</time>
      </trkpt>
      <trkpt lat="46.39804" lon="0.27928">
        <ele>126.05649320502</ele>
        <time>2021-05-02T08:27:14Z</time>
      </trkpt>
      <trkpt lat="46.39804" lon="0.27924">
        <ele>126.32166562602</ele>
        <time>2021-05-02T08:27:16Z</time>
      </trkpt>
      <trkpt lat="46.39805" lon="0.2792">
        <ele>126.11222596001</ele>
        <time>2021-05-02T08:27:18Z</time>
      </trkpt>
      <trkpt lat="46.39805" lon="0.27916">
        <ele>126.14791286923</ele>
        <time>2021-05-02T08:27:20Z</time>
      </trkpt>
      <trkpt lat="46.39806" lon="0.27912">
        <ele>126.31004105322</ele>
        <time>2021-05-02T08:27:22Z</time>
      </trkpt>
      <trkpt lat="46.39807" lon="0.27908">
        <ele>126.51807167567</ele>
        <time>2021-05-02T08:27:24Z</time>
      </trkpt>
      <trkpt lat="46.39807" lon="0.27904">
        <ele>126.6404794585</ele>
        <time>2021-05-02T08:27:26Z</time>
      </trkpt>
      <trkpt lat="46.39807" lon="0.27901">
        <ele>126.25353526976</ele>
        <time>2021-05-02T08:27:28Z</time>
      </trkpt>
      <trkpt lat="46.39807" lon="0.27897">
        <ele>126.32290835585</ele>
        <time>2021-05-02T08:27:30Z</time>
      </trkpt>
      <trkpt lat="46.39807" lon="0.27893">
        <ele>125.61146295909</ele>
        <time>2021-05-02T08:27:32Z</time>
      </trkpt>
      <trkpt lat="46.39807" lon="0.2789">
        <ele>125.80958459154</ele>
        <time>2021-05-02T08:27:34Z</time>
      </trkpt>
      <trkpt lat="46.39807" lon="0.27887">
        <ele>125.59544538334</ele>
        <time>2021-05-02T08:27:36Z</time>
      </trkpt>
      <trkpt lat="46.39807" lon="0.27883">
        <ele>125.26108317729</ele>
        <time>2021-05-02T08:27:38Z</time>
      </trkpt>
      <trkpt lat="46.39807" lon="0.27879">
        <ele>125.48785272334</ele>
        <time>2021-05-02T08:27:40Z</time>
      </trkpt>
      <trkpt lat="46.39807" lon="0.27876">
        <ele>125.59177493211</ele>
        <time>2021-05-02T08:27:42Z</time>
      </trkpt>
      <trkpt lat="46.39807" lon="0.27872">
        <ele>125.68079118244</ele>
        <time>2021-05-02T08:27:44Z</time>
      </trkpt>
      <trkpt lat="46.39807" lon="0.27869">
        <ele>125.28808995523</ele>
        <time>2021-05-02T08:27:46Z</time>
      </trkpt>
      <trkpt lat="46.39807" lon="0.27865">
        <ele>125.26308934949</ele>
        <time>2021-05-02T08:27:48Z</time>
      </trkpt>
      <trkpt lat="46.39807" lon="0.27862">
        <ele>125.39680225588</ele>
        <time>2021-05-02T08:27:50Z</time>
      </trkpt>
      <trkpt lat="46.39808" lon="0.27859">
        <ele>125.5339270439</ele>
        <time>2021-05-02T08:27:52Z</time>
      </trkpt>
      <trkpt lat="46.39808" lon="0.27856">
        <ele>125.75179111864</ele>
        <time>2021-05-02T08:27:53Z</time>
      </trkpt>
      <trkpt lat="46.39809" lon="0.27852">
        <ele>125.39925576467</ele>
        <time>2021-05-02T08:27:55Z</time>
      </trkpt>
      <trkpt lat="46.39809" lon="0.27848">
        <ele>125.50170241948</ele>
        <time>2021-05-02T08:27:57Z</time>
      </trkpt>
      <trkpt lat="46.3981" lon="0.27845">
        <ele>125.37544403505</ele>
        <time>2021-05-02T08:27:59Z</time>
      </trkpt>
      <trkpt lat="46.3981" lon="0.27842">
        <ele>125.31673855521</ele>
        <time>2021-05-02T08:28:00Z</time>
      </trkpt>
      <trkpt lat="46.39811" lon="0.27839">
        <ele>125.29006665014</ele>
        <time>2021-05-02T08:28:02Z</time>
      </trkpt>
      <trkpt lat="46.3981" lon="0.27835">
        <ele>125.6273100907</ele>
        <time>2021-05-02T08:28:04Z</time>
      </trkpt>
      <trkpt lat="46.3981" lon="0.27832">
        <ele>125.35242842045</ele>
        <time>2021-05-02T08:28:06Z</time>
      </trkpt>
      <trkpt lat="46.3981" lon="0.27828">
        <ele>125.23047957756</ele>
        <time>2021-05-02T08:28:08Z</time>
      </trkpt>
      <trkpt lat="46.39811" lon="0.27824">
        <ele>125.56056843419</ele>
        <time>2021-05-02T08:28:10Z</time>
      </trkpt>
      <trkpt lat="46.3981" lon="0.27821">
        <ele>124.96633989736</ele>
        <time>2021-05-02T08:28:12Z</time>
      </trkpt>
      <trkpt lat="46.39809" lon="0.27817">
        <ele>125.61502268817</ele>
        <time>2021-05-02T08:28:14Z</time>
      </trkpt>
      <trkpt lat="46.3981" lon="0.27813">
        <ele>124.91718912311</ele>
        <time>2021-05-02T08:28:16Z</time>
      </trkpt>
      <trkpt lat="46.3981" lon="0.2781">
        <ele>125.55648041889</ele>
        <time>2021-05-02T08:28:18Z</time>
      </trkpt>
      <trkpt lat="46.3981" lon="0.27808">
        <ele>125.52202797588</ele>
        <time>2021-05-02T08:28:19Z</time>
      </trkpt>
      <trkpt lat="46.3981" lon="0.27804">
        <ele>125.43333727773</ele>
        <time>2021-05-02T08:28:21Z</time>
      </trkpt>
      <trkpt lat="46.3981" lon="0.278">
        <ele>125.58238903992</ele>
        <time>2021-05-02T08:28:23Z</time>
      </trkpt>
      <trkpt lat="46.39809" lon="0.27797">
        <ele>125.44884705916</ele>
        <time>2021-05-02T08:28:25Z</time>
      </trkpt>
      <trkpt lat="46.39809" lon="0.27794">
        <ele>124.94618244376</ele>
        <time>2021-05-02T08:28:27Z</time>
      </trkpt>
      <trkpt lat="46.39809" lon="0.27791">
        <ele>125.01944173779</ele>
        <time>2021-05-02T08:28:29Z</time>
      </trkpt>
      <trkpt lat="46.39809" lon="0.27787">
        <ele>125.30462262128</ele>
        <time>2021-05-02T08:28:31Z</time>
      </trkpt>
      <trkpt lat="46.3981" lon="0.27783">
        <ele>125.03749386221</ele>
        <time>2021-05-02T08:28:33Z</time>
      </trkpt>
      <trkpt lat="46.3981" lon="0.27779">
        <ele>125.3846607022</ele>
        <time>2021-05-02T08:28:35Z</time>
      </trkpt>
      <trkpt lat="46.39811" lon="0.27775">
        <ele>125.15537279285</ele>
        <time>2021-05-02T08:28:37Z</time>
      </trkpt>
      <trkpt lat="46.39811" lon="0.27772">
        <ele>125.12103075162</ele>
        <time>2021-05-02T08:28:39Z</time>
      </trkpt>
      <trkpt lat="46.39812" lon="0.27768">
        <ele>125.07063419558</ele>
        <time>2021-05-02T08:28:41Z</time>
      </trkpt>
      <trkpt lat="46.39812" lon="0.27764">
        <ele>124.74497961346</ele>
        <time>2021-05-02T08:28:43Z</time>
      </trkpt>
      <trkpt lat="46.39812" lon="0.2776">
        <ele>124.59834995121</ele>
        <time>2021-05-02T08:28:45Z</time>
      </trkpt>
      <trkpt lat="46.39813" lon="0.27756">
        <ele>124.7897862494</ele>
        <time>2021-05-02T08:28:47Z</time>
      </trkpt>
      <trkpt lat="46.39813" lon="0.27753">
        <ele>124.47180436645</ele>
        <time>2021-05-02T08:28:49Z</time>
      </trkpt>
      <trkpt lat="46.39814" lon="0.27749">
        <ele>124.4650184093</ele>
        <time>2021-05-02T08:28:51Z</time>
      </trkpt>
      <trkpt lat="46.39815" lon="0.27745">
        <ele>124.26534262672</ele>
        <time>2021-05-02T08:28:53Z</time>
      </trkpt>
      <trkpt lat="46.39815" lon="0.27741">
        <ele>123.96186951734</ele>
        <time>2021-05-02T08:28:55Z</time>
      </trkpt>
      <trkpt lat="46.39815" lon="0.27737">
        <ele>124.42171525024</ele>
        <time>2021-05-02T08:28:57Z</time>
      </trkpt>
      <trkpt lat="46.39816" lon="0.27734">
        <ele>124.37828185037</ele>
        <time>2021-05-02T08:28:59Z</time>
      </trkpt>
      <trkpt lat="46.39816" lon="0.2773">
        <ele>124.60165998247</ele>
        <time>2021-05-02T08:29:01Z</time>
      </trkpt>
      <trkpt lat="46.39817" lon="0.27727">
        <ele>124.34370890073</ele>
        <time>2021-05-02T08:29:03Z</time>
      </trkpt>
      <trkpt lat="46.39817" lon="0.27723">
        <ele>124.03291970864</ele>
        <time>2021-05-02T08:29:05Z</time>
      </trkpt>
      <trkpt lat="46.39817" lon="0.27719">
        <ele>124.11440399382</ele>
        <time>2021-05-02T08:29:07Z</time>
      </trkpt>
      <trkpt lat="46.39817" lon="0.27716">
        <ele>124.20936934557</ele>
        <time>2021-05-02T08:29:09Z</time>
      </trkpt>
      <trkpt lat="46.39819" lon="0.27711">
        <ele>123.94872786477</ele>
        <time>2021-05-02T08:29:11Z</time>
      </trkpt>
      <trkpt lat="46.3982" lon="0.27707">
        <ele>123.94203955401</ele>
        <time>2021-05-02T08:29:14Z</time>
      </trkpt>
      <trkpt lat="46.39819" lon="0.27704">
        <ele>123.76397652272</ele>
        <time>2021-05-02T08:29:16Z</time>
      </trkpt>
      <trkpt lat="46.3982" lon="0.27699">
        <ele>123.90726117138</ele>
        <time>2021-05-02T08:29:18Z</time>
      </trkpt>
      <trkpt lat="46.3982" lon="0.27697">
        <ele>123.69128433708</ele>
        <time>2021-05-02T08:29:19Z</time>
      </trkpt>
      <trkpt lat="46.39821" lon="0.27693">
        <ele>123.49104270153</ele>
        <time>2021-05-02T08:29:22Z</time>
      </trkpt>
      <trkpt lat="46.39821" lon="0.27689">
        <ele>124.21444321517</ele>
        <time>2021-05-02T08:29:24Z</time>
      </trkpt>
      <trkpt lat="46.39822" lon="0.27685">
        <ele>124.20773420576</ele>
        <time>2021-05-02T08:29:26Z</time>
      </trkpt>
      <trkpt lat="46.39822" lon="0.27682">
        <ele>123.98995803017</ele>
        <time>2021-05-02T08:29:28Z</time>
      </trkpt>
      <trkpt lat="46.39823" lon="0.27678">
        <ele>124.24971271772</ele>
        <time>2021-05-02T08:29:30Z</time>
      </trkpt>
      <trkpt lat="46.39823" lon="0.27674">
        <ele>124.06969571114</ele>
        <time>2021-05-02T08:29:32Z</time>
      </trkpt>
      <trkpt lat="46.39823" lon="0.2767">
        <ele>124.14997788053</ele>
        <time>2021-05-02T08:29:34Z</time>
      </trkpt>
      <trkpt lat="46.39824" lon="0.27667">
        <ele>124.27694113087</ele>
        <time>2021-05-02T08:29:36Z</time>
      </trkpt>
      <trkpt lat="46.39825" lon="0.27663">
        <ele>124.48814432044</ele>
        <time>2021-05-02T08:29:38Z</time>
      </trkpt>
      <trkpt lat="46.39825" lon="0.27661">
        <ele>124.21893313993</ele>
        <time>2021-05-02T08:29:40Z</time>
      </trkpt>
      <trkpt lat="46.39825" lon="0.27656">
        <ele>124.85652689636</ele>
        <time>2021-05-02T08:29:42Z</time>
      </trkpt>
      <trkpt lat="46.39826" lon="0.27654">
        <ele>124.80016120896</ele>
        <time>2021-05-02T08:29:43Z</time>
      </trkpt>
      <trkpt lat="46.39826" lon="0.27651">
        <ele>124.35521791596</ele>
        <time>2021-05-02T08:29:45Z</time>
      </trkpt>
      <trkpt lat="46.39826" lon="0.27648">
        <ele>124.68224491086</ele>
        <time>2021-05-02T08:29:47Z</time>
      </trkpt>
      <trkpt lat="46.39827" lon="0.27644">
        <ele>124.5634652758</ele>
        <time>2021-05-02T08:29:49Z</time>
      </trkpt>
      <trkpt lat="46.39828" lon="0.2764">
        <ele>125.23681141157</ele>
        <time>2021-05-02T08:29:51Z</time>
      </trkpt>
      <trkpt lat="46.39828" lon="0.27636">
        <ele>124.76014281996</ele>
        <time>2021-05-02T08:29:53Z</time>
      </trkpt>
      <trkpt lat="46.39828" lon="0.27633">
        <ele>124.74371791817</ele>
        <time>2021-05-02T08:29:55Z</time>
      </trkpt>
      <trkpt lat="46.39829" lon="0.27629">
        <ele>124.74223924149</ele>
        <time>2021-05-02T08:29:57Z</time>
      </trkpt>
      <trkpt lat="46.39829" lon="0.27626">
        <ele>124.95527498517</ele>
        <time>2021-05-02T08:29:59Z</time>
      </trkpt>
      <trkpt lat="46.39829" lon="0.27623">
        <ele>124.79933239333</ele>
        <time>2021-05-02T08:30:01Z</time>
      </trkpt>
      <trkpt lat="46.39829" lon="0.27621">
        <ele>124.77579002269</ele>
        <time>2021-05-02T08:30:03Z</time>
      </trkpt>
      <trkpt lat="46.39829" lon="0.27617">
        <ele>124.78398064338</ele>
        <time>2021-05-02T08:30:05Z</time>
      </trkpt>
      <trkpt lat="46.39829" lon="0.27613">
        <ele>125.27514652349</ele>
        <time>2021-05-02T08:30:07Z</time>
      </trkpt>
      <trkpt lat="46.3983" lon="0.2761">
        <ele>125.11540591717</ele>
        <time>2021-05-02T08:30:09Z</time>
      </trkpt>
      <trkpt lat="46.39829" lon="0.27606">
        <ele>125.66187187191</ele>
        <time>2021-05-02T08:30:11Z</time>
      </trkpt>
      <trkpt lat="46.39829" lon="0.27601">
        <ele>125.39380249567</ele>
        <time>2021-05-02T08:30:13Z</time>
      </trkpt>
      <trkpt lat="46.39829" lon="0.27598">
        <ele>125.55902139843</ele>
        <time>2021-05-02T08:30:15Z</time>
      </trkpt>
      <trkpt lat="46.39829" lon="0.27595">
        <ele>126.06333686039</ele>
        <time>2021-05-02T08:30:17Z</time>
      </trkpt>
      <trkpt lat="46.3983" lon="0.27591">
        <ele>125.3779521808</ele>
        <time>2021-05-02T08:30:19Z</time>
      </trkpt>
      <trkpt lat="46.39829" lon="0.27588">
        <ele>125.5834754575</ele>
        <time>2021-05-02T08:30:21Z</time>
      </trkpt>
      <trkpt lat="46.3983" lon="0.27584">
        <ele>125.40008955915</ele>
        <time>2021-05-02T08:30:23Z</time>
      </trkpt>
      <trkpt lat="46.39831" lon="0.27582">
        <ele>125.2196824681</ele>
        <time>2021-05-02T08:30:25Z</time>
      </trkpt>
      <trkpt lat="46.39832" lon="0.27579">
        <ele>125.3807074409</ele>
        <time>2021-05-02T08:30:27Z</time>
      </trkpt>
      <trkpt lat="46.39832" lon="0.27577">
        <ele>125.57627387997</ele>
        <time>2021-05-02T08:30:29Z</time>
      </trkpt>
      <trkpt lat="46.39834" lon="0.27574">
        <ele>125.54783747531</ele>
        <time>2021-05-02T08:30:32Z</time>
      </trkpt>
      <trkpt lat="46.39834" lon="0.27571">
        <ele>126.05391205847</ele>
        <time>2021-05-02T08:30:34Z</time>
      </trkpt>
      <trkpt lat="46.39834" lon="0.27568">
        <ele>125.85845327284</ele>
        <time>2021-05-02T08:30:36Z</time>
      </trkpt>
      <trkpt lat="46.39834" lon="0.27565">
        <ele>126.19384166691</ele>
        <time>2021-05-02T08:30:39Z</time>
      </trkpt>
      <trkpt lat="46.39834" lon="0.27561">
        <ele>126.01088081021</ele>
        <time>2021-05-02T08:30:41Z</time>
      </trkpt>
      <trkpt lat="46.39834" lon="0.27557">
        <ele>126.271694934</ele>
        <time>2021-05-02T08:30:44Z</time>
      </trkpt>
      <trkpt lat="46.39834" lon="0.27554">
        <ele>126.77209871262</ele>
        <time>2021-05-02T08:30:46Z</time>
      </trkpt>
      <trkpt lat="46.39834" lon="0.2755">
        <ele>126.66406995151</ele>
        <time>2021-05-02T08:30:48Z</time>
      </trkpt>
      <trkpt lat="46.39835" lon="0.27546">
        <ele>126.54758057371</ele>
        <time>2021-05-02T08:30:50Z</time>
      </trkpt>
      <trkpt lat="46.39835" lon="0.27543">
        <ele>126.42701706477</ele>
        <time>2021-05-02T08:30:52Z</time>
      </trkpt>
      <trkpt lat="46.39834" lon="0.2754">
        <ele>126.53560295235</ele>
        <time>2021-05-02T08:30:54Z</time>
      </trkpt>
      <trkpt lat="46.39834" lon="0.27536">
        <ele>126.45242860541</ele>
        <time>2021-05-02T08:30:56Z</time>
      </trkpt>
      <trkpt lat="46.39834" lon="0.27533">
        <ele>126.84270029608</ele>
        <time>2021-05-02T08:30:58Z</time>
      </trkpt>
      <trkpt lat="46.39834" lon="0.2753">
        <ele>126.36622936372</ele>
        <time>2021-05-02T08:31:00Z</time>
      </trkpt>
      <trkpt lat="46.39834" lon="0.27527">
        <ele>126.53022012208</ele>
        <time>2021-05-02T08:31:02Z</time>
      </trkpt>
      <trkpt lat="46.39834" lon="0.27523">
        <ele>126.56786674634</ele>
        <time>2021-05-02T08:31:04Z</time>
      </trkpt>
      <trkpt lat="46.39835" lon="0.27519">
        <ele>126.4470639322</ele>
        <time>2021-05-02T08:31:06Z</time>
      </trkpt>
      <trkpt lat="46.39834" lon="0.27514">
        <ele>126.55126616824</ele>
        <time>2021-05-02T08:31:09Z</time>
      </trkpt>
      <trkpt lat="46.39834" lon="0.2751">
        <ele>126.67283437774</ele>
        <time>2021-05-02T08:31:11Z</time>
      </trkpt>
      <trkpt lat="46.39835" lon="0.27507">
        <ele>126.42024328839</ele>
        <time>2021-05-02T08:31:13Z</time>
      </trkpt>
      <trkpt lat="46.39836" lon="0.27503">
        <ele>126.4552771654</ele>
        <time>2021-05-02T08:31:15Z</time>
      </trkpt>
      <trkpt lat="46.39835" lon="0.275">
        <ele>126.34159174375</ele>
        <time>2021-05-02T08:31:17Z</time>
      </trkpt>
      <trkpt lat="46.39836" lon="0.27497">
        <ele>126.40432974976</ele>
        <time>2021-05-02T08:31:19Z</time>
      </trkpt>
      <trkpt lat="46.39836" lon="0.27494">
        <ele>126.20287584886</ele>
        <time>2021-05-02T08:31:21Z</time>
      </trkpt>
      <trkpt lat="46.39835" lon="0.27491">
        <ele>126.24203059543</ele>
        <time>2021-05-02T08:31:23Z</time>
      </trkpt>
      <trkpt lat="46.39836" lon="0.27487">
        <ele>126.18929709215</ele>
        <time>2021-05-02T08:31:25Z</time>
      </trkpt>
      <trkpt lat="46.39837" lon="0.27483">
        <ele>125.96296974272</ele>
        <time>2021-05-02T08:31:27Z</time>
      </trkpt>
      <trkpt lat="46.39837" lon="0.2748">
        <ele>126.82162924949</ele>
        <time>2021-05-02T08:31:29Z</time>
      </trkpt>
      <trkpt lat="46.39837" lon="0.27477">
        <ele>126.23639908154</ele>
        <time>2021-05-02T08:31:31Z</time>
      </trkpt>
      <trkpt lat="46.39839" lon="0.27475">
        <ele>125.96232686099</ele>
        <time>2021-05-02T08:31:33Z</time>
      </trkpt>
      <trkpt lat="46.39839" lon="0.27469">
        <ele>126.18746098503</ele>
        <time>2021-05-02T08:31:36Z</time>
      </trkpt>
      <trkpt lat="46.39839" lon="0.27464">
        <ele>126.24067142513</ele>
        <time>2021-05-02T08:31:38Z</time>
      </trkpt>
      <trkpt lat="46.39839" lon="0.27461">
        <ele>126.23869943246</ele>
        <time>2021-05-02T08:31:40Z</time>
      </trkpt>
      <trkpt lat="46.3984" lon="0.27457">
        <ele>125.93446330167</ele>
        <time>2021-05-02T08:31:42Z</time>
      </trkpt>
      <trkpt lat="46.39841" lon="0.27454">
        <ele>125.82109395321</ele>
        <time>2021-05-02T08:31:43Z</time>
      </trkpt>
      <trkpt lat="46.39842" lon="0.27451">
        <ele>125.66563640814</ele>
        <time>2021-05-02T08:31:45Z</time>
      </trkpt>
      <trkpt lat="46.39842" lon="0.27447">
        <ele>125.92340804264</ele>
        <time>2021-05-02T08:31:47Z</time>
      </trkpt>
      <trkpt lat="46.39842" lon="0.27444">
        <ele>126.08905656263</ele>
        <time>2021-05-02T08:31:49Z</time>
      </trkpt>
      <trkpt lat="46.39842" lon="0.2744">
        <ele>125.51547061093</ele>
        <time>2021-05-02T08:31:51Z</time>
      </trkpt>
      <trkpt lat="46.39842" lon="0.27436">
        <ele>125.47631361894</ele>
        <time>2021-05-02T08:31:53Z</time>
      </trkpt>
      <trkpt lat="46.39843" lon="0.27432">
        <ele>125.53208768927</ele>
        <time>2021-05-02T08:31:55Z</time>
      </trkpt>
      <trkpt lat="46.39843" lon="0.27429">
        <ele>125.57521528006</ele>
        <time>2021-05-02T08:31:57Z</time>
      </trkpt>
      <trkpt lat="46.39844" lon="0.27425">
        <ele>126.12027498987</ele>
        <time>2021-05-02T08:31:59Z</time>
      </trkpt>
      <trkpt lat="46.39844" lon="0.27422">
        <ele>125.1463471856</ele>
        <time>2021-05-02T08:32:01Z</time>
      </trkpt>
      <trkpt lat="46.39844" lon="0.2742">
        <ele>125.74676860776</ele>
        <time>2021-05-02T08:32:03Z</time>
      </trkpt>
      <trkpt lat="46.39844" lon="0.27417">
        <ele>125.46673775185</ele>
        <time>2021-05-02T08:32:05Z</time>
      </trkpt>
      <trkpt lat="46.39845" lon="0.27413">
        <ele>126.21991518419</ele>
        <time>2021-05-02T08:32:07Z</time>
      </trkpt>
      <trkpt lat="46.39846" lon="0.2741">
        <ele>125.54752464872</ele>
        <time>2021-05-02T08:32:09Z</time>
      </trkpt>
      <trkpt lat="46.39846" lon="0.27406">
        <ele>125.47974455636</ele>
        <time>2021-05-02T08:32:11Z</time>
      </trkpt>
      <trkpt lat="46.39847" lon="0.27403">
        <ele>125.7777924072</ele>
        <time>2021-05-02T08:32:13Z</time>
      </trkpt>
      <trkpt lat="46.39848" lon="0.27399">
        <ele>125.60677479953</ele>
        <time>2021-05-02T08:32:15Z</time>
      </trkpt>
      <trkpt lat="46.39848" lon="0.27395">
        <ele>125.64035934396</ele>
        <time>2021-05-02T08:32:17Z</time>
      </trkpt>
      <trkpt lat="46.39848" lon="0.27392">
        <ele>125.57569359988</ele>
        <time>2021-05-02T08:32:19Z</time>
      </trkpt>
      <trkpt lat="46.39848" lon="0.27388">
        <ele>125.43644129019</ele>
        <time>2021-05-02T08:32:21Z</time>
      </trkpt>
      <trkpt lat="46.39848" lon="0.27384">
        <ele>125.07790928986</ele>
        <time>2021-05-02T08:32:23Z</time>
      </trkpt>
      <trkpt lat="46.39848" lon="0.2738">
        <ele>125.33041312266</ele>
        <time>2021-05-02T08:32:25Z</time>
      </trkpt>
      <trkpt lat="46.39849" lon="0.27377">
        <ele>125.19519222714</ele>
        <time>2021-05-02T08:32:27Z</time>
      </trkpt>
      <trkpt lat="46.3985" lon="0.27373">
        <ele>125.71865537297</ele>
        <time>2021-05-02T08:32:29Z</time>
      </trkpt>
      <trkpt lat="46.39851" lon="0.27369">
        <ele>125.51259318925</ele>
        <time>2021-05-02T08:32:31Z</time>
      </trkpt>
      <trkpt lat="46.39852" lon="0.27365">
        <ele>125.191397205</ele>
        <time>2021-05-02T08:32:33Z</time>
      </trkpt>
      <trkpt lat="46.39854" lon="0.27362">
        <ele>125.10875263065</ele>
        <time>2021-05-02T08:32:35Z</time>
      </trkpt>
      <trkpt lat="46.39854" lon="0.27358">
        <ele>124.89010762982</ele>
        <time>2021-05-02T08:32:37Z</time>
      </trkpt>
      <trkpt lat="46.39854" lon="0.27355">
        <ele>125.07813391834</ele>
        <time>2021-05-02T08:32:39Z</time>
      </trkpt>
      <trkpt lat="46.39854" lon="0.2735">
        <ele>125.0807721084</ele>
        <time>2021-05-02T08:32:42Z</time>
      </trkpt>
      <trkpt lat="46.39855" lon="0.27347">
        <ele>125.46773539763</ele>
        <time>2021-05-02T08:32:44Z</time>
      </trkpt>
      <trkpt lat="46.39855" lon="0.27343">
        <ele>125.16244979855</ele>
        <time>2021-05-02T08:32:46Z</time>
      </trkpt>
      <trkpt lat="46.39856" lon="0.27339">
        <ele>124.85015180428</ele>
        <time>2021-05-02T08:32:48Z</time>
      </trkpt>
      <trkpt lat="46.39856" lon="0.27336">
        <ele>125.27213375457</ele>
        <time>2021-05-02T08:32:50Z</time>
      </trkpt>
      <trkpt lat="46.39858" lon="0.27332">
        <ele>125.59448845033</ele>
        <time>2021-05-02T08:32:52Z</time>
      </trkpt>
      <trkpt lat="46.39859" lon="0.27327">
        <ele>125.58724091016</ele>
        <time>2021-05-02T08:32:54Z</time>
      </trkpt>
      <trkpt lat="46.3986" lon="0.27324">
        <ele>125.15900011268</ele>
        <time>2021-05-02T08:32:56Z</time>
      </trkpt>
      <trkpt lat="46.39861" lon="0.27321">
        <ele>125.83671100717</ele>
        <time>2021-05-02T08:32:58Z</time>
      </trkpt>
      <trkpt lat="46.39862" lon="0.27317">
        <ele>125.90859021246</ele>
        <time>2021-05-02T08:33:00Z</time>
      </trkpt>
      <trkpt lat="46.39863" lon="0.27314">
        <ele>125.30357433856</ele>
        <time>2021-05-02T08:33:02Z</time>
      </trkpt>
      <trkpt lat="46.39863" lon="0.27311">
        <ele>125.52910918277</ele>
        <time>2021-05-02T08:33:04Z</time>
      </trkpt>
      <trkpt lat="46.39863" lon="0.27308">
        <ele>125.59215414431</ele>
        <time>2021-05-02T08:33:06Z</time>
      </trkpt>
      <trkpt lat="46.39864" lon="0.27305">
        <ele>125.14502611384</ele>
        <time>2021-05-02T08:33:08Z</time>
      </trkpt>
      <trkpt lat="46.39865" lon="0.27302">
        <ele>125.72350605298</ele>
        <time>2021-05-02T08:33:10Z</time>
      </trkpt>
      <trkpt lat="46.39866" lon="0.27299">
        <ele>125.54354296066</ele>
        <time>2021-05-02T08:33:12Z</time>
      </trkpt>
      <trkpt lat="46.39867" lon="0.27296">
        <ele>124.82460417226</ele>
        <time>2021-05-02T08:33:14Z</time>
      </trkpt>
      <trkpt lat="46.39868" lon="0.27292">
        <ele>125.36135120224</ele>
        <time>2021-05-02T08:33:16Z</time>
      </trkpt>
      <trkpt lat="46.3987" lon="0.27287">
        <ele>125.02377397846</ele>
        <time>2021-05-02T08:33:18Z</time>
      </trkpt>
      <trkpt lat="46.3987" lon="0.27284">
        <ele>124.94416937511</ele>
        <time>2021-05-02T08:33:19Z</time>
      </trkpt>
      <trkpt lat="46.39871" lon="0.27281">
        <ele>126.08784960397</ele>
        <time>2021-05-02T08:33:21Z</time>
      </trkpt>
      <trkpt lat="46.39871" lon="0.27278">
        <ele>125.68721058872</ele>
        <time>2021-05-02T08:33:22Z</time>
      </trkpt>
      <trkpt lat="46.39873" lon="0.27274">
        <ele>125.23505916726</ele>
        <time>2021-05-02T08:33:24Z</time>
      </trkpt>
      <trkpt lat="46.39873" lon="0.2727">
        <ele>125.17504629213</ele>
        <time>2021-05-02T08:33:26Z</time>
      </trkpt>
      <trkpt lat="46.39874" lon="0.27267">
        <ele>125.5460131336</ele>
        <time>2021-05-02T08:33:28Z</time>
      </trkpt>
      <trkpt lat="46.39875" lon="0.27265">
        <ele>125.1859271396</ele>
        <time>2021-05-02T08:33:29Z</time>
      </trkpt>
      <trkpt lat="46.39874" lon="0.27261">
        <ele>125.88075992744</ele>
        <time>2021-05-02T08:33:31Z</time>
      </trkpt>
      <trkpt lat="46.39875" lon="0.27258">
        <ele>125.5286479909</ele>
        <time>2021-05-02T08:33:33Z</time>
      </trkpt>
      <trkpt lat="46.39876" lon="0.27254">
        <ele>125.37915665749</ele>
        <time>2021-05-02T08:33:35Z</time>
      </trkpt>
      <trkpt lat="46.39876" lon="0.2725">
        <ele>125.45256123878</ele>
        <time>2021-05-02T08:33:37Z</time>
      </trkpt>
      <trkpt lat="46.39876" lon="0.27247">
        <ele>125.425828523</ele>
        <time>2021-05-02T08:33:39Z</time>
      </trkpt>
      <trkpt lat="46.39877" lon="0.27244">
        <ele>125.24291226268</ele>
        <time>2021-05-02T08:33:41Z</time>
      </trkpt>
      <trkpt lat="46.39878" lon="0.2724">
        <ele>126.18078321218</ele>
        <time>2021-05-02T08:33:43Z</time>
      </trkpt>
      <trkpt lat="46.39879" lon="0.27237">
        <ele>125.66396993026</ele>
        <time>2021-05-02T08:33:45Z</time>
      </trkpt>
      <trkpt lat="46.3988" lon="0.27233">
        <ele>126.24788913969</ele>
        <time>2021-05-02T08:33:47Z</time>
      </trkpt>
      <trkpt lat="46.39881" lon="0.2723">
        <ele>126.08360868413</ele>
        <time>2021-05-02T08:33:49Z</time>
      </trkpt>
      <trkpt lat="46.39882" lon="0.27226">
        <ele>126.98060015868</ele>
        <time>2021-05-02T08:33:51Z</time>
      </trkpt>
      <trkpt lat="46.39883" lon="0.27222">
        <ele>126.24439847842</ele>
        <time>2021-05-02T08:33:53Z</time>
      </trkpt>
      <trkpt lat="46.39884" lon="0.27219">
        <ele>126.15587574523</ele>
        <time>2021-05-02T08:33:55Z</time>
      </trkpt>
      <trkpt lat="46.39885" lon="0.27216">
        <ele>126.34732026607</ele>
        <time>2021-05-02T08:33:57Z</time>
      </trkpt>
      <trkpt lat="46.39886" lon="0.27213">
        <ele>126.21629697457</ele>
        <time>2021-05-02T08:33:59Z</time>
      </trkpt>
      <trkpt lat="46.39887" lon="0.2721">
        <ele>126.25241508055</ele>
        <time>2021-05-02T08:34:01Z</time>
      </trkpt>
      <trkpt lat="46.39888" lon="0.27206">
        <ele>126.50386635493</ele>
        <time>2021-05-02T08:34:03Z</time>
      </trkpt>
      <trkpt lat="46.39888" lon="0.27203">
        <ele>126.07308699749</ele>
        <time>2021-05-02T08:34:05Z</time>
      </trkpt>
      <trkpt lat="46.3989" lon="0.272">
        <ele>126.17411230039</ele>
        <time>2021-05-02T08:34:07Z</time>
      </trkpt>
      <trkpt lat="46.39893" lon="0.27198">
        <ele>126.28551450092</ele>
        <time>2021-05-02T08:34:09Z</time>
      </trkpt>
      <trkpt lat="46.39894" lon="0.27196">
        <ele>126.15320134535</ele>
        <time>2021-05-02T08:34:10Z</time>
      </trkpt>
      <trkpt lat="46.39896" lon="0.27193">
        <ele>126.52722407132</ele>
        <time>2021-05-02T08:34:12Z</time>
      </trkpt>
      <trkpt lat="46.39898" lon="0.2719">
        <ele>126.46304209623</ele>
        <time>2021-05-02T08:34:14Z</time>
      </trkpt>
      <trkpt lat="46.399" lon="0.27187">
        <ele>126.42412893195</ele>
        <time>2021-05-02T08:34:16Z</time>
      </trkpt>
      <trkpt lat="46.39901" lon="0.27185">
        <ele>126.56820667163</ele>
        <time>2021-05-02T08:34:18Z</time>
      </trkpt>
      <trkpt lat="46.39904" lon="0.27183">
        <ele>127.04931962676</ele>
        <time>2021-05-02T08:34:20Z</time>
      </trkpt>
      <trkpt lat="46.39906" lon="0.27181">
        <ele>126.96924310643</ele>
        <time>2021-05-02T08:34:22Z</time>
      </trkpt>
      <trkpt lat="46.39908" lon="0.27179">
        <ele>126.31710753962</ele>
        <time>2021-05-02T08:34:24Z</time>
      </trkpt>
      <trkpt lat="46.3991" lon="0.27176">
        <ele>126.21202844195</ele>
        <time>2021-05-02T08:34:26Z</time>
      </trkpt>
      <trkpt lat="46.39912" lon="0.27175">
        <ele>126.21959396172</ele>
        <time>2021-05-02T08:34:28Z</time>
      </trkpt>
      <trkpt lat="46.39915" lon="0.27172">
        <ele>126.7026647497</ele>
        <time>2021-05-02T08:34:30Z</time>
      </trkpt>
      <trkpt lat="46.39917" lon="0.2717">
        <ele>126.20511413179</ele>
        <time>2021-05-02T08:34:32Z</time>
      </trkpt>
      <trkpt lat="46.39919" lon="0.27169">
        <ele>126.44481194764</ele>
        <time>2021-05-02T08:34:34Z</time>
      </trkpt>
      <trkpt lat="46.39921" lon="0.27166">
        <ele>126.06997574121</ele>
        <time>2021-05-02T08:34:36Z</time>
      </trkpt>
      <trkpt lat="46.39924" lon="0.27164">
        <ele>126.6495203441</ele>
        <time>2021-05-02T08:34:38Z</time>
      </trkpt>
      <trkpt lat="46.39927" lon="0.27162">
        <ele>126.77750839572</ele>
        <time>2021-05-02T08:34:40Z</time>
      </trkpt>
      <trkpt lat="46.39929" lon="0.2716">
        <ele>126.35984960385</ele>
        <time>2021-05-02T08:34:42Z</time>
      </trkpt>
      <trkpt lat="46.39931" lon="0.27158">
        <ele>126.14469394274</ele>
        <time>2021-05-02T08:34:44Z</time>
      </trkpt>
      <trkpt lat="46.39933" lon="0.27157">
        <ele>126.67483080924</ele>
        <time>2021-05-02T08:34:46Z</time>
      </trkpt>
      <trkpt lat="46.39935" lon="0.27154">
        <ele>126.54792552814</ele>
        <time>2021-05-02T08:34:48Z</time>
      </trkpt>
      <trkpt lat="46.39938" lon="0.27153">
        <ele>126.82442708965</ele>
        <time>2021-05-02T08:34:51Z</time>
      </trkpt>
      <trkpt lat="46.3994" lon="0.27151">
        <ele>126.20036780555</ele>
        <time>2021-05-02T08:34:53Z</time>
      </trkpt>
      <trkpt lat="46.39942" lon="0.27149">
        <ele>125.68966188934</ele>
        <time>2021-05-02T08:34:55Z</time>
      </trkpt>
      <trkpt lat="46.39944" lon="0.27148">
        <ele>125.82519853208</ele>
        <time>2021-05-02T08:34:57Z</time>
      </trkpt>
      <trkpt lat="46.39946" lon="0.27147">
        <ele>126.520728481</ele>
        <time>2021-05-02T08:34:59Z</time>
      </trkpt>
      <trkpt lat="46.39948" lon="0.27144">
        <ele>126.43552791979</ele>
        <time>2021-05-02T08:35:01Z</time>
      </trkpt>
      <trkpt lat="46.39951" lon="0.27142">
        <ele>126.23456823546</ele>
        <time>2021-05-02T08:35:03Z</time>
      </trkpt>
      <trkpt lat="46.39952" lon="0.27141">
        <ele>126.10323038697</ele>
        <time>2021-05-02T08:35:04Z</time>
      </trkpt>
      <trkpt lat="46.39955" lon="0.27138">
        <ele>126.38204212952</ele>
        <time>2021-05-02T08:35:06Z</time>
      </trkpt>
      <trkpt lat="46.39957" lon="0.27137">
        <ele>125.99700711574</ele>
        <time>2021-05-02T08:35:08Z</time>
      </trkpt>
      <trkpt lat="46.3996" lon="0.27135">
        <ele>126.33527338598</ele>
        <time>2021-05-02T08:35:10Z</time>
      </trkpt>
      <trkpt lat="46.39964" lon="0.27134">
        <ele>126.36885497067</ele>
        <time>2021-05-02T08:35:12Z</time>
      </trkpt>
      <trkpt lat="46.39966" lon="0.27133">
        <ele>126.44951514062</ele>
        <time>2021-05-02T08:35:14Z</time>
      </trkpt>
      <trkpt lat="46.39968" lon="0.27132">
        <ele>126.3309232695</ele>
        <time>2021-05-02T08:35:16Z</time>
      </trkpt>
      <trkpt lat="46.39971" lon="0.2713">
        <ele>126.46839753538</ele>
        <time>2021-05-02T08:35:18Z</time>
      </trkpt>
      <trkpt lat="46.39973" lon="0.27129">
        <ele>125.96003640164</ele>
        <time>2021-05-02T08:35:20Z</time>
      </trkpt>
      <trkpt lat="46.39976" lon="0.27128">
        <ele>126.44113016222</ele>
        <time>2021-05-02T08:35:22Z</time>
      </trkpt>
      <trkpt lat="46.39978" lon="0.27126">
        <ele>126.47488798294</ele>
        <time>2021-05-02T08:35:24Z</time>
      </trkpt>
      <trkpt lat="46.3998" lon="0.27124">
        <ele>126.50085717626</ele>
        <time>2021-05-02T08:35:26Z</time>
      </trkpt>
      <trkpt lat="46.39982" lon="0.27123">
        <ele>126.61740225833</ele>
        <time>2021-05-02T08:35:28Z</time>
      </trkpt>
      <trkpt lat="46.39984" lon="0.2712">
        <ele>126.46721309237</ele>
        <time>2021-05-02T08:35:30Z</time>
      </trkpt>
      <trkpt lat="46.39987" lon="0.27119">
        <ele>126.02280574758</ele>
        <time>2021-05-02T08:35:32Z</time>
      </trkpt>
      <trkpt lat="46.39988" lon="0.27115">
        <ele>126.41731900908</ele>
        <time>2021-05-02T08:35:34Z</time>
      </trkpt>
      <trkpt lat="46.3999" lon="0.27112">
        <ele>126.40717789251</ele>
        <time>2021-05-02T08:35:37Z</time>
      </trkpt>
      <trkpt lat="46.39992" lon="0.27111">
        <ele>126.76452073082</ele>
        <time>2021-05-02T08:35:39Z</time>
      </trkpt>
      <trkpt lat="46.39993" lon="0.27108">
        <ele>126.82871042565</ele>
        <time>2021-05-02T08:35:41Z</time>
      </trkpt>
      <trkpt lat="46.39995" lon="0.27106">
        <ele>126.64622669667</ele>
        <time>2021-05-02T08:35:43Z</time>
      </trkpt>
      <trkpt lat="46.39997" lon="0.27105">
        <ele>126.52707739081</ele>
        <time>2021-05-02T08:35:45Z</time>
      </trkpt>
      <trkpt lat="46.39999" lon="0.27102">
        <ele>126.62793307099</ele>
        <time>2021-05-02T08:35:47Z</time>
      </trkpt>
      <trkpt lat="46.40001" lon="0.271">
        <ele>126.42410666496</ele>
        <time>2021-05-02T08:35:49Z</time>
      </trkpt>
      <trkpt lat="46.40002" lon="0.27098">
        <ele>126.50623777043</ele>
        <time>2021-05-02T08:35:51Z</time>
      </trkpt>
      <trkpt lat="46.40004" lon="0.27095">
        <ele>126.33925607055</ele>
        <time>2021-05-02T08:35:53Z</time>
      </trkpt>
      <trkpt lat="46.40006" lon="0.27092">
        <ele>126.16646820959</ele>
        <time>2021-05-02T08:35:55Z</time>
      </trkpt>
      <trkpt lat="46.40007" lon="0.2709">
        <ele>126.90479890723</ele>
        <time>2021-05-02T08:35:57Z</time>
      </trkpt>
      <trkpt lat="46.40008" lon="0.27086">
        <ele>126.4880547896</ele>
        <time>2021-05-02T08:35:58Z</time>
      </trkpt>
      <trkpt lat="46.4001" lon="0.27085">
        <ele>126.43772163335</ele>
        <time>2021-05-02T08:35:59Z</time>
      </trkpt>
      <trkpt lat="46.40012" lon="0.27083">
        <ele>126.26731520519</ele>
        <time>2021-05-02T08:36:02Z</time>
      </trkpt>
      <trkpt lat="46.40015" lon="0.2708">
        <ele>126.49528796878</ele>
        <time>2021-05-02T08:36:05Z</time>
      </trkpt>
      <trkpt lat="46.40016" lon="0.27078">
        <ele>126.09794120956</ele>
        <time>2021-05-02T08:36:06Z</time>
      </trkpt>
      <trkpt lat="46.40018" lon="0.27077">
        <ele>126.0886848839</ele>
        <time>2021-05-02T08:36:08Z</time>
      </trkpt>
      <trkpt lat="46.4002" lon="0.27074">
        <ele>126.66143915243</ele>
        <time>2021-05-02T08:36:10Z</time>
      </trkpt>
      <trkpt lat="46.40022" lon="0.27071">
        <ele>126.12131823506</ele>
        <time>2021-05-02T08:36:12Z</time>
      </trkpt>
      <trkpt lat="46.40024" lon="0.27068">
        <ele>125.96725205891</ele>
        <time>2021-05-02T08:36:15Z</time>
      </trkpt>
      <trkpt lat="46.40026" lon="0.27066">
        <ele>126.4361197995</ele>
        <time>2021-05-02T08:36:17Z</time>
      </trkpt>
      <trkpt lat="46.40028" lon="0.27064">
        <ele>126.40618251078</ele>
        <time>2021-05-02T08:36:19Z</time>
      </trkpt>
      <trkpt lat="46.4003" lon="0.27062">
        <ele>126.26091218181</ele>
        <time>2021-05-02T08:36:21Z</time>
      </trkpt>
      <trkpt lat="46.40032" lon="0.2706">
        <ele>125.91932290513</ele>
        <time>2021-05-02T08:36:23Z</time>
      </trkpt>
      <trkpt lat="46.40033" lon="0.27058">
        <ele>126.67685088329</ele>
        <time>2021-05-02T08:36:25Z</time>
      </trkpt>
      <trkpt lat="46.40036" lon="0.27055">
        <ele>126.45892256778</ele>
        <time>2021-05-02T08:36:29Z</time>
      </trkpt>
      <trkpt lat="46.40039" lon="0.27054">
        <ele>126.17275327351</ele>
        <time>2021-05-02T08:36:31Z</time>
      </trkpt>
      <trkpt lat="46.40041" lon="0.27051">
        <ele>126.28449048195</ele>
        <time>2021-05-02T08:36:33Z</time>
      </trkpt>
      <trkpt lat="46.40043" lon="0.27048">
        <ele>126.71062983293</ele>
        <time>2021-05-02T08:36:35Z</time>
      </trkpt>
      <trkpt lat="46.40045" lon="0.27047">
        <ele>126.55260907859</ele>
        <time>2021-05-02T08:36:36Z</time>
      </trkpt>
      <trkpt lat="46.40047" lon="0.27044">
        <ele>126.10442006309</ele>
        <time>2021-05-02T08:36:39Z</time>
      </trkpt>
      <trkpt lat="46.40048" lon="0.2704">
        <ele>126.3813891802</ele>
        <time>2021-05-02T08:36:41Z</time>
      </trkpt>
      <trkpt lat="46.4005" lon="0.27037">
        <ele>126.26849255618</ele>
        <time>2021-05-02T08:36:43Z</time>
      </trkpt>
      <trkpt lat="46.40052" lon="0.27035">
        <ele>126.64188644383</ele>
        <time>2021-05-02T08:36:45Z</time>
      </trkpt>
      <trkpt lat="46.40054" lon="0.27031">
        <ele>126.51408857387</ele>
        <time>2021-05-02T08:36:47Z</time>
      </trkpt>
      <trkpt lat="46.40057" lon="0.27029">
        <ele>126.43753525708</ele>
        <time>2021-05-02T08:36:49Z</time>
      </trkpt>
      <trkpt lat="46.40058" lon="0.27028">
        <ele>126.92771676742</ele>
        <time>2021-05-02T08:36:51Z</time>
      </trkpt>
      <trkpt lat="46.40061" lon="0.27027">
        <ele>126.7655849047</ele>
        <time>2021-05-02T08:36:53Z</time>
      </trkpt>
      <trkpt lat="46.40065" lon="0.27026">
        <ele>126.57802094612</ele>
        <time>2021-05-02T08:36:55Z</time>
      </trkpt>
      <trkpt lat="46.40067" lon="0.27024">
        <ele>126.8368556127</ele>
        <time>2021-05-02T08:36:57Z</time>
      </trkpt>
      <trkpt lat="46.40069" lon="0.27024">
        <ele>126.60915963724</ele>
        <time>2021-05-02T08:36:59Z</time>
      </trkpt>
      <trkpt lat="46.40072" lon="0.27023">
        <ele>126.68281431403</ele>
        <time>2021-05-02T08:37:01Z</time>
      </trkpt>
      <trkpt lat="46.40074" lon="0.27025">
        <ele>126.48365872353</ele>
        <time>2021-05-02T08:37:04Z</time>
      </trkpt>
      <trkpt lat="46.40076" lon="0.27025">
        <ele>125.988088849</ele>
        <time>2021-05-02T08:37:06Z</time>
      </trkpt>
      <trkpt lat="46.40079" lon="0.27026">
        <ele>125.90195588861</ele>
        <time>2021-05-02T08:37:08Z</time>
      </trkpt>
      <trkpt lat="46.40081" lon="0.27026">
        <ele>126.15998176858</ele>
        <time>2021-05-02T08:37:09Z</time>
      </trkpt>
      <trkpt lat="46.40084" lon="0.27027">
        <ele>126.21521538682</ele>
        <time>2021-05-02T08:37:11Z</time>
      </trkpt>
      <trkpt lat="46.40086" lon="0.27028">
        <ele>125.8233335875</ele>
        <time>2021-05-02T08:37:13Z</time>
      </trkpt>
      <trkpt lat="46.40088" lon="0.27028">
        <ele>125.93450439349</ele>
        <time>2021-05-02T08:37:14Z</time>
      </trkpt>
      <trkpt lat="46.40091" lon="0.27029">
        <ele>125.81235845294</ele>
        <time>2021-05-02T08:37:16Z</time>
      </trkpt>
      <trkpt lat="46.40093" lon="0.27029">
        <ele>125.69084919244</ele>
        <time>2021-05-02T08:37:18Z</time>
      </trkpt>
      <trkpt lat="46.40096" lon="0.2703">
        <ele>126.34098441899</ele>
        <time>2021-05-02T08:37:20Z</time>
      </trkpt>
      <trkpt lat="46.401" lon="0.27031">
        <ele>126.36285331752</ele>
        <time>2021-05-02T08:37:22Z</time>
      </trkpt>
      <trkpt lat="46.40101" lon="0.27032">
        <ele>126.04106332082</ele>
        <time>2021-05-02T08:37:24Z</time>
      </trkpt>
      <trkpt lat="46.40104" lon="0.27033">
        <ele>125.6955573028</ele>
        <time>2021-05-02T08:37:26Z</time>
      </trkpt>
      <trkpt lat="46.40107" lon="0.27034">
        <ele>125.45416162536</ele>
        <time>2021-05-02T08:37:28Z</time>
      </trkpt>
      <trkpt lat="46.40109" lon="0.27035">
        <ele>124.98147589434</ele>
        <time>2021-05-02T08:37:30Z</time>
      </trkpt>
      <trkpt lat="46.40112" lon="0.27036">
        <ele>125.42764206883</ele>
        <time>2021-05-02T08:37:32Z</time>
      </trkpt>
      <trkpt lat="46.40115" lon="0.27037">
        <ele>125.32985661272</ele>
        <time>2021-05-02T08:37:34Z</time>
      </trkpt>
      <trkpt lat="46.40117" lon="0.27039">
        <ele>125.07254615333</ele>
        <time>2021-05-02T08:37:36Z</time>
      </trkpt>
      <trkpt lat="46.40119" lon="0.2704">
        <ele>125.41336692497</ele>
        <time>2021-05-02T08:37:38Z</time>
      </trkpt>
      <trkpt lat="46.40122" lon="0.27041">
        <ele>125.62704962678</ele>
        <time>2021-05-02T08:37:40Z</time>
      </trkpt>
      <trkpt lat="46.40125" lon="0.27043">
        <ele>125.28210338391</ele>
        <time>2021-05-02T08:37:42Z</time>
      </trkpt>
      <trkpt lat="46.40127" lon="0.27042">
        <ele>125.00528787076</ele>
        <time>2021-05-02T08:37:44Z</time>
      </trkpt>
      <trkpt lat="46.40129" lon="0.27042">
        <ele>125.2142430963</ele>
        <time>2021-05-02T08:37:45Z</time>
      </trkpt>
      <trkpt lat="46.40131" lon="0.27041">
        <ele>125.07298914623</ele>
        <time>2021-05-02T08:37:47Z</time>
      </trkpt>
      <trkpt lat="46.40133" lon="0.2704">
        <ele>124.81062219478</ele>
        <time>2021-05-02T08:37:49Z</time>
      </trkpt>
      <trkpt lat="46.40135" lon="0.27038">
        <ele>125.09720449802</ele>
        <time>2021-05-02T08:37:51Z</time>
      </trkpt>
      <trkpt lat="46.40137" lon="0.27035">
        <ele>125.26946414914</ele>
        <time>2021-05-02T08:37:53Z</time>
      </trkpt>
      <trkpt lat="46.40139" lon="0.27033">
        <ele>125.27349692117</ele>
        <time>2021-05-02T08:37:55Z</time>
      </trkpt>
      <trkpt lat="46.40141" lon="0.27031">
        <ele>125.01814332046</ele>
        <time>2021-05-02T08:37:56Z</time>
      </trkpt>
      <trkpt lat="46.40143" lon="0.27027">
        <ele>125.29719398171</ele>
        <time>2021-05-02T08:37:58Z</time>
      </trkpt>
      <trkpt lat="46.40145" lon="0.27024">
        <ele>125.58634147048</ele>
        <time>2021-05-02T08:38:00Z</time>
      </trkpt>
      <trkpt lat="46.40147" lon="0.27021">
        <ele>125.38391837291</ele>
        <time>2021-05-02T08:38:02Z</time>
      </trkpt>
      <trkpt lat="46.40149" lon="0.27017">
        <ele>125.2088889135</ele>
        <time>2021-05-02T08:38:04Z</time>
      </trkpt>
      <trkpt lat="46.40151" lon="0.27014">
        <ele>125.33345420193</ele>
        <time>2021-05-02T08:38:06Z</time>
      </trkpt>
      <trkpt lat="46.40153" lon="0.27011">
        <ele>125.29096877389</ele>
        <time>2021-05-02T08:38:08Z</time>
      </trkpt>
      <trkpt lat="46.40155" lon="0.27008">
        <ele>125.61691599153</ele>
        <time>2021-05-02T08:38:10Z</time>
      </trkpt>
      <trkpt lat="46.40157" lon="0.27005">
        <ele>125.46292622574</ele>
        <time>2021-05-02T08:38:12Z</time>
      </trkpt>
      <trkpt lat="46.40159" lon="0.27002">
        <ele>125.84523340128</ele>
        <time>2021-05-02T08:38:14Z</time>
      </trkpt>
      <trkpt lat="46.40161" lon="0.26999">
        <ele>125.45639081672</ele>
        <time>2021-05-02T08:38:16Z</time>
      </trkpt>
      <trkpt lat="46.40163" lon="0.26996">
        <ele>125.44771423656</ele>
        <time>2021-05-02T08:38:18Z</time>
      </trkpt>
      <trkpt lat="46.40165" lon="0.26994">
        <ele>125.26357949898</ele>
        <time>2021-05-02T08:38:20Z</time>
      </trkpt>
      <trkpt lat="46.40166" lon="0.26991">
        <ele>125.37579408567</ele>
        <time>2021-05-02T08:38:22Z</time>
      </trkpt>
      <trkpt lat="46.40167" lon="0.26988">
        <ele>124.78116610553</ele>
        <time>2021-05-02T08:38:24Z</time>
      </trkpt>
      <trkpt lat="46.4017" lon="0.26985">
        <ele>124.87020852976</ele>
        <time>2021-05-02T08:38:26Z</time>
      </trkpt>
      <trkpt lat="46.40171" lon="0.26983">
        <ele>125.55778384116</ele>
        <time>2021-05-02T08:38:29Z</time>
      </trkpt>
      <trkpt lat="46.40173" lon="0.26981">
        <ele>125.3414321607</ele>
        <time>2021-05-02T08:38:31Z</time>
      </trkpt>
      <trkpt lat="46.40175" lon="0.26978">
        <ele>125.22629732359</ele>
        <time>2021-05-02T08:38:33Z</time>
      </trkpt>
      <trkpt lat="46.40177" lon="0.26976">
        <ele>124.9299981622</ele>
        <time>2021-05-02T08:38:35Z</time>
      </trkpt>
      <trkpt lat="46.40179" lon="0.26975">
        <ele>124.96993472334</ele>
        <time>2021-05-02T08:38:36Z</time>
      </trkpt>
      <trkpt lat="46.40181" lon="0.26972">
        <ele>124.59621311724</ele>
        <time>2021-05-02T08:38:38Z</time>
      </trkpt>
      <trkpt lat="46.40183" lon="0.26971">
        <ele>124.57807132602</ele>
        <time>2021-05-02T08:38:40Z</time>
      </trkpt>
      <trkpt lat="46.40186" lon="0.26969">
        <ele>124.36675061379</ele>
        <time>2021-05-02T08:38:42Z</time>
      </trkpt>
      <trkpt lat="46.40189" lon="0.26968">
        <ele>125.00193032622</ele>
        <time>2021-05-02T08:38:44Z</time>
      </trkpt>
      <trkpt lat="46.40192" lon="0.26966">
        <ele>124.42458123341</ele>
        <time>2021-05-02T08:38:46Z</time>
      </trkpt>
      <trkpt lat="46.40195" lon="0.26964">
        <ele>124.55715160444</ele>
        <time>2021-05-02T08:38:49Z</time>
      </trkpt>
      <trkpt lat="46.40197" lon="0.26963">
        <ele>124.2376061501</ele>
        <time>2021-05-02T08:38:51Z</time>
      </trkpt>
      <trkpt lat="46.402" lon="0.26962">
        <ele>123.868516149</ele>
        <time>2021-05-02T08:38:53Z</time>
      </trkpt>
      <trkpt lat="46.40202" lon="0.26961">
        <ele>124.29849472642</ele>
        <time>2021-05-02T08:38:55Z</time>
      </trkpt>
      <trkpt lat="46.40204" lon="0.2696">
        <ele>124.21388443839</ele>
        <time>2021-05-02T08:38:57Z</time>
      </trkpt>
      <trkpt lat="46.40208" lon="0.26959">
        <ele>123.88745441474</ele>
        <time>2021-05-02T08:38:59Z</time>
      </trkpt>
      <trkpt lat="46.4021" lon="0.26958">
        <ele>123.91462260857</ele>
        <time>2021-05-02T08:39:01Z</time>
      </trkpt>
      <trkpt lat="46.40212" lon="0.26957">
        <ele>124.23467994016</ele>
        <time>2021-05-02T08:39:03Z</time>
      </trkpt>
      <trkpt lat="46.40215" lon="0.26956">
        <ele>123.33270850126</ele>
        <time>2021-05-02T08:39:06Z</time>
      </trkpt>
      <trkpt lat="46.40218" lon="0.26955">
        <ele>123.38973097317</ele>
        <time>2021-05-02T08:39:08Z</time>
      </trkpt>
      <trkpt lat="46.40221" lon="0.26954">
        <ele>123.50489200931</ele>
        <time>2021-05-02T08:39:10Z</time>
      </trkpt>
      <trkpt lat="46.40223" lon="0.26953">
        <ele>122.99600344803</ele>
        <time>2021-05-02T08:39:12Z</time>
      </trkpt>
      <trkpt lat="46.40225" lon="0.26952">
        <ele>123.44735295698</ele>
        <time>2021-05-02T08:39:14Z</time>
      </trkpt>
      <trkpt lat="46.40229" lon="0.26951">
        <ele>123.80044830404</ele>
        <time>2021-05-02T08:39:16Z</time>
      </trkpt>
      <trkpt lat="46.40231" lon="0.2695">
        <ele>123.31563930959</ele>
        <time>2021-05-02T08:39:19Z</time>
      </trkpt>
      <trkpt lat="46.40233" lon="0.2695">
        <ele>123.303922683</ele>
        <time>2021-05-02T08:39:20Z</time>
      </trkpt>
      <trkpt lat="46.40235" lon="0.26949">
        <ele>122.98727834318</ele>
        <time>2021-05-02T08:39:22Z</time>
      </trkpt>
      <trkpt lat="46.40238" lon="0.26948">
        <ele>123.3748360062</ele>
        <time>2021-05-02T08:39:24Z</time>
      </trkpt>
      <trkpt lat="46.4024" lon="0.26947">
        <ele>123.61529044155</ele>
        <time>2021-05-02T08:39:25Z</time>
      </trkpt>
      <trkpt lat="46.40242" lon="0.26946">
        <ele>123.21341934614</ele>
        <time>2021-05-02T08:39:28Z</time>
      </trkpt>
      <trkpt lat="46.40244" lon="0.26944">
        <ele>123.54416639637</ele>
        <time>2021-05-02T08:39:30Z</time>
      </trkpt>
      <trkpt lat="46.40247" lon="0.26944">
        <ele>123.12235671002</ele>
        <time>2021-05-02T08:39:32Z</time>
      </trkpt>
      <trkpt lat="46.40249" lon="0.26943">
        <ele>123.15314636286</ele>
        <time>2021-05-02T08:39:34Z</time>
      </trkpt>
      <trkpt lat="46.40252" lon="0.26942">
        <ele>123.15686885267</ele>
        <time>2021-05-02T08:39:36Z</time>
      </trkpt>
      <trkpt lat="46.40255" lon="0.26941">
        <ele>123.53994220495</ele>
        <time>2021-05-02T08:39:38Z</time>
      </trkpt>
      <trkpt lat="46.40257" lon="0.26939">
        <ele>123.52413607389</ele>
        <time>2021-05-02T08:39:41Z</time>
      </trkpt>
      <trkpt lat="46.4026" lon="0.26938">
        <ele>122.97685108706</ele>
        <time>2021-05-02T08:39:44Z</time>
      </trkpt>
      <trkpt lat="46.40262" lon="0.26937">
        <ele>122.77048645448</ele>
        <time>2021-05-02T08:39:46Z</time>
      </trkpt>
      <trkpt lat="46.40265" lon="0.26936">
        <ele>122.52650762536</ele>
        <time>2021-05-02T08:39:48Z</time>
      </trkpt>
      <trkpt lat="46.40267" lon="0.26935">
        <ele>122.86847724766</ele>
        <time>2021-05-02T08:39:50Z</time>
      </trkpt>
      <trkpt lat="46.40269" lon="0.26934">
        <ele>122.94153970387</ele>
        <time>2021-05-02T08:39:52Z</time>
      </trkpt>
      <trkpt lat="46.40273" lon="0.26933">
        <ele>122.71518738382</ele>
        <time>2021-05-02T08:39:54Z</time>
      </trkpt>
      <trkpt lat="46.40275" lon="0.26932">
        <ele>122.4457894247</ele>
        <time>2021-05-02T08:39:56Z</time>
      </trkpt>
      <trkpt lat="46.40278" lon="0.2693">
        <ele>122.95000793133</ele>
        <time>2021-05-02T08:39:58Z</time>
      </trkpt>
      <trkpt lat="46.4028" lon="0.26929">
        <ele>123.17532576993</ele>
        <time>2021-05-02T08:40:00Z</time>
      </trkpt>
      <trkpt lat="46.40283" lon="0.26929">
        <ele>123.27330818586</ele>
        <time>2021-05-02T08:40:02Z</time>
      </trkpt>
      <trkpt lat="46.40285" lon="0.26928">
        <ele>122.71273093391</ele>
        <time>2021-05-02T08:40:04Z</time>
      </trkpt>
      <trkpt lat="46.40288" lon="0.26926">
        <ele>122.7925040191</ele>
        <time>2021-05-02T08:40:06Z</time>
      </trkpt>
      <trkpt lat="46.40291" lon="0.26925">
        <ele>122.89794857893</ele>
        <time>2021-05-02T08:40:08Z</time>
      </trkpt>
      <trkpt lat="46.40294" lon="0.26924">
        <ele>122.83329399116</ele>
        <time>2021-05-02T08:40:11Z</time>
      </trkpt>
      <trkpt lat="46.40297" lon="0.26922">
        <ele>122.77626243327</ele>
        <time>2021-05-02T08:40:13Z</time>
      </trkpt>
      <trkpt lat="46.403" lon="0.26921">
        <ele>122.57484147884</ele>
        <time>2021-05-02T08:40:15Z</time>
      </trkpt>
      <trkpt lat="46.40302" lon="0.2692">
        <ele>122.68892778177</ele>
        <time>2021-05-02T08:40:17Z</time>
      </trkpt>
      <trkpt lat="46.40305" lon="0.26919">
        <ele>122.94608526956</ele>
        <time>2021-05-02T08:40:19Z</time>
      </trkpt>
      <trkpt lat="46.40307" lon="0.26918">
        <ele>122.44588799775</ele>
        <time>2021-05-02T08:40:20Z</time>
      </trkpt>
      <trkpt lat="46.40309" lon="0.26918">
        <ele>122.25350947771</ele>
        <time>2021-05-02T08:40:21Z</time>
      </trkpt>
      <trkpt lat="46.40311" lon="0.26917">
        <ele>122.24079378322</ele>
        <time>2021-05-02T08:40:23Z</time>
      </trkpt>
      <trkpt lat="46.40314" lon="0.26916">
        <ele>122.08438990265</ele>
        <time>2021-05-02T08:40:25Z</time>
      </trkpt>
      <trkpt lat="46.40317" lon="0.26914">
        <ele>122.06439966336</ele>
        <time>2021-05-02T08:40:27Z</time>
      </trkpt>
      <trkpt lat="46.4032" lon="0.26913">
        <ele>121.88637043629</ele>
        <time>2021-05-02T08:40:29Z</time>
      </trkpt>
      <trkpt lat="46.40322" lon="0.26911">
        <ele>121.68941708747</ele>
        <time>2021-05-02T08:40:31Z</time>
      </trkpt>
      <trkpt lat="46.40324" lon="0.2691">
        <ele>121.70849238243</ele>
        <time>2021-05-02T08:40:33Z</time>
      </trkpt>
      <trkpt lat="46.40326" lon="0.26908">
        <ele>121.5921155028</ele>
        <time>2021-05-02T08:40:36Z</time>
      </trkpt>
      <trkpt lat="46.40328" lon="0.26907">
        <ele>121.90672424156</ele>
        <time>2021-05-02T08:40:38Z</time>
      </trkpt>
      <trkpt lat="46.40331" lon="0.26905">
        <ele>121.46657997463</ele>
        <time>2021-05-02T08:40:40Z</time>
      </trkpt>
      <trkpt lat="46.40333" lon="0.26904">
        <ele>121.34615449421</ele>
        <time>2021-05-02T08:40:42Z</time>
      </trkpt>
      <trkpt lat="46.40335" lon="0.26903">
        <ele>121.4403919531</ele>
        <time>2021-05-02T08:40:44Z</time>
      </trkpt>
      <trkpt lat="46.40336" lon="0.26901">
        <ele>121.76914502308</ele>
        <time>2021-05-02T08:40:46Z</time>
      </trkpt>
      <trkpt lat="46.40339" lon="0.26899">
        <ele>121.3136231387</ele>
        <time>2021-05-02T08:40:48Z</time>
      </trkpt>
      <trkpt lat="46.40341" lon="0.26898">
        <ele>121.20276015811</ele>
        <time>2021-05-02T08:40:50Z</time>
      </trkpt>
      <trkpt lat="46.40343" lon="0.26897">
        <ele>120.9631200796</ele>
        <time>2021-05-02T08:40:52Z</time>
      </trkpt>
      <trkpt lat="46.40345" lon="0.26896">
        <ele>121.31120879203</ele>
        <time>2021-05-02T08:40:53Z</time>
      </trkpt>
      <trkpt lat="46.40347" lon="0.26895">
        <ele>120.93557526171</ele>
        <time>2021-05-02T08:40:55Z</time>
      </trkpt>
      <trkpt lat="46.4035" lon="0.26893">
        <ele>121.00863239821</ele>
        <time>2021-05-02T08:40:57Z</time>
      </trkpt>
      <trkpt lat="46.40351" lon="0.26892">
        <ele>120.86785532441</ele>
        <time>2021-05-02T08:40:59Z</time>
      </trkpt>
      <trkpt lat="46.40354" lon="0.26891">
        <ele>120.89125232678</ele>
        <time>2021-05-02T08:41:01Z</time>
      </trkpt>
      <trkpt lat="46.40357" lon="0.26889">
        <ele>120.67913557589</ele>
        <time>2021-05-02T08:41:03Z</time>
      </trkpt>
      <trkpt lat="46.40358" lon="0.26887">
        <ele>120.48018682096</ele>
        <time>2021-05-02T08:41:05Z</time>
      </trkpt>
      <trkpt lat="46.40361" lon="0.26886">
        <ele>120.53769837227</ele>
        <time>2021-05-02T08:41:07Z</time>
      </trkpt>
      <trkpt lat="46.40364" lon="0.26885">
        <ele>120.49780811649</ele>
        <time>2021-05-02T08:41:09Z</time>
      </trkpt>
      <trkpt lat="46.40367" lon="0.26884">
        <ele>120.08624478988</ele>
        <time>2021-05-02T08:41:10Z</time>
      </trkpt>
      <trkpt lat="46.4037" lon="0.26882">
        <ele>120.48330343422</ele>
        <time>2021-05-02T08:41:13Z</time>
      </trkpt>
      <trkpt lat="46.40372" lon="0.26881">
        <ele>120.14306885935</ele>
        <time>2021-05-02T08:41:15Z</time>
      </trkpt>
      <trkpt lat="46.40375" lon="0.2688">
        <ele>120.58998026233</ele>
        <time>2021-05-02T08:41:17Z</time>
      </trkpt>
      <trkpt lat="46.40376" lon="0.26878">
        <ele>120.22477547172</ele>
        <time>2021-05-02T08:41:19Z</time>
      </trkpt>
      <trkpt lat="46.40378" lon="0.26877">
        <ele>120.12616169639</ele>
        <time>2021-05-02T08:41:21Z</time>
      </trkpt>
      <trkpt lat="46.4038" lon="0.26877">
        <ele>120.18514195178</ele>
        <time>2021-05-02T08:41:22Z</time>
      </trkpt>
      <trkpt lat="46.40383" lon="0.26875">
        <ele>120.20092656184</ele>
        <time>2021-05-02T08:41:24Z</time>
      </trkpt>
      <trkpt lat="46.40384" lon="0.26874">
        <ele>120.66487112921</ele>
        <time>2021-05-02T08:41:26Z</time>
      </trkpt>
      <trkpt lat="46.40386" lon="0.26874">
        <ele>120.07440651208</ele>
        <time>2021-05-02T08:41:29Z</time>
      </trkpt>
      <trkpt lat="46.40389" lon="0.26872">
        <ele>120.8764491491</ele>
        <time>2021-05-02T08:41:30Z</time>
      </trkpt>
      <trkpt lat="46.40392" lon="0.26871">
        <ele>120.47882696893</ele>
        <time>2021-05-02T08:41:32Z</time>
      </trkpt>
      <trkpt lat="46.40396" lon="0.26871">
        <ele>120.20319565106</ele>
        <time>2021-05-02T08:41:34Z</time>
      </trkpt>
      <trkpt lat="46.40398" lon="0.26873">
        <ele>120.24229258765</ele>
        <time>2021-05-02T08:41:36Z</time>
      </trkpt>
      <trkpt lat="46.40401" lon="0.26874">
        <ele>119.98191948328</ele>
        <time>2021-05-02T08:41:38Z</time>
      </trkpt>
      <trkpt lat="46.40403" lon="0.26876">
        <ele>119.79610299878</ele>
        <time>2021-05-02T08:41:40Z</time>
      </trkpt>
      <trkpt lat="46.40406" lon="0.26878">
        <ele>119.42248366494</ele>
        <time>2021-05-02T08:41:42Z</time>
      </trkpt>
      <trkpt lat="46.40407" lon="0.2688">
        <ele>119.62912073452</ele>
        <time>2021-05-02T08:41:44Z</time>
      </trkpt>
      <trkpt lat="46.40409" lon="0.26882">
        <ele>119.39119998366</ele>
        <time>2021-05-02T08:41:46Z</time>
      </trkpt>
      <trkpt lat="46.40411" lon="0.26884">
        <ele>119.63359879982</ele>
        <time>2021-05-02T08:41:47Z</time>
      </trkpt>
      <trkpt lat="46.40413" lon="0.26886">
        <ele>119.84322416782</ele>
        <time>2021-05-02T08:41:49Z</time>
      </trkpt>
      <trkpt lat="46.40415" lon="0.26888">
        <ele>119.21263453271</ele>
        <time>2021-05-02T08:41:51Z</time>
      </trkpt>
      <trkpt lat="46.40417" lon="0.26891">
        <ele>119.57824615389</ele>
        <time>2021-05-02T08:41:53Z</time>
      </trkpt>
      <trkpt lat="46.40419" lon="0.26894">
        <ele>118.92718060128</ele>
        <time>2021-05-02T08:41:55Z</time>
      </trkpt>
      <trkpt lat="46.40421" lon="0.26897">
        <ele>119.39944074024</ele>
        <time>2021-05-02T08:41:57Z</time>
      </trkpt>
      <trkpt lat="46.40422" lon="0.269">
        <ele>119.55369608663</ele>
        <time>2021-05-02T08:41:59Z</time>
      </trkpt>
      <trkpt lat="46.40424" lon="0.26904">
        <ele>119.26212255657</ele>
        <time>2021-05-02T08:42:01Z</time>
      </trkpt>
      <trkpt lat="46.40426" lon="0.26907">
        <ele>119.08919777256</ele>
        <time>2021-05-02T08:42:03Z</time>
      </trkpt>
      <trkpt lat="46.40428" lon="0.2691">
        <ele>119.02566786483</ele>
        <time>2021-05-02T08:42:05Z</time>
      </trkpt>
      <trkpt lat="46.4043" lon="0.26913">
        <ele>119.08934855461</ele>
        <time>2021-05-02T08:42:07Z</time>
      </trkpt>
      <trkpt lat="46.40431" lon="0.26917">
        <ele>119.58871721383</ele>
        <time>2021-05-02T08:42:09Z</time>
      </trkpt>
      <trkpt lat="46.40433" lon="0.2692">
        <ele>119.72912191413</ele>
        <time>2021-05-02T08:42:11Z</time>
      </trkpt>
      <trkpt lat="46.40434" lon="0.26923">
        <ele>118.9396927515</ele>
        <time>2021-05-02T08:42:13Z</time>
      </trkpt>
      <trkpt lat="46.40435" lon="0.26926">
        <ele>119.45573826693</ele>
        <time>2021-05-02T08:42:15Z</time>
      </trkpt>
      <trkpt lat="46.40437" lon="0.2693">
        <ele>119.56805763487</ele>
        <time>2021-05-02T08:42:17Z</time>
      </trkpt>
      <trkpt lat="46.40438" lon="0.26933">
        <ele>119.68803839013</ele>
        <time>2021-05-02T08:42:19Z</time>
      </trkpt>
      <trkpt lat="46.40438" lon="0.26936">
        <ele>120.06835105829</ele>
        <time>2021-05-02T08:42:21Z</time>
      </trkpt>
      <trkpt lat="46.4044" lon="0.26939">
        <ele>119.89475716464</ele>
        <time>2021-05-02T08:42:23Z</time>
      </trkpt>
      <trkpt lat="46.40441" lon="0.26943">
        <ele>120.35075106099</ele>
        <time>2021-05-02T08:42:25Z</time>
      </trkpt>
      <trkpt lat="46.40442" lon="0.26946">
        <ele>120.24386316258</ele>
        <time>2021-05-02T08:42:27Z</time>
      </trkpt>
      <trkpt lat="46.40443" lon="0.2695">
        <ele>120.48068409041</ele>
        <time>2021-05-02T08:42:29Z</time>
      </trkpt>
      <trkpt lat="46.40444" lon="0.26953">
        <ele>120.58317207266</ele>
        <time>2021-05-02T08:42:30Z</time>
      </trkpt>
      <trkpt lat="46.40445" lon="0.26955">
        <ele>120.29928923585</ele>
        <time>2021-05-02T08:42:32Z</time>
      </trkpt>
      <trkpt lat="46.40445" lon="0.26959">
        <ele>120.14515955932</ele>
        <time>2021-05-02T08:42:34Z</time>
      </trkpt>
      <trkpt lat="46.40446" lon="0.26962">
        <ele>120.23439229559</ele>
        <time>2021-05-02T08:42:36Z</time>
      </trkpt>
      <trkpt lat="46.40447" lon="0.26966">
        <ele>120.30663340073</ele>
        <time>2021-05-02T08:42:38Z</time>
      </trkpt>
      <trkpt lat="46.40448" lon="0.2697">
        <ele>120.13046421204</ele>
        <time>2021-05-02T08:42:40Z</time>
      </trkpt>
      <trkpt lat="46.40449" lon="0.26973">
        <ele>120.70370583143</ele>
        <time>2021-05-02T08:42:42Z</time>
      </trkpt>
      <trkpt lat="46.40449" lon="0.26976">
        <ele>120.65986309759</ele>
        <time>2021-05-02T08:42:44Z</time>
      </trkpt>
      <trkpt lat="46.4045" lon="0.26981">
        <ele>120.60337092169</ele>
        <time>2021-05-02T08:42:46Z</time>
      </trkpt>
      <trkpt lat="46.4045" lon="0.26984">
        <ele>120.64920104668</ele>
        <time>2021-05-02T08:42:48Z</time>
      </trkpt>
      <trkpt lat="46.40451" lon="0.26987">
        <ele>120.4741643481</ele>
        <time>2021-05-02T08:42:50Z</time>
      </trkpt>
      <trkpt lat="46.40451" lon="0.26991">
        <ele>120.28016840294</ele>
        <time>2021-05-02T08:42:52Z</time>
      </trkpt>
      <trkpt lat="46.40452" lon="0.26994">
        <ele>119.93691545445</ele>
        <time>2021-05-02T08:42:54Z</time>
      </trkpt>
      <trkpt lat="46.40452" lon="0.26998">
        <ele>119.82957899012</ele>
        <time>2021-05-02T08:42:56Z</time>
      </trkpt>
      <trkpt lat="46.40453" lon="0.27002">
        <ele>119.96634693351</ele>
        <time>2021-05-02T08:42:58Z</time>
      </trkpt>
      <trkpt lat="46.40454" lon="0.27006">
        <ele>119.64446483273</ele>
        <time>2021-05-02T08:43:00Z</time>
      </trkpt>
      <trkpt lat="46.40454" lon="0.27011">
        <ele>120.38457669783</ele>
        <time>2021-05-02T08:43:02Z</time>
      </trkpt>
      <trkpt lat="46.40454" lon="0.27015">
        <ele>120.56279625837</ele>
        <time>2021-05-02T08:43:04Z</time>
      </trkpt>
      <trkpt lat="46.40455" lon="0.27019">
        <ele>120.68526348285</ele>
        <time>2021-05-02T08:43:06Z</time>
      </trkpt>
      <trkpt lat="46.40455" lon="0.27023">
        <ele>120.15572251193</ele>
        <time>2021-05-02T08:43:08Z</time>
      </trkpt>
      <trkpt lat="46.40456" lon="0.27026">
        <ele>120.13447470032</ele>
        <time>2021-05-02T08:43:10Z</time>
      </trkpt>
      <trkpt lat="46.40456" lon="0.2703">
        <ele>119.95049557183</ele>
        <time>2021-05-02T08:43:12Z</time>
      </trkpt>
      <trkpt lat="46.40456" lon="0.27034">
        <ele>120.01921434421</ele>
        <time>2021-05-02T08:43:14Z</time>
      </trkpt>
      <trkpt lat="46.40457" lon="0.27037">
        <ele>120.04260374419</ele>
        <time>2021-05-02T08:43:16Z</time>
      </trkpt>
      <trkpt lat="46.40457" lon="0.27041">
        <ele>120.33598383889</ele>
        <time>2021-05-02T08:43:18Z</time>
      </trkpt>
      <trkpt lat="46.40457" lon="0.27045">
        <ele>120.65912594274</ele>
        <time>2021-05-02T08:43:20Z</time>
      </trkpt>
      <trkpt lat="46.40458" lon="0.27049">
        <ele>120.20570902526</ele>
        <time>2021-05-02T08:43:22Z</time>
      </trkpt>
      <trkpt lat="46.40459" lon="0.27052">
        <ele>120.50705035683</ele>
        <time>2021-05-02T08:43:24Z</time>
      </trkpt>
      <trkpt lat="46.40459" lon="0.27057">
        <ele>121.17859989405</ele>
        <time>2021-05-02T08:43:26Z</time>
      </trkpt>
      <trkpt lat="46.40459" lon="0.27061">
        <ele>120.46235289518</ele>
        <time>2021-05-02T08:43:28Z</time>
      </trkpt>
      <trkpt lat="46.4046" lon="0.27064">
        <ele>120.56758044194</ele>
        <time>2021-05-02T08:43:30Z</time>
      </trkpt>
      <trkpt lat="46.4046" lon="0.27068">
        <ele>120.67060575821</ele>
        <time>2021-05-02T08:43:32Z</time>
      </trkpt>
      <trkpt lat="46.4046" lon="0.27072">
        <ele>120.65915698651</ele>
        <time>2021-05-02T08:43:34Z</time>
      </trkpt>
      <trkpt lat="46.40461" lon="0.27075">
        <ele>120.92652484309</ele>
        <time>2021-05-02T08:43:36Z</time>
      </trkpt>
      <trkpt lat="46.40461" lon="0.2708">
        <ele>120.40913571604</ele>
        <time>2021-05-02T08:43:38Z</time>
      </trkpt>
      <trkpt lat="46.40462" lon="0.27084">
        <ele>121.0102279475</ele>
        <time>2021-05-02T08:43:40Z</time>
      </trkpt>
      <trkpt lat="46.40462" lon="0.27088">
        <ele>120.77659991104</ele>
        <time>2021-05-02T08:43:42Z</time>
      </trkpt>
      <trkpt lat="46.40463" lon="0.27091">
        <ele>120.9906898737</ele>
        <time>2021-05-02T08:43:44Z</time>
      </trkpt>
      <trkpt lat="46.40464" lon="0.27095">
        <ele>120.34549202956</ele>
        <time>2021-05-02T08:43:46Z</time>
      </trkpt>
      <trkpt lat="46.40465" lon="0.27098">
        <ele>120.42239339557</ele>
        <time>2021-05-02T08:43:48Z</time>
      </trkpt>
      <trkpt lat="46.40465" lon="0.27102">
        <ele>120.6045218315</ele>
        <time>2021-05-02T08:43:50Z</time>
      </trkpt>
      <trkpt lat="46.40466" lon="0.27106">
        <ele>120.40327971708</ele>
        <time>2021-05-02T08:43:52Z</time>
      </trkpt>
      <trkpt lat="46.40466" lon="0.27109">
        <ele>120.61107940506</ele>
        <time>2021-05-02T08:43:54Z</time>
      </trkpt>
      <trkpt lat="46.40467" lon="0.27112">
        <ele>120.43372160941</ele>
        <time>2021-05-02T08:43:56Z</time>
      </trkpt>
      <trkpt lat="46.40468" lon="0.27115">
        <ele>120.95499418955</ele>
        <time>2021-05-02T08:43:58Z</time>
      </trkpt>
      <trkpt lat="46.40468" lon="0.27118">
        <ele>120.47262770589</ele>
        <time>2021-05-02T08:44:00Z</time>
      </trkpt>
      <trkpt lat="46.40469" lon="0.27123">
        <ele>120.38197643496</ele>
        <time>2021-05-02T08:44:02Z</time>
      </trkpt>
      <trkpt lat="46.4047" lon="0.27126">
        <ele>120.16767702997</ele>
        <time>2021-05-02T08:44:04Z</time>
      </trkpt>
      <trkpt lat="46.40471" lon="0.2713">
        <ele>120.4500731416</ele>
        <time>2021-05-02T08:44:06Z</time>
      </trkpt>
      <trkpt lat="46.40472" lon="0.27132">
        <ele>120.31122939195</ele>
        <time>2021-05-02T08:44:08Z</time>
      </trkpt>
      <trkpt lat="46.40473" lon="0.27136">
        <ele>120.03668518737</ele>
        <time>2021-05-02T08:44:10Z</time>
      </trkpt>
      <trkpt lat="46.40474" lon="0.2714">
        <ele>120.60683215503</ele>
        <time>2021-05-02T08:44:12Z</time>
      </trkpt>
      <trkpt lat="46.40475" lon="0.27144">
        <ele>121.10773277935</ele>
        <time>2021-05-02T08:44:14Z</time>
      </trkpt>
      <trkpt lat="46.40476" lon="0.27149">
        <ele>120.89778247476</ele>
        <time>2021-05-02T08:44:17Z</time>
      </trkpt>
      <trkpt lat="46.40477" lon="0.27152">
        <ele>120.41342142411</ele>
        <time>2021-05-02T08:44:19Z</time>
      </trkpt>
      <trkpt lat="46.40478" lon="0.27156">
        <ele>120.63502016105</ele>
        <time>2021-05-02T08:44:21Z</time>
      </trkpt>
      <trkpt lat="46.40479" lon="0.2716">
        <ele>120.4187753452</ele>
        <time>2021-05-02T08:44:23Z</time>
      </trkpt>
      <trkpt lat="46.4048" lon="0.27163">
        <ele>120.37782445736</ele>
        <time>2021-05-02T08:44:25Z</time>
      </trkpt>
      <trkpt lat="46.40481" lon="0.27167">
        <ele>120.205226928</ele>
        <time>2021-05-02T08:44:27Z</time>
      </trkpt>
      <trkpt lat="46.40482" lon="0.27171">
        <ele>120.38613011502</ele>
        <time>2021-05-02T08:44:29Z</time>
      </trkpt>
      <trkpt lat="46.40483" lon="0.27174">
        <ele>120.08402927313</ele>
        <time>2021-05-02T08:44:31Z</time>
      </trkpt>
      <trkpt lat="46.40484" lon="0.27178">
        <ele>120.29256920703</ele>
        <time>2021-05-02T08:44:33Z</time>
      </trkpt>
      <trkpt lat="46.40486" lon="0.27182">
        <ele>120.38325136527</ele>
        <time>2021-05-02T08:44:36Z</time>
      </trkpt>
      <trkpt lat="46.40486" lon="0.27186">
        <ele>120.25943034701</ele>
        <time>2021-05-02T08:44:38Z</time>
      </trkpt>
      <trkpt lat="46.40488" lon="0.2719">
        <ele>120.54617205448</ele>
        <time>2021-05-02T08:44:40Z</time>
      </trkpt>
      <trkpt lat="46.40488" lon="0.27193">
        <ele>120.24741076399</ele>
        <time>2021-05-02T08:44:42Z</time>
      </trkpt>
      <trkpt lat="46.40489" lon="0.27197">
        <ele>120.32456162944</ele>
        <time>2021-05-02T08:44:44Z</time>
      </trkpt>
      <trkpt lat="46.4049" lon="0.27201">
        <ele>120.61059377808</ele>
        <time>2021-05-02T08:44:46Z</time>
      </trkpt>
      <trkpt lat="46.40492" lon="0.27205">
        <ele>120.82096468844</ele>
        <time>2021-05-02T08:44:49Z</time>
      </trkpt>
      <trkpt lat="46.40493" lon="0.27208">
        <ele>120.84965500608</ele>
        <time>2021-05-02T08:44:51Z</time>
      </trkpt>
      <trkpt lat="46.40494" lon="0.27212">
        <ele>120.51025290694</ele>
        <time>2021-05-02T08:44:53Z</time>
      </trkpt>
      <trkpt lat="46.40495" lon="0.27216">
        <ele>120.69024207816</ele>
        <time>2021-05-02T08:44:55Z</time>
      </trkpt>
      <trkpt lat="46.40496" lon="0.2722">
        <ele>120.85689937696</ele>
        <time>2021-05-02T08:44:57Z</time>
      </trkpt>
      <trkpt lat="46.40496" lon="0.27223">
        <ele>120.60079694074</ele>
        <time>2021-05-02T08:44:59Z</time>
      </trkpt>
      <trkpt lat="46.40498" lon="0.27227">
        <ele>120.72555316985</ele>
        <time>2021-05-02T08:45:01Z</time>
      </trkpt>
      <trkpt lat="46.40499" lon="0.2723">
        <ele>120.72690962255</ele>
        <time>2021-05-02T08:45:03Z</time>
      </trkpt>
      <trkpt lat="46.405" lon="0.27234">
        <ele>120.29012564663</ele>
        <time>2021-05-02T08:45:05Z</time>
      </trkpt>
      <trkpt lat="46.40501" lon="0.27236">
        <ele>120.57703806087</ele>
        <time>2021-05-02T08:45:07Z</time>
      </trkpt>
      <trkpt lat="46.40501" lon="0.2724">
        <ele>120.50111411419</ele>
        <time>2021-05-02T08:45:09Z</time>
      </trkpt>
      <trkpt lat="46.40502" lon="0.27243">
        <ele>120.52321827412</ele>
        <time>2021-05-02T08:45:11Z</time>
      </trkpt>
      <trkpt lat="46.40503" lon="0.27246">
        <ele>120.08459203411</ele>
        <time>2021-05-02T08:45:13Z</time>
      </trkpt>
      <trkpt lat="46.40504" lon="0.27251">
        <ele>120.62469241768</ele>
        <time>2021-05-02T08:45:15Z</time>
      </trkpt>
      <trkpt lat="46.40505" lon="0.27254">
        <ele>120.03243341856</ele>
        <time>2021-05-02T08:45:17Z</time>
      </trkpt>
      <trkpt lat="46.40506" lon="0.27258">
        <ele>120.31185517646</ele>
        <time>2021-05-02T08:45:19Z</time>
      </trkpt>
      <trkpt lat="46.40506" lon="0.27262">
        <ele>120.38532673847</ele>
        <time>2021-05-02T08:45:21Z</time>
      </trkpt>
      <trkpt lat="46.40507" lon="0.27264">
        <ele>120.62426147889</ele>
        <time>2021-05-02T08:45:23Z</time>
      </trkpt>
      <trkpt lat="46.40508" lon="0.27268">
        <ele>120.03068778943</ele>
        <time>2021-05-02T08:45:25Z</time>
      </trkpt>
      <trkpt lat="46.40509" lon="0.27272">
        <ele>120.22194227204</ele>
        <time>2021-05-02T08:45:27Z</time>
      </trkpt>
      <trkpt lat="46.4051" lon="0.27276">
        <ele>120.26740103401</ele>
        <time>2021-05-02T08:45:29Z</time>
      </trkpt>
      <trkpt lat="46.40511" lon="0.27279">
        <ele>120.49127769656</ele>
        <time>2021-05-02T08:45:31Z</time>
      </trkpt>
      <trkpt lat="46.40512" lon="0.27283">
        <ele>120.30709147174</ele>
        <time>2021-05-02T08:45:33Z</time>
      </trkpt>
      <trkpt lat="46.40513" lon="0.27286">
        <ele>120.37296159938</ele>
        <time>2021-05-02T08:45:35Z</time>
      </trkpt>
      <trkpt lat="46.40513" lon="0.27289">
        <ele>120.67793724127</ele>
        <time>2021-05-02T08:45:37Z</time>
      </trkpt>
      <trkpt lat="46.40514" lon="0.27293">
        <ele>120.49777514581</ele>
        <time>2021-05-02T08:45:39Z</time>
      </trkpt>
      <trkpt lat="46.40515" lon="0.27296">
        <ele>120.04654132109</ele>
        <time>2021-05-02T08:45:41Z</time>
      </trkpt>
      <trkpt lat="46.40516" lon="0.27299">
        <ele>120.12853266578</ele>
        <time>2021-05-02T08:45:42Z</time>
      </trkpt>
      <trkpt lat="46.40516" lon="0.27303">
        <ele>120.60914328787</ele>
        <time>2021-05-02T08:45:45Z</time>
      </trkpt>
      <trkpt lat="46.40517" lon="0.27307">
        <ele>120.20014047995</ele>
        <time>2021-05-02T08:45:47Z</time>
      </trkpt>
      <trkpt lat="46.40518" lon="0.2731">
        <ele>120.03656619973</ele>
        <time>2021-05-02T08:45:49Z</time>
      </trkpt>
      <trkpt lat="46.40519" lon="0.27313">
        <ele>121.27464058064</ele>
        <time>2021-05-02T08:45:51Z</time>
      </trkpt>
      <trkpt lat="46.4052" lon="0.27316">
        <ele>120.93366802577</ele>
        <time>2021-05-02T08:45:52Z</time>
      </trkpt>
      <trkpt lat="46.4052" lon="0.27319">
        <ele>120.83222298604</ele>
        <time>2021-05-02T08:45:54Z</time>
      </trkpt>
      <trkpt lat="46.40521" lon="0.27322">
        <ele>120.20946749952</ele>
        <time>2021-05-02T08:45:56Z</time>
      </trkpt>
      <trkpt lat="46.40522" lon="0.27326">
        <ele>120.55612847023</ele>
        <time>2021-05-02T08:45:58Z</time>
      </trkpt>
      <trkpt lat="46.40523" lon="0.27329">
        <ele>120.50749131758</ele>
        <time>2021-05-02T08:46:00Z</time>
      </trkpt>
      <trkpt lat="46.40524" lon="0.27332">
        <ele>120.76195286494</ele>
        <time>2021-05-02T08:46:02Z</time>
      </trkpt>
      <trkpt lat="46.40525" lon="0.27335">
        <ele>120.86824872158</ele>
        <time>2021-05-02T08:46:03Z</time>
      </trkpt>
      <trkpt lat="46.40526" lon="0.27338">
        <ele>120.84164542798</ele>
        <time>2021-05-02T08:46:05Z</time>
      </trkpt>
      <trkpt lat="46.40527" lon="0.27342">
        <ele>120.63492549211</ele>
        <time>2021-05-02T08:46:07Z</time>
      </trkpt>
      <trkpt lat="46.40528" lon="0.27345">
        <ele>120.17900939193</ele>
        <time>2021-05-02T08:46:09Z</time>
      </trkpt>
      <trkpt lat="46.40529" lon="0.27348">
        <ele>120.73310897592</ele>
        <time>2021-05-02T08:46:11Z</time>
      </trkpt>
      <trkpt lat="46.40531" lon="0.27352">
        <ele>120.20352769643</ele>
        <time>2021-05-02T08:46:13Z</time>
      </trkpt>
      <trkpt lat="46.40532" lon="0.27356">
        <ele>120.93153066467</ele>
        <time>2021-05-02T08:46:15Z</time>
      </trkpt>
      <trkpt lat="46.40533" lon="0.27358">
        <ele>120.3226135429</ele>
        <time>2021-05-02T08:46:17Z</time>
      </trkpt>
      <trkpt lat="46.40534" lon="0.27361">
        <ele>120.28412056062</ele>
        <time>2021-05-02T08:46:19Z</time>
      </trkpt>
      <trkpt lat="46.40535" lon="0.27366">
        <ele>120.40089032054</ele>
        <time>2021-05-02T08:46:21Z</time>
      </trkpt>
      <trkpt lat="46.40536" lon="0.27369">
        <ele>120.88160269801</ele>
        <time>2021-05-02T08:46:24Z</time>
      </trkpt>
      <trkpt lat="46.40537" lon="0.27373">
        <ele>120.2909203833</ele>
        <time>2021-05-02T08:46:26Z</time>
      </trkpt>
      <trkpt lat="46.40538" lon="0.27377">
        <ele>120.28943028487</ele>
        <time>2021-05-02T08:46:28Z</time>
      </trkpt>
      <trkpt lat="46.4054" lon="0.27378">
        <ele>119.98413761891</ele>
        <time>2021-05-02T08:46:30Z</time>
      </trkpt>
      <trkpt lat="46.4054" lon="0.27382">
        <ele>120.35553130601</ele>
        <time>2021-05-02T08:46:32Z</time>
      </trkpt>
      <trkpt lat="46.40541" lon="0.27385">
        <ele>120.92297341954</ele>
        <time>2021-05-02T08:46:33Z</time>
      </trkpt>
      <trkpt lat="46.40542" lon="0.27388">
        <ele>120.45925603248</ele>
        <time>2021-05-02T08:46:35Z</time>
      </trkpt>
      <trkpt lat="46.40543" lon="0.27392">
        <ele>120.1171886744</ele>
        <time>2021-05-02T08:46:37Z</time>
      </trkpt>
      <trkpt lat="46.40544" lon="0.27394">
        <ele>120.55611971021</ele>
        <time>2021-05-02T08:46:38Z</time>
      </trkpt>
      <trkpt lat="46.40545" lon="0.27398">
        <ele>120.32169044204</ele>
        <time>2021-05-02T08:46:41Z</time>
      </trkpt>
      <trkpt lat="46.40545" lon="0.27401">
        <ele>120.31143789645</ele>
        <time>2021-05-02T08:46:42Z</time>
      </trkpt>
      <trkpt lat="46.40546" lon="0.27404">
        <ele>120.46188590489</ele>
        <time>2021-05-02T08:46:44Z</time>
      </trkpt>
      <trkpt lat="46.40548" lon="0.27408">
        <ele>120.58572849911</ele>
        <time>2021-05-02T08:46:46Z</time>
      </trkpt>
      <trkpt lat="46.40549" lon="0.27411">
        <ele>120.26204239856</ele>
        <time>2021-05-02T08:46:48Z</time>
      </trkpt>
      <trkpt lat="46.40549" lon="0.27416">
        <ele>120.38212661259</ele>
        <time>2021-05-02T08:46:50Z</time>
      </trkpt>
      <trkpt lat="46.4055" lon="0.27419">
        <ele>121.17044186965</ele>
        <time>2021-05-02T08:46:52Z</time>
      </trkpt>
      <trkpt lat="46.40551" lon="0.27423">
        <ele>120.49859354366</ele>
        <time>2021-05-02T08:46:54Z</time>
      </trkpt>
      <trkpt lat="46.40552" lon="0.27427">
        <ele>120.572298076</ele>
        <time>2021-05-02T08:46:56Z</time>
      </trkpt>
      <trkpt lat="46.40552" lon="0.2743">
        <ele>120.48337351251</ele>
        <time>2021-05-02T08:46:58Z</time>
      </trkpt>
      <trkpt lat="46.40553" lon="0.27435">
        <ele>120.51265641954</ele>
        <time>2021-05-02T08:47:00Z</time>
      </trkpt>
      <trkpt lat="46.40554" lon="0.27439">
        <ele>120.22560027428</ele>
        <time>2021-05-02T08:47:03Z</time>
      </trkpt>
      <trkpt lat="46.40555" lon="0.27443">
        <ele>120.29336973932</ele>
        <time>2021-05-02T08:47:05Z</time>
      </trkpt>
      <trkpt lat="46.40555" lon="0.27447">
        <ele>120.25105130952</ele>
        <time>2021-05-02T08:47:07Z</time>
      </trkpt>
      <trkpt lat="46.40557" lon="0.2745">
        <ele>120.15697943326</ele>
        <time>2021-05-02T08:47:09Z</time>
      </trkpt>
      <trkpt lat="46.40557" lon="0.27454">
        <ele>120.29987245053</ele>
        <time>2021-05-02T08:47:11Z</time>
      </trkpt>
      <trkpt lat="46.40558" lon="0.27458">
        <ele>120.03670438193</ele>
        <time>2021-05-02T08:47:13Z</time>
      </trkpt>
      <trkpt lat="46.40559" lon="0.27462">
        <ele>119.81208724249</ele>
        <time>2021-05-02T08:47:15Z</time>
      </trkpt>
      <trkpt lat="46.4056" lon="0.27466">
        <ele>119.56358721852</ele>
        <time>2021-05-02T08:47:18Z</time>
      </trkpt>
      <trkpt lat="46.4056" lon="0.27471">
        <ele>120.10283435695</ele>
        <time>2021-05-02T08:47:20Z</time>
      </trkpt>
      <trkpt lat="46.40561" lon="0.27474">
        <ele>119.39965612534</ele>
        <time>2021-05-02T08:47:22Z</time>
      </trkpt>
      <trkpt lat="46.40562" lon="0.27478">
        <ele>119.39890567772</ele>
        <time>2021-05-02T08:47:24Z</time>
      </trkpt>
      <trkpt lat="46.40563" lon="0.27482">
        <ele>119.52111551538</ele>
        <time>2021-05-02T08:47:26Z</time>
      </trkpt>
      <trkpt lat="46.40563" lon="0.27485">
        <ele>119.62846746389</ele>
        <time>2021-05-02T08:47:28Z</time>
      </trkpt>
      <trkpt lat="46.40564" lon="0.27489">
        <ele>119.78598036617</ele>
        <time>2021-05-02T08:47:30Z</time>
      </trkpt>
      <trkpt lat="46.40564" lon="0.27494">
        <ele>119.67762028892</ele>
        <time>2021-05-02T08:47:32Z</time>
      </trkpt>
      <trkpt lat="46.40565" lon="0.27497">
        <ele>119.5732558649</ele>
        <time>2021-05-02T08:47:34Z</time>
      </trkpt>
      <trkpt lat="46.40566" lon="0.27501">
        <ele>120.46313813236</ele>
        <time>2021-05-02T08:47:36Z</time>
      </trkpt>
      <trkpt lat="46.40567" lon="0.27504">
        <ele>119.90111316927</ele>
        <time>2021-05-02T08:47:38Z</time>
      </trkpt>
      <trkpt lat="46.40567" lon="0.27509">
        <ele>119.69895439874</ele>
        <time>2021-05-02T08:47:40Z</time>
      </trkpt>
      <trkpt lat="46.40568" lon="0.27511">
        <ele>119.64305276703</ele>
        <time>2021-05-02T08:47:41Z</time>
      </trkpt>
      <trkpt lat="46.40568" lon="0.27515">
        <ele>119.17880227976</ele>
        <time>2021-05-02T08:47:44Z</time>
      </trkpt>
      <trkpt lat="46.40569" lon="0.2752">
        <ele>119.37333248742</ele>
        <time>2021-05-02T08:47:46Z</time>
      </trkpt>
      <trkpt lat="46.4057" lon="0.27524">
        <ele>119.47792673949</ele>
        <time>2021-05-02T08:47:48Z</time>
      </trkpt>
      <trkpt lat="46.40571" lon="0.27527">
        <ele>119.29294141382</ele>
        <time>2021-05-02T08:47:50Z</time>
      </trkpt>
      <trkpt lat="46.40572" lon="0.2753">
        <ele>119.60025117174</ele>
        <time>2021-05-02T08:47:51Z</time>
      </trkpt>
      <trkpt lat="46.40573" lon="0.27534">
        <ele>119.20303638931</ele>
        <time>2021-05-02T08:47:54Z</time>
      </trkpt>
      <trkpt lat="46.40574" lon="0.27538">
        <ele>119.30530631542</ele>
        <time>2021-05-02T08:47:56Z</time>
      </trkpt>
      <trkpt lat="46.40575" lon="0.27542">
        <ele>119.23006867711</ele>
        <time>2021-05-02T08:47:58Z</time>
      </trkpt>
      <trkpt lat="46.40576" lon="0.27546">
        <ele>118.57206873875</ele>
        <time>2021-05-02T08:48:00Z</time>
      </trkpt>
      <trkpt lat="46.40577" lon="0.27549">
        <ele>118.65042504109</ele>
        <time>2021-05-02T08:48:02Z</time>
      </trkpt>
      <trkpt lat="46.40578" lon="0.27551">
        <ele>118.5459107738</ele>
        <time>2021-05-02T08:48:04Z</time>
      </trkpt>
      <trkpt lat="46.40579" lon="0.27556">
        <ele>118.48778836057</ele>
        <time>2021-05-02T08:48:06Z</time>
      </trkpt>
      <trkpt lat="46.4058" lon="0.27559">
        <ele>118.34065696131</ele>
        <time>2021-05-02T08:48:09Z</time>
      </trkpt>
      <trkpt lat="46.40581" lon="0.27563">
        <ele>118.26641385257</ele>
        <time>2021-05-02T08:48:11Z</time>
      </trkpt>
      <trkpt lat="46.40582" lon="0.27568">
        <ele>118.54704970587</ele>
        <time>2021-05-02T08:48:13Z</time>
      </trkpt>
      <trkpt lat="46.40584" lon="0.27572">
        <ele>118.35981350951</ele>
        <time>2021-05-02T08:48:16Z</time>
      </trkpt>
      <trkpt lat="46.40585" lon="0.27577">
        <ele>118.54060805216</ele>
        <time>2021-05-02T08:48:18Z</time>
      </trkpt>
      <trkpt lat="46.40586" lon="0.2758">
        <ele>118.54625451844</ele>
        <time>2021-05-02T08:48:20Z</time>
      </trkpt>
      <trkpt lat="46.40587" lon="0.27584">
        <ele>118.61136967503</ele>
        <time>2021-05-02T08:48:22Z</time>
      </trkpt>
      <trkpt lat="46.40588" lon="0.27588">
        <ele>118.51691588201</ele>
        <time>2021-05-02T08:48:24Z</time>
      </trkpt>
      <trkpt lat="46.40589" lon="0.27592">
        <ele>118.23614951875</ele>
        <time>2021-05-02T08:48:26Z</time>
      </trkpt>
      <trkpt lat="46.4059" lon="0.27596">
        <ele>118.45825229306</ele>
        <time>2021-05-02T08:48:28Z</time>
      </trkpt>
      <trkpt lat="46.40591" lon="0.27599">
        <ele>118.2064538449</ele>
        <time>2021-05-02T08:48:30Z</time>
      </trkpt>
      <trkpt lat="46.40592" lon="0.27603">
        <ele>118.49058614951</ele>
        <time>2021-05-02T08:48:32Z</time>
      </trkpt>
      <trkpt lat="46.40593" lon="0.27606">
        <ele>118.42177458387</ele>
        <time>2021-05-02T08:48:34Z</time>
      </trkpt>
      <trkpt lat="46.40595" lon="0.2761">
        <ele>118.22951126564</ele>
        <time>2021-05-02T08:48:36Z</time>
      </trkpt>
      <trkpt lat="46.40596" lon="0.27613">
        <ele>118.10859245248</ele>
        <time>2021-05-02T08:48:38Z</time>
      </trkpt>
      <trkpt lat="46.40597" lon="0.27616">
        <ele>118.08708337322</ele>
        <time>2021-05-02T08:48:40Z</time>
      </trkpt>
      <trkpt lat="46.40599" lon="0.27619">
        <ele>117.95659689885</ele>
        <time>2021-05-02T08:48:42Z</time>
      </trkpt>
      <trkpt lat="46.406" lon="0.27623">
        <ele>118.0366464965</ele>
        <time>2021-05-02T08:48:44Z</time>
      </trkpt>
      <trkpt lat="46.40601" lon="0.27627">
        <ele>118.0554973362</ele>
        <time>2021-05-02T08:48:46Z</time>
      </trkpt>
      <trkpt lat="46.40603" lon="0.2763">
        <ele>117.67603130918</ele>
        <time>2021-05-02T08:48:48Z</time>
      </trkpt>
      <trkpt lat="46.40604" lon="0.27633">
        <ele>117.72997969482</ele>
        <time>2021-05-02T08:48:50Z</time>
      </trkpt>
      <trkpt lat="46.40605" lon="0.27636">
        <ele>117.82720869407</ele>
        <time>2021-05-02T08:48:52Z</time>
      </trkpt>
      <trkpt lat="46.40607" lon="0.27639">
        <ele>117.62013269123</ele>
        <time>2021-05-02T08:48:54Z</time>
      </trkpt>
      <trkpt lat="46.40609" lon="0.27642">
        <ele>117.58722637687</ele>
        <time>2021-05-02T08:48:56Z</time>
      </trkpt>
      <trkpt lat="46.4061" lon="0.27645">
        <ele>117.80263247155</ele>
        <time>2021-05-02T08:48:58Z</time>
      </trkpt>
      <trkpt lat="46.40611" lon="0.27649">
        <ele>117.6646566866</ele>
        <time>2021-05-02T08:49:00Z</time>
      </trkpt>
      <trkpt lat="46.40613" lon="0.27651">
        <ele>117.6690423945</ele>
        <time>2021-05-02T08:49:02Z</time>
      </trkpt>
      <trkpt lat="46.40614" lon="0.27654">
        <ele>118.24116567895</ele>
        <time>2021-05-02T08:49:04Z</time>
      </trkpt>
      <trkpt lat="46.40616" lon="0.27658">
        <ele>118.68050719611</ele>
        <time>2021-05-02T08:49:06Z</time>
      </trkpt>
      <trkpt lat="46.40617" lon="0.27661">
        <ele>118.14181328006</ele>
        <time>2021-05-02T08:49:08Z</time>
      </trkpt>
      <trkpt lat="46.40618" lon="0.27664">
        <ele>117.94272683375</ele>
        <time>2021-05-02T08:49:10Z</time>
      </trkpt>
      <trkpt lat="46.4062" lon="0.27668">
        <ele>118.24732053187</ele>
        <time>2021-05-02T08:49:12Z</time>
      </trkpt>
      <trkpt lat="46.40621" lon="0.27671">
        <ele>117.99353689048</ele>
        <time>2021-05-02T08:49:14Z</time>
      </trkpt>
      <trkpt lat="46.40623" lon="0.27674">
        <ele>118.27428248152</ele>
        <time>2021-05-02T08:49:16Z</time>
      </trkpt>
      <trkpt lat="46.40624" lon="0.27676">
        <ele>118.18925592862</ele>
        <time>2021-05-02T08:49:18Z</time>
      </trkpt>
      <trkpt lat="46.40626" lon="0.27679">
        <ele>118.2826899318</ele>
        <time>2021-05-02T08:49:20Z</time>
      </trkpt>
      <trkpt lat="46.40628" lon="0.27682">
        <ele>118.48010615632</ele>
        <time>2021-05-02T08:49:22Z</time>
      </trkpt>
      <trkpt lat="46.40629" lon="0.27685">
        <ele>118.16556122247</ele>
        <time>2021-05-02T08:49:24Z</time>
      </trkpt>
      <trkpt lat="46.4063" lon="0.27689">
        <ele>118.0179116698</ele>
        <time>2021-05-02T08:49:26Z</time>
      </trkpt>
      <trkpt lat="46.40632" lon="0.27692">
        <ele>117.62664511241</ele>
        <time>2021-05-02T08:49:28Z</time>
      </trkpt>
      <trkpt lat="46.40633" lon="0.27695">
        <ele>117.82872828003</ele>
        <time>2021-05-02T08:49:30Z</time>
      </trkpt>
      <trkpt lat="46.40634" lon="0.27699">
        <ele>117.73890130222</ele>
        <time>2021-05-02T08:49:32Z</time>
      </trkpt>
      <trkpt lat="46.40636" lon="0.27703">
        <ele>118.02627404779</ele>
        <time>2021-05-02T08:49:34Z</time>
      </trkpt>
      <trkpt lat="46.40636" lon="0.27706">
        <ele>118.23759615049</ele>
        <time>2021-05-02T08:49:36Z</time>
      </trkpt>
      <trkpt lat="46.40638" lon="0.27709">
        <ele>117.76459900383</ele>
        <time>2021-05-02T08:49:38Z</time>
      </trkpt>
      <trkpt lat="46.40639" lon="0.27712">
        <ele>118.17702227924</ele>
        <time>2021-05-02T08:49:40Z</time>
      </trkpt>
      <trkpt lat="46.40641" lon="0.27714">
        <ele>118.39687877987</ele>
        <time>2021-05-02T08:49:42Z</time>
      </trkpt>
      <trkpt lat="46.40642" lon="0.27717">
        <ele>117.65683925059</ele>
        <time>2021-05-02T08:49:44Z</time>
      </trkpt>
      <trkpt lat="46.40643" lon="0.2772">
        <ele>118.01792732812</ele>
        <time>2021-05-02T08:49:46Z</time>
      </trkpt>
      <trkpt lat="46.40645" lon="0.27723">
        <ele>118.09001307189</ele>
        <time>2021-05-02T08:49:48Z</time>
      </trkpt>
      <trkpt lat="46.40646" lon="0.27727">
        <ele>118.24172143079</ele>
        <time>2021-05-02T08:49:50Z</time>
      </trkpt>
      <trkpt lat="46.40648" lon="0.2773">
        <ele>118.68959868792</ele>
        <time>2021-05-02T08:49:52Z</time>
      </trkpt>
      <trkpt lat="46.40649" lon="0.27733">
        <ele>118.78537280578</ele>
        <time>2021-05-02T08:49:54Z</time>
      </trkpt>
      <trkpt lat="46.4065" lon="0.27735">
        <ele>118.7079673633</ele>
        <time>2021-05-02T08:49:56Z</time>
      </trkpt>
      <trkpt lat="46.40651" lon="0.27739">
        <ele>118.71009765845</ele>
        <time>2021-05-02T08:49:58Z</time>
      </trkpt>
      <trkpt lat="46.40653" lon="0.27742">
        <ele>118.33828455862</ele>
        <time>2021-05-02T08:50:00Z</time>
      </trkpt>
      <trkpt lat="46.40654" lon="0.27745">
        <ele>118.82354105357</ele>
        <time>2021-05-02T08:50:02Z</time>
      </trkpt>
      <trkpt lat="46.40655" lon="0.27748">
        <ele>119.1445648754</ele>
        <time>2021-05-02T08:50:04Z</time>
      </trkpt>
      <trkpt lat="46.40656" lon="0.27751">
        <ele>118.86507458147</ele>
        <time>2021-05-02T08:50:06Z</time>
      </trkpt>
      <trkpt lat="46.40658" lon="0.27754">
        <ele>118.917113645</ele>
        <time>2021-05-02T08:50:08Z</time>
      </trkpt>
      <trkpt lat="46.4066" lon="0.27758">
        <ele>119.03978370037</ele>
        <time>2021-05-02T08:50:10Z</time>
      </trkpt>
      <trkpt lat="46.40661" lon="0.2776">
        <ele>119.70235773455</ele>
        <time>2021-05-02T08:50:12Z</time>
      </trkpt>
      <trkpt lat="46.40661" lon="0.27763">
        <ele>119.30283946916</ele>
        <time>2021-05-02T08:50:14Z</time>
      </trkpt>
      <trkpt lat="46.40663" lon="0.27766">
        <ele>119.30987913255</ele>
        <time>2021-05-02T08:50:16Z</time>
      </trkpt>
      <trkpt lat="46.40664" lon="0.2777">
        <ele>119.09231532086</ele>
        <time>2021-05-02T08:50:18Z</time>
      </trkpt>
      <trkpt lat="46.40665" lon="0.27772">
        <ele>119.31766111683</ele>
        <time>2021-05-02T08:50:20Z</time>
      </trkpt>
      <trkpt lat="46.40667" lon="0.27776">
        <ele>119.06996086147</ele>
        <time>2021-05-02T08:50:22Z</time>
      </trkpt>
      <trkpt lat="46.40668" lon="0.27778">
        <ele>118.83289929293</ele>
        <time>2021-05-02T08:50:24Z</time>
      </trkpt>
      <trkpt lat="46.4067" lon="0.27782">
        <ele>119.93289212137</ele>
        <time>2021-05-02T08:50:26Z</time>
      </trkpt>
      <trkpt lat="46.40671" lon="0.27785">
        <ele>119.78074192721</ele>
        <time>2021-05-02T08:50:28Z</time>
      </trkpt>
      <trkpt lat="46.40672" lon="0.27789">
        <ele>119.66592693236</ele>
        <time>2021-05-02T08:50:30Z</time>
      </trkpt>
      <trkpt lat="46.40674" lon="0.27791">
        <ele>119.56315698847</ele>
        <time>2021-05-02T08:50:32Z</time>
      </trkpt>
      <trkpt lat="46.40674" lon="0.27795">
        <ele>119.84753277153</ele>
        <time>2021-05-02T08:50:34Z</time>
      </trkpt>
      <trkpt lat="46.40676" lon="0.27799">
        <ele>120.03711886983</ele>
        <time>2021-05-02T08:50:36Z</time>
      </trkpt>
      <trkpt lat="46.40677" lon="0.27802">
        <ele>120.30675697513</ele>
        <time>2021-05-02T08:50:38Z</time>
      </trkpt>
      <trkpt lat="46.40678" lon="0.27804">
        <ele>120.14741152804</ele>
        <time>2021-05-02T08:50:40Z</time>
      </trkpt>
      <trkpt lat="46.4068" lon="0.27807">
        <ele>120.04000740498</ele>
        <time>2021-05-02T08:50:42Z</time>
      </trkpt>
      <trkpt lat="46.40681" lon="0.2781">
        <ele>120.08578779269</ele>
        <time>2021-05-02T08:50:44Z</time>
      </trkpt>
      <trkpt lat="46.40682" lon="0.27814">
        <ele>120.11539654434</ele>
        <time>2021-05-02T08:50:46Z</time>
      </trkpt>
      <trkpt lat="46.40683" lon="0.27817">
        <ele>119.7830656711</ele>
        <time>2021-05-02T08:50:48Z</time>
      </trkpt>
      <trkpt lat="46.40684" lon="0.2782">
        <ele>120.12416123226</ele>
        <time>2021-05-02T08:50:50Z</time>
      </trkpt>
      <trkpt lat="46.40686" lon="0.27823">
        <ele>120.12521531153</ele>
        <time>2021-05-02T08:50:52Z</time>
      </trkpt>
      <trkpt lat="46.40687" lon="0.27826">
        <ele>120.33910675347</ele>
        <time>2021-05-02T08:50:54Z</time>
      </trkpt>
      <trkpt lat="46.40688" lon="0.27829">
        <ele>120.57663651276</ele>
        <time>2021-05-02T08:50:56Z</time>
      </trkpt>
      <trkpt lat="46.4069" lon="0.27832">
        <ele>121.05364822596</ele>
        <time>2021-05-02T08:50:58Z</time>
      </trkpt>
      <trkpt lat="46.40691" lon="0.27835">
        <ele>120.89486921858</ele>
        <time>2021-05-02T08:51:00Z</time>
      </trkpt>
      <trkpt lat="46.40692" lon="0.27838">
        <ele>120.27028376702</ele>
        <time>2021-05-02T08:51:02Z</time>
      </trkpt>
      <trkpt lat="46.40693" lon="0.27842">
        <ele>120.37332237512</ele>
        <time>2021-05-02T08:51:04Z</time>
      </trkpt>
      <trkpt lat="46.40695" lon="0.27845">
        <ele>120.25937523413</ele>
        <time>2021-05-02T08:51:06Z</time>
      </trkpt>
      <trkpt lat="46.40697" lon="0.27848">
        <ele>120.78528582957</ele>
        <time>2021-05-02T08:51:08Z</time>
      </trkpt>
      <trkpt lat="46.40698" lon="0.27852">
        <ele>120.86903172173</ele>
        <time>2021-05-02T08:51:10Z</time>
      </trkpt>
      <trkpt lat="46.407" lon="0.27855">
        <ele>120.86815311946</ele>
        <time>2021-05-02T08:51:12Z</time>
      </trkpt>
      <trkpt lat="46.407" lon="0.27858">
        <ele>120.91102988552</ele>
        <time>2021-05-02T08:51:14Z</time>
      </trkpt>
      <trkpt lat="46.40701" lon="0.27861">
        <ele>120.89872656297</ele>
        <time>2021-05-02T08:51:16Z</time>
      </trkpt>
      <trkpt lat="46.40702" lon="0.27866">
        <ele>121.64285952877</ele>
        <time>2021-05-02T08:51:18Z</time>
      </trkpt>
      <trkpt lat="46.40703" lon="0.27869">
        <ele>121.62067331932</ele>
        <time>2021-05-02T08:51:20Z</time>
      </trkpt>
      <trkpt lat="46.40704" lon="0.27872">
        <ele>121.7121518394</ele>
        <time>2021-05-02T08:51:22Z</time>
      </trkpt>
      <trkpt lat="46.40705" lon="0.27874">
        <ele>121.19857496396</ele>
        <time>2021-05-02T08:51:24Z</time>
      </trkpt>
      <trkpt lat="46.40706" lon="0.27877">
        <ele>120.90150279459</ele>
        <time>2021-05-02T08:51:26Z</time>
      </trkpt>
      <trkpt lat="46.40708" lon="0.27881">
        <ele>121.11996988766</ele>
        <time>2021-05-02T08:51:28Z</time>
      </trkpt>
      <trkpt lat="46.40709" lon="0.27884">
        <ele>121.22544391546</ele>
        <time>2021-05-02T08:51:30Z</time>
      </trkpt>
      <trkpt lat="46.4071" lon="0.27887">
        <ele>121.12040413637</ele>
        <time>2021-05-02T08:51:32Z</time>
      </trkpt>
      <trkpt lat="46.40711" lon="0.27889">
        <ele>121.07919856906</ele>
        <time>2021-05-02T08:51:34Z</time>
      </trkpt>
      <trkpt lat="46.40712" lon="0.27893">
        <ele>120.65037101321</ele>
        <time>2021-05-02T08:51:36Z</time>
      </trkpt>
      <trkpt lat="46.40713" lon="0.27897">
        <ele>120.96422075853</ele>
        <time>2021-05-02T08:51:38Z</time>
      </trkpt>
      <trkpt lat="46.40715" lon="0.279">
        <ele>120.88656700961</ele>
        <time>2021-05-02T08:51:40Z</time>
      </trkpt>
      <trkpt lat="46.40716" lon="0.27904">
        <ele>120.50210880674</ele>
        <time>2021-05-02T08:51:42Z</time>
      </trkpt>
      <trkpt lat="46.40717" lon="0.27907">
        <ele>121.00296440255</ele>
        <time>2021-05-02T08:51:44Z</time>
      </trkpt>
      <trkpt lat="46.40718" lon="0.27911">
        <ele>121.48427262157</ele>
        <time>2021-05-02T08:51:46Z</time>
      </trkpt>
      <trkpt lat="46.4072" lon="0.27914">
        <ele>120.98391188495</ele>
        <time>2021-05-02T08:51:48Z</time>
      </trkpt>
      <trkpt lat="46.40721" lon="0.27917">
        <ele>121.22650056239</ele>
        <time>2021-05-02T08:51:50Z</time>
      </trkpt>
      <trkpt lat="46.40722" lon="0.2792">
        <ele>121.07810113393</ele>
        <time>2021-05-02T08:51:52Z</time>
      </trkpt>
      <trkpt lat="46.40724" lon="0.27922">
        <ele>121.20791708026</ele>
        <time>2021-05-02T08:51:54Z</time>
      </trkpt>
      <trkpt lat="46.40725" lon="0.27925">
        <ele>121.56011262722</ele>
        <time>2021-05-02T08:51:56Z</time>
      </trkpt>
      <trkpt lat="46.40727" lon="0.27928">
        <ele>121.30478412192</ele>
        <time>2021-05-02T08:51:58Z</time>
      </trkpt>
      <trkpt lat="46.40728" lon="0.27932">
        <ele>121.82288668398</ele>
        <time>2021-05-02T08:52:00Z</time>
      </trkpt>
      <trkpt lat="46.40731" lon="0.27935">
        <ele>121.08946835715</ele>
        <time>2021-05-02T08:52:02Z</time>
      </trkpt>
      <trkpt lat="46.40732" lon="0.27938">
        <ele>121.12489238009</ele>
        <time>2021-05-02T08:52:04Z</time>
      </trkpt>
      <trkpt lat="46.40733" lon="0.27941">
        <ele>121.58950519934</ele>
        <time>2021-05-02T08:52:06Z</time>
      </trkpt>
      <trkpt lat="46.40735" lon="0.27944">
        <ele>121.31087113079</ele>
        <time>2021-05-02T08:52:08Z</time>
      </trkpt>
      <trkpt lat="46.40737" lon="0.27947">
        <ele>121.18514509965</ele>
        <time>2021-05-02T08:52:10Z</time>
      </trkpt>
      <trkpt lat="46.40739" lon="0.2795">
        <ele>121.79936433025</ele>
        <time>2021-05-02T08:52:12Z</time>
      </trkpt>
      <trkpt lat="46.40741" lon="0.27953">
        <ele>121.97873260267</ele>
        <time>2021-05-02T08:52:14Z</time>
      </trkpt>
      <trkpt lat="46.40743" lon="0.27955">
        <ele>121.74954463728</ele>
        <time>2021-05-02T08:52:16Z</time>
      </trkpt>
      <trkpt lat="46.40744" lon="0.27959">
        <ele>121.47822718043</ele>
        <time>2021-05-02T08:52:18Z</time>
      </trkpt>
      <trkpt lat="46.40746" lon="0.27961">
        <ele>121.38791634887</ele>
        <time>2021-05-02T08:52:20Z</time>
      </trkpt>
      <trkpt lat="46.40748" lon="0.27964">
        <ele>121.54260542057</ele>
        <time>2021-05-02T08:52:22Z</time>
      </trkpt>
      <trkpt lat="46.4075" lon="0.27967">
        <ele>121.72719612438</ele>
        <time>2021-05-02T08:52:24Z</time>
      </trkpt>
      <trkpt lat="46.40752" lon="0.27969">
        <ele>121.81041879673</ele>
        <time>2021-05-02T08:52:26Z</time>
      </trkpt>
      <trkpt lat="46.40754" lon="0.27971">
        <ele>121.97302883957</ele>
        <time>2021-05-02T08:52:28Z</time>
      </trkpt>
      <trkpt lat="46.40755" lon="0.27973">
        <ele>122.23722950928</ele>
        <time>2021-05-02T08:52:30Z</time>
      </trkpt>
      <trkpt lat="46.40758" lon="0.27975">
        <ele>121.76243511587</ele>
        <time>2021-05-02T08:52:32Z</time>
      </trkpt>
      <trkpt lat="46.4076" lon="0.27978">
        <ele>121.62124924269</ele>
        <time>2021-05-02T08:52:34Z</time>
      </trkpt>
      <trkpt lat="46.40762" lon="0.27982">
        <ele>122.12787725218</ele>
        <time>2021-05-02T08:52:36Z</time>
      </trkpt>
      <trkpt lat="46.40763" lon="0.27984">
        <ele>122.44886938762</ele>
        <time>2021-05-02T08:52:38Z</time>
      </trkpt>
      <trkpt lat="46.40765" lon="0.27987">
        <ele>122.2490201341</ele>
        <time>2021-05-02T08:52:40Z</time>
      </trkpt>
      <trkpt lat="46.40767" lon="0.2799">
        <ele>122.06462917756</ele>
        <time>2021-05-02T08:52:42Z</time>
      </trkpt>
      <trkpt lat="46.40768" lon="0.27992">
        <ele>121.82987851184</ele>
        <time>2021-05-02T08:52:43Z</time>
      </trkpt>
      <trkpt lat="46.4077" lon="0.27993">
        <ele>121.91488439869</ele>
        <time>2021-05-02T08:52:45Z</time>
      </trkpt>
      <trkpt lat="46.40772" lon="0.27996">
        <ele>122.22784973402</ele>
        <time>2021-05-02T08:52:47Z</time>
      </trkpt>
      <trkpt lat="46.40774" lon="0.27999">
        <ele>122.22226245049</ele>
        <time>2021-05-02T08:52:49Z</time>
      </trkpt>
      <trkpt lat="46.40776" lon="0.28002">
        <ele>121.72697395738</ele>
        <time>2021-05-02T08:52:51Z</time>
      </trkpt>
      <trkpt lat="46.40777" lon="0.28003">
        <ele>122.10309290793</ele>
        <time>2021-05-02T08:52:53Z</time>
      </trkpt>
      <trkpt lat="46.4078" lon="0.28006">
        <ele>121.92358903121</ele>
        <time>2021-05-02T08:52:55Z</time>
      </trkpt>
      <trkpt lat="46.40782" lon="0.28008">
        <ele>122.17320392188</ele>
        <time>2021-05-02T08:52:57Z</time>
      </trkpt>
      <trkpt lat="46.40783" lon="0.28011">
        <ele>122.10615301225</ele>
        <time>2021-05-02T08:52:59Z</time>
      </trkpt>
      <trkpt lat="46.40786" lon="0.28014">
        <ele>122.24713459704</ele>
        <time>2021-05-02T08:53:01Z</time>
      </trkpt>
      <trkpt lat="46.40787" lon="0.28018">
        <ele>121.98156404123</ele>
        <time>2021-05-02T08:53:03Z</time>
      </trkpt>
      <trkpt lat="46.40789" lon="0.2802">
        <ele>122.30562278908</ele>
        <time>2021-05-02T08:53:05Z</time>
      </trkpt>
      <trkpt lat="46.40791" lon="0.28023">
        <ele>122.61493475828</ele>
        <time>2021-05-02T08:53:07Z</time>
      </trkpt>
      <trkpt lat="46.40793" lon="0.28026">
        <ele>122.70800274331</ele>
        <time>2021-05-02T08:53:09Z</time>
      </trkpt>
      <trkpt lat="46.40794" lon="0.28028">
        <ele>122.77320032939</ele>
        <time>2021-05-02T08:53:10Z</time>
      </trkpt>
      <trkpt lat="46.40795" lon="0.28031">
        <ele>122.63879382797</ele>
        <time>2021-05-02T08:53:11Z</time>
      </trkpt>
      <trkpt lat="46.40796" lon="0.28033">
        <ele>122.54007419012</ele>
        <time>2021-05-02T08:53:13Z</time>
      </trkpt>
      <trkpt lat="46.40798" lon="0.28037">
        <ele>122.70875054039</ele>
        <time>2021-05-02T08:53:15Z</time>
      </trkpt>
      <trkpt lat="46.40799" lon="0.2804">
        <ele>122.66250665486</ele>
        <time>2021-05-02T08:53:17Z</time>
      </trkpt>
      <trkpt lat="46.408" lon="0.28043">
        <ele>122.24547908735</ele>
        <time>2021-05-02T08:53:19Z</time>
      </trkpt>
      <trkpt lat="46.40801" lon="0.28046">
        <ele>122.39944517799</ele>
        <time>2021-05-02T08:53:20Z</time>
      </trkpt>
      <trkpt lat="46.40802" lon="0.28049">
        <ele>122.16663332563</ele>
        <time>2021-05-02T08:53:22Z</time>
      </trkpt>
      <trkpt lat="46.40804" lon="0.28054">
        <ele>122.36559248436</ele>
        <time>2021-05-02T08:53:24Z</time>
      </trkpt>
      <trkpt lat="46.40805" lon="0.28058">
        <ele>122.6969373459</ele>
        <time>2021-05-02T08:53:27Z</time>
      </trkpt>
      <trkpt lat="46.40806" lon="0.28061">
        <ele>122.64723578561</ele>
        <time>2021-05-02T08:53:29Z</time>
      </trkpt>
      <trkpt lat="46.40807" lon="0.28066">
        <ele>122.47276713606</ele>
        <time>2021-05-02T08:53:31Z</time>
      </trkpt>
      <trkpt lat="46.40808" lon="0.2807">
        <ele>122.56584676635</ele>
        <time>2021-05-02T08:53:34Z</time>
      </trkpt>
      <trkpt lat="46.40808" lon="0.28073">
        <ele>122.48954899795</ele>
        <time>2021-05-02T08:53:36Z</time>
      </trkpt>
      <trkpt lat="46.40809" lon="0.28077">
        <ele>122.76194601413</ele>
        <time>2021-05-02T08:53:38Z</time>
      </trkpt>
      <trkpt lat="46.40809" lon="0.28082">
        <ele>122.61690711509</ele>
        <time>2021-05-02T08:53:40Z</time>
      </trkpt>
      <trkpt lat="46.40809" lon="0.28086">
        <ele>122.5528541021</ele>
        <time>2021-05-02T08:53:42Z</time>
      </trkpt>
      <trkpt lat="46.4081" lon="0.2809">
        <ele>122.49703108892</ele>
        <time>2021-05-02T08:53:44Z</time>
      </trkpt>
      <trkpt lat="46.4081" lon="0.28093">
        <ele>122.34150622599</ele>
        <time>2021-05-02T08:53:46Z</time>
      </trkpt>
      <trkpt lat="46.4081" lon="0.28097">
        <ele>122.08633217309</ele>
        <time>2021-05-02T08:53:48Z</time>
      </trkpt>
      <trkpt lat="46.40811" lon="0.28101">
        <ele>122.33533441089</ele>
        <time>2021-05-02T08:53:50Z</time>
      </trkpt>
      <trkpt lat="46.40811" lon="0.28104">
        <ele>122.32567636576</ele>
        <time>2021-05-02T08:53:51Z</time>
      </trkpt>
      <trkpt lat="46.40811" lon="0.28108">
        <ele>122.40875612851</ele>
        <time>2021-05-02T08:53:54Z</time>
      </trkpt>
      <trkpt lat="46.40812" lon="0.28112">
        <ele>122.33794162981</ele>
        <time>2021-05-02T08:53:56Z</time>
      </trkpt>
      <trkpt lat="46.40812" lon="0.28116">
        <ele>122.72522570193</ele>
        <time>2021-05-02T08:53:58Z</time>
      </trkpt>
      <trkpt lat="46.40812" lon="0.2812">
        <ele>122.88288986217</ele>
        <time>2021-05-02T08:54:00Z</time>
      </trkpt>
      <trkpt lat="46.40812" lon="0.28123">
        <ele>122.6849105563</ele>
        <time>2021-05-02T08:54:02Z</time>
      </trkpt>
      <trkpt lat="46.40812" lon="0.28127">
        <ele>122.49289682135</ele>
        <time>2021-05-02T08:54:04Z</time>
      </trkpt>
      <trkpt lat="46.40812" lon="0.28131">
        <ele>122.82340740878</ele>
        <time>2021-05-02T08:54:06Z</time>
      </trkpt>
      <trkpt lat="46.40812" lon="0.28135">
        <ele>123.04739374015</ele>
        <time>2021-05-02T08:54:08Z</time>
      </trkpt>
      <trkpt lat="46.40813" lon="0.28139">
        <ele>122.95038363617</ele>
        <time>2021-05-02T08:54:10Z</time>
      </trkpt>
      <trkpt lat="46.40813" lon="0.28143">
        <ele>123.61458471045</ele>
        <time>2021-05-02T08:54:12Z</time>
      </trkpt>
      <trkpt lat="46.40813" lon="0.28146">
        <ele>123.58621152025</ele>
        <time>2021-05-02T08:54:14Z</time>
      </trkpt>
      <trkpt lat="46.40813" lon="0.2815">
        <ele>123.67579361331</ele>
        <time>2021-05-02T08:54:16Z</time>
      </trkpt>
      <trkpt lat="46.40813" lon="0.28154">
        <ele>123.51439279877</ele>
        <time>2021-05-02T08:54:18Z</time>
      </trkpt>
      <trkpt lat="46.40814" lon="0.28157">
        <ele>123.34610631224</ele>
        <time>2021-05-02T08:54:20Z</time>
      </trkpt>
      <trkpt lat="46.40814" lon="0.28161">
        <ele>123.31422149297</ele>
        <time>2021-05-02T08:54:22Z</time>
      </trkpt>
      <trkpt lat="46.40814" lon="0.28165">
        <ele>123.35051868763</ele>
        <time>2021-05-02T08:54:24Z</time>
      </trkpt>
      <trkpt lat="46.40814" lon="0.28169">
        <ele>123.52038801461</ele>
        <time>2021-05-02T08:54:26Z</time>
      </trkpt>
      <trkpt lat="46.40814" lon="0.28174">
        <ele>123.29213248845</ele>
        <time>2021-05-02T08:54:28Z</time>
      </trkpt>
      <trkpt lat="46.40814" lon="0.28177">
        <ele>123.45448635519</ele>
        <time>2021-05-02T08:54:30Z</time>
      </trkpt>
      <trkpt lat="46.40814" lon="0.28181">
        <ele>123.45826897305</ele>
        <time>2021-05-02T08:54:32Z</time>
      </trkpt>
      <trkpt lat="46.40815" lon="0.28184">
        <ele>123.67166885827</ele>
        <time>2021-05-02T08:54:34Z</time>
      </trkpt>
      <trkpt lat="46.40815" lon="0.28188">
        <ele>123.3269816367</ele>
        <time>2021-05-02T08:54:36Z</time>
      </trkpt>
      <trkpt lat="46.40815" lon="0.28192">
        <ele>123.48019312695</ele>
        <time>2021-05-02T08:54:38Z</time>
      </trkpt>
      <trkpt lat="46.40815" lon="0.28196">
        <ele>123.56871833932</ele>
        <time>2021-05-02T08:54:40Z</time>
      </trkpt>
      <trkpt lat="46.40816" lon="0.282">
        <ele>123.44925495144</ele>
        <time>2021-05-02T08:54:42Z</time>
      </trkpt>
      <trkpt lat="46.40816" lon="0.28203">
        <ele>123.6115930602</ele>
        <time>2021-05-02T08:54:44Z</time>
      </trkpt>
      <trkpt lat="46.40816" lon="0.28207">
        <ele>123.70760092512</ele>
        <time>2021-05-02T08:54:46Z</time>
      </trkpt>
      <trkpt lat="46.40816" lon="0.28212">
        <ele>123.63583042938</ele>
        <time>2021-05-02T08:54:48Z</time>
      </trkpt>
      <trkpt lat="46.40816" lon="0.28216">
        <ele>123.25306668598</ele>
        <time>2021-05-02T08:54:51Z</time>
      </trkpt>
      <trkpt lat="46.40816" lon="0.28221">
        <ele>123.55155574344</ele>
        <time>2021-05-02T08:54:53Z</time>
      </trkpt>
      <trkpt lat="46.40817" lon="0.28225">
        <ele>123.32975495607</ele>
        <time>2021-05-02T08:54:55Z</time>
      </trkpt>
      <trkpt lat="46.40817" lon="0.28228">
        <ele>123.31087261718</ele>
        <time>2021-05-02T08:54:57Z</time>
      </trkpt>
      <trkpt lat="46.40817" lon="0.28232">
        <ele>123.09152344335</ele>
        <time>2021-05-02T08:54:59Z</time>
      </trkpt>
      <trkpt lat="46.40817" lon="0.28236">
        <ele>123.47701054532</ele>
        <time>2021-05-02T08:55:01Z</time>
      </trkpt>
      <trkpt lat="46.40817" lon="0.2824">
        <ele>123.75755094644</ele>
        <time>2021-05-02T08:55:03Z</time>
      </trkpt>
      <trkpt lat="46.40817" lon="0.28244">
        <ele>123.22129475605</ele>
        <time>2021-05-02T08:55:05Z</time>
      </trkpt>
      <trkpt lat="46.40818" lon="0.28249">
        <ele>123.05987174343</ele>
        <time>2021-05-02T08:55:07Z</time>
      </trkpt>
      <trkpt lat="46.40818" lon="0.28252">
        <ele>123.24943254795</ele>
        <time>2021-05-02T08:55:09Z</time>
      </trkpt>
      <trkpt lat="46.40818" lon="0.28256">
        <ele>123.30846991297</ele>
        <time>2021-05-02T08:55:11Z</time>
      </trkpt>
      <trkpt lat="46.40818" lon="0.2826">
        <ele>123.57570617832</ele>
        <time>2021-05-02T08:55:13Z</time>
      </trkpt>
      <trkpt lat="46.40818" lon="0.28264">
        <ele>122.9436650509</ele>
        <time>2021-05-02T08:55:15Z</time>
      </trkpt>
      <trkpt lat="46.40818" lon="0.28268">
        <ele>123.19785140455</ele>
        <time>2021-05-02T08:55:17Z</time>
      </trkpt>
      <trkpt lat="46.40819" lon="0.2827">
        <ele>122.82211703621</ele>
        <time>2021-05-02T08:55:19Z</time>
      </trkpt>
      <trkpt lat="46.40819" lon="0.28273">
        <ele>123.23406006489</ele>
        <time>2021-05-02T08:55:21Z</time>
      </trkpt>
      <trkpt lat="46.40819" lon="0.28278">
        <ele>123.61204006802</ele>
        <time>2021-05-02T08:55:23Z</time>
      </trkpt>
      <trkpt lat="46.40819" lon="0.28281">
        <ele>123.21964484919</ele>
        <time>2021-05-02T08:55:25Z</time>
      </trkpt>
      <trkpt lat="46.4082" lon="0.28284">
        <ele>122.87845075317</ele>
        <time>2021-05-02T08:55:27Z</time>
      </trkpt>
      <trkpt lat="46.4082" lon="0.28288">
        <ele>122.79430306144</ele>
        <time>2021-05-02T08:55:29Z</time>
      </trkpt>
      <trkpt lat="46.4082" lon="0.28291">
        <ele>122.85442116577</ele>
        <time>2021-05-02T08:55:30Z</time>
      </trkpt>
      <trkpt lat="46.4082" lon="0.28295">
        <ele>122.59628630057</ele>
        <time>2021-05-02T08:55:32Z</time>
      </trkpt>
      <trkpt lat="46.4082" lon="0.28299">
        <ele>122.41948429495</ele>
        <time>2021-05-02T08:55:34Z</time>
      </trkpt>
      <trkpt lat="46.40821" lon="0.28303">
        <ele>122.45490404963</ele>
        <time>2021-05-02T08:55:36Z</time>
      </trkpt>
      <trkpt lat="46.40822" lon="0.28306">
        <ele>122.56112064794</ele>
        <time>2021-05-02T08:55:38Z</time>
      </trkpt>
      <trkpt lat="46.40821" lon="0.28311">
        <ele>122.83340911288</ele>
        <time>2021-05-02T08:55:40Z</time>
      </trkpt>
      <trkpt lat="46.40822" lon="0.28315">
        <ele>122.52926465683</ele>
        <time>2021-05-02T08:55:43Z</time>
      </trkpt>
      <trkpt lat="46.40822" lon="0.28319">
        <ele>122.81483478285</ele>
        <time>2021-05-02T08:55:45Z</time>
      </trkpt>
      <trkpt lat="46.40822" lon="0.28322">
        <ele>122.77228126675</ele>
        <time>2021-05-02T08:55:46Z</time>
      </trkpt>
      <trkpt lat="46.40822" lon="0.28327">
        <ele>123.17226148304</ele>
        <time>2021-05-02T08:55:49Z</time>
      </trkpt>
      <trkpt lat="46.40823" lon="0.28331">
        <ele>123.68510890473</ele>
        <time>2021-05-02T08:55:51Z</time>
      </trkpt>
      <trkpt lat="46.40823" lon="0.28334">
        <ele>122.90886251535</ele>
        <time>2021-05-02T08:55:52Z</time>
      </trkpt>
      <trkpt lat="46.40823" lon="0.28338">
        <ele>123.34218711127</ele>
        <time>2021-05-02T08:55:55Z</time>
      </trkpt>
      <trkpt lat="46.40824" lon="0.28341">
        <ele>123.50151693542</ele>
        <time>2021-05-02T08:55:57Z</time>
      </trkpt>
      <trkpt lat="46.40824" lon="0.28345">
        <ele>123.01200234145</ele>
        <time>2021-05-02T08:55:59Z</time>
      </trkpt>
      <trkpt lat="46.40825" lon="0.28349">
        <ele>122.80725772399</ele>
        <time>2021-05-02T08:56:02Z</time>
      </trkpt>
      <trkpt lat="46.40826" lon="0.28352">
        <ele>122.90235286951</ele>
        <time>2021-05-02T08:56:03Z</time>
      </trkpt>
      <trkpt lat="46.40826" lon="0.28356">
        <ele>122.79931248445</ele>
        <time>2021-05-02T08:56:05Z</time>
      </trkpt>
      <trkpt lat="46.40826" lon="0.28359">
        <ele>122.9934621565</ele>
        <time>2021-05-02T08:56:06Z</time>
      </trkpt>
      <trkpt lat="46.40826" lon="0.28362">
        <ele>123.06151812337</ele>
        <time>2021-05-02T08:56:08Z</time>
      </trkpt>
      <trkpt lat="46.40826" lon="0.28366">
        <ele>122.8362926608</ele>
        <time>2021-05-02T08:56:10Z</time>
      </trkpt>
      <trkpt lat="46.40827" lon="0.28369">
        <ele>122.94176147785</ele>
        <time>2021-05-02T08:56:12Z</time>
      </trkpt>
      <trkpt lat="46.40827" lon="0.28373">
        <ele>122.9281352507</ele>
        <time>2021-05-02T08:56:14Z</time>
      </trkpt>
      <trkpt lat="46.40827" lon="0.28378">
        <ele>122.72978327889</ele>
        <time>2021-05-02T08:56:16Z</time>
      </trkpt>
      <trkpt lat="46.40827" lon="0.28381">
        <ele>122.81820015423</ele>
        <time>2021-05-02T08:56:18Z</time>
      </trkpt>
      <trkpt lat="46.40827" lon="0.28386">
        <ele>123.34477214608</ele>
        <time>2021-05-02T08:56:20Z</time>
      </trkpt>
      <trkpt lat="46.40826" lon="0.28389">
        <ele>122.61485120282</ele>
        <time>2021-05-02T08:56:22Z</time>
      </trkpt>
      <trkpt lat="46.40826" lon="0.28391">
        <ele>122.89169242792</ele>
        <time>2021-05-02T08:56:23Z</time>
      </trkpt>
      <trkpt lat="46.40826" lon="0.28394">
        <ele>123.08952718787</ele>
        <time>2021-05-02T08:56:25Z</time>
      </trkpt>
      <trkpt lat="46.40825" lon="0.28399">
        <ele>122.94155121315</ele>
        <time>2021-05-02T08:56:27Z</time>
      </trkpt>
      <trkpt lat="46.40824" lon="0.28403">
        <ele>122.82134606875</ele>
        <time>2021-05-02T08:56:29Z</time>
      </trkpt>
      <trkpt lat="46.40825" lon="0.28408">
        <ele>123.01052322704</ele>
        <time>2021-05-02T08:56:31Z</time>
      </trkpt>
      <trkpt lat="46.40824" lon="0.28413">
        <ele>123.60341624543</ele>
        <time>2021-05-02T08:56:34Z</time>
      </trkpt>
      <trkpt lat="46.40824" lon="0.28416">
        <ele>123.51229460351</ele>
        <time>2021-05-02T08:56:36Z</time>
      </trkpt>
      <trkpt lat="46.40823" lon="0.28419">
        <ele>123.2142205853</ele>
        <time>2021-05-02T08:56:38Z</time>
      </trkpt>
      <trkpt lat="46.40822" lon="0.28423">
        <ele>123.46407556906</ele>
        <time>2021-05-02T08:56:40Z</time>
      </trkpt>
      <trkpt lat="46.40822" lon="0.28426">
        <ele>123.18623932078</ele>
        <time>2021-05-02T08:56:42Z</time>
      </trkpt>
      <trkpt lat="46.40822" lon="0.28429">
        <ele>123.33384380024</ele>
        <time>2021-05-02T08:56:44Z</time>
      </trkpt>
      <trkpt lat="46.40822" lon="0.28433">
        <ele>123.54209359176</ele>
        <time>2021-05-02T08:56:46Z</time>
      </trkpt>
      <trkpt lat="46.40821" lon="0.28437">
        <ele>123.26849551871</ele>
        <time>2021-05-02T08:56:48Z</time>
      </trkpt>
      <trkpt lat="46.4082" lon="0.28442">
        <ele>123.95854920428</ele>
        <time>2021-05-02T08:56:50Z</time>
      </trkpt>
      <trkpt lat="46.4082" lon="0.28446">
        <ele>123.63433260098</ele>
        <time>2021-05-02T08:56:53Z</time>
      </trkpt>
      <trkpt lat="46.40819" lon="0.2845">
        <ele>123.63685267139</ele>
        <time>2021-05-02T08:56:55Z</time>
      </trkpt>
      <trkpt lat="46.40819" lon="0.28453">
        <ele>123.52922554035</ele>
        <time>2021-05-02T08:56:56Z</time>
      </trkpt>
      <trkpt lat="46.40819" lon="0.28456">
        <ele>123.6978838155</ele>
        <time>2021-05-02T08:56:58Z</time>
      </trkpt>
      <trkpt lat="46.40818" lon="0.28459">
        <ele>123.66967176273</ele>
        <time>2021-05-02T08:57:00Z</time>
      </trkpt>
      <trkpt lat="46.40817" lon="0.28464">
        <ele>123.43890372105</ele>
        <time>2021-05-02T08:57:02Z</time>
      </trkpt>
      <trkpt lat="46.40817" lon="0.28467">
        <ele>123.41778268944</ele>
        <time>2021-05-02T08:57:04Z</time>
      </trkpt>
      <trkpt lat="46.40816" lon="0.28471">
        <ele>123.87522475235</ele>
        <time>2021-05-02T08:57:06Z</time>
      </trkpt>
      <trkpt lat="46.40815" lon="0.28474">
        <ele>123.9971674215</ele>
        <time>2021-05-02T08:57:08Z</time>
      </trkpt>
      <trkpt lat="46.40815" lon="0.28478">
        <ele>123.57713074517</ele>
        <time>2021-05-02T08:57:10Z</time>
      </trkpt>
      <trkpt lat="46.40815" lon="0.28481">
        <ele>123.35744338017</ele>
        <time>2021-05-02T08:57:12Z</time>
      </trkpt>
      <trkpt lat="46.40815" lon="0.28484">
        <ele>123.23245485686</ele>
        <time>2021-05-02T08:57:13Z</time>
      </trkpt>
      <trkpt lat="46.40815" lon="0.28488">
        <ele>123.67645095196</ele>
        <time>2021-05-02T08:57:15Z</time>
      </trkpt>
      <trkpt lat="46.40815" lon="0.28492">
        <ele>123.72683404665</ele>
        <time>2021-05-02T08:57:17Z</time>
      </trkpt>
      <trkpt lat="46.40815" lon="0.28495">
        <ele>123.80732810032</ele>
        <time>2021-05-02T08:57:19Z</time>
      </trkpt>
      <trkpt lat="46.40816" lon="0.28499">
        <ele>123.83293645736</ele>
        <time>2021-05-02T08:57:21Z</time>
      </trkpt>
      <trkpt lat="46.40816" lon="0.28503">
        <ele>124.2159697311</ele>
        <time>2021-05-02T08:57:23Z</time>
      </trkpt>
      <trkpt lat="46.40816" lon="0.28508">
        <ele>124.32290718611</ele>
        <time>2021-05-02T08:57:25Z</time>
      </trkpt>
      <trkpt lat="46.40816" lon="0.28512">
        <ele>124.26657240093</ele>
        <time>2021-05-02T08:57:27Z</time>
      </trkpt>
      <trkpt lat="46.40817" lon="0.28516">
        <ele>124.07680429984</ele>
        <time>2021-05-02T08:57:29Z</time>
      </trkpt>
      <trkpt lat="46.40816" lon="0.2852">
        <ele>124.22564454377</ele>
        <time>2021-05-02T08:57:31Z</time>
      </trkpt>
      <trkpt lat="46.40817" lon="0.28523">
        <ele>124.11806166917</ele>
        <time>2021-05-02T08:57:33Z</time>
      </trkpt>
      <trkpt lat="46.40817" lon="0.28527">
        <ele>123.74068680685</ele>
        <time>2021-05-02T08:57:35Z</time>
      </trkpt>
      <trkpt lat="46.40818" lon="0.2853">
        <ele>123.85351304989</ele>
        <time>2021-05-02T08:57:37Z</time>
      </trkpt>
      <trkpt lat="46.40818" lon="0.28534">
        <ele>123.97371988464</ele>
        <time>2021-05-02T08:57:39Z</time>
      </trkpt>
      <trkpt lat="46.40819" lon="0.28537">
        <ele>124.00638496596</ele>
        <time>2021-05-02T08:57:41Z</time>
      </trkpt>
      <trkpt lat="46.4082" lon="0.2854">
        <ele>124.07709387876</ele>
        <time>2021-05-02T08:57:43Z</time>
      </trkpt>
      <trkpt lat="46.4082" lon="0.28544">
        <ele>123.72756141424</ele>
        <time>2021-05-02T08:57:45Z</time>
      </trkpt>
      <trkpt lat="46.40821" lon="0.28547">
        <ele>123.71359710768</ele>
        <time>2021-05-02T08:57:47Z</time>
      </trkpt>
      <trkpt lat="46.40822" lon="0.2855">
        <ele>124.12937884219</ele>
        <time>2021-05-02T08:57:49Z</time>
      </trkpt>
      <trkpt lat="46.40823" lon="0.28554">
        <ele>123.89135615993</ele>
        <time>2021-05-02T08:57:51Z</time>
      </trkpt>
      <trkpt lat="46.40823" lon="0.28557">
        <ele>123.74671865534</ele>
        <time>2021-05-02T08:57:53Z</time>
      </trkpt>
      <trkpt lat="46.40824" lon="0.28562">
        <ele>123.1336707836</ele>
        <time>2021-05-02T08:57:55Z</time>
      </trkpt>
      <trkpt lat="46.40825" lon="0.28566">
        <ele>123.0213736007</ele>
        <time>2021-05-02T08:57:57Z</time>
      </trkpt>
      <trkpt lat="46.40825" lon="0.2857">
        <ele>123.36527556181</ele>
        <time>2021-05-02T08:57:59Z</time>
      </trkpt>
      <trkpt lat="46.40826" lon="0.28574">
        <ele>123.30036844499</ele>
        <time>2021-05-02T08:58:01Z</time>
      </trkpt>
      <trkpt lat="46.40828" lon="0.28577">
        <ele>123.62923446298</ele>
        <time>2021-05-02T08:58:03Z</time>
      </trkpt>
      <trkpt lat="46.40829" lon="0.28579">
        <ele>123.12614755798</ele>
        <time>2021-05-02T08:58:05Z</time>
      </trkpt>
      <trkpt lat="46.4083" lon="0.28584">
        <ele>123.66705369484</ele>
        <time>2021-05-02T08:58:07Z</time>
      </trkpt>
      <trkpt lat="46.40831" lon="0.28587">
        <ele>124.08545037173</ele>
        <time>2021-05-02T08:58:09Z</time>
      </trkpt>
      <trkpt lat="46.40833" lon="0.2859">
        <ele>124.37192232907</ele>
        <time>2021-05-02T08:58:11Z</time>
      </trkpt>
      <trkpt lat="46.40834" lon="0.28595">
        <ele>124.23934792168</ele>
        <time>2021-05-02T08:58:13Z</time>
      </trkpt>
      <trkpt lat="46.40836" lon="0.28598">
        <ele>124.17776604556</ele>
        <time>2021-05-02T08:58:15Z</time>
      </trkpt>
      <trkpt lat="46.40837" lon="0.28601">
        <ele>123.9701133864</ele>
        <time>2021-05-02T08:58:16Z</time>
      </trkpt>
      <trkpt lat="46.40838" lon="0.28604">
        <ele>123.6817692779</ele>
        <time>2021-05-02T08:58:18Z</time>
      </trkpt>
      <trkpt lat="46.40839" lon="0.28607">
        <ele>123.14010021091</ele>
        <time>2021-05-02T08:58:20Z</time>
      </trkpt>
      <trkpt lat="46.40841" lon="0.2861">
        <ele>122.9613222722</ele>
        <time>2021-05-02T08:58:22Z</time>
      </trkpt>
      <trkpt lat="46.40842" lon="0.28613">
        <ele>123.49401563406</ele>
        <time>2021-05-02T08:58:23Z</time>
      </trkpt>
      <trkpt lat="46.40843" lon="0.28615">
        <ele>123.17202872876</ele>
        <time>2021-05-02T08:58:25Z</time>
      </trkpt>
      <trkpt lat="46.40844" lon="0.28618">
        <ele>123.13552066125</ele>
        <time>2021-05-02T08:58:26Z</time>
      </trkpt>
      <trkpt lat="46.40846" lon="0.28621">
        <ele>123.28881529253</ele>
        <time>2021-05-02T08:58:28Z</time>
      </trkpt>
      <trkpt lat="46.40847" lon="0.28624">
        <ele>123.35089342389</ele>
        <time>2021-05-02T08:58:30Z</time>
      </trkpt>
      <trkpt lat="46.40849" lon="0.28628">
        <ele>123.18703123648</ele>
        <time>2021-05-02T08:58:32Z</time>
      </trkpt>
      <trkpt lat="46.4085" lon="0.2863">
        <ele>123.3323444128</ele>
        <time>2021-05-02T08:58:34Z</time>
      </trkpt>
      <trkpt lat="46.40852" lon="0.28633">
        <ele>123.41400113609</ele>
        <time>2021-05-02T08:58:36Z</time>
      </trkpt>
      <trkpt lat="46.40854" lon="0.28636">
        <ele>122.80717420671</ele>
        <time>2021-05-02T08:58:38Z</time>
      </trkpt>
      <trkpt lat="46.40855" lon="0.28639">
        <ele>123.23778935242</ele>
        <time>2021-05-02T08:58:40Z</time>
      </trkpt>
      <trkpt lat="46.40857" lon="0.28641">
        <ele>123.09696170036</ele>
        <time>2021-05-02T08:58:42Z</time>
      </trkpt>
      <trkpt lat="46.40859" lon="0.28644">
        <ele>123.25706879608</ele>
        <time>2021-05-02T08:58:44Z</time>
      </trkpt>
      <trkpt lat="46.4086" lon="0.28648">
        <ele>123.13317174278</ele>
        <time>2021-05-02T08:58:46Z</time>
      </trkpt>
      <trkpt lat="46.40862" lon="0.28651">
        <ele>123.42159695551</ele>
        <time>2021-05-02T08:58:48Z</time>
      </trkpt>
      <trkpt lat="46.40864" lon="0.28654">
        <ele>123.19015772734</ele>
        <time>2021-05-02T08:58:50Z</time>
      </trkpt>
      <trkpt lat="46.40865" lon="0.28657">
        <ele>123.38196481951</ele>
        <time>2021-05-02T08:58:52Z</time>
      </trkpt>
      <trkpt lat="46.40866" lon="0.28661">
        <ele>123.56200953573</ele>
        <time>2021-05-02T08:58:54Z</time>
      </trkpt>
      <trkpt lat="46.40867" lon="0.28663">
        <ele>123.85024698824</ele>
        <time>2021-05-02T08:58:55Z</time>
      </trkpt>
      <trkpt lat="46.40868" lon="0.28666">
        <ele>123.23783129733</ele>
        <time>2021-05-02T08:58:57Z</time>
      </trkpt>
      <trkpt lat="46.40869" lon="0.28669">
        <ele>123.01473601721</ele>
        <time>2021-05-02T08:58:59Z</time>
      </trkpt>
      <trkpt lat="46.4087" lon="0.28673">
        <ele>123.04039027076</ele>
        <time>2021-05-02T08:59:01Z</time>
      </trkpt>
      <trkpt lat="46.40872" lon="0.28677">
        <ele>122.95310469344</ele>
        <time>2021-05-02T08:59:03Z</time>
      </trkpt>
      <trkpt lat="46.40873" lon="0.2868">
        <ele>123.66901648045</ele>
        <time>2021-05-02T08:59:05Z</time>
      </trkpt>
      <trkpt lat="46.40874" lon="0.28682">
        <ele>122.92391489074</ele>
        <time>2021-05-02T08:59:07Z</time>
      </trkpt>
      <trkpt lat="46.40876" lon="0.28686">
        <ele>122.80169537943</ele>
        <time>2021-05-02T08:59:09Z</time>
      </trkpt>
      <trkpt lat="46.40877" lon="0.28689">
        <ele>122.92565744091</ele>
        <time>2021-05-02T08:59:11Z</time>
      </trkpt>
      <trkpt lat="46.40879" lon="0.28692">
        <ele>122.68733637501</ele>
        <time>2021-05-02T08:59:13Z</time>
      </trkpt>
      <trkpt lat="46.4088" lon="0.28696">
        <ele>122.5018233275</ele>
        <time>2021-05-02T08:59:15Z</time>
      </trkpt>
      <trkpt lat="46.40882" lon="0.28699">
        <ele>122.79783747438</ele>
        <time>2021-05-02T08:59:17Z</time>
      </trkpt>
      <trkpt lat="46.40883" lon="0.28701">
        <ele>122.921286745</ele>
        <time>2021-05-02T08:59:19Z</time>
      </trkpt>
      <trkpt lat="46.40885" lon="0.28705">
        <ele>122.30715719052</ele>
        <time>2021-05-02T08:59:21Z</time>
      </trkpt>
      <trkpt lat="46.40886" lon="0.28708">
        <ele>122.55451418459</ele>
        <time>2021-05-02T08:59:23Z</time>
      </trkpt>
      <trkpt lat="46.40887" lon="0.28712">
        <ele>122.18384663668</ele>
        <time>2021-05-02T08:59:25Z</time>
      </trkpt>
      <trkpt lat="46.40888" lon="0.28715">
        <ele>122.32660967205</ele>
        <time>2021-05-02T08:59:27Z</time>
      </trkpt>
      <trkpt lat="46.4089" lon="0.28718">
        <ele>122.41566615179</ele>
        <time>2021-05-02T08:59:29Z</time>
      </trkpt>
      <trkpt lat="46.40891" lon="0.28721">
        <ele>122.49076858629</ele>
        <time>2021-05-02T08:59:31Z</time>
      </trkpt>
      <trkpt lat="46.40893" lon="0.28725">
        <ele>122.63790564705</ele>
        <time>2021-05-02T08:59:33Z</time>
      </trkpt>
      <trkpt lat="46.40894" lon="0.28728">
        <ele>121.84778385982</ele>
        <time>2021-05-02T08:59:35Z</time>
      </trkpt>
      <trkpt lat="46.40896" lon="0.28731">
        <ele>121.6419371618</ele>
        <time>2021-05-02T08:59:37Z</time>
      </trkpt>
      <trkpt lat="46.40898" lon="0.28734">
        <ele>122.34470691718</ele>
        <time>2021-05-02T08:59:39Z</time>
      </trkpt>
      <trkpt lat="46.40899" lon="0.28738">
        <ele>122.67678432912</ele>
        <time>2021-05-02T08:59:41Z</time>
      </trkpt>
      <trkpt lat="46.40901" lon="0.28741">
        <ele>122.51034489833</ele>
        <time>2021-05-02T08:59:43Z</time>
      </trkpt>
      <trkpt lat="46.40903" lon="0.28744">
        <ele>122.28934541624</ele>
        <time>2021-05-02T08:59:45Z</time>
      </trkpt>
      <trkpt lat="46.40904" lon="0.28746">
        <ele>122.14304311294</ele>
        <time>2021-05-02T08:59:47Z</time>
      </trkpt>
      <trkpt lat="46.40905" lon="0.2875">
        <ele>122.13442329876</ele>
        <time>2021-05-02T08:59:49Z</time>
      </trkpt>
      <trkpt lat="46.40907" lon="0.28753">
        <ele>122.11210928392</ele>
        <time>2021-05-02T08:59:51Z</time>
      </trkpt>
      <trkpt lat="46.40908" lon="0.28755">
        <ele>122.28660797607</ele>
        <time>2021-05-02T08:59:52Z</time>
      </trkpt>
      <trkpt lat="46.4091" lon="0.28759">
        <ele>122.06500420161</ele>
        <time>2021-05-02T08:59:55Z</time>
      </trkpt>
      <trkpt lat="46.40911" lon="0.28761">
        <ele>122.0838782331</ele>
        <time>2021-05-02T08:59:57Z</time>
      </trkpt>
      <trkpt lat="46.40912" lon="0.28763">
        <ele>122.00489813369</ele>
        <time>2021-05-02T08:59:58Z</time>
      </trkpt>
      <trkpt lat="46.40914" lon="0.28766">
        <ele>122.20228945743</ele>
        <time>2021-05-02T09:00:00Z</time>
      </trkpt>
      <trkpt lat="46.40916" lon="0.2877">
        <ele>122.35896013491</ele>
        <time>2021-05-02T09:00:02Z</time>
      </trkpt>
      <trkpt lat="46.40917" lon="0.28773">
        <ele>121.83241690788</ele>
        <time>2021-05-02T09:00:04Z</time>
      </trkpt>
      <trkpt lat="46.40919" lon="0.28776">
        <ele>121.8245689366</ele>
        <time>2021-05-02T09:00:06Z</time>
      </trkpt>
      <trkpt lat="46.40921" lon="0.28778">
        <ele>121.55164440349</ele>
        <time>2021-05-02T09:00:08Z</time>
      </trkpt>
      <trkpt lat="46.40923" lon="0.28781">
        <ele>121.79283497017</ele>
        <time>2021-05-02T09:00:10Z</time>
      </trkpt>
      <trkpt lat="46.40925" lon="0.28784">
        <ele>121.3946530344</ele>
        <time>2021-05-02T09:00:12Z</time>
      </trkpt>
      <trkpt lat="46.40927" lon="0.28787">
        <ele>121.42818757612</ele>
        <time>2021-05-02T09:00:14Z</time>
      </trkpt>
      <trkpt lat="46.40929" lon="0.2879">
        <ele>121.36306203529</ele>
        <time>2021-05-02T09:00:16Z</time>
      </trkpt>
      <trkpt lat="46.4093" lon="0.28792">
        <ele>120.90590652265</ele>
        <time>2021-05-02T09:00:18Z</time>
      </trkpt>
      <trkpt lat="46.40932" lon="0.28795">
        <ele>121.24977110513</ele>
        <time>2021-05-02T09:00:20Z</time>
      </trkpt>
      <trkpt lat="46.40934" lon="0.28797">
        <ele>121.3797987774</ele>
        <time>2021-05-02T09:00:22Z</time>
      </trkpt>
      <trkpt lat="46.40936" lon="0.288">
        <ele>121.79394491948</ele>
        <time>2021-05-02T09:00:24Z</time>
      </trkpt>
      <trkpt lat="46.40938" lon="0.28802">
        <ele>121.0536011802</ele>
        <time>2021-05-02T09:00:26Z</time>
      </trkpt>
      <trkpt lat="46.4094" lon="0.28806">
        <ele>121.22605388053</ele>
        <time>2021-05-02T09:00:29Z</time>
      </trkpt>
      <trkpt lat="46.40942" lon="0.2881">
        <ele>121.62418101821</ele>
        <time>2021-05-02T09:00:31Z</time>
      </trkpt>
      <trkpt lat="46.40944" lon="0.28812">
        <ele>121.27667093463</ele>
        <time>2021-05-02T09:00:34Z</time>
      </trkpt>
      <trkpt lat="46.40946" lon="0.28815">
        <ele>121.30061475188</ele>
        <time>2021-05-02T09:00:35Z</time>
      </trkpt>
      <trkpt lat="46.40948" lon="0.28819">
        <ele>121.18471344933</ele>
        <time>2021-05-02T09:00:38Z</time>
      </trkpt>
      <trkpt lat="46.40949" lon="0.28822">
        <ele>120.87757409271</ele>
        <time>2021-05-02T09:00:40Z</time>
      </trkpt>
      <trkpt lat="46.40951" lon="0.28824">
        <ele>120.5226304112</ele>
        <time>2021-05-02T09:00:42Z</time>
      </trkpt>
      <trkpt lat="46.40952" lon="0.28828">
        <ele>121.0054304041</ele>
        <time>2021-05-02T09:00:44Z</time>
      </trkpt>
      <trkpt lat="46.40954" lon="0.28831">
        <ele>120.71248855442</ele>
        <time>2021-05-02T09:00:46Z</time>
      </trkpt>
      <trkpt lat="46.40955" lon="0.28833">
        <ele>120.54001765139</ele>
        <time>2021-05-02T09:00:48Z</time>
      </trkpt>
      <trkpt lat="46.40957" lon="0.28837">
        <ele>120.48819778487</ele>
        <time>2021-05-02T09:00:50Z</time>
      </trkpt>
      <trkpt lat="46.40958" lon="0.28839">
        <ele>120.46691653877</ele>
        <time>2021-05-02T09:00:52Z</time>
      </trkpt>
      <trkpt lat="46.40959" lon="0.28844">
        <ele>120.3310512146</ele>
        <time>2021-05-02T09:00:54Z</time>
      </trkpt>
      <trkpt lat="46.40961" lon="0.28846">
        <ele>120.2210375797</ele>
        <time>2021-05-02T09:00:56Z</time>
      </trkpt>
      <trkpt lat="46.40962" lon="0.2885">
        <ele>120.60492815729</ele>
        <time>2021-05-02T09:00:58Z</time>
      </trkpt>
      <trkpt lat="46.40962" lon="0.28853">
        <ele>121.07140885945</ele>
        <time>2021-05-02T09:01:00Z</time>
      </trkpt>
      <trkpt lat="46.40964" lon="0.28855">
        <ele>120.58558163978</ele>
        <time>2021-05-02T09:01:02Z</time>
      </trkpt>
      <trkpt lat="46.40966" lon="0.28858">
        <ele>119.96765235998</ele>
        <time>2021-05-02T09:01:04Z</time>
      </trkpt>
      <trkpt lat="46.40966" lon="0.28862">
        <ele>120.35283432435</ele>
        <time>2021-05-02T09:01:06Z</time>
      </trkpt>
      <trkpt lat="46.40967" lon="0.28865">
        <ele>120.14584276732</ele>
        <time>2021-05-02T09:01:08Z</time>
      </trkpt>
      <trkpt lat="46.40968" lon="0.28869">
        <ele>120.5768331876</ele>
        <time>2021-05-02T09:01:10Z</time>
      </trkpt>
      <trkpt lat="46.4097" lon="0.28871">
        <ele>120.3630466843</ele>
        <time>2021-05-02T09:01:12Z</time>
      </trkpt>
      <trkpt lat="46.40971" lon="0.28875">
        <ele>120.02929847129</ele>
        <time>2021-05-02T09:01:14Z</time>
      </trkpt>
      <trkpt lat="46.40972" lon="0.28878">
        <ele>119.99633289874</ele>
        <time>2021-05-02T09:01:16Z</time>
      </trkpt>
      <trkpt lat="46.40973" lon="0.28882">
        <ele>120.08488744777</ele>
        <time>2021-05-02T09:01:18Z</time>
      </trkpt>
      <trkpt lat="46.40974" lon="0.28885">
        <ele>120.26185617037</ele>
        <time>2021-05-02T09:01:20Z</time>
      </trkpt>
      <trkpt lat="46.40975" lon="0.28888">
        <ele>120.41495501716</ele>
        <time>2021-05-02T09:01:21Z</time>
      </trkpt>
      <trkpt lat="46.40976" lon="0.28891">
        <ele>120.33954407834</ele>
        <time>2021-05-02T09:01:23Z</time>
      </trkpt>
      <trkpt lat="46.40976" lon="0.28895">
        <ele>120.33863087464</ele>
        <time>2021-05-02T09:01:25Z</time>
      </trkpt>
      <trkpt lat="46.40977" lon="0.28897">
        <ele>120.50289207976</ele>
        <time>2021-05-02T09:01:26Z</time>
      </trkpt>
      <trkpt lat="46.40978" lon="0.28901">
        <ele>120.01325341221</ele>
        <time>2021-05-02T09:01:29Z</time>
      </trkpt>
      <trkpt lat="46.40978" lon="0.28905">
        <ele>120.18315488845</ele>
        <time>2021-05-02T09:01:31Z</time>
      </trkpt>
      <trkpt lat="46.40979" lon="0.28908">
        <ele>120.27176359668</ele>
        <time>2021-05-02T09:01:33Z</time>
      </trkpt>
      <trkpt lat="46.4098" lon="0.28912">
        <ele>120.20322284102</ele>
        <time>2021-05-02T09:01:35Z</time>
      </trkpt>
      <trkpt lat="46.4098" lon="0.28916">
        <ele>120.31839729752</ele>
        <time>2021-05-02T09:01:37Z</time>
      </trkpt>
      <trkpt lat="46.40981" lon="0.2892">
        <ele>120.61169863213</ele>
        <time>2021-05-02T09:01:39Z</time>
      </trkpt>
      <trkpt lat="46.40982" lon="0.28925">
        <ele>120.08545245044</ele>
        <time>2021-05-02T09:01:41Z</time>
      </trkpt>
      <trkpt lat="46.40983" lon="0.28929">
        <ele>120.55363084376</ele>
        <time>2021-05-02T09:01:44Z</time>
      </trkpt>
      <trkpt lat="46.40983" lon="0.28933">
        <ele>120.79560262803</ele>
        <time>2021-05-02T09:01:46Z</time>
      </trkpt>
      <trkpt lat="46.40984" lon="0.28937">
        <ele>120.6570070833</ele>
        <time>2021-05-02T09:01:48Z</time>
      </trkpt>
      <trkpt lat="46.40985" lon="0.2894">
        <ele>120.70246319193</ele>
        <time>2021-05-02T09:01:50Z</time>
      </trkpt>
      <trkpt lat="46.40986" lon="0.28944">
        <ele>120.82510046009</ele>
        <time>2021-05-02T09:01:52Z</time>
      </trkpt>
      <trkpt lat="46.40986" lon="0.28948">
        <ele>120.9539942462</ele>
        <time>2021-05-02T09:01:54Z</time>
      </trkpt>
      <trkpt lat="46.40987" lon="0.28952">
        <ele>120.79944044258</ele>
        <time>2021-05-02T09:01:56Z</time>
      </trkpt>
      <trkpt lat="46.40988" lon="0.28956">
        <ele>120.91874589678</ele>
        <time>2021-05-02T09:01:58Z</time>
      </trkpt>
      <trkpt lat="46.40989" lon="0.28959">
        <ele>121.02039204165</ele>
        <time>2021-05-02T09:02:00Z</time>
      </trkpt>
      <trkpt lat="46.40989" lon="0.28962">
        <ele>120.99746931251</ele>
        <time>2021-05-02T09:02:01Z</time>
      </trkpt>
      <trkpt lat="46.4099" lon="0.28966">
        <ele>121.12527214922</ele>
        <time>2021-05-02T09:02:03Z</time>
      </trkpt>
      <trkpt lat="46.4099" lon="0.28969">
        <ele>120.83844754752</ele>
        <time>2021-05-02T09:02:05Z</time>
      </trkpt>
      <trkpt lat="46.40991" lon="0.28973">
        <ele>121.18907888327</ele>
        <time>2021-05-02T09:02:07Z</time>
      </trkpt>
      <trkpt lat="46.40992" lon="0.28975">
        <ele>121.07295302674</ele>
        <time>2021-05-02T09:02:09Z</time>
      </trkpt>
      <trkpt lat="46.40992" lon="0.28979">
        <ele>121.23816888034</ele>
        <time>2021-05-02T09:02:11Z</time>
      </trkpt>
      <trkpt lat="46.40993" lon="0.28983">
        <ele>121.29972932581</ele>
        <time>2021-05-02T09:02:13Z</time>
      </trkpt>
      <trkpt lat="46.40994" lon="0.28987">
        <ele>120.82346339617</ele>
        <time>2021-05-02T09:02:15Z</time>
      </trkpt>
      <trkpt lat="46.40995" lon="0.28992">
        <ele>120.98193166312</ele>
        <time>2021-05-02T09:02:18Z</time>
      </trkpt>
      <trkpt lat="46.40995" lon="0.28995">
        <ele>121.02123214677</ele>
        <time>2021-05-02T09:02:20Z</time>
      </trkpt>
      <trkpt lat="46.40996" lon="0.28999">
        <ele>120.71778812259</ele>
        <time>2021-05-02T09:02:22Z</time>
      </trkpt>
      <trkpt lat="46.40996" lon="0.29003">
        <ele>121.23126066942</ele>
        <time>2021-05-02T09:02:24Z</time>
      </trkpt>
      <trkpt lat="46.40997" lon="0.29007">
        <ele>120.72203817405</ele>
        <time>2021-05-02T09:02:26Z</time>
      </trkpt>
      <trkpt lat="46.40998" lon="0.2901">
        <ele>120.76780360751</ele>
        <time>2021-05-02T09:02:28Z</time>
      </trkpt>
      <trkpt lat="46.40999" lon="0.29014">
        <ele>120.64315945748</ele>
        <time>2021-05-02T09:02:30Z</time>
      </trkpt>
      <trkpt lat="46.41" lon="0.29016">
        <ele>120.63993559219</ele>
        <time>2021-05-02T09:02:32Z</time>
      </trkpt>
      <trkpt lat="46.41" lon="0.29021">
        <ele>120.61496748962</ele>
        <time>2021-05-02T09:02:34Z</time>
      </trkpt>
      <trkpt lat="46.41002" lon="0.29024">
        <ele>120.70127008669</ele>
        <time>2021-05-02T09:02:36Z</time>
      </trkpt>
      <trkpt lat="46.41003" lon="0.29027">
        <ele>120.38286576606</ele>
        <time>2021-05-02T09:02:38Z</time>
      </trkpt>
      <trkpt lat="46.41004" lon="0.29031">
        <ele>120.47734367754</ele>
        <time>2021-05-02T09:02:40Z</time>
      </trkpt>
      <trkpt lat="46.41005" lon="0.29034">
        <ele>120.49958906136</ele>
        <time>2021-05-02T09:02:42Z</time>
      </trkpt>
      <trkpt lat="46.41006" lon="0.29038">
        <ele>120.44386949297</ele>
        <time>2021-05-02T09:02:44Z</time>
      </trkpt>
      <trkpt lat="46.41007" lon="0.29041">
        <ele>120.62122711167</ele>
        <time>2021-05-02T09:02:46Z</time>
      </trkpt>
      <trkpt lat="46.41008" lon="0.29045">
        <ele>120.749421129</ele>
        <time>2021-05-02T09:02:48Z</time>
      </trkpt>
      <trkpt lat="46.41009" lon="0.29049">
        <ele>120.96621189639</ele>
        <time>2021-05-02T09:02:50Z</time>
      </trkpt>
      <trkpt lat="46.4101" lon="0.29053">
        <ele>120.74490416422</ele>
        <time>2021-05-02T09:02:52Z</time>
      </trkpt>
      <trkpt lat="46.41012" lon="0.29057">
        <ele>120.73483659234</ele>
        <time>2021-05-02T09:02:54Z</time>
      </trkpt>
      <trkpt lat="46.41013" lon="0.2906">
        <ele>120.64944195002</ele>
        <time>2021-05-02T09:02:56Z</time>
      </trkpt>
      <trkpt lat="46.41014" lon="0.29064">
        <ele>120.76337167621</ele>
        <time>2021-05-02T09:02:58Z</time>
      </trkpt>
      <trkpt lat="46.41015" lon="0.29067">
        <ele>120.58241728507</ele>
        <time>2021-05-02T09:03:00Z</time>
      </trkpt>
      <trkpt lat="46.41017" lon="0.29071">
        <ele>120.3210273562</ele>
        <time>2021-05-02T09:03:02Z</time>
      </trkpt>
      <trkpt lat="46.41019" lon="0.29074">
        <ele>120.70480205491</ele>
        <time>2021-05-02T09:03:04Z</time>
      </trkpt>
      <trkpt lat="46.4102" lon="0.29077">
        <ele>120.5087124221</ele>
        <time>2021-05-02T09:03:06Z</time>
      </trkpt>
      <trkpt lat="46.41022" lon="0.29079">
        <ele>119.98071704339</ele>
        <time>2021-05-02T09:03:08Z</time>
      </trkpt>
      <trkpt lat="46.41024" lon="0.29083">
        <ele>120.20239805523</ele>
        <time>2021-05-02T09:03:10Z</time>
      </trkpt>
      <trkpt lat="46.41025" lon="0.29086">
        <ele>120.33660058212</ele>
        <time>2021-05-02T09:03:12Z</time>
      </trkpt>
      <trkpt lat="46.41027" lon="0.2909">
        <ele>120.35781905614</ele>
        <time>2021-05-02T09:03:14Z</time>
      </trkpt>
      <trkpt lat="46.41028" lon="0.29092">
        <ele>120.32814825885</ele>
        <time>2021-05-02T09:03:16Z</time>
      </trkpt>
      <trkpt lat="46.4103" lon="0.29097">
        <ele>120.35553211626</ele>
        <time>2021-05-02T09:03:18Z</time>
      </trkpt>
      <trkpt lat="46.41032" lon="0.291">
        <ele>120.42860563379</ele>
        <time>2021-05-02T09:03:21Z</time>
      </trkpt>
      <trkpt lat="46.41033" lon="0.29102">
        <ele>120.36401947401</ele>
        <time>2021-05-02T09:03:22Z</time>
      </trkpt>
      <trkpt lat="46.41035" lon="0.29105">
        <ele>120.3125016652</ele>
        <time>2021-05-02T09:03:24Z</time>
      </trkpt>
      <trkpt lat="46.41036" lon="0.29108">
        <ele>120.24277973734</ele>
        <time>2021-05-02T09:03:26Z</time>
      </trkpt>
      <trkpt lat="46.41038" lon="0.29112">
        <ele>120.28305615205</ele>
        <time>2021-05-02T09:03:28Z</time>
      </trkpt>
      <trkpt lat="46.4104" lon="0.29115">
        <ele>120.30151332356</ele>
        <time>2021-05-02T09:03:30Z</time>
      </trkpt>
      <trkpt lat="46.41041" lon="0.29118">
        <ele>120.4652551543</ele>
        <time>2021-05-02T09:03:32Z</time>
      </trkpt>
      <trkpt lat="46.41043" lon="0.29121">
        <ele>120.53215785418</ele>
        <time>2021-05-02T09:03:34Z</time>
      </trkpt>
      <trkpt lat="46.41044" lon="0.29125">
        <ele>120.19850891549</ele>
        <time>2021-05-02T09:03:36Z</time>
      </trkpt>
      <trkpt lat="46.41046" lon="0.29127">
        <ele>120.1638799943</ele>
        <time>2021-05-02T09:03:38Z</time>
      </trkpt>
      <trkpt lat="46.41048" lon="0.29131">
        <ele>120.32299060095</ele>
        <time>2021-05-02T09:03:40Z</time>
      </trkpt>
      <trkpt lat="46.41049" lon="0.29134">
        <ele>120.26851997431</ele>
        <time>2021-05-02T09:03:42Z</time>
      </trkpt>
      <trkpt lat="46.41051" lon="0.29138">
        <ele>120.15793304518</ele>
        <time>2021-05-02T09:03:44Z</time>
      </trkpt>
      <trkpt lat="46.41053" lon="0.2914">
        <ele>120.47389866691</ele>
        <time>2021-05-02T09:03:46Z</time>
      </trkpt>
      <trkpt lat="46.41055" lon="0.29144">
        <ele>120.73242419027</ele>
        <time>2021-05-02T09:03:48Z</time>
      </trkpt>
      <trkpt lat="46.41056" lon="0.29147">
        <ele>120.60260485858</ele>
        <time>2021-05-02T09:03:50Z</time>
      </trkpt>
      <trkpt lat="46.41058" lon="0.2915">
        <ele>120.14795810916</ele>
        <time>2021-05-02T09:03:52Z</time>
      </trkpt>
      <trkpt lat="46.41059" lon="0.29154">
        <ele>119.76415590011</ele>
        <time>2021-05-02T09:03:54Z</time>
      </trkpt>
      <trkpt lat="46.4106" lon="0.29157">
        <ele>120.43203068897</ele>
        <time>2021-05-02T09:03:56Z</time>
      </trkpt>
      <trkpt lat="46.41062" lon="0.29161">
        <ele>120.51554982644</ele>
        <time>2021-05-02T09:03:58Z</time>
      </trkpt>
      <trkpt lat="46.41063" lon="0.29164">
        <ele>120.49118309375</ele>
        <time>2021-05-02T09:04:00Z</time>
      </trkpt>
      <trkpt lat="46.41065" lon="0.29168">
        <ele>120.46807119623</ele>
        <time>2021-05-02T09:04:02Z</time>
      </trkpt>
      <trkpt lat="46.41066" lon="0.2917">
        <ele>120.61608071532</ele>
        <time>2021-05-02T09:04:04Z</time>
      </trkpt>
      <trkpt lat="46.41067" lon="0.29174">
        <ele>120.45966032054</ele>
        <time>2021-05-02T09:04:06Z</time>
      </trkpt>
      <trkpt lat="46.41069" lon="0.29177">
        <ele>120.55365881603</ele>
        <time>2021-05-02T09:04:08Z</time>
      </trkpt>
      <trkpt lat="46.41069" lon="0.2918">
        <ele>120.76797473803</ele>
        <time>2021-05-02T09:04:10Z</time>
      </trkpt>
      <trkpt lat="46.4107" lon="0.29184">
        <ele>120.58242687769</ele>
        <time>2021-05-02T09:04:12Z</time>
      </trkpt>
      <trkpt lat="46.41071" lon="0.29187">
        <ele>120.8193688374</ele>
        <time>2021-05-02T09:04:14Z</time>
      </trkpt>
      <trkpt lat="46.41073" lon="0.2919">
        <ele>120.36266273353</ele>
        <time>2021-05-02T09:04:16Z</time>
      </trkpt>
      <trkpt lat="46.41074" lon="0.29194">
        <ele>120.40747226495</ele>
        <time>2021-05-02T09:04:18Z</time>
      </trkpt>
      <trkpt lat="46.41075" lon="0.29197">
        <ele>120.36357504595</ele>
        <time>2021-05-02T09:04:20Z</time>
      </trkpt>
      <trkpt lat="46.41075" lon="0.29202">
        <ele>120.37432043161</ele>
        <time>2021-05-02T09:04:22Z</time>
      </trkpt>
      <trkpt lat="46.41077" lon="0.29205">
        <ele>120.47123584058</ele>
        <time>2021-05-02T09:04:24Z</time>
      </trkpt>
      <trkpt lat="46.41077" lon="0.29208">
        <ele>120.84233662207</ele>
        <time>2021-05-02T09:04:25Z</time>
      </trkpt>
      <trkpt lat="46.41078" lon="0.29211">
        <ele>120.62071983144</ele>
        <time>2021-05-02T09:04:27Z</time>
      </trkpt>
      <trkpt lat="46.41079" lon="0.29213">
        <ele>120.8377351677</ele>
        <time>2021-05-02T09:04:28Z</time>
      </trkpt>
      <trkpt lat="46.41079" lon="0.29217">
        <ele>120.56209112145</ele>
        <time>2021-05-02T09:04:30Z</time>
      </trkpt>
      <trkpt lat="46.4108" lon="0.29221">
        <ele>120.86771595292</ele>
        <time>2021-05-02T09:04:32Z</time>
      </trkpt>
      <trkpt lat="46.41081" lon="0.29224">
        <ele>121.40487712156</ele>
        <time>2021-05-02T09:04:34Z</time>
      </trkpt>
      <trkpt lat="46.41081" lon="0.29228">
        <ele>121.28978109732</ele>
        <time>2021-05-02T09:04:36Z</time>
      </trkpt>
      <trkpt lat="46.41082" lon="0.29232">
        <ele>121.46055722423</ele>
        <time>2021-05-02T09:04:38Z</time>
      </trkpt>
      <trkpt lat="46.41082" lon="0.29236">
        <ele>121.52439258993</ele>
        <time>2021-05-02T09:04:40Z</time>
      </trkpt>
      <trkpt lat="46.41083" lon="0.29239">
        <ele>121.48153952975</ele>
        <time>2021-05-02T09:04:42Z</time>
      </trkpt>
      <trkpt lat="46.41083" lon="0.29243">
        <ele>121.52464996465</ele>
        <time>2021-05-02T09:04:44Z</time>
      </trkpt>
      <trkpt lat="46.41084" lon="0.29246">
        <ele>121.59302965924</ele>
        <time>2021-05-02T09:04:46Z</time>
      </trkpt>
      <trkpt lat="46.41084" lon="0.2925">
        <ele>121.77431096602</ele>
        <time>2021-05-02T09:04:48Z</time>
      </trkpt>
      <trkpt lat="46.41085" lon="0.29253">
        <ele>121.8921242971</ele>
        <time>2021-05-02T09:04:50Z</time>
      </trkpt>
      <trkpt lat="46.41085" lon="0.29257">
        <ele>122.16107704211</ele>
        <time>2021-05-02T09:04:52Z</time>
      </trkpt>
      <trkpt lat="46.41086" lon="0.2926">
        <ele>121.6572535811</ele>
        <time>2021-05-02T09:04:54Z</time>
      </trkpt>
      <trkpt lat="46.41086" lon="0.29264">
        <ele>122.10866197105</ele>
        <time>2021-05-02T09:04:56Z</time>
      </trkpt>
      <trkpt lat="46.41086" lon="0.29269">
        <ele>122.05843747873</ele>
        <time>2021-05-02T09:04:58Z</time>
      </trkpt>
      <trkpt lat="46.41086" lon="0.29274">
        <ele>121.87300780509</ele>
        <time>2021-05-02T09:05:00Z</time>
      </trkpt>
      <trkpt lat="46.41086" lon="0.29276">
        <ele>121.95680239424</ele>
        <time>2021-05-02T09:05:02Z</time>
      </trkpt>
      <trkpt lat="46.41086" lon="0.29279">
        <ele>122.17465306725</ele>
        <time>2021-05-02T09:05:03Z</time>
      </trkpt>
      <trkpt lat="46.41086" lon="0.29282">
        <ele>122.17196361348</ele>
        <time>2021-05-02T09:05:05Z</time>
      </trkpt>
      <trkpt lat="46.41087" lon="0.29287">
        <ele>122.67939398438</ele>
        <time>2021-05-02T09:05:07Z</time>
      </trkpt>
      <trkpt lat="46.41087" lon="0.29291">
        <ele>122.62611541152</ele>
        <time>2021-05-02T09:05:09Z</time>
      </trkpt>
      <trkpt lat="46.41086" lon="0.29295">
        <ele>122.62892575748</ele>
        <time>2021-05-02T09:05:11Z</time>
      </trkpt>
      <trkpt lat="46.41086" lon="0.293">
        <ele>122.67886733171</ele>
        <time>2021-05-02T09:05:13Z</time>
      </trkpt>
      <trkpt lat="46.41086" lon="0.29304">
        <ele>122.60368858557</ele>
        <time>2021-05-02T09:05:15Z</time>
      </trkpt>
      <trkpt lat="46.41086" lon="0.29308">
        <ele>122.69784582313</ele>
        <time>2021-05-02T09:05:17Z</time>
      </trkpt>
      <trkpt lat="46.41086" lon="0.29312">
        <ele>122.72658415977</ele>
        <time>2021-05-02T09:05:19Z</time>
      </trkpt>
      <trkpt lat="46.41086" lon="0.29315">
        <ele>122.6856088303</ele>
        <time>2021-05-02T09:05:21Z</time>
      </trkpt>
      <trkpt lat="46.41085" lon="0.29319">
        <ele>122.64690511115</ele>
        <time>2021-05-02T09:05:23Z</time>
      </trkpt>
      <trkpt lat="46.41085" lon="0.29323">
        <ele>122.58569328766</ele>
        <time>2021-05-02T09:05:25Z</time>
      </trkpt>
      <trkpt lat="46.41085" lon="0.29327">
        <ele>122.80451318715</ele>
        <time>2021-05-02T09:05:27Z</time>
      </trkpt>
      <trkpt lat="46.41085" lon="0.2933">
        <ele>122.96664572693</ele>
        <time>2021-05-02T09:05:29Z</time>
      </trkpt>
      <trkpt lat="46.41085" lon="0.29334">
        <ele>122.83706540521</ele>
        <time>2021-05-02T09:05:31Z</time>
      </trkpt>
      <trkpt lat="46.41085" lon="0.29338">
        <ele>122.89226785488</ele>
        <time>2021-05-02T09:05:33Z</time>
      </trkpt>
      <trkpt lat="46.41085" lon="0.29342">
        <ele>122.83872087579</ele>
        <time>2021-05-02T09:05:35Z</time>
      </trkpt>
      <trkpt lat="46.41085" lon="0.29345">
        <ele>122.89973705448</ele>
        <time>2021-05-02T09:05:37Z</time>
      </trkpt>
      <trkpt lat="46.41085" lon="0.29349">
        <ele>123.08973847143</ele>
        <time>2021-05-02T09:05:39Z</time>
      </trkpt>
      <trkpt lat="46.41086" lon="0.29353">
        <ele>122.89776857756</ele>
        <time>2021-05-02T09:05:41Z</time>
      </trkpt>
      <trkpt lat="46.41086" lon="0.29358">
        <ele>123.25926661398</ele>
        <time>2021-05-02T09:05:43Z</time>
      </trkpt>
      <trkpt lat="46.41086" lon="0.29361">
        <ele>123.1933067888</ele>
        <time>2021-05-02T09:05:45Z</time>
      </trkpt>
      <trkpt lat="46.41086" lon="0.29364">
        <ele>123.32804049924</ele>
        <time>2021-05-02T09:05:47Z</time>
      </trkpt>
      <trkpt lat="46.41087" lon="0.29367">
        <ele>122.98534821905</ele>
        <time>2021-05-02T09:05:49Z</time>
      </trkpt>
      <trkpt lat="46.41087" lon="0.29371">
        <ele>123.42286521383</ele>
        <time>2021-05-02T09:05:51Z</time>
      </trkpt>
      <trkpt lat="46.41087" lon="0.29375">
        <ele>123.29438760877</ele>
        <time>2021-05-02T09:05:53Z</time>
      </trkpt>
      <trkpt lat="46.41088" lon="0.29379">
        <ele>123.82992484514</ele>
        <time>2021-05-02T09:05:55Z</time>
      </trkpt>
      <trkpt lat="46.41088" lon="0.29383">
        <ele>123.48209327459</ele>
        <time>2021-05-02T09:05:57Z</time>
      </trkpt>
      <trkpt lat="46.41088" lon="0.29387">
        <ele>123.74178706203</ele>
        <time>2021-05-02T09:05:59Z</time>
      </trkpt>
      <trkpt lat="46.41089" lon="0.29391">
        <ele>123.68273701984</ele>
        <time>2021-05-02T09:06:01Z</time>
      </trkpt>
      <trkpt lat="46.41089" lon="0.29395">
        <ele>123.86288850382</ele>
        <time>2021-05-02T09:06:03Z</time>
      </trkpt>
      <trkpt lat="46.41089" lon="0.294">
        <ele>123.88988901861</ele>
        <time>2021-05-02T09:06:05Z</time>
      </trkpt>
      <trkpt lat="46.41088" lon="0.29403">
        <ele>123.49056701455</ele>
        <time>2021-05-02T09:06:07Z</time>
      </trkpt>
      <trkpt lat="46.41089" lon="0.29407">
        <ele>123.31381493062</ele>
        <time>2021-05-02T09:06:09Z</time>
      </trkpt>
      <trkpt lat="46.41089" lon="0.2941">
        <ele>123.51926856488</ele>
        <time>2021-05-02T09:06:11Z</time>
      </trkpt>
      <trkpt lat="46.41089" lon="0.29414">
        <ele>123.80407177005</ele>
        <time>2021-05-02T09:06:13Z</time>
      </trkpt>
      <trkpt lat="46.41089" lon="0.29418">
        <ele>123.63588153385</ele>
        <time>2021-05-02T09:06:15Z</time>
      </trkpt>
      <trkpt lat="46.41088" lon="0.29422">
        <ele>123.68921323493</ele>
        <time>2021-05-02T09:06:17Z</time>
      </trkpt>
      <trkpt lat="46.41088" lon="0.29425">
        <ele>123.93871412799</ele>
        <time>2021-05-02T09:06:19Z</time>
      </trkpt>
      <trkpt lat="46.41088" lon="0.29429">
        <ele>124.07247388177</ele>
        <time>2021-05-02T09:06:21Z</time>
      </trkpt>
      <trkpt lat="46.41088" lon="0.29433">
        <ele>123.77416076977</ele>
        <time>2021-05-02T09:06:23Z</time>
      </trkpt>
      <trkpt lat="46.41088" lon="0.29436">
        <ele>123.82200361602</ele>
        <time>2021-05-02T09:06:25Z</time>
      </trkpt>
      <trkpt lat="46.41089" lon="0.2944">
        <ele>123.60647450108</ele>
        <time>2021-05-02T09:06:27Z</time>
      </trkpt>
      <trkpt lat="46.41089" lon="0.29444">
        <ele>123.6422952991</ele>
        <time>2021-05-02T09:06:29Z</time>
      </trkpt>
      <trkpt lat="46.41088" lon="0.29449">
        <ele>123.48075780086</ele>
        <time>2021-05-02T09:06:31Z</time>
      </trkpt>
      <trkpt lat="46.41087" lon="0.29451">
        <ele>124.20693055261</ele>
        <time>2021-05-02T09:06:33Z</time>
      </trkpt>
      <trkpt lat="46.41086" lon="0.29456">
        <ele>123.63852273021</ele>
        <time>2021-05-02T09:06:35Z</time>
      </trkpt>
      <trkpt lat="46.41085" lon="0.29461">
        <ele>123.76282691956</ele>
        <time>2021-05-02T09:06:38Z</time>
      </trkpt>
      <trkpt lat="46.41084" lon="0.29465">
        <ele>124.03605910391</ele>
        <time>2021-05-02T09:06:40Z</time>
      </trkpt>
      <trkpt lat="46.41083" lon="0.29467">
        <ele>123.72797012608</ele>
        <time>2021-05-02T09:06:42Z</time>
      </trkpt>
      <trkpt lat="46.41082" lon="0.2947">
        <ele>123.4694778081</ele>
        <time>2021-05-02T09:06:43Z</time>
      </trkpt>
      <trkpt lat="46.41082" lon="0.29473">
        <ele>123.66505821701</ele>
        <time>2021-05-02T09:06:44Z</time>
      </trkpt>
      <trkpt lat="46.41082" lon="0.29475">
        <ele>123.71348585561</ele>
        <time>2021-05-02T09:06:46Z</time>
      </trkpt>
      <trkpt lat="46.41081" lon="0.29479">
        <ele>123.2473374363</ele>
        <time>2021-05-02T09:06:48Z</time>
      </trkpt>
      <trkpt lat="46.41081" lon="0.29484">
        <ele>123.61814856716</ele>
        <time>2021-05-02T09:06:50Z</time>
      </trkpt>
      <trkpt lat="46.41081" lon="0.29486">
        <ele>123.3931869939</ele>
        <time>2021-05-02T09:06:52Z</time>
      </trkpt>
      <trkpt lat="46.4108" lon="0.2949">
        <ele>123.66112674959</ele>
        <time>2021-05-02T09:06:54Z</time>
      </trkpt>
      <trkpt lat="46.41079" lon="0.29494">
        <ele>123.52852156945</ele>
        <time>2021-05-02T09:06:56Z</time>
      </trkpt>
      <trkpt lat="46.41078" lon="0.29498">
        <ele>123.62431373913</ele>
        <time>2021-05-02T09:06:59Z</time>
      </trkpt>
      <trkpt lat="46.41078" lon="0.29501">
        <ele>123.24063397944</ele>
        <time>2021-05-02T09:07:01Z</time>
      </trkpt>
      <trkpt lat="46.41077" lon="0.29505">
        <ele>123.32403424848</ele>
        <time>2021-05-02T09:07:03Z</time>
      </trkpt>
      <trkpt lat="46.41076" lon="0.29508">
        <ele>123.49914256018</ele>
        <time>2021-05-02T09:07:05Z</time>
      </trkpt>
      <trkpt lat="46.41075" lon="0.29512">
        <ele>123.62271653581</ele>
        <time>2021-05-02T09:07:07Z</time>
      </trkpt>
      <trkpt lat="46.41073" lon="0.29516">
        <ele>123.46151794307</ele>
        <time>2021-05-02T09:07:09Z</time>
      </trkpt>
      <trkpt lat="46.41073" lon="0.2952">
        <ele>123.62667230982</ele>
        <time>2021-05-02T09:07:11Z</time>
      </trkpt>
      <trkpt lat="46.41072" lon="0.29524">
        <ele>123.52142344043</ele>
        <time>2021-05-02T09:07:13Z</time>
      </trkpt>
      <trkpt lat="46.41071" lon="0.29529">
        <ele>123.5857641194</ele>
        <time>2021-05-02T09:07:15Z</time>
      </trkpt>
      <trkpt lat="46.4107" lon="0.29533">
        <ele>124.1778521128</ele>
        <time>2021-05-02T09:07:18Z</time>
      </trkpt>
      <trkpt lat="46.41069" lon="0.29537">
        <ele>123.55362463184</ele>
        <time>2021-05-02T09:07:20Z</time>
      </trkpt>
      <trkpt lat="46.41068" lon="0.29541">
        <ele>123.38028959371</ele>
        <time>2021-05-02T09:07:22Z</time>
      </trkpt>
      <trkpt lat="46.41067" lon="0.29544">
        <ele>123.680016445</ele>
        <time>2021-05-02T09:07:24Z</time>
      </trkpt>
      <trkpt lat="46.41065" lon="0.29547">
        <ele>123.61090033222</ele>
        <time>2021-05-02T09:07:26Z</time>
      </trkpt>
      <trkpt lat="46.41064" lon="0.29552">
        <ele>123.60814866237</ele>
        <time>2021-05-02T09:07:28Z</time>
      </trkpt>
      <trkpt lat="46.41063" lon="0.29555">
        <ele>123.74228397291</ele>
        <time>2021-05-02T09:07:30Z</time>
      </trkpt>
      <trkpt lat="46.41062" lon="0.29558">
        <ele>123.29056432378</ele>
        <time>2021-05-02T09:07:32Z</time>
      </trkpt>
      <trkpt lat="46.41061" lon="0.29561">
        <ele>123.57812581304</ele>
        <time>2021-05-02T09:07:34Z</time>
      </trkpt>
      <trkpt lat="46.4106" lon="0.29566">
        <ele>123.18191341963</ele>
        <time>2021-05-02T09:07:36Z</time>
      </trkpt>
      <trkpt lat="46.41059" lon="0.2957">
        <ele>123.32924233377</ele>
        <time>2021-05-02T09:07:39Z</time>
      </trkpt>
      <trkpt lat="46.41058" lon="0.29572">
        <ele>123.31675739121</ele>
        <time>2021-05-02T09:07:40Z</time>
      </trkpt>
      <trkpt lat="46.41057" lon="0.29576">
        <ele>123.38936541602</ele>
        <time>2021-05-02T09:07:42Z</time>
      </trkpt>
      <trkpt lat="46.41056" lon="0.29579">
        <ele>123.52546397783</ele>
        <time>2021-05-02T09:07:43Z</time>
      </trkpt>
      <trkpt lat="46.41055" lon="0.29581">
        <ele>123.32436322048</ele>
        <time>2021-05-02T09:07:45Z</time>
      </trkpt>
      <trkpt lat="46.41053" lon="0.29584">
        <ele>123.54890394118</ele>
        <time>2021-05-02T09:07:47Z</time>
      </trkpt>
      <trkpt lat="46.41053" lon="0.29588">
        <ele>123.29105483368</ele>
        <time>2021-05-02T09:07:49Z</time>
      </trkpt>
      <trkpt lat="46.41052" lon="0.29591">
        <ele>123.48742890731</ele>
        <time>2021-05-02T09:07:51Z</time>
      </trkpt>
      <trkpt lat="46.4105" lon="0.29595">
        <ele>123.55251465179</ele>
        <time>2021-05-02T09:07:53Z</time>
      </trkpt>
      <trkpt lat="46.41049" lon="0.29599">
        <ele>123.53972073086</ele>
        <time>2021-05-02T09:07:55Z</time>
      </trkpt>
      <trkpt lat="46.41048" lon="0.29602">
        <ele>124.04800469056</ele>
        <time>2021-05-02T09:07:57Z</time>
      </trkpt>
      <trkpt lat="46.41047" lon="0.29607">
        <ele>123.87395871617</ele>
        <time>2021-05-02T09:07:59Z</time>
      </trkpt>
      <trkpt lat="46.41046" lon="0.2961">
        <ele>123.82976126578</ele>
        <time>2021-05-02T09:08:01Z</time>
      </trkpt>
      <trkpt lat="46.41045" lon="0.29613">
        <ele>123.59827041812</ele>
        <time>2021-05-02T09:08:03Z</time>
      </trkpt>
      <trkpt lat="46.41043" lon="0.29617">
        <ele>123.42847145814</ele>
        <time>2021-05-02T09:08:05Z</time>
      </trkpt>
      <trkpt lat="46.41042" lon="0.29621">
        <ele>123.36836097389</ele>
        <time>2021-05-02T09:08:07Z</time>
      </trkpt>
      <trkpt lat="46.41041" lon="0.29624">
        <ele>123.59245832171</ele>
        <time>2021-05-02T09:08:09Z</time>
      </trkpt>
      <trkpt lat="46.4104" lon="0.29628">
        <ele>123.30644195527</ele>
        <time>2021-05-02T09:08:11Z</time>
      </trkpt>
      <trkpt lat="46.41039" lon="0.29631">
        <ele>123.70758976694</ele>
        <time>2021-05-02T09:08:13Z</time>
      </trkpt>
      <trkpt lat="46.41038" lon="0.29636">
        <ele>123.36842171196</ele>
        <time>2021-05-02T09:08:15Z</time>
      </trkpt>
      <trkpt lat="46.41037" lon="0.29639">
        <ele>123.56020868942</ele>
        <time>2021-05-02T09:08:17Z</time>
      </trkpt>
      <trkpt lat="46.41036" lon="0.29643">
        <ele>123.37646844424</ele>
        <time>2021-05-02T09:08:19Z</time>
      </trkpt>
      <trkpt lat="46.41035" lon="0.29646">
        <ele>123.38937345706</ele>
        <time>2021-05-02T09:08:21Z</time>
      </trkpt>
      <trkpt lat="46.41034" lon="0.2965">
        <ele>123.65427725669</ele>
        <time>2021-05-02T09:08:23Z</time>
      </trkpt>
      <trkpt lat="46.41034" lon="0.29653">
        <ele>123.57967221364</ele>
        <time>2021-05-02T09:08:24Z</time>
      </trkpt>
      <trkpt lat="46.41033" lon="0.29655">
        <ele>123.75654600281</ele>
        <time>2021-05-02T09:08:26Z</time>
      </trkpt>
      <trkpt lat="46.41032" lon="0.29659">
        <ele>123.68187875114</ele>
        <time>2021-05-02T09:08:28Z</time>
      </trkpt>
      <trkpt lat="46.41032" lon="0.29662">
        <ele>123.76394441538</ele>
        <time>2021-05-02T09:08:29Z</time>
      </trkpt>
      <trkpt lat="46.41031" lon="0.29665">
        <ele>123.4644628996</ele>
        <time>2021-05-02T09:08:31Z</time>
      </trkpt>
      <trkpt lat="46.4103" lon="0.29668">
        <ele>123.55628411472</ele>
        <time>2021-05-02T09:08:33Z</time>
      </trkpt>
      <trkpt lat="46.41029" lon="0.29673">
        <ele>123.36189556308</ele>
        <time>2021-05-02T09:08:35Z</time>
      </trkpt>
      <trkpt lat="46.41028" lon="0.29676">
        <ele>123.49054181203</ele>
        <time>2021-05-02T09:08:37Z</time>
      </trkpt>
      <trkpt lat="46.41028" lon="0.2968">
        <ele>123.53228796087</ele>
        <time>2021-05-02T09:08:39Z</time>
      </trkpt>
      <trkpt lat="46.41028" lon="0.29683">
        <ele>123.70772803295</ele>
        <time>2021-05-02T09:08:40Z</time>
      </trkpt>
      <trkpt lat="46.41027" lon="0.29686">
        <ele>123.25349251926</ele>
        <time>2021-05-02T09:08:42Z</time>
      </trkpt>
      <trkpt lat="46.41027" lon="0.2969">
        <ele>123.67799353134</ele>
        <time>2021-05-02T09:08:44Z</time>
      </trkpt>
      <trkpt lat="46.41026" lon="0.29693">
        <ele>123.57992634829</ele>
        <time>2021-05-02T09:08:46Z</time>
      </trkpt>
      <trkpt lat="46.41026" lon="0.29697">
        <ele>123.35183365084</ele>
        <time>2021-05-02T09:08:48Z</time>
      </trkpt>
      <trkpt lat="46.41024" lon="0.29701">
        <ele>123.37191535626</ele>
        <time>2021-05-02T09:08:50Z</time>
      </trkpt>
      <trkpt lat="46.41024" lon="0.29704">
        <ele>123.48059756495</ele>
        <time>2021-05-02T09:08:52Z</time>
      </trkpt>
      <trkpt lat="46.41023" lon="0.29709">
        <ele>123.28661194909</ele>
        <time>2021-05-02T09:08:54Z</time>
      </trkpt>
      <trkpt lat="46.41023" lon="0.29712">
        <ele>123.38967092615</ele>
        <time>2021-05-02T09:08:56Z</time>
      </trkpt>
      <trkpt lat="46.41023" lon="0.29717">
        <ele>122.99443681538</ele>
        <time>2021-05-02T09:08:58Z</time>
      </trkpt>
      <trkpt lat="46.41023" lon="0.2972">
        <ele>123.23370219953</ele>
        <time>2021-05-02T09:09:00Z</time>
      </trkpt>
      <trkpt lat="46.41022" lon="0.29725">
        <ele>122.93263874389</ele>
        <time>2021-05-02T09:09:02Z</time>
      </trkpt>
      <trkpt lat="46.41023" lon="0.29727">
        <ele>122.73708169349</ele>
        <time>2021-05-02T09:09:04Z</time>
      </trkpt>
      <trkpt lat="46.41022" lon="0.29731">
        <ele>122.56907760259</ele>
        <time>2021-05-02T09:09:06Z</time>
      </trkpt>
      <trkpt lat="46.41021" lon="0.29735">
        <ele>122.64889009111</ele>
        <time>2021-05-02T09:09:08Z</time>
      </trkpt>
      <trkpt lat="46.41021" lon="0.29739">
        <ele>122.49156063795</ele>
        <time>2021-05-02T09:09:10Z</time>
      </trkpt>
      <trkpt lat="46.41021" lon="0.29742">
        <ele>122.28388307057</ele>
        <time>2021-05-02T09:09:12Z</time>
      </trkpt>
      <trkpt lat="46.41021" lon="0.29746">
        <ele>122.64841241203</ele>
        <time>2021-05-02T09:09:14Z</time>
      </trkpt>
      <trkpt lat="46.41021" lon="0.2975">
        <ele>122.8690376645</ele>
        <time>2021-05-02T09:09:16Z</time>
      </trkpt>
      <trkpt lat="46.41021" lon="0.29754">
        <ele>122.5267449785</ele>
        <time>2021-05-02T09:09:18Z</time>
      </trkpt>
      <trkpt lat="46.41021" lon="0.29758">
        <ele>122.43243934307</ele>
        <time>2021-05-02T09:09:20Z</time>
      </trkpt>
      <trkpt lat="46.41022" lon="0.29761">
        <ele>122.42049630266</ele>
        <time>2021-05-02T09:09:22Z</time>
      </trkpt>
      <trkpt lat="46.41021" lon="0.29765">
        <ele>122.54201880097</ele>
        <time>2021-05-02T09:09:24Z</time>
      </trkpt>
      <trkpt lat="46.41021" lon="0.29769">
        <ele>122.23492026515</ele>
        <time>2021-05-02T09:09:26Z</time>
      </trkpt>
      <trkpt lat="46.41022" lon="0.29772">
        <ele>122.30080803018</ele>
        <time>2021-05-02T09:09:28Z</time>
      </trkpt>
      <trkpt lat="46.41022" lon="0.29775">
        <ele>122.20553901233</ele>
        <time>2021-05-02T09:09:30Z</time>
      </trkpt>
      <trkpt lat="46.41022" lon="0.2978">
        <ele>122.60750912502</ele>
        <time>2021-05-02T09:09:32Z</time>
      </trkpt>
      <trkpt lat="46.41022" lon="0.29782">
        <ele>122.27356844209</ele>
        <time>2021-05-02T09:09:33Z</time>
      </trkpt>
      <trkpt lat="46.41022" lon="0.29787">
        <ele>122.29637152422</ele>
        <time>2021-05-02T09:09:36Z</time>
      </trkpt>
      <trkpt lat="46.41022" lon="0.29791">
        <ele>122.29834553134</ele>
        <time>2021-05-02T09:09:38Z</time>
      </trkpt>
      <trkpt lat="46.41022" lon="0.29795">
        <ele>122.44935190491</ele>
        <time>2021-05-02T09:09:40Z</time>
      </trkpt>
      <trkpt lat="46.41022" lon="0.29798">
        <ele>122.07627992053</ele>
        <time>2021-05-02T09:09:42Z</time>
      </trkpt>
      <trkpt lat="46.41022" lon="0.29801">
        <ele>122.63993394841</ele>
        <time>2021-05-02T09:09:44Z</time>
      </trkpt>
      <trkpt lat="46.41022" lon="0.29806">
        <ele>122.41572778299</ele>
        <time>2021-05-02T09:09:46Z</time>
      </trkpt>
      <trkpt lat="46.41022" lon="0.2981">
        <ele>122.63037382904</ele>
        <time>2021-05-02T09:09:48Z</time>
      </trkpt>
      <trkpt lat="46.41022" lon="0.29813">
        <ele>122.24576133862</ele>
        <time>2021-05-02T09:09:50Z</time>
      </trkpt>
      <trkpt lat="46.41022" lon="0.29817">
        <ele>122.56244101096</ele>
        <time>2021-05-02T09:09:52Z</time>
      </trkpt>
      <trkpt lat="46.41022" lon="0.29822">
        <ele>122.65969855431</ele>
        <time>2021-05-02T09:09:54Z</time>
      </trkpt>
      <trkpt lat="46.41022" lon="0.29826">
        <ele>121.83716369607</ele>
        <time>2021-05-02T09:09:57Z</time>
      </trkpt>
      <trkpt lat="46.41022" lon="0.29831">
        <ele>122.16600766685</ele>
        <time>2021-05-02T09:09:59Z</time>
      </trkpt>
      <trkpt lat="46.41022" lon="0.29834">
        <ele>122.06116286293</ele>
        <time>2021-05-02T09:10:01Z</time>
      </trkpt>
      <trkpt lat="46.41022" lon="0.29837">
        <ele>121.55076682568</ele>
        <time>2021-05-02T09:10:03Z</time>
      </trkpt>
      <trkpt lat="46.41022" lon="0.29842">
        <ele>121.31246786192</ele>
        <time>2021-05-02T09:10:05Z</time>
      </trkpt>
      <trkpt lat="46.41022" lon="0.29845">
        <ele>121.2380446149</ele>
        <time>2021-05-02T09:10:07Z</time>
      </trkpt>
      <trkpt lat="46.41022" lon="0.29848">
        <ele>121.36177561153</ele>
        <time>2021-05-02T09:10:08Z</time>
      </trkpt>
      <trkpt lat="46.41022" lon="0.29852">
        <ele>121.08023307566</ele>
        <time>2021-05-02T09:10:10Z</time>
      </trkpt>
      <trkpt lat="46.41022" lon="0.29856">
        <ele>121.2820660565</ele>
        <time>2021-05-02T09:10:12Z</time>
      </trkpt>
      <trkpt lat="46.41023" lon="0.2986">
        <ele>121.3621933721</ele>
        <time>2021-05-02T09:10:14Z</time>
      </trkpt>
      <trkpt lat="46.41022" lon="0.29864">
        <ele>121.51683630515</ele>
        <time>2021-05-02T09:10:16Z</time>
      </trkpt>
      <trkpt lat="46.41023" lon="0.29868">
        <ele>121.38727363199</ele>
        <time>2021-05-02T09:10:18Z</time>
      </trkpt>
      <trkpt lat="46.41022" lon="0.29872">
        <ele>121.3851777697</ele>
        <time>2021-05-02T09:10:20Z</time>
      </trkpt>
      <trkpt lat="46.41022" lon="0.29875">
        <ele>121.03172623832</ele>
        <time>2021-05-02T09:10:22Z</time>
      </trkpt>
      <trkpt lat="46.41023" lon="0.29878">
        <ele>121.27866721246</ele>
        <time>2021-05-02T09:10:24Z</time>
      </trkpt>
      <trkpt lat="46.41023" lon="0.29881">
        <ele>120.66563222464</ele>
        <time>2021-05-02T09:10:26Z</time>
      </trkpt>
      <trkpt lat="46.41023" lon="0.29885">
        <ele>120.65261007007</ele>
        <time>2021-05-02T09:10:28Z</time>
      </trkpt>
      <trkpt lat="46.41024" lon="0.29889">
        <ele>120.48167701066</ele>
        <time>2021-05-02T09:10:30Z</time>
      </trkpt>
      <trkpt lat="46.41024" lon="0.29892">
        <ele>121.29451889265</ele>
        <time>2021-05-02T09:10:32Z</time>
      </trkpt>
      <trkpt lat="46.41024" lon="0.29896">
        <ele>120.4693820402</ele>
        <time>2021-05-02T09:10:34Z</time>
      </trkpt>
      <trkpt lat="46.41025" lon="0.29898">
        <ele>120.44934662618</ele>
        <time>2021-05-02T09:10:36Z</time>
      </trkpt>
      <trkpt lat="46.41025" lon="0.29902">
        <ele>120.45967678353</ele>
        <time>2021-05-02T09:10:38Z</time>
      </trkpt>
      <trkpt lat="46.41026" lon="0.29906">
        <ele>120.60982914455</ele>
        <time>2021-05-02T09:10:40Z</time>
      </trkpt>
      <trkpt lat="46.41026" lon="0.29909">
        <ele>120.55679577589</ele>
        <time>2021-05-02T09:10:42Z</time>
      </trkpt>
      <trkpt lat="46.41026" lon="0.29912">
        <ele>119.9020839436</ele>
        <time>2021-05-02T09:10:44Z</time>
      </trkpt>
      <trkpt lat="46.41027" lon="0.29915">
        <ele>120.12079131417</ele>
        <time>2021-05-02T09:10:46Z</time>
      </trkpt>
      <trkpt lat="46.41027" lon="0.29919">
        <ele>120.36815509945</ele>
        <time>2021-05-02T09:10:48Z</time>
      </trkpt>
      <trkpt lat="46.41027" lon="0.29922">
        <ele>120.1721013682</ele>
        <time>2021-05-02T09:10:50Z</time>
      </trkpt>
      <trkpt lat="46.41028" lon="0.29927">
        <ele>120.70858031046</ele>
        <time>2021-05-02T09:10:52Z</time>
      </trkpt>
      <trkpt lat="46.41028" lon="0.2993">
        <ele>120.19495301787</ele>
        <time>2021-05-02T09:10:54Z</time>
      </trkpt>
      <trkpt lat="46.41028" lon="0.29933">
        <ele>120.27353125345</ele>
        <time>2021-05-02T09:10:56Z</time>
      </trkpt>
      <trkpt lat="46.41029" lon="0.29937">
        <ele>120.01004801225</ele>
        <time>2021-05-02T09:10:58Z</time>
      </trkpt>
      <trkpt lat="46.41029" lon="0.29941">
        <ele>119.96682740469</ele>
        <time>2021-05-02T09:11:00Z</time>
      </trkpt>
      <trkpt lat="46.41029" lon="0.29944">
        <ele>119.90178310778</ele>
        <time>2021-05-02T09:11:02Z</time>
      </trkpt>
      <trkpt lat="46.41029" lon="0.29947">
        <ele>120.03103049751</ele>
        <time>2021-05-02T09:11:04Z</time>
      </trkpt>
      <trkpt lat="46.4103" lon="0.29951">
        <ele>120.24346720148</ele>
        <time>2021-05-02T09:11:06Z</time>
      </trkpt>
      <trkpt lat="46.4103" lon="0.29954">
        <ele>120.16700785886</ele>
        <time>2021-05-02T09:11:08Z</time>
      </trkpt>
      <trkpt lat="46.41031" lon="0.29959">
        <ele>120.33367674798</ele>
        <time>2021-05-02T09:11:10Z</time>
      </trkpt>
      <trkpt lat="46.41031" lon="0.29962">
        <ele>120.42211870011</ele>
        <time>2021-05-02T09:11:12Z</time>
      </trkpt>
      <trkpt lat="46.41031" lon="0.29966">
        <ele>119.94227883499</ele>
        <time>2021-05-02T09:11:15Z</time>
      </trkpt>
      <trkpt lat="46.4103" lon="0.29969">
        <ele>119.9478583904</ele>
        <time>2021-05-02T09:11:16Z</time>
      </trkpt>
      <trkpt lat="46.4103" lon="0.29972">
        <ele>120.7480053613</ele>
        <time>2021-05-02T09:11:18Z</time>
      </trkpt>
      <trkpt lat="46.4103" lon="0.29975">
        <ele>120.04090222344</ele>
        <time>2021-05-02T09:11:20Z</time>
      </trkpt>
      <trkpt lat="46.4103" lon="0.29978">
        <ele>119.85766504332</ele>
        <time>2021-05-02T09:11:22Z</time>
      </trkpt>
      <trkpt lat="46.4103" lon="0.29983">
        <ele>120.3509160867</ele>
        <time>2021-05-02T09:11:24Z</time>
      </trkpt>
      <trkpt lat="46.4103" lon="0.29985">
        <ele>120.19475980476</ele>
        <time>2021-05-02T09:11:30Z</time>
      </trkpt>
      <trkpt lat="46.41032" lon="0.29987">
        <ele>120.43365056626</ele>
        <time>2021-05-02T09:11:48Z</time>
      </trkpt>
      <trkpt lat="46.41033" lon="0.29989">
        <ele>120.52657463681</ele>
        <time>2021-05-02T09:12:02Z</time>
      </trkpt>
      <trkpt lat="46.41032" lon="0.29988">
        <ele>120.37126241252</ele>
        <time>2021-05-02T09:12:16Z</time>
      </trkpt>
      <trkpt lat="46.41033" lon="0.29989">
        <ele>120.21645517368</ele>
        <time>2021-05-02T09:12:47Z</time>
      </trkpt>
      <trkpt lat="46.41033" lon="0.29987">
        <ele>120.1195149431</ele>
        <time>2021-05-02T09:13:51Z</time>
      </trkpt>
      <trkpt lat="46.41033" lon="0.2999">
        <ele>119.95842068456</ele>
        <time>2021-05-02T09:14:10Z</time>
      </trkpt>
      <trkpt lat="46.41034" lon="0.29992">
        <ele>120.00353118684</ele>
        <time>2021-05-02T09:14:12Z</time>
      </trkpt>
      <trkpt lat="46.41036" lon="0.29994">
        <ele>119.78668962326</ele>
        <time>2021-05-02T09:14:15Z</time>
      </trkpt>
      <trkpt lat="46.41037" lon="0.29996">
        <ele>119.73856900167</ele>
        <time>2021-05-02T09:14:17Z</time>
      </trkpt>
      <trkpt lat="46.41038" lon="0.29999">
        <ele>120.34901758656</ele>
        <time>2021-05-02T09:14:19Z</time>
      </trkpt>
      <trkpt lat="46.4104" lon="0.3">
        <ele>119.9377567647</ele>
        <time>2021-05-02T09:14:22Z</time>
      </trkpt>
      <trkpt lat="46.41042" lon="0.30002">
        <ele>119.5573196765</ele>
        <time>2021-05-02T09:14:24Z</time>
      </trkpt>
      <trkpt lat="46.41044" lon="0.30004">
        <ele>119.97392248549</ele>
        <time>2021-05-02T09:14:26Z</time>
      </trkpt>
      <trkpt lat="46.41046" lon="0.30005">
        <ele>119.70527898893</ele>
        <time>2021-05-02T09:14:28Z</time>
      </trkpt>
      <trkpt lat="46.41048" lon="0.30006">
        <ele>119.28105206322</ele>
        <time>2021-05-02T09:14:30Z</time>
      </trkpt>
      <trkpt lat="46.4105" lon="0.30006">
        <ele>119.43661033828</ele>
        <time>2021-05-02T09:14:31Z</time>
      </trkpt>
      <trkpt lat="46.41053" lon="0.30007">
        <ele>119.49780749902</ele>
        <time>2021-05-02T09:14:33Z</time>
      </trkpt>
      <trkpt lat="46.41055" lon="0.30007">
        <ele>120.32463434618</ele>
        <time>2021-05-02T09:14:35Z</time>
      </trkpt>
      <trkpt lat="46.41057" lon="0.30008">
        <ele>119.22218351625</ele>
        <time>2021-05-02T09:14:37Z</time>
      </trkpt>
      <trkpt lat="46.41059" lon="0.30009">
        <ele>119.37351667322</ele>
        <time>2021-05-02T09:14:38Z</time>
      </trkpt>
      <trkpt lat="46.41062" lon="0.3001">
        <ele>119.05818093382</ele>
        <time>2021-05-02T09:14:40Z</time>
      </trkpt>
      <trkpt lat="46.41064" lon="0.3001">
        <ele>119.85150114261</ele>
        <time>2021-05-02T09:14:43Z</time>
      </trkpt>
      <trkpt lat="46.41067" lon="0.3001">
        <ele>119.57689207513</ele>
        <time>2021-05-02T09:14:45Z</time>
      </trkpt>
      <trkpt lat="46.41069" lon="0.3001">
        <ele>119.33331986796</ele>
        <time>2021-05-02T09:14:47Z</time>
      </trkpt>
      <trkpt lat="46.41071" lon="0.3001">
        <ele>119.17792813946</ele>
        <time>2021-05-02T09:14:49Z</time>
      </trkpt>
      <trkpt lat="46.41074" lon="0.3001">
        <ele>119.20146325417</ele>
        <time>2021-05-02T09:14:51Z</time>
      </trkpt>
      <trkpt lat="46.41076" lon="0.3001">
        <ele>119.07794043422</ele>
        <time>2021-05-02T09:14:53Z</time>
      </trkpt>
      <trkpt lat="46.41078" lon="0.30009">
        <ele>119.16351534612</ele>
        <time>2021-05-02T09:14:55Z</time>
      </trkpt>
      <trkpt lat="46.4108" lon="0.30009">
        <ele>119.14516660757</ele>
        <time>2021-05-02T09:14:56Z</time>
      </trkpt>
      <trkpt lat="46.41083" lon="0.30009">
        <ele>118.64289198909</ele>
        <time>2021-05-02T09:14:59Z</time>
      </trkpt>
      <trkpt lat="46.41085" lon="0.30009">
        <ele>118.95235568844</ele>
        <time>2021-05-02T09:15:00Z</time>
      </trkpt>
      <trkpt lat="46.41087" lon="0.30008">
        <ele>118.89654544741</ele>
        <time>2021-05-02T09:15:02Z</time>
      </trkpt>
      <trkpt lat="46.41089" lon="0.30008">
        <ele>119.00094825029</ele>
        <time>2021-05-02T09:15:04Z</time>
      </trkpt>
      <trkpt lat="46.41092" lon="0.30007">
        <ele>119.04707068671</ele>
        <time>2021-05-02T09:15:06Z</time>
      </trkpt>
      <trkpt lat="46.41096" lon="0.30007">
        <ele>119.41648163646</ele>
        <time>2021-05-02T09:15:08Z</time>
      </trkpt>
      <trkpt lat="46.41098" lon="0.30007">
        <ele>119.16778459866</ele>
        <time>2021-05-02T09:15:10Z</time>
      </trkpt>
      <trkpt lat="46.41101" lon="0.30007">
        <ele>119.79979764018</ele>
        <time>2021-05-02T09:15:12Z</time>
      </trkpt>
      <trkpt lat="46.41104" lon="0.30006">
        <ele>119.4031200083</ele>
        <time>2021-05-02T09:15:14Z</time>
      </trkpt>
      <trkpt lat="46.41107" lon="0.30005">
        <ele>118.8394711744</ele>
        <time>2021-05-02T09:15:17Z</time>
      </trkpt>
      <trkpt lat="46.4111" lon="0.30005">
        <ele>119.09870003443</ele>
        <time>2021-05-02T09:15:19Z</time>
      </trkpt>
      <trkpt lat="46.41112" lon="0.30004">
        <ele>119.22606990021</ele>
        <time>2021-05-02T09:15:21Z</time>
      </trkpt>
      <trkpt lat="46.41114" lon="0.30004">
        <ele>119.44337525312</ele>
        <time>2021-05-02T09:15:22Z</time>
      </trkpt>
      <trkpt lat="46.41117" lon="0.30004">
        <ele>119.70153027121</ele>
        <time>2021-05-02T09:15:24Z</time>
      </trkpt>
      <trkpt lat="46.4112" lon="0.30003">
        <ele>119.26277775504</ele>
        <time>2021-05-02T09:15:26Z</time>
      </trkpt>
      <trkpt lat="46.41122" lon="0.30002">
        <ele>119.53088930156</ele>
        <time>2021-05-02T09:15:28Z</time>
      </trkpt>
      <trkpt lat="46.41126" lon="0.30002">
        <ele>119.85107979737</ele>
        <time>2021-05-02T09:15:30Z</time>
      </trkpt>
      <trkpt lat="46.41128" lon="0.30002">
        <ele>119.49223747943</ele>
        <time>2021-05-02T09:15:32Z</time>
      </trkpt>
      <trkpt lat="46.41131" lon="0.3">
        <ele>119.75627077185</ele>
        <time>2021-05-02T09:15:34Z</time>
      </trkpt>
      <trkpt lat="46.41133" lon="0.3">
        <ele>119.39536062535</ele>
        <time>2021-05-02T09:15:36Z</time>
      </trkpt>
      <trkpt lat="46.41136" lon="0.29999">
        <ele>119.43376789987</ele>
        <time>2021-05-02T09:15:38Z</time>
      </trkpt>
      <trkpt lat="46.41138" lon="0.29999">
        <ele>119.40978066903</ele>
        <time>2021-05-02T09:15:40Z</time>
      </trkpt>
      <trkpt lat="46.41141" lon="0.29999">
        <ele>119.45132734533</ele>
        <time>2021-05-02T09:15:42Z</time>
      </trkpt>
      <trkpt lat="46.41143" lon="0.29999">
        <ele>119.65945054032</ele>
        <time>2021-05-02T09:15:44Z</time>
      </trkpt>
      <trkpt lat="46.41147" lon="0.29998">
        <ele>119.64475738723</ele>
        <time>2021-05-02T09:15:46Z</time>
      </trkpt>
      <trkpt lat="46.41149" lon="0.29998">
        <ele>119.88694266882</ele>
        <time>2021-05-02T09:15:48Z</time>
      </trkpt>
      <trkpt lat="46.41152" lon="0.29997">
        <ele>119.85548044182</ele>
        <time>2021-05-02T09:15:50Z</time>
      </trkpt>
      <trkpt lat="46.41154" lon="0.29997">
        <ele>119.77594381571</ele>
        <time>2021-05-02T09:15:52Z</time>
      </trkpt>
      <trkpt lat="46.41156" lon="0.29996">
        <ele>119.14765772969</ele>
        <time>2021-05-02T09:15:55Z</time>
      </trkpt>
      <trkpt lat="46.41158" lon="0.29995">
        <ele>119.45807549264</ele>
        <time>2021-05-02T09:15:57Z</time>
      </trkpt>
      <trkpt lat="46.41161" lon="0.29995">
        <ele>119.55395401083</ele>
        <time>2021-05-02T09:16:00Z</time>
      </trkpt>
      <trkpt lat="46.41164" lon="0.29996">
        <ele>119.68241354544</ele>
        <time>2021-05-02T09:16:02Z</time>
      </trkpt>
      <trkpt lat="46.41166" lon="0.29996">
        <ele>119.89379939437</ele>
        <time>2021-05-02T09:16:03Z</time>
      </trkpt>
      <trkpt lat="46.41169" lon="0.29996">
        <ele>119.87917259149</ele>
        <time>2021-05-02T09:16:05Z</time>
      </trkpt>
      <trkpt lat="46.41172" lon="0.29996">
        <ele>119.85905920435</ele>
        <time>2021-05-02T09:16:07Z</time>
      </trkpt>
      <trkpt lat="46.41174" lon="0.29996">
        <ele>119.89826114383</ele>
        <time>2021-05-02T09:16:09Z</time>
      </trkpt>
      <trkpt lat="46.41177" lon="0.29996">
        <ele>119.81971699093</ele>
        <time>2021-05-02T09:16:11Z</time>
      </trkpt>
      <trkpt lat="46.41181" lon="0.29997">
        <ele>120.01125823054</ele>
        <time>2021-05-02T09:16:13Z</time>
      </trkpt>
      <trkpt lat="46.41183" lon="0.29997">
        <ele>120.21332763229</ele>
        <time>2021-05-02T09:16:15Z</time>
      </trkpt>
      <trkpt lat="46.41186" lon="0.29998">
        <ele>120.23491196614</ele>
        <time>2021-05-02T09:16:17Z</time>
      </trkpt>
      <trkpt lat="46.41189" lon="0.29998">
        <ele>120.03849625215</ele>
        <time>2021-05-02T09:16:19Z</time>
      </trkpt>
      <trkpt lat="46.41191" lon="0.29998">
        <ele>120.12624607421</ele>
        <time>2021-05-02T09:16:21Z</time>
      </trkpt>
      <trkpt lat="46.41193" lon="0.29998">
        <ele>120.1884673452</ele>
        <time>2021-05-02T09:16:22Z</time>
      </trkpt>
      <trkpt lat="46.41197" lon="0.29999">
        <ele>120.24114105571</ele>
        <time>2021-05-02T09:16:25Z</time>
      </trkpt>
      <trkpt lat="46.41199" lon="0.29999">
        <ele>120.09020818956</ele>
        <time>2021-05-02T09:16:27Z</time>
      </trkpt>
      <trkpt lat="46.41202" lon="0.3">
        <ele>120.53788435273</ele>
        <time>2021-05-02T09:16:29Z</time>
      </trkpt>
      <trkpt lat="46.41205" lon="0.30001">
        <ele>120.72466474026</ele>
        <time>2021-05-02T09:16:31Z</time>
      </trkpt>
      <trkpt lat="46.41207" lon="0.30002">
        <ele>120.59040819108</ele>
        <time>2021-05-02T09:16:33Z</time>
      </trkpt>
      <trkpt lat="46.4121" lon="0.30003">
        <ele>120.59099230077</ele>
        <time>2021-05-02T09:16:35Z</time>
      </trkpt>
      <trkpt lat="46.41212" lon="0.30002">
        <ele>120.88172830455</ele>
        <time>2021-05-02T09:16:38Z</time>
      </trkpt>
      <trkpt lat="46.41214" lon="0.30004">
        <ele>120.64676242974</ele>
        <time>2021-05-02T09:16:40Z</time>
      </trkpt>
      <trkpt lat="46.41216" lon="0.30005">
        <ele>120.80684934463</ele>
        <time>2021-05-02T09:16:41Z</time>
      </trkpt>
      <trkpt lat="46.41218" lon="0.30005">
        <ele>120.83947726712</ele>
        <time>2021-05-02T09:16:42Z</time>
      </trkpt>
      <trkpt lat="46.4122" lon="0.30007">
        <ele>120.93671026547</ele>
        <time>2021-05-02T09:16:44Z</time>
      </trkpt>
      <trkpt lat="46.41223" lon="0.30007">
        <ele>120.82381601352</ele>
        <time>2021-05-02T09:16:46Z</time>
      </trkpt>
      <trkpt lat="46.41227" lon="0.30009">
        <ele>121.04145216383</ele>
        <time>2021-05-02T09:16:48Z</time>
      </trkpt>
      <trkpt lat="46.41229" lon="0.3001">
        <ele>120.97502110433</ele>
        <time>2021-05-02T09:16:50Z</time>
      </trkpt>
      <trkpt lat="46.41231" lon="0.30011">
        <ele>120.60108186398</ele>
        <time>2021-05-02T09:16:52Z</time>
      </trkpt>
      <trkpt lat="46.41234" lon="0.30012">
        <ele>120.69927269407</ele>
        <time>2021-05-02T09:16:54Z</time>
      </trkpt>
      <trkpt lat="46.41236" lon="0.30013">
        <ele>121.0078856349</ele>
        <time>2021-05-02T09:16:56Z</time>
      </trkpt>
      <trkpt lat="46.41239" lon="0.30014">
        <ele>120.92656399403</ele>
        <time>2021-05-02T09:16:58Z</time>
      </trkpt>
      <trkpt lat="46.41242" lon="0.30015">
        <ele>120.7430180423</ele>
        <time>2021-05-02T09:17:00Z</time>
      </trkpt>
      <trkpt lat="46.41244" lon="0.30016">
        <ele>120.96900241822</ele>
        <time>2021-05-02T09:17:02Z</time>
      </trkpt>
      <trkpt lat="46.41247" lon="0.30017">
        <ele>120.67565823626</ele>
        <time>2021-05-02T09:17:04Z</time>
      </trkpt>
      <trkpt lat="46.41249" lon="0.30018">
        <ele>120.59000435937</ele>
        <time>2021-05-02T09:17:06Z</time>
      </trkpt>
      <trkpt lat="46.41252" lon="0.30019">
        <ele>121.0097661484</ele>
        <time>2021-05-02T09:17:08Z</time>
      </trkpt>
      <trkpt lat="46.41255" lon="0.30021">
        <ele>121.00370615814</ele>
        <time>2021-05-02T09:17:10Z</time>
      </trkpt>
      <trkpt lat="46.41257" lon="0.30022">
        <ele>120.77293897048</ele>
        <time>2021-05-02T09:17:12Z</time>
      </trkpt>
      <trkpt lat="46.4126" lon="0.30023">
        <ele>120.80859284755</ele>
        <time>2021-05-02T09:17:14Z</time>
      </trkpt>
      <trkpt lat="46.41262" lon="0.30024">
        <ele>120.80239564646</ele>
        <time>2021-05-02T09:17:16Z</time>
      </trkpt>
      <trkpt lat="46.41265" lon="0.30025">
        <ele>120.95373797137</ele>
        <time>2021-05-02T09:17:18Z</time>
      </trkpt>
      <trkpt lat="46.41266" lon="0.30026">
        <ele>121.09948039334</ele>
        <time>2021-05-02T09:17:20Z</time>
      </trkpt>
      <trkpt lat="46.41269" lon="0.30028">
        <ele>120.8355417829</ele>
        <time>2021-05-02T09:17:22Z</time>
      </trkpt>
      <trkpt lat="46.41271" lon="0.3003">
        <ele>121.08102208935</ele>
        <time>2021-05-02T09:17:24Z</time>
      </trkpt>
      <trkpt lat="46.41274" lon="0.30031">
        <ele>121.22491143737</ele>
        <time>2021-05-02T09:17:26Z</time>
      </trkpt>
      <trkpt lat="46.41277" lon="0.30033">
        <ele>121.41886392795</ele>
        <time>2021-05-02T09:17:28Z</time>
      </trkpt>
      <trkpt lat="46.41279" lon="0.30034">
        <ele>121.05948142335</ele>
        <time>2021-05-02T09:17:30Z</time>
      </trkpt>
      <trkpt lat="46.41281" lon="0.30035">
        <ele>121.03539270815</ele>
        <time>2021-05-02T09:17:32Z</time>
      </trkpt>
      <trkpt lat="46.41283" lon="0.30038">
        <ele>121.56393867638</ele>
        <time>2021-05-02T09:17:34Z</time>
      </trkpt>
      <trkpt lat="46.41285" lon="0.30039">
        <ele>121.08122332022</ele>
        <time>2021-05-02T09:17:36Z</time>
      </trkpt>
      <trkpt lat="46.41287" lon="0.30042">
        <ele>121.0503396485</ele>
        <time>2021-05-02T09:17:38Z</time>
      </trkpt>
      <trkpt lat="46.41289" lon="0.30045">
        <ele>121.48292572983</ele>
        <time>2021-05-02T09:17:40Z</time>
      </trkpt>
      <trkpt lat="46.41291" lon="0.30047">
        <ele>121.3239273252</ele>
        <time>2021-05-02T09:17:42Z</time>
      </trkpt>
      <trkpt lat="46.41293" lon="0.30049">
        <ele>121.2095943559</ele>
        <time>2021-05-02T09:17:44Z</time>
      </trkpt>
      <trkpt lat="46.41295" lon="0.30051">
        <ele>121.12520630844</ele>
        <time>2021-05-02T09:17:46Z</time>
      </trkpt>
      <trkpt lat="46.41297" lon="0.30053">
        <ele>121.02996705752</ele>
        <time>2021-05-02T09:17:48Z</time>
      </trkpt>
      <trkpt lat="46.41298" lon="0.30056">
        <ele>120.90946963988</ele>
        <time>2021-05-02T09:17:50Z</time>
      </trkpt>
      <trkpt lat="46.41301" lon="0.30058">
        <ele>121.17668170854</ele>
        <time>2021-05-02T09:17:52Z</time>
      </trkpt>
      <trkpt lat="46.41302" lon="0.3006">
        <ele>121.1194857033</ele>
        <time>2021-05-02T09:17:54Z</time>
      </trkpt>
      <trkpt lat="46.41304" lon="0.30062">
        <ele>121.14990072697</ele>
        <time>2021-05-02T09:17:55Z</time>
      </trkpt>
      <trkpt lat="46.41305" lon="0.30064">
        <ele>121.4516478423</ele>
        <time>2021-05-02T09:17:57Z</time>
      </trkpt>
      <trkpt lat="46.41307" lon="0.30066">
        <ele>121.4124137098</ele>
        <time>2021-05-02T09:17:59Z</time>
      </trkpt>
      <trkpt lat="46.41309" lon="0.30069">
        <ele>120.99714932311</ele>
        <time>2021-05-02T09:18:01Z</time>
      </trkpt>
      <trkpt lat="46.41311" lon="0.30072">
        <ele>121.15413084347</ele>
        <time>2021-05-02T09:18:03Z</time>
      </trkpt>
      <trkpt lat="46.41312" lon="0.30074">
        <ele>120.94733884279</ele>
        <time>2021-05-02T09:18:05Z</time>
      </trkpt>
      <trkpt lat="46.41314" lon="0.30076">
        <ele>120.79887036607</ele>
        <time>2021-05-02T09:18:07Z</time>
      </trkpt>
      <trkpt lat="46.41315" lon="0.30079">
        <ele>120.98052471504</ele>
        <time>2021-05-02T09:18:09Z</time>
      </trkpt>
      <trkpt lat="46.41317" lon="0.30082">
        <ele>120.56681586616</ele>
        <time>2021-05-02T09:18:11Z</time>
      </trkpt>
      <trkpt lat="46.41319" lon="0.30084">
        <ele>120.77330921125</ele>
        <time>2021-05-02T09:18:13Z</time>
      </trkpt>
      <trkpt lat="46.41321" lon="0.30086">
        <ele>120.92042558081</ele>
        <time>2021-05-02T09:18:15Z</time>
      </trkpt>
      <trkpt lat="46.41322" lon="0.30089">
        <ele>120.92405489739</ele>
        <time>2021-05-02T09:18:17Z</time>
      </trkpt>
      <trkpt lat="46.41324" lon="0.30092">
        <ele>121.01987897232</ele>
        <time>2021-05-02T09:18:19Z</time>
      </trkpt>
      <trkpt lat="46.41326" lon="0.30095">
        <ele>120.70868115779</ele>
        <time>2021-05-02T09:18:21Z</time>
      </trkpt>
      <trkpt lat="46.41327" lon="0.30099">
        <ele>120.6548522329</ele>
        <time>2021-05-02T09:18:23Z</time>
      </trkpt>
      <trkpt lat="46.41329" lon="0.30101">
        <ele>120.90571384225</ele>
        <time>2021-05-02T09:18:25Z</time>
      </trkpt>
      <trkpt lat="46.41331" lon="0.30104">
        <ele>120.62616275344</ele>
        <time>2021-05-02T09:18:27Z</time>
      </trkpt>
      <trkpt lat="46.41333" lon="0.30107">
        <ele>120.72764658928</ele>
        <time>2021-05-02T09:18:29Z</time>
      </trkpt>
      <trkpt lat="46.41335" lon="0.3011">
        <ele>120.38254301995</ele>
        <time>2021-05-02T09:18:31Z</time>
      </trkpt>
      <trkpt lat="46.41337" lon="0.30113">
        <ele>120.59600521531</ele>
        <time>2021-05-02T09:18:33Z</time>
      </trkpt>
      <trkpt lat="46.41338" lon="0.30115">
        <ele>120.63921105955</ele>
        <time>2021-05-02T09:18:35Z</time>
      </trkpt>
      <trkpt lat="46.4134" lon="0.30119">
        <ele>120.34542190097</ele>
        <time>2021-05-02T09:18:37Z</time>
      </trkpt>
      <trkpt lat="46.41342" lon="0.30121">
        <ele>120.07068882883</ele>
        <time>2021-05-02T09:18:39Z</time>
      </trkpt>
      <trkpt lat="46.41344" lon="0.30124">
        <ele>120.35225435719</ele>
        <time>2021-05-02T09:18:41Z</time>
      </trkpt>
      <trkpt lat="46.41345" lon="0.30127">
        <ele>120.07970019802</ele>
        <time>2021-05-02T09:18:43Z</time>
      </trkpt>
      <trkpt lat="46.41346" lon="0.3013">
        <ele>120.33297570236</ele>
        <time>2021-05-02T09:18:45Z</time>
      </trkpt>
      <trkpt lat="46.41348" lon="0.30133">
        <ele>120.24682098068</ele>
        <time>2021-05-02T09:18:47Z</time>
      </trkpt>
      <trkpt lat="46.4135" lon="0.30136">
        <ele>120.43455373868</ele>
        <time>2021-05-02T09:18:49Z</time>
      </trkpt>
      <trkpt lat="46.41351" lon="0.30139">
        <ele>120.14393690787</ele>
        <time>2021-05-02T09:18:51Z</time>
      </trkpt>
      <trkpt lat="46.41353" lon="0.30142">
        <ele>120.31358721107</ele>
        <time>2021-05-02T09:18:53Z</time>
      </trkpt>
      <trkpt lat="46.41354" lon="0.30146">
        <ele>120.34981152415</ele>
        <time>2021-05-02T09:18:55Z</time>
      </trkpt>
      <trkpt lat="46.41356" lon="0.30148">
        <ele>120.35837885179</ele>
        <time>2021-05-02T09:18:57Z</time>
      </trkpt>
      <trkpt lat="46.41357" lon="0.3015">
        <ele>119.70998245943</ele>
        <time>2021-05-02T09:18:59Z</time>
      </trkpt>
      <trkpt lat="46.41359" lon="0.30153">
        <ele>120.02645787597</ele>
        <time>2021-05-02T09:19:01Z</time>
      </trkpt>
      <trkpt lat="46.4136" lon="0.30156">
        <ele>120.04893045034</ele>
        <time>2021-05-02T09:19:03Z</time>
      </trkpt>
      <trkpt lat="46.41361" lon="0.30159">
        <ele>119.80910307821</ele>
        <time>2021-05-02T09:19:05Z</time>
      </trkpt>
      <trkpt lat="46.41363" lon="0.30163">
        <ele>119.93792987801</ele>
        <time>2021-05-02T09:19:07Z</time>
      </trkpt>
      <trkpt lat="46.41364" lon="0.30166">
        <ele>120.12970888987</ele>
        <time>2021-05-02T09:19:09Z</time>
      </trkpt>
      <trkpt lat="46.41365" lon="0.30169">
        <ele>120.05618618522</ele>
        <time>2021-05-02T09:19:11Z</time>
      </trkpt>
      <trkpt lat="46.41366" lon="0.30173">
        <ele>119.99265838787</ele>
        <time>2021-05-02T09:19:13Z</time>
      </trkpt>
      <trkpt lat="46.41367" lon="0.30175">
        <ele>119.85861224588</ele>
        <time>2021-05-02T09:19:15Z</time>
      </trkpt>
      <trkpt lat="46.41369" lon="0.30178">
        <ele>119.44000363909</ele>
        <time>2021-05-02T09:19:17Z</time>
      </trkpt>
      <trkpt lat="46.4137" lon="0.30181">
        <ele>119.47639691643</ele>
        <time>2021-05-02T09:19:19Z</time>
      </trkpt>
      <trkpt lat="46.41371" lon="0.30185">
        <ele>119.31207487453</ele>
        <time>2021-05-02T09:19:21Z</time>
      </trkpt>
      <trkpt lat="46.41372" lon="0.30189">
        <ele>119.33499694243</ele>
        <time>2021-05-02T09:19:23Z</time>
      </trkpt>
      <trkpt lat="46.41373" lon="0.30192">
        <ele>119.1893093111</ele>
        <time>2021-05-02T09:19:25Z</time>
      </trkpt>
      <trkpt lat="46.41375" lon="0.30195">
        <ele>119.30581240915</ele>
        <time>2021-05-02T09:19:27Z</time>
      </trkpt>
      <trkpt lat="46.41376" lon="0.30198">
        <ele>119.06424670201</ele>
        <time>2021-05-02T09:19:29Z</time>
      </trkpt>
      <trkpt lat="46.41376" lon="0.30201">
        <ele>118.85026131012</ele>
        <time>2021-05-02T09:19:31Z</time>
      </trkpt>
      <trkpt lat="46.41377" lon="0.30204">
        <ele>118.70421361551</ele>
        <time>2021-05-02T09:19:33Z</time>
      </trkpt>
      <trkpt lat="46.41378" lon="0.30208">
        <ele>119.17085689213</ele>
        <time>2021-05-02T09:19:35Z</time>
      </trkpt>
      <trkpt lat="46.4138" lon="0.30211">
        <ele>119.0944809569</ele>
        <time>2021-05-02T09:19:37Z</time>
      </trkpt>
      <trkpt lat="46.41381" lon="0.30214">
        <ele>119.14513038937</ele>
        <time>2021-05-02T09:19:39Z</time>
      </trkpt>
      <trkpt lat="46.41383" lon="0.30218">
        <ele>118.7916252343</ele>
        <time>2021-05-02T09:19:41Z</time>
      </trkpt>
      <trkpt lat="46.41384" lon="0.30221">
        <ele>118.66794580687</ele>
        <time>2021-05-02T09:19:43Z</time>
      </trkpt>
      <trkpt lat="46.41385" lon="0.30225">
        <ele>118.30310067534</ele>
        <time>2021-05-02T09:19:45Z</time>
      </trkpt>
      <trkpt lat="46.41387" lon="0.30228">
        <ele>118.57460705936</ele>
        <time>2021-05-02T09:19:47Z</time>
      </trkpt>
      <trkpt lat="46.41388" lon="0.3023">
        <ele>118.19323566183</ele>
        <time>2021-05-02T09:19:48Z</time>
      </trkpt>
      <trkpt lat="46.4139" lon="0.30234">
        <ele>118.40234427899</ele>
        <time>2021-05-02T09:19:50Z</time>
      </trkpt>
      <trkpt lat="46.41391" lon="0.30238">
        <ele>118.5197659554</ele>
        <time>2021-05-02T09:19:52Z</time>
      </trkpt>
      <trkpt lat="46.41393" lon="0.30241">
        <ele>118.57753545791</ele>
        <time>2021-05-02T09:19:54Z</time>
      </trkpt>
      <trkpt lat="46.41394" lon="0.30244">
        <ele>118.66713596694</ele>
        <time>2021-05-02T09:19:56Z</time>
      </trkpt>
      <trkpt lat="46.41395" lon="0.30247">
        <ele>118.66601651721</ele>
        <time>2021-05-02T09:19:58Z</time>
      </trkpt>
      <trkpt lat="46.41397" lon="0.3025">
        <ele>118.69457874075</ele>
        <time>2021-05-02T09:20:00Z</time>
      </trkpt>
      <trkpt lat="46.41398" lon="0.30253">
        <ele>118.4619799694</ele>
        <time>2021-05-02T09:20:02Z</time>
      </trkpt>
      <trkpt lat="46.414" lon="0.30255">
        <ele>118.17454955075</ele>
        <time>2021-05-02T09:20:04Z</time>
      </trkpt>
      <trkpt lat="46.41402" lon="0.30259">
        <ele>118.14507145993</ele>
        <time>2021-05-02T09:20:06Z</time>
      </trkpt>
      <trkpt lat="46.41403" lon="0.30262">
        <ele>118.05406612623</ele>
        <time>2021-05-02T09:20:08Z</time>
      </trkpt>
      <trkpt lat="46.41405" lon="0.30265">
        <ele>118.04926696885</ele>
        <time>2021-05-02T09:20:10Z</time>
      </trkpt>
      <trkpt lat="46.41407" lon="0.30269">
        <ele>117.57886117976</ele>
        <time>2021-05-02T09:20:12Z</time>
      </trkpt>
      <trkpt lat="46.41409" lon="0.30271">
        <ele>117.4897113163</ele>
        <time>2021-05-02T09:20:14Z</time>
      </trkpt>
      <trkpt lat="46.41411" lon="0.30274">
        <ele>117.83183748927</ele>
        <time>2021-05-02T09:20:16Z</time>
      </trkpt>
      <trkpt lat="46.41413" lon="0.30277">
        <ele>117.6181513425</ele>
        <time>2021-05-02T09:20:18Z</time>
      </trkpt>
      <trkpt lat="46.41415" lon="0.3028">
        <ele>117.86367306951</ele>
        <time>2021-05-02T09:20:20Z</time>
      </trkpt>
      <trkpt lat="46.41417" lon="0.30283">
        <ele>117.67561654467</ele>
        <time>2021-05-02T09:20:22Z</time>
      </trkpt>
      <trkpt lat="46.4142" lon="0.30286">
        <ele>117.47610733565</ele>
        <time>2021-05-02T09:20:25Z</time>
      </trkpt>
      <trkpt lat="46.41421" lon="0.30288">
        <ele>117.48896024842</ele>
        <time>2021-05-02T09:20:26Z</time>
      </trkpt>
      <trkpt lat="46.41422" lon="0.30291">
        <ele>117.37245007139</ele>
        <time>2021-05-02T09:20:28Z</time>
      </trkpt>
      <trkpt lat="46.41424" lon="0.30293">
        <ele>117.20794080105</ele>
        <time>2021-05-02T09:20:30Z</time>
      </trkpt>
      <trkpt lat="46.41426" lon="0.30296">
        <ele>117.25506214332</ele>
        <time>2021-05-02T09:20:32Z</time>
      </trkpt>
      <trkpt lat="46.41428" lon="0.30298">
        <ele>116.89860682841</ele>
        <time>2021-05-02T09:20:34Z</time>
      </trkpt>
      <trkpt lat="46.4143" lon="0.30301">
        <ele>117.42003180645</ele>
        <time>2021-05-02T09:20:36Z</time>
      </trkpt>
      <trkpt lat="46.41433" lon="0.30304">
        <ele>117.53696625307</ele>
        <time>2021-05-02T09:20:38Z</time>
      </trkpt>
      <trkpt lat="46.41435" lon="0.30306">
        <ele>117.10601295438</ele>
        <time>2021-05-02T09:20:41Z</time>
      </trkpt>
      <trkpt lat="46.41437" lon="0.30309">
        <ele>117.42400817759</ele>
        <time>2021-05-02T09:20:43Z</time>
      </trkpt>
      <trkpt lat="46.41439" lon="0.30311">
        <ele>117.43248521909</ele>
        <time>2021-05-02T09:20:45Z</time>
      </trkpt>
      <trkpt lat="46.41442" lon="0.30314">
        <ele>116.91197289806</ele>
        <time>2021-05-02T09:20:47Z</time>
      </trkpt>
      <trkpt lat="46.41443" lon="0.30317">
        <ele>117.02627555933</ele>
        <time>2021-05-02T09:20:49Z</time>
      </trkpt>
      <trkpt lat="46.41446" lon="0.30319">
        <ele>116.98782141972</ele>
        <time>2021-05-02T09:20:51Z</time>
      </trkpt>
      <trkpt lat="46.41447" lon="0.30321">
        <ele>116.6445504399</ele>
        <time>2021-05-02T09:20:53Z</time>
      </trkpt>
      <trkpt lat="46.41449" lon="0.30324">
        <ele>116.68598996662</ele>
        <time>2021-05-02T09:20:55Z</time>
      </trkpt>
      <trkpt lat="46.41451" lon="0.30326">
        <ele>116.45587770268</ele>
        <time>2021-05-02T09:20:57Z</time>
      </trkpt>
      <trkpt lat="46.41453" lon="0.30328">
        <ele>116.25017421786</ele>
        <time>2021-05-02T09:20:59Z</time>
      </trkpt>
      <trkpt lat="46.41455" lon="0.3033">
        <ele>116.29398074374</ele>
        <time>2021-05-02T09:21:01Z</time>
      </trkpt>
      <trkpt lat="46.41458" lon="0.30332">
        <ele>116.61145398021</ele>
        <time>2021-05-02T09:21:03Z</time>
      </trkpt>
      <trkpt lat="46.4146" lon="0.30334">
        <ele>116.45030056592</ele>
        <time>2021-05-02T09:21:05Z</time>
      </trkpt>
      <trkpt lat="46.41461" lon="0.30336">
        <ele>116.39695135225</ele>
        <time>2021-05-02T09:21:07Z</time>
      </trkpt>
      <trkpt lat="46.41464" lon="0.30338">
        <ele>116.45045666862</ele>
        <time>2021-05-02T09:21:09Z</time>
      </trkpt>
      <trkpt lat="46.41467" lon="0.30339">
        <ele>116.25860038027</ele>
        <time>2021-05-02T09:21:11Z</time>
      </trkpt>
      <trkpt lat="46.41469" lon="0.3034">
        <ele>115.84125690255</ele>
        <time>2021-05-02T09:21:13Z</time>
      </trkpt>
      <trkpt lat="46.41471" lon="0.30341">
        <ele>116.02927763201</ele>
        <time>2021-05-02T09:21:15Z</time>
      </trkpt>
      <trkpt lat="46.41474" lon="0.30343">
        <ele>115.96946249157</ele>
        <time>2021-05-02T09:21:17Z</time>
      </trkpt>
      <trkpt lat="46.41476" lon="0.30343">
        <ele>115.95921394974</ele>
        <time>2021-05-02T09:21:19Z</time>
      </trkpt>
      <trkpt lat="46.41478" lon="0.30344">
        <ele>115.8579682624</ele>
        <time>2021-05-02T09:21:20Z</time>
      </trkpt>
      <trkpt lat="46.41481" lon="0.30345">
        <ele>115.88035296369</ele>
        <time>2021-05-02T09:21:22Z</time>
      </trkpt>
      <trkpt lat="46.41483" lon="0.30346">
        <ele>115.85832839366</ele>
        <time>2021-05-02T09:21:24Z</time>
      </trkpt>
      <trkpt lat="46.41486" lon="0.30348">
        <ele>115.81433454994</ele>
        <time>2021-05-02T09:21:26Z</time>
      </trkpt>
      <trkpt lat="46.41488" lon="0.3035">
        <ele>115.84851149563</ele>
        <time>2021-05-02T09:21:28Z</time>
      </trkpt>
      <trkpt lat="46.41489" lon="0.30353">
        <ele>115.71035402268</ele>
        <time>2021-05-02T09:21:30Z</time>
      </trkpt>
      <trkpt lat="46.4149" lon="0.30356">
        <ele>115.83487448096</ele>
        <time>2021-05-02T09:21:32Z</time>
      </trkpt>
      <trkpt lat="46.41492" lon="0.30358">
        <ele>116.09392273892</ele>
        <time>2021-05-02T09:21:34Z</time>
      </trkpt>
      <trkpt lat="46.41493" lon="0.30361">
        <ele>116.09130537789</ele>
        <time>2021-05-02T09:21:36Z</time>
      </trkpt>
      <trkpt lat="46.41494" lon="0.30364">
        <ele>116.18757883646</ele>
        <time>2021-05-02T09:21:38Z</time>
      </trkpt>
      <trkpt lat="46.41496" lon="0.30367">
        <ele>116.39011655096</ele>
        <time>2021-05-02T09:21:40Z</time>
      </trkpt>
      <trkpt lat="46.41497" lon="0.3037">
        <ele>116.41143892333</ele>
        <time>2021-05-02T09:21:42Z</time>
      </trkpt>
      <trkpt lat="46.41498" lon="0.30372">
        <ele>116.28535394743</ele>
        <time>2021-05-02T09:21:44Z</time>
      </trkpt>
      <trkpt lat="46.41499" lon="0.30376">
        <ele>116.32126358058</ele>
        <time>2021-05-02T09:21:46Z</time>
      </trkpt>
      <trkpt lat="46.415" lon="0.30379">
        <ele>115.93385330215</ele>
        <time>2021-05-02T09:21:48Z</time>
      </trkpt>
      <trkpt lat="46.41501" lon="0.30382">
        <ele>116.64119950868</ele>
        <time>2021-05-02T09:21:50Z</time>
      </trkpt>
      <trkpt lat="46.41502" lon="0.30386">
        <ele>116.28727252129</ele>
        <time>2021-05-02T09:21:52Z</time>
      </trkpt>
      <trkpt lat="46.41503" lon="0.30389">
        <ele>115.92636307236</ele>
        <time>2021-05-02T09:21:54Z</time>
      </trkpt>
      <trkpt lat="46.41504" lon="0.30392">
        <ele>115.86942821741</ele>
        <time>2021-05-02T09:21:56Z</time>
      </trkpt>
      <trkpt lat="46.41505" lon="0.30395">
        <ele>115.83128642198</ele>
        <time>2021-05-02T09:21:58Z</time>
      </trkpt>
      <trkpt lat="46.41506" lon="0.30398">
        <ele>116.22452369519</ele>
        <time>2021-05-02T09:22:00Z</time>
      </trkpt>
      <trkpt lat="46.41507" lon="0.304">
        <ele>115.67503580544</ele>
        <time>2021-05-02T09:22:02Z</time>
      </trkpt>
      <trkpt lat="46.41508" lon="0.30404">
        <ele>116.2280868683</ele>
        <time>2021-05-02T09:22:04Z</time>
      </trkpt>
      <trkpt lat="46.41509" lon="0.30406">
        <ele>115.7886254536</ele>
        <time>2021-05-02T09:22:06Z</time>
      </trkpt>
      <trkpt lat="46.4151" lon="0.30409">
        <ele>116.31876138132</ele>
        <time>2021-05-02T09:22:08Z</time>
      </trkpt>
      <trkpt lat="46.41511" lon="0.30413">
        <ele>115.79476681165</ele>
        <time>2021-05-02T09:22:10Z</time>
      </trkpt>
      <trkpt lat="46.41513" lon="0.30416">
        <ele>115.98373573832</ele>
        <time>2021-05-02T09:22:12Z</time>
      </trkpt>
      <trkpt lat="46.41514" lon="0.30418">
        <ele>116.30709314253</ele>
        <time>2021-05-02T09:22:14Z</time>
      </trkpt>
      <trkpt lat="46.41515" lon="0.30421">
        <ele>116.05790961441</ele>
        <time>2021-05-02T09:22:16Z</time>
      </trkpt>
      <trkpt lat="46.41516" lon="0.30425">
        <ele>116.18182126712</ele>
        <time>2021-05-02T09:22:18Z</time>
      </trkpt>
      <trkpt lat="46.41517" lon="0.30428">
        <ele>116.50166592561</ele>
        <time>2021-05-02T09:22:20Z</time>
      </trkpt>
      <trkpt lat="46.41519" lon="0.3043">
        <ele>116.3167799823</ele>
        <time>2021-05-02T09:22:22Z</time>
      </trkpt>
      <trkpt lat="46.4152" lon="0.30434">
        <ele>116.18402165361</ele>
        <time>2021-05-02T09:22:24Z</time>
      </trkpt>
      <trkpt lat="46.41521" lon="0.30439">
        <ele>116.33828958403</ele>
        <time>2021-05-02T09:22:26Z</time>
      </trkpt>
      <trkpt lat="46.41523" lon="0.30442">
        <ele>116.72524692398</ele>
        <time>2021-05-02T09:22:29Z</time>
      </trkpt>
      <trkpt lat="46.41524" lon="0.30446">
        <ele>116.46156332456</ele>
        <time>2021-05-02T09:22:31Z</time>
      </trkpt>
      <trkpt lat="46.41524" lon="0.30449">
        <ele>116.56446787994</ele>
        <time>2021-05-02T09:22:33Z</time>
      </trkpt>
      <trkpt lat="46.41525" lon="0.30451">
        <ele>116.85453086998</ele>
        <time>2021-05-02T09:22:34Z</time>
      </trkpt>
      <trkpt lat="46.41526" lon="0.30455">
        <ele>116.85237432178</ele>
        <time>2021-05-02T09:22:36Z</time>
      </trkpt>
      <trkpt lat="46.41527" lon="0.30458">
        <ele>116.66940322705</ele>
        <time>2021-05-02T09:22:38Z</time>
      </trkpt>
      <trkpt lat="46.41529" lon="0.3046">
        <ele>116.20382708684</ele>
        <time>2021-05-02T09:22:40Z</time>
      </trkpt>
      <trkpt lat="46.4153" lon="0.30464">
        <ele>116.33177165966</ele>
        <time>2021-05-02T09:22:42Z</time>
      </trkpt>
      <trkpt lat="46.41531" lon="0.30468">
        <ele>116.48248600587</ele>
        <time>2021-05-02T09:22:44Z</time>
      </trkpt>
      <trkpt lat="46.41532" lon="0.30471">
        <ele>116.43975670729</ele>
        <time>2021-05-02T09:22:46Z</time>
      </trkpt>
      <trkpt lat="46.41533" lon="0.30475">
        <ele>116.76495732926</ele>
        <time>2021-05-02T09:22:48Z</time>
      </trkpt>
      <trkpt lat="46.41534" lon="0.30478">
        <ele>116.60912678391</ele>
        <time>2021-05-02T09:22:50Z</time>
      </trkpt>
      <trkpt lat="46.41535" lon="0.30481">
        <ele>116.44882381614</ele>
        <time>2021-05-02T09:22:52Z</time>
      </trkpt>
      <trkpt lat="46.41536" lon="0.30485">
        <ele>116.6682396289</ele>
        <time>2021-05-02T09:22:54Z</time>
      </trkpt>
      <trkpt lat="46.41537" lon="0.30489">
        <ele>116.08539060503</ele>
        <time>2021-05-02T09:22:56Z</time>
      </trkpt>
      <trkpt lat="46.41539" lon="0.30492">
        <ele>116.39445045218</ele>
        <time>2021-05-02T09:22:58Z</time>
      </trkpt>
      <trkpt lat="46.4154" lon="0.30495">
        <ele>116.13437410165</ele>
        <time>2021-05-02T09:23:00Z</time>
      </trkpt>
      <trkpt lat="46.41541" lon="0.30497">
        <ele>115.83300939109</ele>
        <time>2021-05-02T09:23:02Z</time>
      </trkpt>
      <trkpt lat="46.41543" lon="0.30501">
        <ele>116.09026006889</ele>
        <time>2021-05-02T09:23:04Z</time>
      </trkpt>
      <trkpt lat="46.41544" lon="0.30504">
        <ele>116.0298378272</ele>
        <time>2021-05-02T09:23:06Z</time>
      </trkpt>
      <trkpt lat="46.41545" lon="0.30508">
        <ele>115.85666100681</ele>
        <time>2021-05-02T09:23:08Z</time>
      </trkpt>
      <trkpt lat="46.41547" lon="0.30511">
        <ele>115.7670106655</ele>
        <time>2021-05-02T09:23:10Z</time>
      </trkpt>
      <trkpt lat="46.41548" lon="0.30516">
        <ele>116.02598684654</ele>
        <time>2021-05-02T09:23:12Z</time>
      </trkpt>
      <trkpt lat="46.4155" lon="0.30519">
        <ele>116.00800685398</ele>
        <time>2021-05-02T09:23:14Z</time>
      </trkpt>
      <trkpt lat="46.41551" lon="0.30522">
        <ele>116.04603219591</ele>
        <time>2021-05-02T09:23:16Z</time>
      </trkpt>
      <trkpt lat="46.41552" lon="0.30527">
        <ele>116.23545685597</ele>
        <time>2021-05-02T09:23:18Z</time>
      </trkpt>
      <trkpt lat="46.41554" lon="0.30529">
        <ele>116.13418687414</ele>
        <time>2021-05-02T09:23:20Z</time>
      </trkpt>
      <trkpt lat="46.41555" lon="0.30533">
        <ele>116.46090649068</ele>
        <time>2021-05-02T09:23:22Z</time>
      </trkpt>
      <trkpt lat="46.41556" lon="0.30536">
        <ele>115.98289105389</ele>
        <time>2021-05-02T09:23:24Z</time>
      </trkpt>
      <trkpt lat="46.41557" lon="0.30539">
        <ele>115.96653844509</ele>
        <time>2021-05-02T09:23:26Z</time>
      </trkpt>
      <trkpt lat="46.41559" lon="0.30543">
        <ele>116.30575627461</ele>
        <time>2021-05-02T09:23:28Z</time>
      </trkpt>
      <trkpt lat="46.4156" lon="0.30547">
        <ele>116.18889034819</ele>
        <time>2021-05-02T09:23:30Z</time>
      </trkpt>
      <trkpt lat="46.41561" lon="0.3055">
        <ele>116.15860324726</ele>
        <time>2021-05-02T09:23:32Z</time>
      </trkpt>
      <trkpt lat="46.41562" lon="0.30554">
        <ele>116.18521378376</ele>
        <time>2021-05-02T09:23:34Z</time>
      </trkpt>
      <trkpt lat="46.41564" lon="0.30557">
        <ele>115.75145855546</ele>
        <time>2021-05-02T09:23:36Z</time>
      </trkpt>
      <trkpt lat="46.41565" lon="0.3056">
        <ele>115.75474593043</ele>
        <time>2021-05-02T09:23:38Z</time>
      </trkpt>
      <trkpt lat="46.41566" lon="0.30563">
        <ele>115.62564391177</ele>
        <time>2021-05-02T09:23:40Z</time>
      </trkpt>
      <trkpt lat="46.41568" lon="0.30567">
        <ele>115.82910520211</ele>
        <time>2021-05-02T09:23:42Z</time>
      </trkpt>
      <trkpt lat="46.41569" lon="0.3057">
        <ele>115.75062046107</ele>
        <time>2021-05-02T09:23:44Z</time>
      </trkpt>
      <trkpt lat="46.4157" lon="0.30574">
        <ele>115.2072084127</ele>
        <time>2021-05-02T09:23:46Z</time>
      </trkpt>
      <trkpt lat="46.41571" lon="0.30577">
        <ele>115.46969448403</ele>
        <time>2021-05-02T09:23:48Z</time>
      </trkpt>
      <trkpt lat="46.41573" lon="0.30581">
        <ele>115.60603618156</ele>
        <time>2021-05-02T09:23:50Z</time>
      </trkpt>
      <trkpt lat="46.41575" lon="0.30583">
        <ele>115.4502130188</ele>
        <time>2021-05-02T09:23:52Z</time>
      </trkpt>
      <trkpt lat="46.41576" lon="0.30587">
        <ele>115.46372651309</ele>
        <time>2021-05-02T09:23:54Z</time>
      </trkpt>
      <trkpt lat="46.41578" lon="0.3059">
        <ele>115.20786096994</ele>
        <time>2021-05-02T09:23:56Z</time>
      </trkpt>
      <trkpt lat="46.41578" lon="0.30593">
        <ele>114.88033642713</ele>
        <time>2021-05-02T09:23:58Z</time>
      </trkpt>
      <trkpt lat="46.4158" lon="0.30597">
        <ele>114.95325022191</ele>
        <time>2021-05-02T09:24:00Z</time>
      </trkpt>
      <trkpt lat="46.41582" lon="0.30599">
        <ele>114.30043370835</ele>
        <time>2021-05-02T09:24:02Z</time>
      </trkpt>
      <trkpt lat="46.41582" lon="0.30602">
        <ele>114.58219986502</ele>
        <time>2021-05-02T09:24:04Z</time>
      </trkpt>
      <trkpt lat="46.41584" lon="0.30606">
        <ele>114.36718991585</ele>
        <time>2021-05-02T09:24:06Z</time>
      </trkpt>
      <trkpt lat="46.41586" lon="0.30609">
        <ele>113.98685087822</ele>
        <time>2021-05-02T09:24:08Z</time>
      </trkpt>
      <trkpt lat="46.41588" lon="0.30613">
        <ele>114.24896544497</ele>
        <time>2021-05-02T09:24:10Z</time>
      </trkpt>
      <trkpt lat="46.41589" lon="0.30616">
        <ele>113.97059314419</ele>
        <time>2021-05-02T09:24:12Z</time>
      </trkpt>
      <trkpt lat="46.41591" lon="0.30619">
        <ele>113.75710401125</ele>
        <time>2021-05-02T09:24:14Z</time>
      </trkpt>
      <trkpt lat="46.41593" lon="0.30622">
        <ele>113.47250162717</ele>
        <time>2021-05-02T09:24:16Z</time>
      </trkpt>
      <trkpt lat="46.41595" lon="0.30624">
        <ele>112.95765558723</ele>
        <time>2021-05-02T09:24:18Z</time>
      </trkpt>
      <trkpt lat="46.41597" lon="0.30627">
        <ele>112.94015172217</ele>
        <time>2021-05-02T09:24:20Z</time>
      </trkpt>
      <trkpt lat="46.41598" lon="0.30629">
        <ele>112.90151107684</ele>
        <time>2021-05-02T09:24:22Z</time>
      </trkpt>
      <trkpt lat="46.416" lon="0.30631">
        <ele>112.47430807911</ele>
        <time>2021-05-02T09:24:24Z</time>
      </trkpt>
      <trkpt lat="46.41602" lon="0.30634">
        <ele>112.50156515278</ele>
        <time>2021-05-02T09:24:26Z</time>
      </trkpt>
      <trkpt lat="46.41604" lon="0.30637">
        <ele>112.15117054898</ele>
        <time>2021-05-02T09:24:28Z</time>
      </trkpt>
      <trkpt lat="46.41606" lon="0.3064">
        <ele>112.28476056363</ele>
        <time>2021-05-02T09:24:30Z</time>
      </trkpt>
      <trkpt lat="46.41608" lon="0.30642">
        <ele>112.71117388643</ele>
        <time>2021-05-02T09:24:32Z</time>
      </trkpt>
      <trkpt lat="46.4161" lon="0.30645">
        <ele>112.45951179322</ele>
        <time>2021-05-02T09:24:34Z</time>
      </trkpt>
      <trkpt lat="46.41612" lon="0.30647">
        <ele>112.19021557644</ele>
        <time>2021-05-02T09:24:36Z</time>
      </trkpt>
      <trkpt lat="46.41614" lon="0.30649">
        <ele>111.91194563266</ele>
        <time>2021-05-02T09:24:38Z</time>
      </trkpt>
      <trkpt lat="46.41616" lon="0.30651">
        <ele>111.56186897121</ele>
        <time>2021-05-02T09:24:40Z</time>
      </trkpt>
      <trkpt lat="46.41618" lon="0.30653">
        <ele>111.88038016763</ele>
        <time>2021-05-02T09:24:42Z</time>
      </trkpt>
      <trkpt lat="46.41619" lon="0.30656">
        <ele>111.52953661513</ele>
        <time>2021-05-02T09:24:44Z</time>
      </trkpt>
      <trkpt lat="46.41621" lon="0.30657">
        <ele>111.41460820939</ele>
        <time>2021-05-02T09:24:46Z</time>
      </trkpt>
      <trkpt lat="46.41623" lon="0.3066">
        <ele>111.27553166915</ele>
        <time>2021-05-02T09:24:48Z</time>
      </trkpt>
      <trkpt lat="46.41624" lon="0.30662">
        <ele>110.57301375456</ele>
        <time>2021-05-02T09:24:50Z</time>
      </trkpt>
      <trkpt lat="46.41626" lon="0.30665">
        <ele>110.5782569563</ele>
        <time>2021-05-02T09:24:52Z</time>
      </trkpt>
      <trkpt lat="46.41627" lon="0.30667">
        <ele>110.50788188912</ele>
        <time>2021-05-02T09:24:54Z</time>
      </trkpt>
      <trkpt lat="46.41629" lon="0.30668">
        <ele>110.24151389394</ele>
        <time>2021-05-02T09:24:56Z</time>
      </trkpt>
      <trkpt lat="46.41632" lon="0.3067">
        <ele>109.82886757609</ele>
        <time>2021-05-02T09:24:58Z</time>
      </trkpt>
      <trkpt lat="46.41634" lon="0.30672">
        <ele>109.84550710488</ele>
        <time>2021-05-02T09:25:00Z</time>
      </trkpt>
      <trkpt lat="46.41636" lon="0.30674">
        <ele>109.97766261641</ele>
        <time>2021-05-02T09:25:02Z</time>
      </trkpt>
      <trkpt lat="46.41638" lon="0.30676">
        <ele>110.34958362952</ele>
        <time>2021-05-02T09:25:04Z</time>
      </trkpt>
      <trkpt lat="46.4164" lon="0.30679">
        <ele>110.00602280721</ele>
        <time>2021-05-02T09:25:05Z</time>
      </trkpt>
      <trkpt lat="46.41642" lon="0.30681">
        <ele>109.75061445683</ele>
        <time>2021-05-02T09:25:07Z</time>
      </trkpt>
      <trkpt lat="46.41644" lon="0.30683">
        <ele>109.71506687347</ele>
        <time>2021-05-02T09:25:09Z</time>
      </trkpt>
      <trkpt lat="46.41647" lon="0.30686">
        <ele>109.78617075086</ele>
        <time>2021-05-02T09:25:11Z</time>
      </trkpt>
      <trkpt lat="46.41649" lon="0.30688">
        <ele>109.80479256716</ele>
        <time>2021-05-02T09:25:13Z</time>
      </trkpt>
      <trkpt lat="46.41652" lon="0.30691">
        <ele>110.00720183086</ele>
        <time>2021-05-02T09:25:15Z</time>
      </trkpt>
      <trkpt lat="46.41654" lon="0.30694">
        <ele>110.15928524733</ele>
        <time>2021-05-02T09:25:17Z</time>
      </trkpt>
      <trkpt lat="46.41656" lon="0.30697">
        <ele>110.24228506908</ele>
        <time>2021-05-02T09:25:19Z</time>
      </trkpt>
      <trkpt lat="46.41658" lon="0.30699">
        <ele>110.80500583909</ele>
        <time>2021-05-02T09:25:21Z</time>
      </trkpt>
      <trkpt lat="46.4166" lon="0.30701">
        <ele>110.50025394838</ele>
        <time>2021-05-02T09:25:23Z</time>
      </trkpt>
      <trkpt lat="46.41661" lon="0.30703">
        <ele>110.03144750837</ele>
        <time>2021-05-02T09:25:25Z</time>
      </trkpt>
      <trkpt lat="46.41664" lon="0.30706">
        <ele>110.04780273419</ele>
        <time>2021-05-02T09:25:27Z</time>
      </trkpt>
      <trkpt lat="46.41665" lon="0.30708">
        <ele>110.10617587157</ele>
        <time>2021-05-02T09:25:29Z</time>
      </trkpt>
      <trkpt lat="46.41667" lon="0.3071">
        <ele>110.34450031165</ele>
        <time>2021-05-02T09:25:31Z</time>
      </trkpt>
      <trkpt lat="46.41669" lon="0.30713">
        <ele>110.28377973847</ele>
        <time>2021-05-02T09:25:33Z</time>
      </trkpt>
      <trkpt lat="46.41671" lon="0.30715">
        <ele>110.80590221751</ele>
        <time>2021-05-02T09:25:34Z</time>
      </trkpt>
      <trkpt lat="46.41672" lon="0.30718">
        <ele>110.69195617735</ele>
        <time>2021-05-02T09:25:36Z</time>
      </trkpt>
      <trkpt lat="46.41675" lon="0.3072">
        <ele>110.25400475692</ele>
        <time>2021-05-02T09:25:39Z</time>
      </trkpt>
      <trkpt lat="46.41677" lon="0.30723">
        <ele>110.09104000963</ele>
        <time>2021-05-02T09:25:41Z</time>
      </trkpt>
      <trkpt lat="46.41679" lon="0.30725">
        <ele>110.12487608846</ele>
        <time>2021-05-02T09:25:43Z</time>
      </trkpt>
      <trkpt lat="46.4168" lon="0.30728">
        <ele>110.10519700032</ele>
        <time>2021-05-02T09:25:45Z</time>
      </trkpt>
      <trkpt lat="46.41682" lon="0.3073">
        <ele>110.13862946816</ele>
        <time>2021-05-02T09:25:47Z</time>
      </trkpt>
      <trkpt lat="46.41683" lon="0.30733">
        <ele>109.94487576187</ele>
        <time>2021-05-02T09:25:49Z</time>
      </trkpt>
      <trkpt lat="46.41685" lon="0.30736">
        <ele>109.43067293428</ele>
        <time>2021-05-02T09:25:51Z</time>
      </trkpt>
      <trkpt lat="46.41686" lon="0.30738">
        <ele>109.83025815431</ele>
        <time>2021-05-02T09:25:53Z</time>
      </trkpt>
      <trkpt lat="46.41688" lon="0.30742">
        <ele>109.56468591187</ele>
        <time>2021-05-02T09:25:55Z</time>
      </trkpt>
      <trkpt lat="46.41689" lon="0.30744">
        <ele>109.03828036413</ele>
        <time>2021-05-02T09:25:57Z</time>
      </trkpt>
      <trkpt lat="46.41691" lon="0.30747">
        <ele>109.3878284432</ele>
        <time>2021-05-02T09:25:59Z</time>
      </trkpt>
      <trkpt lat="46.41692" lon="0.3075">
        <ele>110.08156163245</ele>
        <time>2021-05-02T09:26:01Z</time>
      </trkpt>
      <trkpt lat="46.41693" lon="0.30753">
        <ele>109.079704348</ele>
        <time>2021-05-02T09:26:03Z</time>
      </trkpt>
      <trkpt lat="46.41695" lon="0.30756">
        <ele>109.33693828527</ele>
        <time>2021-05-02T09:26:05Z</time>
      </trkpt>
      <trkpt lat="46.41696" lon="0.30759">
        <ele>109.14987151697</ele>
        <time>2021-05-02T09:26:07Z</time>
      </trkpt>
      <trkpt lat="46.41698" lon="0.30762">
        <ele>108.77824829146</ele>
        <time>2021-05-02T09:26:09Z</time>
      </trkpt>
      <trkpt lat="46.41699" lon="0.30765">
        <ele>109.30025591236</ele>
        <time>2021-05-02T09:26:11Z</time>
      </trkpt>
      <trkpt lat="46.41701" lon="0.30769">
        <ele>109.16422466002</ele>
        <time>2021-05-02T09:26:13Z</time>
      </trkpt>
      <trkpt lat="46.41702" lon="0.3077">
        <ele>108.85423037037</ele>
        <time>2021-05-02T09:26:15Z</time>
      </trkpt>
      <trkpt lat="46.41704" lon="0.30774">
        <ele>108.76763028372</ele>
        <time>2021-05-02T09:26:17Z</time>
      </trkpt>
      <trkpt lat="46.41705" lon="0.30777">
        <ele>108.82725515775</ele>
        <time>2021-05-02T09:26:19Z</time>
      </trkpt>
      <trkpt lat="46.41707" lon="0.3078">
        <ele>108.79814425483</ele>
        <time>2021-05-02T09:26:21Z</time>
      </trkpt>
      <trkpt lat="46.41708" lon="0.30783">
        <ele>109.79047937784</ele>
        <time>2021-05-02T09:26:23Z</time>
      </trkpt>
      <trkpt lat="46.4171" lon="0.30786">
        <ele>109.17068976536</ele>
        <time>2021-05-02T09:26:25Z</time>
      </trkpt>
      <trkpt lat="46.41712" lon="0.30788">
        <ele>108.78494196199</ele>
        <time>2021-05-02T09:26:27Z</time>
      </trkpt>
      <trkpt lat="46.41714" lon="0.3079">
        <ele>108.77437346522</ele>
        <time>2021-05-02T09:26:29Z</time>
      </trkpt>
      <trkpt lat="46.41716" lon="0.30793">
        <ele>109.03445939254</ele>
        <time>2021-05-02T09:26:31Z</time>
      </trkpt>
      <trkpt lat="46.41717" lon="0.30796">
        <ele>108.85701860953</ele>
        <time>2021-05-02T09:26:33Z</time>
      </trkpt>
      <trkpt lat="46.41719" lon="0.30799">
        <ele>108.99159924593</ele>
        <time>2021-05-02T09:26:35Z</time>
      </trkpt>
      <trkpt lat="46.4172" lon="0.30801">
        <ele>109.15664499439</ele>
        <time>2021-05-02T09:26:36Z</time>
      </trkpt>
      <trkpt lat="46.41722" lon="0.30804">
        <ele>109.16511279531</ele>
        <time>2021-05-02T09:26:38Z</time>
      </trkpt>
      <trkpt lat="46.41724" lon="0.30806">
        <ele>109.7181315925</ele>
        <time>2021-05-02T09:26:40Z</time>
      </trkpt>
      <trkpt lat="46.41725" lon="0.30808">
        <ele>109.56103418581</ele>
        <time>2021-05-02T09:26:42Z</time>
      </trkpt>
      <trkpt lat="46.41727" lon="0.30812">
        <ele>109.88601084799</ele>
        <time>2021-05-02T09:26:44Z</time>
      </trkpt>
      <trkpt lat="46.41729" lon="0.30814">
        <ele>109.6036113156</ele>
        <time>2021-05-02T09:26:46Z</time>
      </trkpt>
      <trkpt lat="46.4173" lon="0.30817">
        <ele>109.98306916002</ele>
        <time>2021-05-02T09:26:48Z</time>
      </trkpt>
      <trkpt lat="46.41732" lon="0.3082">
        <ele>110.23762241099</ele>
        <time>2021-05-02T09:26:50Z</time>
      </trkpt>
      <trkpt lat="46.41733" lon="0.30823">
        <ele>110.47700917348</ele>
        <time>2021-05-02T09:26:52Z</time>
      </trkpt>
      <trkpt lat="46.41735" lon="0.30826">
        <ele>110.33059661463</ele>
        <time>2021-05-02T09:26:54Z</time>
      </trkpt>
      <trkpt lat="46.41737" lon="0.30828">
        <ele>110.23068932258</ele>
        <time>2021-05-02T09:26:56Z</time>
      </trkpt>
      <trkpt lat="46.41739" lon="0.30831">
        <ele>109.68300814182</ele>
        <time>2021-05-02T09:26:58Z</time>
      </trkpt>
      <trkpt lat="46.41741" lon="0.30833">
        <ele>109.76273273118</ele>
        <time>2021-05-02T09:27:00Z</time>
      </trkpt>
      <trkpt lat="46.41743" lon="0.30835">
        <ele>110.07176141161</ele>
        <time>2021-05-02T09:27:02Z</time>
      </trkpt>
      <trkpt lat="46.41744" lon="0.30837">
        <ele>110.02260104753</ele>
        <time>2021-05-02T09:27:05Z</time>
      </trkpt>
      <trkpt lat="46.41747" lon="0.3084">
        <ele>110.91995846108</ele>
        <time>2021-05-02T09:27:08Z</time>
      </trkpt>
      <trkpt lat="46.41749" lon="0.30842">
        <ele>110.75332733244</ele>
        <time>2021-05-02T09:27:10Z</time>
      </trkpt>
      <trkpt lat="46.41751" lon="0.30844">
        <ele>111.7179557262</ele>
        <time>2021-05-02T09:27:12Z</time>
      </trkpt>
      <trkpt lat="46.41752" lon="0.30847">
        <ele>111.48074957542</ele>
        <time>2021-05-02T09:27:14Z</time>
      </trkpt>
      <trkpt lat="46.41755" lon="0.30851">
        <ele>112.24124403764</ele>
        <time>2021-05-02T09:27:16Z</time>
      </trkpt>
      <trkpt lat="46.41757" lon="0.30854">
        <ele>112.12368610594</ele>
        <time>2021-05-02T09:27:19Z</time>
      </trkpt>
      <trkpt lat="46.41758" lon="0.30857">
        <ele>113.06058059167</ele>
        <time>2021-05-02T09:27:21Z</time>
      </trkpt>
      <trkpt lat="46.41759" lon="0.3086">
        <ele>112.83838389069</ele>
        <time>2021-05-02T09:27:23Z</time>
      </trkpt>
      <trkpt lat="46.41762" lon="0.30865">
        <ele>112.55290851183</ele>
        <time>2021-05-02T09:27:25Z</time>
      </trkpt>
      <trkpt lat="46.41763" lon="0.30868">
        <ele>112.91820738558</ele>
        <time>2021-05-02T09:27:27Z</time>
      </trkpt>
      <trkpt lat="46.41766" lon="0.30871">
        <ele>113.2631941922</ele>
        <time>2021-05-02T09:27:29Z</time>
      </trkpt>
      <trkpt lat="46.41767" lon="0.30874">
        <ele>113.25150795374</ele>
        <time>2021-05-02T09:27:31Z</time>
      </trkpt>
      <trkpt lat="46.41769" lon="0.30876">
        <ele>112.86357802711</ele>
        <time>2021-05-02T09:27:33Z</time>
      </trkpt>
      <trkpt lat="46.41772" lon="0.30879">
        <ele>113.25788291451</ele>
        <time>2021-05-02T09:27:35Z</time>
      </trkpt>
      <trkpt lat="46.41774" lon="0.30882">
        <ele>113.15726961195</ele>
        <time>2021-05-02T09:27:37Z</time>
      </trkpt>
      <trkpt lat="46.41776" lon="0.30885">
        <ele>113.84601516742</ele>
        <time>2021-05-02T09:27:39Z</time>
      </trkpt>
      <trkpt lat="46.41778" lon="0.30887">
        <ele>113.40854252689</ele>
        <time>2021-05-02T09:27:41Z</time>
      </trkpt>
      <trkpt lat="46.4178" lon="0.3089">
        <ele>113.56636680849</ele>
        <time>2021-05-02T09:27:43Z</time>
      </trkpt>
      <trkpt lat="46.41781" lon="0.30894">
        <ele>113.8386865072</ele>
        <time>2021-05-02T09:27:45Z</time>
      </trkpt>
      <trkpt lat="46.41781" lon="0.30897">
        <ele>113.77156678308</ele>
        <time>2021-05-02T09:27:46Z</time>
      </trkpt>
      <trkpt lat="46.41781" lon="0.30899">
        <ele>113.61216138676</ele>
        <time>2021-05-02T09:27:48Z</time>
      </trkpt>
      <trkpt lat="46.41781" lon="0.30902">
        <ele>113.33007829916</ele>
        <time>2021-05-02T09:27:50Z</time>
      </trkpt>
      <trkpt lat="46.41783" lon="0.30906">
        <ele>113.27385201026</ele>
        <time>2021-05-02T09:27:52Z</time>
      </trkpt>
      <trkpt lat="46.41784" lon="0.30909">
        <ele>112.94325817842</ele>
        <time>2021-05-02T09:27:54Z</time>
      </trkpt>
      <trkpt lat="46.41785" lon="0.30912">
        <ele>113.14154740423</ele>
        <time>2021-05-02T09:27:55Z</time>
      </trkpt>
      <trkpt lat="46.41785" lon="0.30914">
        <ele>112.98947475851</ele>
        <time>2021-05-02T09:27:57Z</time>
      </trkpt>
      <trkpt lat="46.41787" lon="0.30918">
        <ele>113.03409022745</ele>
        <time>2021-05-02T09:27:59Z</time>
      </trkpt>
      <trkpt lat="46.41788" lon="0.30922">
        <ele>112.99144729972</ele>
        <time>2021-05-02T09:28:01Z</time>
      </trkpt>
      <trkpt lat="46.41789" lon="0.30926">
        <ele>113.40718763694</ele>
        <time>2021-05-02T09:28:03Z</time>
      </trkpt>
      <trkpt lat="46.4179" lon="0.30928">
        <ele>112.56316012982</ele>
        <time>2021-05-02T09:28:05Z</time>
      </trkpt>
      <trkpt lat="46.41791" lon="0.30932">
        <ele>112.78831485007</ele>
        <time>2021-05-02T09:28:07Z</time>
      </trkpt>
      <trkpt lat="46.41792" lon="0.30935">
        <ele>112.33495467715</ele>
        <time>2021-05-02T09:28:09Z</time>
      </trkpt>
      <trkpt lat="46.41793" lon="0.30937">
        <ele>112.47308333591</ele>
        <time>2021-05-02T09:28:10Z</time>
      </trkpt>
      <trkpt lat="46.41793" lon="0.30941">
        <ele>112.11241881084</ele>
        <time>2021-05-02T09:28:12Z</time>
      </trkpt>
      <trkpt lat="46.41794" lon="0.30943">
        <ele>112.23678436968</ele>
        <time>2021-05-02T09:28:14Z</time>
      </trkpt>
      <trkpt lat="46.41796" lon="0.30946">
        <ele>112.0493053114</ele>
        <time>2021-05-02T09:28:16Z</time>
      </trkpt>
      <trkpt lat="46.41797" lon="0.30948">
        <ele>111.32603227999</ele>
        <time>2021-05-02T09:28:18Z</time>
      </trkpt>
      <trkpt lat="46.41799" lon="0.30953">
        <ele>111.70365017466</ele>
        <time>2021-05-02T09:28:20Z</time>
      </trkpt>
      <trkpt lat="46.418" lon="0.30954">
        <ele>111.425685836</ele>
        <time>2021-05-02T09:28:22Z</time>
      </trkpt>
      <trkpt lat="46.41802" lon="0.30957">
        <ele>111.70892086159</ele>
        <time>2021-05-02T09:28:24Z</time>
      </trkpt>
      <trkpt lat="46.41803" lon="0.30959">
        <ele>111.23326672986</ele>
        <time>2021-05-02T09:28:26Z</time>
      </trkpt>
      <trkpt lat="46.41805" lon="0.30962">
        <ele>111.09472689498</ele>
        <time>2021-05-02T09:28:28Z</time>
      </trkpt>
      <trkpt lat="46.41806" lon="0.30966">
        <ele>111.18944321759</ele>
        <time>2021-05-02T09:28:31Z</time>
      </trkpt>
      <trkpt lat="46.41807" lon="0.30969">
        <ele>111.21982990764</ele>
        <time>2021-05-02T09:28:33Z</time>
      </trkpt>
      <trkpt lat="46.41809" lon="0.30971">
        <ele>110.59396388475</ele>
        <time>2021-05-02T09:28:35Z</time>
      </trkpt>
      <trkpt lat="46.4181" lon="0.30974">
        <ele>110.94253183994</ele>
        <time>2021-05-02T09:28:37Z</time>
      </trkpt>
      <trkpt lat="46.41812" lon="0.30976">
        <ele>110.48014488444</ele>
        <time>2021-05-02T09:28:39Z</time>
      </trkpt>
      <trkpt lat="46.41813" lon="0.30978">
        <ele>110.15681643225</ele>
        <time>2021-05-02T09:28:41Z</time>
      </trkpt>
      <trkpt lat="46.41814" lon="0.30981">
        <ele>110.45514820144</ele>
        <time>2021-05-02T09:28:43Z</time>
      </trkpt>
      <trkpt lat="46.41816" lon="0.30982">
        <ele>109.77110140864</ele>
        <time>2021-05-02T09:28:45Z</time>
      </trkpt>
      <trkpt lat="46.41818" lon="0.30985">
        <ele>109.63457247335</ele>
        <time>2021-05-02T09:28:47Z</time>
      </trkpt>
      <trkpt lat="46.41819" lon="0.30988">
        <ele>109.42667931132</ele>
        <time>2021-05-02T09:28:49Z</time>
      </trkpt>
      <trkpt lat="46.41821" lon="0.30991">
        <ele>109.66317129694</ele>
        <time>2021-05-02T09:28:51Z</time>
      </trkpt>
      <trkpt lat="46.41823" lon="0.30993">
        <ele>109.03602108452</ele>
        <time>2021-05-02T09:28:53Z</time>
      </trkpt>
      <trkpt lat="46.41824" lon="0.30996">
        <ele>108.57886206824</ele>
        <time>2021-05-02T09:28:55Z</time>
      </trkpt>
      <trkpt lat="46.41826" lon="0.30999">
        <ele>108.96253477223</ele>
        <time>2021-05-02T09:28:58Z</time>
      </trkpt>
      <trkpt lat="46.41827" lon="0.31002">
        <ele>108.36477314029</ele>
        <time>2021-05-02T09:29:00Z</time>
      </trkpt>
      <trkpt lat="46.41829" lon="0.31004">
        <ele>108.18163528852</ele>
        <time>2021-05-02T09:29:02Z</time>
      </trkpt>
      <trkpt lat="46.4183" lon="0.31006">
        <ele>107.6970445523</ele>
        <time>2021-05-02T09:29:04Z</time>
      </trkpt>
      <trkpt lat="46.41831" lon="0.31009">
        <ele>107.99155521486</ele>
        <time>2021-05-02T09:29:06Z</time>
      </trkpt>
      <trkpt lat="46.41833" lon="0.3101">
        <ele>106.99705881625</ele>
        <time>2021-05-02T09:29:08Z</time>
      </trkpt>
      <trkpt lat="46.41834" lon="0.31013">
        <ele>107.4605879942</ele>
        <time>2021-05-02T09:29:10Z</time>
      </trkpt>
      <trkpt lat="46.41836" lon="0.31016">
        <ele>106.90589528345</ele>
        <time>2021-05-02T09:29:12Z</time>
      </trkpt>
      <trkpt lat="46.41837" lon="0.31018">
        <ele>107.40991850197</ele>
        <time>2021-05-02T09:29:14Z</time>
      </trkpt>
      <trkpt lat="46.41839" lon="0.3102">
        <ele>106.47968738806</ele>
        <time>2021-05-02T09:29:16Z</time>
      </trkpt>
      <trkpt lat="46.4184" lon="0.31022">
        <ele>106.29431233648</ele>
        <time>2021-05-02T09:29:18Z</time>
      </trkpt>
      <trkpt lat="46.41842" lon="0.31025">
        <ele>105.86261869874</ele>
        <time>2021-05-02T09:29:20Z</time>
      </trkpt>
      <trkpt lat="46.41843" lon="0.31027">
        <ele>105.44832893275</ele>
        <time>2021-05-02T09:29:22Z</time>
      </trkpt>
      <trkpt lat="46.41845" lon="0.3103">
        <ele>105.56899162382</ele>
        <time>2021-05-02T09:29:24Z</time>
      </trkpt>
      <trkpt lat="46.41847" lon="0.31032">
        <ele>105.24554587062</ele>
        <time>2021-05-02T09:29:26Z</time>
      </trkpt>
      <trkpt lat="46.41849" lon="0.31034">
        <ele>104.56252255756</ele>
        <time>2021-05-02T09:29:28Z</time>
      </trkpt>
      <trkpt lat="46.41851" lon="0.31036">
        <ele>104.85599971563</ele>
        <time>2021-05-02T09:29:30Z</time>
      </trkpt>
      <trkpt lat="46.41853" lon="0.31038">
        <ele>104.40787286032</ele>
        <time>2021-05-02T09:29:32Z</time>
      </trkpt>
      <trkpt lat="46.41855" lon="0.3104">
        <ele>103.82041683793</ele>
        <time>2021-05-02T09:29:34Z</time>
      </trkpt>
      <trkpt lat="46.41857" lon="0.31041">
        <ele>103.60053913016</ele>
        <time>2021-05-02T09:29:36Z</time>
      </trkpt>
      <trkpt lat="46.41859" lon="0.31043">
        <ele>103.58655375801</ele>
        <time>2021-05-02T09:29:38Z</time>
      </trkpt>
      <trkpt lat="46.41861" lon="0.31045">
        <ele>103.54027651995</ele>
        <time>2021-05-02T09:29:40Z</time>
      </trkpt>
      <trkpt lat="46.41863" lon="0.31046">
        <ele>102.79506556597</ele>
        <time>2021-05-02T09:29:42Z</time>
      </trkpt>
      <trkpt lat="46.41865" lon="0.31047">
        <ele>102.88074602745</ele>
        <time>2021-05-02T09:29:44Z</time>
      </trkpt>
      <trkpt lat="46.41867" lon="0.31049">
        <ele>102.80266556051</ele>
        <time>2021-05-02T09:29:46Z</time>
      </trkpt>
      <trkpt lat="46.41869" lon="0.31051">
        <ele>102.63049057312</ele>
        <time>2021-05-02T09:29:48Z</time>
      </trkpt>
      <trkpt lat="46.4187" lon="0.31052">
        <ele>102.21789269056</ele>
        <time>2021-05-02T09:29:50Z</time>
      </trkpt>
      <trkpt lat="46.41872" lon="0.31053">
        <ele>102.35018856544</ele>
        <time>2021-05-02T09:29:52Z</time>
      </trkpt>
      <trkpt lat="46.41874" lon="0.31055">
        <ele>102.01704955846</ele>
        <time>2021-05-02T09:29:54Z</time>
      </trkpt>
      <trkpt lat="46.41875" lon="0.31057">
        <ele>101.53825350106</ele>
        <time>2021-05-02T09:29:56Z</time>
      </trkpt>
      <trkpt lat="46.41874" lon="0.31061">
        <ele>100.96243201662</ele>
        <time>2021-05-02T09:29:59Z</time>
      </trkpt>
      <trkpt lat="46.41872" lon="0.31064">
        <ele>100.84821064863</ele>
        <time>2021-05-02T09:30:02Z</time>
      </trkpt>
      <trkpt lat="46.4187" lon="0.31066">
        <ele>100.92627767846</ele>
        <time>2021-05-02T09:30:04Z</time>
      </trkpt>
      <trkpt lat="46.41868" lon="0.31067">
        <ele>100.77078865562</ele>
        <time>2021-05-02T09:30:06Z</time>
      </trkpt>
      <trkpt lat="46.41866" lon="0.31069">
        <ele>100.65348546859</ele>
        <time>2021-05-02T09:30:08Z</time>
      </trkpt>
      <trkpt lat="46.41864" lon="0.31071">
        <ele>100.87780101597</ele>
        <time>2021-05-02T09:30:10Z</time>
      </trkpt>
      <trkpt lat="46.41861" lon="0.31072">
        <ele>100.31223069504</ele>
        <time>2021-05-02T09:30:12Z</time>
      </trkpt>
      <trkpt lat="46.41859" lon="0.31073">
        <ele>99.716951915063</ele>
        <time>2021-05-02T09:30:15Z</time>
      </trkpt>
      <trkpt lat="46.41856" lon="0.31074">
        <ele>99.622574930079</ele>
        <time>2021-05-02T09:30:18Z</time>
      </trkpt>
      <trkpt lat="46.41855" lon="0.31076">
        <ele>99.931639147922</ele>
        <time>2021-05-02T09:30:20Z</time>
      </trkpt>
      <trkpt lat="46.41853" lon="0.31078">
        <ele>99.200297696516</ele>
        <time>2021-05-02T09:30:22Z</time>
      </trkpt>
      <trkpt lat="46.41851" lon="0.31081">
        <ele>99.063771494664</ele>
        <time>2021-05-02T09:30:24Z</time>
      </trkpt>
      <trkpt lat="46.41848" lon="0.31084">
        <ele>98.605500759557</ele>
        <time>2021-05-02T09:30:27Z</time>
      </trkpt>
      <trkpt lat="46.41846" lon="0.31087">
        <ele>98.772074528039</ele>
        <time>2021-05-02T09:30:29Z</time>
      </trkpt>
      <trkpt lat="46.41844" lon="0.3109">
        <ele>97.71539501287</ele>
        <time>2021-05-02T09:30:31Z</time>
      </trkpt>
      <trkpt lat="46.41842" lon="0.31091">
        <ele>98.036507759243</ele>
        <time>2021-05-02T09:30:32Z</time>
      </trkpt>
      <trkpt lat="46.4184" lon="0.31094">
        <ele>97.719747963361</ele>
        <time>2021-05-02T09:30:34Z</time>
      </trkpt>
      <trkpt lat="46.41838" lon="0.31095">
        <ele>97.706659224816</ele>
        <time>2021-05-02T09:30:36Z</time>
      </trkpt>
      <trkpt lat="46.41835" lon="0.31098">
        <ele>97.234858393669</ele>
        <time>2021-05-02T09:30:39Z</time>
      </trkpt>
      <trkpt lat="46.41833" lon="0.311">
        <ele>97.40743376594</ele>
        <time>2021-05-02T09:30:41Z</time>
      </trkpt>
      <trkpt lat="46.41831" lon="0.31101">
        <ele>96.651554327458</ele>
        <time>2021-05-02T09:30:43Z</time>
      </trkpt>
      <trkpt lat="46.4183" lon="0.31103">
        <ele>96.667157684453</ele>
        <time>2021-05-02T09:30:45Z</time>
      </trkpt>
      <trkpt lat="46.41828" lon="0.31105">
        <ele>96.402717158198</ele>
        <time>2021-05-02T09:30:47Z</time>
      </trkpt>
      <trkpt lat="46.41825" lon="0.31108">
        <ele>96.355737504549</ele>
        <time>2021-05-02T09:30:49Z</time>
      </trkpt>
      <trkpt lat="46.41824" lon="0.3111">
        <ele>95.863697201945</ele>
        <time>2021-05-02T09:30:51Z</time>
      </trkpt>
      <trkpt lat="46.41821" lon="0.31112">
        <ele>95.714657627046</ele>
        <time>2021-05-02T09:30:53Z</time>
      </trkpt>
      <trkpt lat="46.4182" lon="0.31114">
        <ele>96.204657592811</ele>
        <time>2021-05-02T09:30:55Z</time>
      </trkpt>
      <trkpt lat="46.41818" lon="0.31116">
        <ele>95.726723689586</ele>
        <time>2021-05-02T09:30:57Z</time>
      </trkpt>
      <trkpt lat="46.41816" lon="0.31119">
        <ele>95.108913612552</ele>
        <time>2021-05-02T09:31:00Z</time>
      </trkpt>
      <trkpt lat="46.41815" lon="0.31121">
        <ele>94.856433526613</ele>
        <time>2021-05-02T09:31:02Z</time>
      </trkpt>
      <trkpt lat="46.41813" lon="0.31124">
        <ele>94.645687511191</ele>
        <time>2021-05-02T09:31:04Z</time>
      </trkpt>
      <trkpt lat="46.41812" lon="0.31127">
        <ele>95.074687910266</ele>
        <time>2021-05-02T09:31:06Z</time>
      </trkpt>
      <trkpt lat="46.4181" lon="0.3113">
        <ele>94.911957158707</ele>
        <time>2021-05-02T09:31:08Z</time>
      </trkpt>
      <trkpt lat="46.41809" lon="0.31132">
        <ele>94.817759878933</ele>
        <time>2021-05-02T09:31:10Z</time>
      </trkpt>
      <trkpt lat="46.41807" lon="0.31136">
        <ele>94.891935994849</ele>
        <time>2021-05-02T09:31:12Z</time>
      </trkpt>
      <trkpt lat="46.41805" lon="0.31139">
        <ele>94.281715123914</ele>
        <time>2021-05-02T09:31:14Z</time>
      </trkpt>
      <trkpt lat="46.41804" lon="0.31143">
        <ele>94.307171478868</ele>
        <time>2021-05-02T09:31:16Z</time>
      </trkpt>
      <trkpt lat="46.41802" lon="0.31146">
        <ele>95.02181201335</ele>
        <time>2021-05-02T09:31:18Z</time>
      </trkpt>
      <trkpt lat="46.41801" lon="0.31149">
        <ele>94.568645937368</ele>
        <time>2021-05-02T09:31:20Z</time>
      </trkpt>
      <trkpt lat="46.418" lon="0.31151">
        <ele>93.946678310633</ele>
        <time>2021-05-02T09:31:22Z</time>
      </trkpt>
      <trkpt lat="46.41799" lon="0.31155">
        <ele>94.663260522299</ele>
        <time>2021-05-02T09:31:25Z</time>
      </trkpt>
      <trkpt lat="46.41797" lon="0.31158">
        <ele>94.840049450286</ele>
        <time>2021-05-02T09:31:27Z</time>
      </trkpt>
      <trkpt lat="46.41795" lon="0.31161">
        <ele>94.278866776265</ele>
        <time>2021-05-02T09:31:29Z</time>
      </trkpt>
      <trkpt lat="46.41794" lon="0.31165">
        <ele>94.074463952333</ele>
        <time>2021-05-02T09:31:31Z</time>
      </trkpt>
      <trkpt lat="46.41792" lon="0.31169">
        <ele>93.68649844639</ele>
        <time>2021-05-02T09:31:33Z</time>
      </trkpt>
      <trkpt lat="46.4179" lon="0.31173">
        <ele>93.60332492739</ele>
        <time>2021-05-02T09:31:35Z</time>
      </trkpt>
      <trkpt lat="46.41789" lon="0.31176">
        <ele>93.974659844302</ele>
        <time>2021-05-02T09:31:37Z</time>
      </trkpt>
      <trkpt lat="46.41788" lon="0.31178">
        <ele>93.748750976287</ele>
        <time>2021-05-02T09:31:39Z</time>
      </trkpt>
      <trkpt lat="46.41787" lon="0.31181">
        <ele>93.043964872137</ele>
        <time>2021-05-02T09:31:41Z</time>
      </trkpt>
      <trkpt lat="46.41786" lon="0.31184">
        <ele>92.923676371574</ele>
        <time>2021-05-02T09:31:43Z</time>
      </trkpt>
      <trkpt lat="46.41784" lon="0.31187">
        <ele>93.152800226584</ele>
        <time>2021-05-02T09:31:46Z</time>
      </trkpt>
      <trkpt lat="46.41783" lon="0.3119">
        <ele>93.150543405674</ele>
        <time>2021-05-02T09:31:48Z</time>
      </trkpt>
      <trkpt lat="46.41783" lon="0.31193">
        <ele>93.486624053679</ele>
        <time>2021-05-02T09:31:50Z</time>
      </trkpt>
      <trkpt lat="46.41782" lon="0.31196">
        <ele>93.158932281658</ele>
        <time>2021-05-02T09:31:52Z</time>
      </trkpt>
      <trkpt lat="46.4178" lon="0.31198">
        <ele>92.625962102786</ele>
        <time>2021-05-02T09:31:54Z</time>
      </trkpt>
      <trkpt lat="46.41779" lon="0.312">
        <ele>92.747202835046</ele>
        <time>2021-05-02T09:31:56Z</time>
      </trkpt>
      <trkpt lat="46.41778" lon="0.31202">
        <ele>92.914850173518</ele>
        <time>2021-05-02T09:31:58Z</time>
      </trkpt>
      <trkpt lat="46.41776" lon="0.31205">
        <ele>93.617419727147</ele>
        <time>2021-05-02T09:32:01Z</time>
      </trkpt>
      <trkpt lat="46.41774" lon="0.31209">
        <ele>93.321926335804</ele>
        <time>2021-05-02T09:32:03Z</time>
      </trkpt>
      <trkpt lat="46.41772" lon="0.31212">
        <ele>93.158868166618</ele>
        <time>2021-05-02T09:32:05Z</time>
      </trkpt>
      <trkpt lat="46.4177" lon="0.31215">
        <ele>93.455181361176</ele>
        <time>2021-05-02T09:32:07Z</time>
      </trkpt>
      <trkpt lat="46.41769" lon="0.31217">
        <ele>93.241610218771</ele>
        <time>2021-05-02T09:32:08Z</time>
      </trkpt>
      <trkpt lat="46.41768" lon="0.3122">
        <ele>93.557156501338</ele>
        <time>2021-05-02T09:32:09Z</time>
      </trkpt>
      <trkpt lat="46.41767" lon="0.31223">
        <ele>93.790929638781</ele>
        <time>2021-05-02T09:32:11Z</time>
      </trkpt>
      <trkpt lat="46.41765" lon="0.31227">
        <ele>93.428865856491</ele>
        <time>2021-05-02T09:32:13Z</time>
      </trkpt>
      <trkpt lat="46.41764" lon="0.3123">
        <ele>93.240737962537</ele>
        <time>2021-05-02T09:32:15Z</time>
      </trkpt>
      <trkpt lat="46.41763" lon="0.31233">
        <ele>93.248421524651</ele>
        <time>2021-05-02T09:32:16Z</time>
      </trkpt>
      <trkpt lat="46.41762" lon="0.31237">
        <ele>93.657112611458</ele>
        <time>2021-05-02T09:32:18Z</time>
      </trkpt>
      <trkpt lat="46.4176" lon="0.31241">
        <ele>94.097016126849</ele>
        <time>2021-05-02T09:32:20Z</time>
      </trkpt>
      <trkpt lat="46.41758" lon="0.31244">
        <ele>94.780502500944</ele>
        <time>2021-05-02T09:32:22Z</time>
      </trkpt>
      <trkpt lat="46.41757" lon="0.31247">
        <ele>94.388224042952</ele>
        <time>2021-05-02T09:32:24Z</time>
      </trkpt>
      <trkpt lat="46.41756" lon="0.3125">
        <ele>93.943682677113</ele>
        <time>2021-05-02T09:32:26Z</time>
      </trkpt>
      <trkpt lat="46.41755" lon="0.31253">
        <ele>94.387479300611</ele>
        <time>2021-05-02T09:32:28Z</time>
      </trkpt>
      <trkpt lat="46.41754" lon="0.31257">
        <ele>94.645834142342</ele>
        <time>2021-05-02T09:32:31Z</time>
      </trkpt>
      <trkpt lat="46.41753" lon="0.31259">
        <ele>94.761806979775</ele>
        <time>2021-05-02T09:32:35Z</time>
      </trkpt>
      <trkpt lat="46.41751" lon="0.31262">
        <ele>94.866117867641</ele>
        <time>2021-05-02T09:32:38Z</time>
      </trkpt>
      <trkpt lat="46.41749" lon="0.31264">
        <ele>94.865922285244</ele>
        <time>2021-05-02T09:32:40Z</time>
      </trkpt>
      <trkpt lat="46.41748" lon="0.31267">
        <ele>95.299423934892</ele>
        <time>2021-05-02T09:32:42Z</time>
      </trkpt>
      <trkpt lat="46.41746" lon="0.3127">
        <ele>95.588176506571</ele>
        <time>2021-05-02T09:32:44Z</time>
      </trkpt>
      <trkpt lat="46.41745" lon="0.31274">
        <ele>96.053160719573</ele>
        <time>2021-05-02T09:32:46Z</time>
      </trkpt>
      <trkpt lat="46.41744" lon="0.31278">
        <ele>95.69599861186</ele>
        <time>2021-05-02T09:32:48Z</time>
      </trkpt>
      <trkpt lat="46.41741" lon="0.31281">
        <ele>96.072042839602</ele>
        <time>2021-05-02T09:32:50Z</time>
      </trkpt>
      <trkpt lat="46.4174" lon="0.31284">
        <ele>96.368712608702</ele>
        <time>2021-05-02T09:32:51Z</time>
      </trkpt>
      <trkpt lat="46.41738" lon="0.31285">
        <ele>96.808511629701</ele>
        <time>2021-05-02T09:32:53Z</time>
      </trkpt>
      <trkpt lat="46.41735" lon="0.31285">
        <ele>96.978904542513</ele>
        <time>2021-05-02T09:32:57Z</time>
      </trkpt>
      <trkpt lat="46.41732" lon="0.31284">
        <ele>97.228308060206</ele>
        <time>2021-05-02T09:33:00Z</time>
      </trkpt>
      <trkpt lat="46.41729" lon="0.31282">
        <ele>97.304124803282</ele>
        <time>2021-05-02T09:33:03Z</time>
      </trkpt>
      <trkpt lat="46.41728" lon="0.31278">
        <ele>97.618590055034</ele>
        <time>2021-05-02T09:33:06Z</time>
      </trkpt>
      <trkpt lat="46.41727" lon="0.31275">
        <ele>97.268350067548</ele>
        <time>2021-05-02T09:33:08Z</time>
      </trkpt>
      <trkpt lat="46.41726" lon="0.31273">
        <ele>97.657878640108</ele>
        <time>2021-05-02T09:33:10Z</time>
      </trkpt>
      <trkpt lat="46.41724" lon="0.3127">
        <ele>97.431983710267</ele>
        <time>2021-05-02T09:33:13Z</time>
      </trkpt>
      <trkpt lat="46.41723" lon="0.31266">
        <ele>97.88175717555</ele>
        <time>2021-05-02T09:33:16Z</time>
      </trkpt>
      <trkpt lat="46.41721" lon="0.31263">
        <ele>97.511100222357</ele>
        <time>2021-05-02T09:33:18Z</time>
      </trkpt>
      <trkpt lat="46.41718" lon="0.3126">
        <ele>97.623951954767</ele>
        <time>2021-05-02T09:33:20Z</time>
      </trkpt>
      <trkpt lat="46.41716" lon="0.31256">
        <ele>97.732078044675</ele>
        <time>2021-05-02T09:33:22Z</time>
      </trkpt>
      <trkpt lat="46.41715" lon="0.31253">
        <ele>98.161966182292</ele>
        <time>2021-05-02T09:33:24Z</time>
      </trkpt>
      <trkpt lat="46.41713" lon="0.31251">
        <ele>97.560928245075</ele>
        <time>2021-05-02T09:33:26Z</time>
      </trkpt>
      <trkpt lat="46.41712" lon="0.31249">
        <ele>97.525882001966</ele>
        <time>2021-05-02T09:33:28Z</time>
      </trkpt>
      <trkpt lat="46.41709" lon="0.31245">
        <ele>97.336800956167</ele>
        <time>2021-05-02T09:33:30Z</time>
      </trkpt>
      <trkpt lat="46.41708" lon="0.31242">
        <ele>97.559319619089</ele>
        <time>2021-05-02T09:33:32Z</time>
      </trkpt>
      <trkpt lat="46.41708" lon="0.31238">
        <ele>97.734609335661</ele>
        <time>2021-05-02T09:33:34Z</time>
      </trkpt>
      <trkpt lat="46.41706" lon="0.31237">
        <ele>97.108421326615</ele>
        <time>2021-05-02T09:33:36Z</time>
      </trkpt>
      <trkpt lat="46.41704" lon="0.31234">
        <ele>98.114770751446</ele>
        <time>2021-05-02T09:33:39Z</time>
      </trkpt>
      <trkpt lat="46.41703" lon="0.31232">
        <ele>98.029433177784</ele>
        <time>2021-05-02T09:33:41Z</time>
      </trkpt>
      <trkpt lat="46.417" lon="0.31228">
        <ele>97.70030492451</ele>
        <time>2021-05-02T09:33:43Z</time>
      </trkpt>
      <trkpt lat="46.41699" lon="0.31226">
        <ele>97.812246954069</ele>
        <time>2021-05-02T09:33:44Z</time>
      </trkpt>
      <trkpt lat="46.41697" lon="0.31224">
        <ele>97.842141315341</ele>
        <time>2021-05-02T09:33:45Z</time>
      </trkpt>
      <trkpt lat="46.41697" lon="0.3122">
        <ele>98.28333007358</ele>
        <time>2021-05-02T09:33:48Z</time>
      </trkpt>
      <trkpt lat="46.41697" lon="0.31216">
        <ele>97.60764086619</ele>
        <time>2021-05-02T09:33:50Z</time>
      </trkpt>
      <trkpt lat="46.41695" lon="0.31214">
        <ele>97.397043387406</ele>
        <time>2021-05-02T09:33:53Z</time>
      </trkpt>
      <trkpt lat="46.41693" lon="0.31211">
        <ele>97.901965709403</ele>
        <time>2021-05-02T09:33:55Z</time>
      </trkpt>
      <trkpt lat="46.41691" lon="0.31208">
        <ele>97.528503537178</ele>
        <time>2021-05-02T09:33:57Z</time>
      </trkpt>
      <trkpt lat="46.41688" lon="0.31209">
        <ele>97.513618079945</ele>
        <time>2021-05-02T09:33:59Z</time>
      </trkpt>
      <trkpt lat="46.41686" lon="0.3121">
        <ele>97.78693524655</ele>
        <time>2021-05-02T09:34:01Z</time>
      </trkpt>
      <trkpt lat="46.41683" lon="0.31211">
        <ele>98.419494340196</ele>
        <time>2021-05-02T09:34:03Z</time>
      </trkpt>
      <trkpt lat="46.41681" lon="0.31213">
        <ele>98.435217973776</ele>
        <time>2021-05-02T09:34:05Z</time>
      </trkpt>
      <trkpt lat="46.41679" lon="0.31214">
        <ele>98.670908468775</ele>
        <time>2021-05-02T09:34:08Z</time>
      </trkpt>
      <trkpt lat="46.41677" lon="0.31216">
        <ele>98.959466362372</ele>
        <time>2021-05-02T09:34:11Z</time>
      </trkpt>
      <trkpt lat="46.41674" lon="0.31218">
        <ele>99.453278598376</ele>
        <time>2021-05-02T09:34:13Z</time>
      </trkpt>
      <trkpt lat="46.41672" lon="0.31219">
        <ele>99.632425840944</ele>
        <time>2021-05-02T09:34:15Z</time>
      </trkpt>
      <trkpt lat="46.41669" lon="0.3122">
        <ele>100.17728783097</ele>
        <time>2021-05-02T09:34:17Z</time>
      </trkpt>
      <trkpt lat="46.41667" lon="0.31219">
        <ele>100.17229673546</ele>
        <time>2021-05-02T09:34:21Z</time>
      </trkpt>
      <trkpt lat="46.41665" lon="0.31217">
        <ele>100.23404610716</ele>
        <time>2021-05-02T09:34:24Z</time>
      </trkpt>
      <trkpt lat="46.41663" lon="0.31214">
        <ele>100.1914102938</ele>
        <time>2021-05-02T09:34:27Z</time>
      </trkpt>
      <trkpt lat="46.4166" lon="0.31212">
        <ele>100.15021543298</ele>
        <time>2021-05-02T09:34:30Z</time>
      </trkpt>
      <trkpt lat="46.41659" lon="0.3121">
        <ele>100.06737711746</ele>
        <time>2021-05-02T09:34:32Z</time>
      </trkpt>
      <trkpt lat="46.41656" lon="0.31209">
        <ele>99.869649388827</ele>
        <time>2021-05-02T09:34:35Z</time>
      </trkpt>
      <trkpt lat="46.41654" lon="0.31209">
        <ele>99.627843191847</ele>
        <time>2021-05-02T09:34:37Z</time>
      </trkpt>
      <trkpt lat="46.41651" lon="0.31208">
        <ele>99.838229078799</ele>
        <time>2021-05-02T09:34:40Z</time>
      </trkpt>
      <trkpt lat="46.41649" lon="0.31208">
        <ele>99.994082830846</ele>
        <time>2021-05-02T09:34:42Z</time>
      </trkpt>
      <trkpt lat="46.41647" lon="0.31207">
        <ele>100.25660296157</ele>
        <time>2021-05-02T09:34:44Z</time>
      </trkpt>
      <trkpt lat="46.41645" lon="0.31206">
        <ele>99.998970531859</ele>
        <time>2021-05-02T09:34:46Z</time>
      </trkpt>
      <trkpt lat="46.41643" lon="0.31204">
        <ele>100.68264622893</ele>
        <time>2021-05-02T09:34:48Z</time>
      </trkpt>
      <trkpt lat="46.41642" lon="0.31201">
        <ele>100.16557611339</ele>
        <time>2021-05-02T09:34:51Z</time>
      </trkpt>
      <trkpt lat="46.41642" lon="0.31198">
        <ele>99.912915264256</ele>
        <time>2021-05-02T09:34:55Z</time>
      </trkpt>
      <trkpt lat="46.41642" lon="0.31194">
        <ele>99.602599652484</ele>
        <time>2021-05-02T09:34:57Z</time>
      </trkpt>
      <trkpt lat="46.41641" lon="0.31191">
        <ele>99.662736940198</ele>
        <time>2021-05-02T09:35:00Z</time>
      </trkpt>
      <trkpt lat="46.4164" lon="0.31189">
        <ele>99.224385149777</ele>
        <time>2021-05-02T09:35:02Z</time>
      </trkpt>
      <trkpt lat="46.41638" lon="0.31186">
        <ele>99.387992429547</ele>
        <time>2021-05-02T09:35:04Z</time>
      </trkpt>
      <trkpt lat="46.41637" lon="0.31185">
        <ele>99.193623525091</ele>
        <time>2021-05-02T09:35:05Z</time>
      </trkpt>
      <trkpt lat="46.41634" lon="0.31185">
        <ele>99.533277488314</ele>
        <time>2021-05-02T09:35:24Z</time>
      </trkpt>
      <trkpt lat="46.41635" lon="0.31186">
        <ele>99.823384403251</ele>
        <time>2021-05-02T09:35:28Z</time>
      </trkpt>
      <trkpt lat="46.41637" lon="0.31186">
        <ele>99.780976363458</ele>
        <time>2021-05-02T09:35:31Z</time>
      </trkpt>
      <trkpt lat="46.4164" lon="0.31186">
        <ele>99.591807411984</ele>
        <time>2021-05-02T09:35:35Z</time>
      </trkpt>
      <trkpt lat="46.41638" lon="0.31185">
        <ele>99.506614858285</ele>
        <time>2021-05-02T09:35:59Z</time>
      </trkpt>
      <trkpt lat="46.41639" lon="0.31182">
        <ele>98.922471226193</ele>
        <time>2021-05-02T09:36:07Z</time>
      </trkpt>
      <trkpt lat="46.41641" lon="0.31179">
        <ele>99.054793803021</ele>
        <time>2021-05-02T09:36:09Z</time>
      </trkpt>
      <trkpt lat="46.41639" lon="0.31178">
        <ele>99.044500394724</ele>
        <time>2021-05-02T09:36:17Z</time>
      </trkpt>
      <trkpt lat="46.41637" lon="0.31179">
        <ele>99.092061988078</ele>
        <time>2021-05-02T09:36:50Z</time>
      </trkpt>
    </trkseg>
  </trk>
</gpx>